<?xml version="1.0" encoding="UTF-8" standalone="no" ?>
<gpx xmlns="http://www.topografix.com/GPX/1/1" xmlns:xsi="http://www.w3.org/2001/XMLSchema-instance" xsi:schemaLocation="http://www.topografix.com/GPX/1/1 http://www.topografix.com/GPX/1/1/gpx.xsd" version="1.1" creator="VisuGPX - https://www.visugpx.com">
  <metadata>
    <name>Pornichet 09/05/2021</name>
    <desc><![CDATA[Sortie VTT du dimanche 09 mai 2021]]></desc>
  </metadata>
  <trk>
    <name><![CDATA[Pornichet Cyclisme]]></name>
    <trkseg>
      <trkpt lat="47.26416" lon="-2.31552">
        <ele>15.39999961853</ele>
        <time>2021-05-09T07:14:09.000Z</time>
      </trkpt>
      <trkpt lat="47.26416" lon="-2.31552">
        <ele>15.39999961853</ele>
        <time>2021-05-09T07:14:10.000Z</time>
      </trkpt>
      <trkpt lat="47.26407" lon="-2.31554">
        <ele>15.39999961853</ele>
        <time>2021-05-09T07:14:17.000Z</time>
      </trkpt>
      <trkpt lat="47.26406" lon="-2.31556">
        <ele>15.39999961853</ele>
        <time>2021-05-09T07:14:21.000Z</time>
      </trkpt>
      <trkpt lat="47.26405" lon="-2.31562">
        <ele>15.39999961853</ele>
        <time>2021-05-09T07:14:23.000Z</time>
      </trkpt>
      <trkpt lat="47.26406" lon="-2.31576">
        <ele>15.39999961853</ele>
        <time>2021-05-09T07:14:25.000Z</time>
      </trkpt>
      <trkpt lat="47.26407" lon="-2.31588">
        <ele>15.39999961853</ele>
        <time>2021-05-09T07:14:27.000Z</time>
      </trkpt>
      <trkpt lat="47.26408" lon="-2.31611">
        <ele>15.39999961853</ele>
        <time>2021-05-09T07:14:31.000Z</time>
      </trkpt>
      <trkpt lat="47.26408" lon="-2.31653">
        <ele>15.39999961853</ele>
        <time>2021-05-09T07:14:39.000Z</time>
      </trkpt>
      <trkpt lat="47.26405" lon="-2.31662">
        <ele>15.39999961853</ele>
        <time>2021-05-09T07:14:42.000Z</time>
      </trkpt>
      <trkpt lat="47.26403" lon="-2.31664">
        <ele>15.39999961853</ele>
        <time>2021-05-09T07:14:43.000Z</time>
      </trkpt>
      <trkpt lat="47.26385" lon="-2.31671">
        <ele>15.39999961853</ele>
        <time>2021-05-09T07:14:48.000Z</time>
      </trkpt>
      <trkpt lat="47.2636" lon="-2.3168">
        <ele>15.39999961853</ele>
        <time>2021-05-09T07:14:54.000Z</time>
      </trkpt>
      <trkpt lat="47.26342" lon="-2.31686">
        <ele>15</ele>
        <time>2021-05-09T07:14:58.000Z</time>
      </trkpt>
      <trkpt lat="47.26338" lon="-2.31687">
        <ele>14.39999961853</ele>
        <time>2021-05-09T07:14:59.000Z</time>
      </trkpt>
      <trkpt lat="47.26335" lon="-2.31689">
        <ele>14</ele>
        <time>2021-05-09T07:15:00.000Z</time>
      </trkpt>
      <trkpt lat="47.26333" lon="-2.31692">
        <ele>13.60000038147</ele>
        <time>2021-05-09T07:15:01.000Z</time>
      </trkpt>
      <trkpt lat="47.26331" lon="-2.31697">
        <ele>13.199999809265</ele>
        <time>2021-05-09T07:15:02.000Z</time>
      </trkpt>
      <trkpt lat="47.26326" lon="-2.31708">
        <ele>13.199999809265</ele>
        <time>2021-05-09T07:15:05.000Z</time>
      </trkpt>
      <trkpt lat="47.26321" lon="-2.31712">
        <ele>12.800000190735</ele>
        <time>2021-05-09T07:15:07.000Z</time>
      </trkpt>
      <trkpt lat="47.26319" lon="-2.31714">
        <ele>12.39999961853</ele>
        <time>2021-05-09T07:15:08.000Z</time>
      </trkpt>
      <trkpt lat="47.26317" lon="-2.31716">
        <ele>12</ele>
        <time>2021-05-09T07:15:09.000Z</time>
      </trkpt>
      <trkpt lat="47.26312" lon="-2.31718">
        <ele>11.199999809265</ele>
        <time>2021-05-09T07:15:10.000Z</time>
      </trkpt>
      <trkpt lat="47.26308" lon="-2.31721">
        <ele>11.199999809265</ele>
        <time>2021-05-09T07:15:11.000Z</time>
      </trkpt>
      <trkpt lat="47.26302" lon="-2.31731">
        <ele>11.199999809265</ele>
        <time>2021-05-09T07:15:13.000Z</time>
      </trkpt>
      <trkpt lat="47.26303" lon="-2.31743">
        <ele>11.199999809265</ele>
        <time>2021-05-09T07:15:15.000Z</time>
      </trkpt>
      <trkpt lat="47.26306" lon="-2.31783">
        <ele>11.199999809265</ele>
        <time>2021-05-09T07:15:21.000Z</time>
      </trkpt>
      <trkpt lat="47.26305" lon="-2.31821">
        <ele>11.199999809265</ele>
        <time>2021-05-09T07:15:27.000Z</time>
      </trkpt>
      <trkpt lat="47.26303" lon="-2.31847">
        <ele>11.199999809265</ele>
        <time>2021-05-09T07:15:31.000Z</time>
      </trkpt>
      <trkpt lat="47.26302" lon="-2.3186">
        <ele>11.199999809265</ele>
        <time>2021-05-09T07:15:33.000Z</time>
      </trkpt>
      <trkpt lat="47.26299" lon="-2.31893">
        <ele>11.199999809265</ele>
        <time>2021-05-09T07:15:38.000Z</time>
      </trkpt>
      <trkpt lat="47.26297" lon="-2.31898">
        <ele>11.199999809265</ele>
        <time>2021-05-09T07:15:39.000Z</time>
      </trkpt>
      <trkpt lat="47.26286" lon="-2.31912">
        <ele>11.199999809265</ele>
        <time>2021-05-09T07:15:43.000Z</time>
      </trkpt>
      <trkpt lat="47.26283" lon="-2.31916">
        <ele>11.199999809265</ele>
        <time>2021-05-09T07:15:44.000Z</time>
      </trkpt>
      <trkpt lat="47.26269" lon="-2.31944">
        <ele>11.199999809265</ele>
        <time>2021-05-09T07:15:50.000Z</time>
      </trkpt>
      <trkpt lat="47.26254" lon="-2.31968">
        <ele>11.199999809265</ele>
        <time>2021-05-09T07:15:56.000Z</time>
      </trkpt>
      <trkpt lat="47.26252" lon="-2.31973">
        <ele>10.800000190735</ele>
        <time>2021-05-09T07:15:57.000Z</time>
      </trkpt>
      <trkpt lat="47.26249" lon="-2.31978">
        <ele>10.39999961853</ele>
        <time>2021-05-09T07:15:58.000Z</time>
      </trkpt>
      <trkpt lat="47.26247" lon="-2.31981">
        <ele>9.6000003814697</ele>
        <time>2021-05-09T07:15:59.000Z</time>
      </trkpt>
      <trkpt lat="47.26244" lon="-2.31983">
        <ele>9.1999998092651</ele>
        <time>2021-05-09T07:16:00.000Z</time>
      </trkpt>
      <trkpt lat="47.26242" lon="-2.31985">
        <ele>9.1999998092651</ele>
        <time>2021-05-09T07:16:01.000Z</time>
      </trkpt>
      <trkpt lat="47.26219" lon="-2.31994">
        <ele>9.1999998092651</ele>
        <time>2021-05-09T07:16:07.000Z</time>
      </trkpt>
      <trkpt lat="47.262" lon="-2.32008">
        <ele>9.1999998092651</ele>
        <time>2021-05-09T07:16:13.000Z</time>
      </trkpt>
      <trkpt lat="47.26199" lon="-2.32013">
        <ele>9.1999998092651</ele>
        <time>2021-05-09T07:16:14.000Z</time>
      </trkpt>
      <trkpt lat="47.26195" lon="-2.32023">
        <ele>9.1999998092651</ele>
        <time>2021-05-09T07:16:17.000Z</time>
      </trkpt>
      <trkpt lat="47.26186" lon="-2.32022">
        <ele>9.1999998092651</ele>
        <time>2021-05-09T07:16:21.000Z</time>
      </trkpt>
      <trkpt lat="47.26173" lon="-2.32026">
        <ele>9.1999998092651</ele>
        <time>2021-05-09T07:16:26.000Z</time>
      </trkpt>
      <trkpt lat="47.26159" lon="-2.32039">
        <ele>9.1999998092651</ele>
        <time>2021-05-09T07:16:31.000Z</time>
      </trkpt>
      <trkpt lat="47.26147" lon="-2.32075">
        <ele>9.1999998092651</ele>
        <time>2021-05-09T07:16:38.000Z</time>
      </trkpt>
      <trkpt lat="47.26139" lon="-2.32106">
        <ele>9.1999998092651</ele>
        <time>2021-05-09T07:16:44.000Z</time>
      </trkpt>
      <trkpt lat="47.2613" lon="-2.32132">
        <ele>9.1999998092651</ele>
        <time>2021-05-09T07:16:49.000Z</time>
      </trkpt>
      <trkpt lat="47.26128" lon="-2.32138">
        <ele>9.1999998092651</ele>
        <time>2021-05-09T07:16:50.000Z</time>
      </trkpt>
      <trkpt lat="47.26115" lon="-2.3217">
        <ele>9.1999998092651</ele>
        <time>2021-05-09T07:16:56.000Z</time>
      </trkpt>
      <trkpt lat="47.26102" lon="-2.32202">
        <ele>9.1999998092651</ele>
        <time>2021-05-09T07:17:02.000Z</time>
      </trkpt>
      <trkpt lat="47.26094" lon="-2.32217">
        <ele>9.1999998092651</ele>
        <time>2021-05-09T07:17:05.000Z</time>
      </trkpt>
      <trkpt lat="47.26083" lon="-2.32234">
        <ele>9.1999998092651</ele>
        <time>2021-05-09T07:17:09.000Z</time>
      </trkpt>
      <trkpt lat="47.26061" lon="-2.3226">
        <ele>9.1999998092651</ele>
        <time>2021-05-09T07:17:16.000Z</time>
      </trkpt>
      <trkpt lat="47.26035" lon="-2.32288">
        <ele>9.1999998092651</ele>
        <time>2021-05-09T07:17:23.000Z</time>
      </trkpt>
      <trkpt lat="47.26012" lon="-2.32316">
        <ele>9.1999998092651</ele>
        <time>2021-05-09T07:17:30.000Z</time>
      </trkpt>
      <trkpt lat="47.2598" lon="-2.32356">
        <ele>9.1999998092651</ele>
        <time>2021-05-09T07:17:39.000Z</time>
      </trkpt>
      <trkpt lat="47.25954" lon="-2.32389">
        <ele>9.1999998092651</ele>
        <time>2021-05-09T07:17:47.000Z</time>
      </trkpt>
      <trkpt lat="47.25935" lon="-2.32413">
        <ele>9.1999998092651</ele>
        <time>2021-05-09T07:17:54.000Z</time>
      </trkpt>
      <trkpt lat="47.25914" lon="-2.32441">
        <ele>9.1999998092651</ele>
        <time>2021-05-09T07:18:01.000Z</time>
      </trkpt>
      <trkpt lat="47.25888" lon="-2.32473">
        <ele>9.1999998092651</ele>
        <time>2021-05-09T07:18:10.000Z</time>
      </trkpt>
      <trkpt lat="47.25873" lon="-2.32477">
        <ele>9.1999998092651</ele>
        <time>2021-05-09T07:18:14.000Z</time>
      </trkpt>
      <trkpt lat="47.25868" lon="-2.32477">
        <ele>9.1999998092651</ele>
        <time>2021-05-09T07:18:15.000Z</time>
      </trkpt>
      <trkpt lat="47.2584" lon="-2.32475">
        <ele>9.1999998092651</ele>
        <time>2021-05-09T07:18:22.000Z</time>
      </trkpt>
      <trkpt lat="47.25812" lon="-2.32461">
        <ele>9.1999998092651</ele>
        <time>2021-05-09T07:18:29.000Z</time>
      </trkpt>
      <trkpt lat="47.25794" lon="-2.3246">
        <ele>9.1999998092651</ele>
        <time>2021-05-09T07:18:34.000Z</time>
      </trkpt>
      <trkpt lat="47.25779" lon="-2.32452">
        <ele>9.1999998092651</ele>
        <time>2021-05-09T07:18:39.000Z</time>
      </trkpt>
      <trkpt lat="47.25767" lon="-2.32432">
        <ele>9.1999998092651</ele>
        <time>2021-05-09T07:18:44.000Z</time>
      </trkpt>
      <trkpt lat="47.25752" lon="-2.32428">
        <ele>9.1999998092651</ele>
        <time>2021-05-09T07:18:48.000Z</time>
      </trkpt>
      <trkpt lat="47.25729" lon="-2.32428">
        <ele>9.1999998092651</ele>
        <time>2021-05-09T07:18:54.000Z</time>
      </trkpt>
      <trkpt lat="47.25727" lon="-2.32428">
        <ele>9.1999998092651</ele>
        <time>2021-05-09T07:18:57.000Z</time>
      </trkpt>
      <trkpt lat="47.25726" lon="-2.32428">
        <ele>9.1999998092651</ele>
        <time>2021-05-09T07:19:41.000Z</time>
      </trkpt>
      <trkpt lat="47.25711" lon="-2.32425">
        <ele>9.1999998092651</ele>
        <time>2021-05-09T07:19:47.000Z</time>
      </trkpt>
      <trkpt lat="47.25685" lon="-2.32421">
        <ele>9.1999998092651</ele>
        <time>2021-05-09T07:19:54.000Z</time>
      </trkpt>
      <trkpt lat="47.25668" lon="-2.32421">
        <ele>9.1999998092651</ele>
        <time>2021-05-09T07:19:59.000Z</time>
      </trkpt>
      <trkpt lat="47.2566" lon="-2.32436">
        <ele>9.1999998092651</ele>
        <time>2021-05-09T07:20:03.000Z</time>
      </trkpt>
      <trkpt lat="47.25665" lon="-2.32458">
        <ele>9.1999998092651</ele>
        <time>2021-05-09T07:20:07.000Z</time>
      </trkpt>
      <trkpt lat="47.25674" lon="-2.32488">
        <ele>9.6000003814697</ele>
        <time>2021-05-09T07:20:12.000Z</time>
      </trkpt>
      <trkpt lat="47.25676" lon="-2.32493">
        <ele>10</ele>
        <time>2021-05-09T07:20:13.000Z</time>
      </trkpt>
      <trkpt lat="47.25679" lon="-2.32499">
        <ele>10.39999961853</ele>
        <time>2021-05-09T07:20:14.000Z</time>
      </trkpt>
      <trkpt lat="47.25681" lon="-2.32504">
        <ele>10.800000190735</ele>
        <time>2021-05-09T07:20:15.000Z</time>
      </trkpt>
      <trkpt lat="47.25683" lon="-2.32509">
        <ele>11.39999961853</ele>
        <time>2021-05-09T07:20:16.000Z</time>
      </trkpt>
      <trkpt lat="47.25695" lon="-2.32547">
        <ele>11.39999961853</ele>
        <time>2021-05-09T07:20:23.000Z</time>
      </trkpt>
      <trkpt lat="47.25699" lon="-2.32559">
        <ele>11.800000190735</ele>
        <time>2021-05-09T07:20:25.000Z</time>
      </trkpt>
      <trkpt lat="47.25701" lon="-2.32565">
        <ele>12.199999809265</ele>
        <time>2021-05-09T07:20:26.000Z</time>
      </trkpt>
      <trkpt lat="47.25702" lon="-2.3257">
        <ele>12.60000038147</ele>
        <time>2021-05-09T07:20:27.000Z</time>
      </trkpt>
      <trkpt lat="47.25704" lon="-2.32575">
        <ele>13</ele>
        <time>2021-05-09T07:20:28.000Z</time>
      </trkpt>
      <trkpt lat="47.25705" lon="-2.3258">
        <ele>13.39999961853</ele>
        <time>2021-05-09T07:20:29.000Z</time>
      </trkpt>
      <trkpt lat="47.25708" lon="-2.3259">
        <ele>13.39999961853</ele>
        <time>2021-05-09T07:20:31.000Z</time>
      </trkpt>
      <trkpt lat="47.25709" lon="-2.32596">
        <ele>13.39999961853</ele>
        <time>2021-05-09T07:20:32.000Z</time>
      </trkpt>
      <trkpt lat="47.25714" lon="-2.32621">
        <ele>13.39999961853</ele>
        <time>2021-05-09T07:20:37.000Z</time>
      </trkpt>
      <trkpt lat="47.25705" lon="-2.32627">
        <ele>13.39999961853</ele>
        <time>2021-05-09T07:20:40.000Z</time>
      </trkpt>
      <trkpt lat="47.25701" lon="-2.32628">
        <ele>13.39999961853</ele>
        <time>2021-05-09T07:20:41.000Z</time>
      </trkpt>
      <trkpt lat="47.25681" lon="-2.32636">
        <ele>13.800000190735</ele>
        <time>2021-05-09T07:20:46.000Z</time>
      </trkpt>
      <trkpt lat="47.25677" lon="-2.32638">
        <ele>14.199999809265</ele>
        <time>2021-05-09T07:20:47.000Z</time>
      </trkpt>
      <trkpt lat="47.25673" lon="-2.3264">
        <ele>14.60000038147</ele>
        <time>2021-05-09T07:20:48.000Z</time>
      </trkpt>
      <trkpt lat="47.25668" lon="-2.32643">
        <ele>15.199999809265</ele>
        <time>2021-05-09T07:20:49.000Z</time>
      </trkpt>
      <trkpt lat="47.25664" lon="-2.32644">
        <ele>15.60000038147</ele>
        <time>2021-05-09T07:20:50.000Z</time>
      </trkpt>
      <trkpt lat="47.25659" lon="-2.32646">
        <ele>15.60000038147</ele>
        <time>2021-05-09T07:20:51.000Z</time>
      </trkpt>
      <trkpt lat="47.25631" lon="-2.32657">
        <ele>15.60000038147</ele>
        <time>2021-05-09T07:20:57.000Z</time>
      </trkpt>
      <trkpt lat="47.25617" lon="-2.32661">
        <ele>16</ele>
        <time>2021-05-09T07:21:00.000Z</time>
      </trkpt>
      <trkpt lat="47.25613" lon="-2.32661">
        <ele>16.39999961853</ele>
        <time>2021-05-09T07:21:01.000Z</time>
      </trkpt>
      <trkpt lat="47.25609" lon="-2.32662">
        <ele>16.799999237061</ele>
        <time>2021-05-09T07:21:02.000Z</time>
      </trkpt>
      <trkpt lat="47.25605" lon="-2.32664">
        <ele>17.200000762939</ele>
        <time>2021-05-09T07:21:03.000Z</time>
      </trkpt>
      <trkpt lat="47.25601" lon="-2.32667">
        <ele>17.60000038147</ele>
        <time>2021-05-09T07:21:04.000Z</time>
      </trkpt>
      <trkpt lat="47.25574" lon="-2.32679">
        <ele>17.60000038147</ele>
        <time>2021-05-09T07:21:10.000Z</time>
      </trkpt>
      <trkpt lat="47.25536" lon="-2.32695">
        <ele>17.60000038147</ele>
        <time>2021-05-09T07:21:18.000Z</time>
      </trkpt>
      <trkpt lat="47.25512" lon="-2.327">
        <ele>17.60000038147</ele>
        <time>2021-05-09T07:21:23.000Z</time>
      </trkpt>
      <trkpt lat="47.25507" lon="-2.327">
        <ele>17.60000038147</ele>
        <time>2021-05-09T07:21:24.000Z</time>
      </trkpt>
      <trkpt lat="47.25483" lon="-2.32706">
        <ele>17.60000038147</ele>
        <time>2021-05-09T07:21:29.000Z</time>
      </trkpt>
      <trkpt lat="47.25473" lon="-2.32714">
        <ele>17.60000038147</ele>
        <time>2021-05-09T07:21:31.000Z</time>
      </trkpt>
      <trkpt lat="47.25465" lon="-2.32724">
        <ele>17.60000038147</ele>
        <time>2021-05-09T07:21:33.000Z</time>
      </trkpt>
      <trkpt lat="47.25439" lon="-2.32763">
        <ele>17.60000038147</ele>
        <time>2021-05-09T07:21:40.000Z</time>
      </trkpt>
      <trkpt lat="47.25436" lon="-2.32769">
        <ele>17.60000038147</ele>
        <time>2021-05-09T07:21:41.000Z</time>
      </trkpt>
      <trkpt lat="47.25425" lon="-2.32792">
        <ele>17.60000038147</ele>
        <time>2021-05-09T07:21:45.000Z</time>
      </trkpt>
      <trkpt lat="47.25402" lon="-2.32827">
        <ele>17.60000038147</ele>
        <time>2021-05-09T07:21:51.000Z</time>
      </trkpt>
      <trkpt lat="47.25367" lon="-2.32868">
        <ele>17.60000038147</ele>
        <time>2021-05-09T07:21:59.000Z</time>
      </trkpt>
      <trkpt lat="47.2535" lon="-2.32885">
        <ele>17.200000762939</ele>
        <time>2021-05-09T07:22:03.000Z</time>
      </trkpt>
      <trkpt lat="47.25346" lon="-2.32889">
        <ele>16.799999237061</ele>
        <time>2021-05-09T07:22:04.000Z</time>
      </trkpt>
      <trkpt lat="47.25341" lon="-2.32893">
        <ele>16.39999961853</ele>
        <time>2021-05-09T07:22:05.000Z</time>
      </trkpt>
      <trkpt lat="47.25337" lon="-2.32897">
        <ele>16</ele>
        <time>2021-05-09T07:22:06.000Z</time>
      </trkpt>
      <trkpt lat="47.25333" lon="-2.32901">
        <ele>15.39999961853</ele>
        <time>2021-05-09T07:22:07.000Z</time>
      </trkpt>
      <trkpt lat="47.25312" lon="-2.32921">
        <ele>15.39999961853</ele>
        <time>2021-05-09T07:22:12.000Z</time>
      </trkpt>
      <trkpt lat="47.25309" lon="-2.32925">
        <ele>15.39999961853</ele>
        <time>2021-05-09T07:22:13.000Z</time>
      </trkpt>
      <trkpt lat="47.25305" lon="-2.32941">
        <ele>15.39999961853</ele>
        <time>2021-05-09T07:22:16.000Z</time>
      </trkpt>
      <trkpt lat="47.25313" lon="-2.32966">
        <ele>15.39999961853</ele>
        <time>2021-05-09T07:22:20.000Z</time>
      </trkpt>
      <trkpt lat="47.25327" lon="-2.32998">
        <ele>15.39999961853</ele>
        <time>2021-05-09T07:22:26.000Z</time>
      </trkpt>
      <trkpt lat="47.25344" lon="-2.3304">
        <ele>15.39999961853</ele>
        <time>2021-05-09T07:22:35.000Z</time>
      </trkpt>
      <trkpt lat="47.25354" lon="-2.33064">
        <ele>15</ele>
        <time>2021-05-09T07:22:41.000Z</time>
      </trkpt>
      <trkpt lat="47.25356" lon="-2.33068">
        <ele>14.60000038147</ele>
        <time>2021-05-09T07:22:42.000Z</time>
      </trkpt>
      <trkpt lat="47.25357" lon="-2.33072">
        <ele>14.199999809265</ele>
        <time>2021-05-09T07:22:43.000Z</time>
      </trkpt>
      <trkpt lat="47.25358" lon="-2.33078">
        <ele>13.800000190735</ele>
        <time>2021-05-09T07:22:44.000Z</time>
      </trkpt>
      <trkpt lat="47.25359" lon="-2.33083">
        <ele>13.39999961853</ele>
        <time>2021-05-09T07:22:45.000Z</time>
      </trkpt>
      <trkpt lat="47.25361" lon="-2.33092">
        <ele>13.39999961853</ele>
        <time>2021-05-09T07:22:47.000Z</time>
      </trkpt>
      <trkpt lat="47.2537" lon="-2.33111">
        <ele>13.39999961853</ele>
        <time>2021-05-09T07:22:53.000Z</time>
      </trkpt>
      <trkpt lat="47.2537" lon="-2.33113">
        <ele>13.39999961853</ele>
        <time>2021-05-09T07:22:55.000Z</time>
      </trkpt>
      <trkpt lat="47.25373" lon="-2.33116">
        <ele>13.39999961853</ele>
        <time>2021-05-09T07:34:33.000Z</time>
      </trkpt>
      <trkpt lat="47.25373" lon="-2.33117">
        <ele>13.39999961853</ele>
        <time>2021-05-09T07:34:34.000Z</time>
      </trkpt>
      <trkpt lat="47.25379" lon="-2.33131">
        <ele>13.39999961853</ele>
        <time>2021-05-09T07:34:40.000Z</time>
      </trkpt>
      <trkpt lat="47.25386" lon="-2.33136">
        <ele>13.39999961853</ele>
        <time>2021-05-09T07:34:43.000Z</time>
      </trkpt>
      <trkpt lat="47.25389" lon="-2.33135">
        <ele>13.39999961853</ele>
        <time>2021-05-09T07:34:44.000Z</time>
      </trkpt>
      <trkpt lat="47.25415" lon="-2.33122">
        <ele>13.39999961853</ele>
        <time>2021-05-09T07:34:51.000Z</time>
      </trkpt>
      <trkpt lat="47.25443" lon="-2.33109">
        <ele>13.39999961853</ele>
        <time>2021-05-09T07:34:58.000Z</time>
      </trkpt>
      <trkpt lat="47.25478" lon="-2.33092">
        <ele>13.39999961853</ele>
        <time>2021-05-09T07:35:06.000Z</time>
      </trkpt>
      <trkpt lat="47.25486" lon="-2.33085">
        <ele>13.39999961853</ele>
        <time>2021-05-09T07:35:08.000Z</time>
      </trkpt>
      <trkpt lat="47.25497" lon="-2.33075">
        <ele>13.39999961853</ele>
        <time>2021-05-09T07:35:11.000Z</time>
      </trkpt>
      <trkpt lat="47.25501" lon="-2.33071">
        <ele>13.39999961853</ele>
        <time>2021-05-09T07:35:12.000Z</time>
      </trkpt>
      <trkpt lat="47.25512" lon="-2.33057">
        <ele>13.39999961853</ele>
        <time>2021-05-09T07:35:15.000Z</time>
      </trkpt>
      <trkpt lat="47.25521" lon="-2.33049">
        <ele>13.39999961853</ele>
        <time>2021-05-09T07:35:17.000Z</time>
      </trkpt>
      <trkpt lat="47.25536" lon="-2.33041">
        <ele>13.39999961853</ele>
        <time>2021-05-09T07:35:20.000Z</time>
      </trkpt>
      <trkpt lat="47.25541" lon="-2.33039">
        <ele>13.39999961853</ele>
        <time>2021-05-09T07:35:21.000Z</time>
      </trkpt>
      <trkpt lat="47.25569" lon="-2.33034">
        <ele>13.39999961853</ele>
        <time>2021-05-09T07:35:27.000Z</time>
      </trkpt>
      <trkpt lat="47.25589" lon="-2.33032">
        <ele>13.39999961853</ele>
        <time>2021-05-09T07:35:31.000Z</time>
      </trkpt>
      <trkpt lat="47.25609" lon="-2.33025">
        <ele>13.39999961853</ele>
        <time>2021-05-09T07:35:36.000Z</time>
      </trkpt>
      <trkpt lat="47.25613" lon="-2.33022">
        <ele>13.39999961853</ele>
        <time>2021-05-09T07:35:37.000Z</time>
      </trkpt>
      <trkpt lat="47.25617" lon="-2.33004">
        <ele>13.39999961853</ele>
        <time>2021-05-09T07:35:40.000Z</time>
      </trkpt>
      <trkpt lat="47.25613" lon="-2.32983">
        <ele>13.39999961853</ele>
        <time>2021-05-09T07:35:43.000Z</time>
      </trkpt>
      <trkpt lat="47.25609" lon="-2.32962">
        <ele>14.199999809265</ele>
        <time>2021-05-09T07:35:46.000Z</time>
      </trkpt>
      <trkpt lat="47.25608" lon="-2.32956">
        <ele>14.60000038147</ele>
        <time>2021-05-09T07:35:47.000Z</time>
      </trkpt>
      <trkpt lat="47.25607" lon="-2.32949">
        <ele>15</ele>
        <time>2021-05-09T07:35:48.000Z</time>
      </trkpt>
      <trkpt lat="47.25606" lon="-2.32942">
        <ele>15.39999961853</ele>
        <time>2021-05-09T07:35:49.000Z</time>
      </trkpt>
      <trkpt lat="47.25602" lon="-2.32919">
        <ele>15.39999961853</ele>
        <time>2021-05-09T07:35:52.000Z</time>
      </trkpt>
      <trkpt lat="47.25594" lon="-2.3285">
        <ele>15.39999961853</ele>
        <time>2021-05-09T07:36:01.000Z</time>
      </trkpt>
      <trkpt lat="47.25593" lon="-2.32834">
        <ele>15.39999961853</ele>
        <time>2021-05-09T07:36:03.000Z</time>
      </trkpt>
      <trkpt lat="47.25595" lon="-2.3281">
        <ele>15.39999961853</ele>
        <time>2021-05-09T07:36:06.000Z</time>
      </trkpt>
      <trkpt lat="47.25599" lon="-2.32772">
        <ele>15.39999961853</ele>
        <time>2021-05-09T07:36:11.000Z</time>
      </trkpt>
      <trkpt lat="47.256" lon="-2.32757">
        <ele>15.39999961853</ele>
        <time>2021-05-09T07:36:13.000Z</time>
      </trkpt>
      <trkpt lat="47.25603" lon="-2.32714">
        <ele>15.39999961853</ele>
        <time>2021-05-09T07:36:20.000Z</time>
      </trkpt>
      <trkpt lat="47.25606" lon="-2.3267">
        <ele>15.39999961853</ele>
        <time>2021-05-09T07:36:28.000Z</time>
      </trkpt>
      <trkpt lat="47.25608" lon="-2.32666">
        <ele>15.39999961853</ele>
        <time>2021-05-09T07:36:29.000Z</time>
      </trkpt>
      <trkpt lat="47.25614" lon="-2.32661">
        <ele>15.39999961853</ele>
        <time>2021-05-09T07:36:31.000Z</time>
      </trkpt>
      <trkpt lat="47.25617" lon="-2.32659">
        <ele>15.39999961853</ele>
        <time>2021-05-09T07:36:32.000Z</time>
      </trkpt>
      <trkpt lat="47.25634" lon="-2.3265">
        <ele>15.39999961853</ele>
        <time>2021-05-09T07:36:36.000Z</time>
      </trkpt>
      <trkpt lat="47.25648" lon="-2.32645">
        <ele>15.39999961853</ele>
        <time>2021-05-09T07:36:39.000Z</time>
      </trkpt>
      <trkpt lat="47.25658" lon="-2.32639">
        <ele>15.39999961853</ele>
        <time>2021-05-09T07:36:41.000Z</time>
      </trkpt>
      <trkpt lat="47.25686" lon="-2.32627">
        <ele>15.39999961853</ele>
        <time>2021-05-09T07:36:47.000Z</time>
      </trkpt>
      <trkpt lat="47.25705" lon="-2.32617">
        <ele>15.39999961853</ele>
        <time>2021-05-09T07:36:51.000Z</time>
      </trkpt>
      <trkpt lat="47.25709" lon="-2.32607">
        <ele>15</ele>
        <time>2021-05-09T07:36:53.000Z</time>
      </trkpt>
      <trkpt lat="47.25709" lon="-2.32601">
        <ele>14.60000038147</ele>
        <time>2021-05-09T07:36:54.000Z</time>
      </trkpt>
      <trkpt lat="47.25708" lon="-2.32596">
        <ele>14.199999809265</ele>
        <time>2021-05-09T07:36:55.000Z</time>
      </trkpt>
      <trkpt lat="47.25706" lon="-2.3259">
        <ele>13.800000190735</ele>
        <time>2021-05-09T07:36:56.000Z</time>
      </trkpt>
      <trkpt lat="47.25704" lon="-2.32585">
        <ele>13.39999961853</ele>
        <time>2021-05-09T07:36:57.000Z</time>
      </trkpt>
      <trkpt lat="47.25703" lon="-2.32579">
        <ele>13.39999961853</ele>
        <time>2021-05-09T07:36:58.000Z</time>
      </trkpt>
      <trkpt lat="47.25699" lon="-2.32567">
        <ele>13.39999961853</ele>
        <time>2021-05-09T07:37:00.000Z</time>
      </trkpt>
      <trkpt lat="47.25695" lon="-2.32555">
        <ele>13.39999961853</ele>
        <time>2021-05-09T07:37:02.000Z</time>
      </trkpt>
      <trkpt lat="47.25682" lon="-2.32507">
        <ele>13.39999961853</ele>
        <time>2021-05-09T07:37:08.000Z</time>
      </trkpt>
      <trkpt lat="47.25668" lon="-2.32463">
        <ele>13</ele>
        <time>2021-05-09T07:37:13.000Z</time>
      </trkpt>
      <trkpt lat="47.25665" lon="-2.32454">
        <ele>12.39999961853</ele>
        <time>2021-05-09T07:37:14.000Z</time>
      </trkpt>
      <trkpt lat="47.25663" lon="-2.32444">
        <ele>12</ele>
        <time>2021-05-09T07:37:15.000Z</time>
      </trkpt>
      <trkpt lat="47.25662" lon="-2.32436">
        <ele>11.60000038147</ele>
        <time>2021-05-09T07:37:16.000Z</time>
      </trkpt>
      <trkpt lat="47.2566" lon="-2.32428">
        <ele>11.199999809265</ele>
        <time>2021-05-09T07:37:17.000Z</time>
      </trkpt>
      <trkpt lat="47.25657" lon="-2.32414">
        <ele>11.199999809265</ele>
        <time>2021-05-09T07:37:19.000Z</time>
      </trkpt>
      <trkpt lat="47.25656" lon="-2.32408">
        <ele>11.199999809265</ele>
        <time>2021-05-09T07:37:20.000Z</time>
      </trkpt>
      <trkpt lat="47.25661" lon="-2.32401">
        <ele>11.199999809265</ele>
        <time>2021-05-09T07:37:22.000Z</time>
      </trkpt>
      <trkpt lat="47.25672" lon="-2.32411">
        <ele>10.800000190735</ele>
        <time>2021-05-09T07:37:25.000Z</time>
      </trkpt>
      <trkpt lat="47.25677" lon="-2.32415">
        <ele>10.39999961853</ele>
        <time>2021-05-09T07:37:26.000Z</time>
      </trkpt>
      <trkpt lat="47.25682" lon="-2.32418">
        <ele>10</ele>
        <time>2021-05-09T07:37:27.000Z</time>
      </trkpt>
      <trkpt lat="47.25687" lon="-2.32419">
        <ele>9.3999996185303</ele>
        <time>2021-05-09T07:37:28.000Z</time>
      </trkpt>
      <trkpt lat="47.25693" lon="-2.32421">
        <ele>9</ele>
        <time>2021-05-09T07:37:29.000Z</time>
      </trkpt>
      <trkpt lat="47.25699" lon="-2.32422">
        <ele>9</ele>
        <time>2021-05-09T07:37:30.000Z</time>
      </trkpt>
      <trkpt lat="47.25723" lon="-2.32422">
        <ele>9</ele>
        <time>2021-05-09T07:37:34.000Z</time>
      </trkpt>
      <trkpt lat="47.25761" lon="-2.3242">
        <ele>9</ele>
        <time>2021-05-09T07:37:41.000Z</time>
      </trkpt>
      <trkpt lat="47.25773" lon="-2.32414">
        <ele>9</ele>
        <time>2021-05-09T07:37:45.000Z</time>
      </trkpt>
      <trkpt lat="47.2578" lon="-2.32412">
        <ele>9</ele>
        <time>2021-05-09T07:37:47.000Z</time>
      </trkpt>
      <trkpt lat="47.25787" lon="-2.32419">
        <ele>9</ele>
        <time>2021-05-09T07:37:49.000Z</time>
      </trkpt>
      <trkpt lat="47.25793" lon="-2.32431">
        <ele>9</ele>
        <time>2021-05-09T07:37:51.000Z</time>
      </trkpt>
      <trkpt lat="47.25798" lon="-2.32444">
        <ele>9</ele>
        <time>2021-05-09T07:37:53.000Z</time>
      </trkpt>
      <trkpt lat="47.25803" lon="-2.32449">
        <ele>9</ele>
        <time>2021-05-09T07:37:54.000Z</time>
      </trkpt>
      <trkpt lat="47.25814" lon="-2.32458">
        <ele>9</ele>
        <time>2021-05-09T07:37:56.000Z</time>
      </trkpt>
      <trkpt lat="47.25839" lon="-2.32472">
        <ele>9</ele>
        <time>2021-05-09T07:38:00.000Z</time>
      </trkpt>
      <trkpt lat="47.25852" lon="-2.32475">
        <ele>9</ele>
        <time>2021-05-09T07:38:02.000Z</time>
      </trkpt>
      <trkpt lat="47.25882" lon="-2.32471">
        <ele>9</ele>
        <time>2021-05-09T07:38:07.000Z</time>
      </trkpt>
      <trkpt lat="47.25898" lon="-2.32465">
        <ele>9</ele>
        <time>2021-05-09T07:38:10.000Z</time>
      </trkpt>
      <trkpt lat="47.25906" lon="-2.32455">
        <ele>9</ele>
        <time>2021-05-09T07:38:12.000Z</time>
      </trkpt>
      <trkpt lat="47.25936" lon="-2.32416">
        <ele>9</ele>
        <time>2021-05-09T07:38:19.000Z</time>
      </trkpt>
      <trkpt lat="47.25955" lon="-2.3239">
        <ele>9</ele>
        <time>2021-05-09T07:38:24.000Z</time>
      </trkpt>
      <trkpt lat="47.25958" lon="-2.32385">
        <ele>9</ele>
        <time>2021-05-09T07:38:25.000Z</time>
      </trkpt>
      <trkpt lat="47.25975" lon="-2.32362">
        <ele>9</ele>
        <time>2021-05-09T07:38:30.000Z</time>
      </trkpt>
      <trkpt lat="47.25978" lon="-2.32356">
        <ele>9</ele>
        <time>2021-05-09T07:38:31.000Z</time>
      </trkpt>
      <trkpt lat="47.25982" lon="-2.32352">
        <ele>9</ele>
        <time>2021-05-09T07:38:32.000Z</time>
      </trkpt>
      <trkpt lat="47.25998" lon="-2.32332">
        <ele>9</ele>
        <time>2021-05-09T07:38:36.000Z</time>
      </trkpt>
      <trkpt lat="47.26007" lon="-2.32321">
        <ele>8.6000003814697</ele>
        <time>2021-05-09T07:38:38.000Z</time>
      </trkpt>
      <trkpt lat="47.26011" lon="-2.32316">
        <ele>7.8000001907349</ele>
        <time>2021-05-09T07:38:39.000Z</time>
      </trkpt>
      <trkpt lat="47.26015" lon="-2.32311">
        <ele>7.4000000953674</ele>
        <time>2021-05-09T07:38:40.000Z</time>
      </trkpt>
      <trkpt lat="47.26019" lon="-2.32306">
        <ele>7</ele>
        <time>2021-05-09T07:38:41.000Z</time>
      </trkpt>
      <trkpt lat="47.26036" lon="-2.32288">
        <ele>7</ele>
        <time>2021-05-09T07:38:45.000Z</time>
      </trkpt>
      <trkpt lat="47.26061" lon="-2.32258">
        <ele>7</ele>
        <time>2021-05-09T07:38:51.000Z</time>
      </trkpt>
      <trkpt lat="47.26085" lon="-2.32228">
        <ele>7</ele>
        <time>2021-05-09T07:38:57.000Z</time>
      </trkpt>
      <trkpt lat="47.26095" lon="-2.32211">
        <ele>7</ele>
        <time>2021-05-09T07:39:00.000Z</time>
      </trkpt>
      <trkpt lat="47.26105" lon="-2.32191">
        <ele>7</ele>
        <time>2021-05-09T07:39:03.000Z</time>
      </trkpt>
      <trkpt lat="47.26127" lon="-2.32134">
        <ele>7</ele>
        <time>2021-05-09T07:39:11.000Z</time>
      </trkpt>
      <trkpt lat="47.26129" lon="-2.32127">
        <ele>7</ele>
        <time>2021-05-09T07:39:12.000Z</time>
      </trkpt>
      <trkpt lat="47.26137" lon="-2.32097">
        <ele>7</ele>
        <time>2021-05-09T07:39:16.000Z</time>
      </trkpt>
      <trkpt lat="47.26151" lon="-2.32053">
        <ele>7</ele>
        <time>2021-05-09T07:39:22.000Z</time>
      </trkpt>
      <trkpt lat="47.26158" lon="-2.32031">
        <ele>7</ele>
        <time>2021-05-09T07:39:25.000Z</time>
      </trkpt>
      <trkpt lat="47.26164" lon="-2.32021">
        <ele>7</ele>
        <time>2021-05-09T07:39:27.000Z</time>
      </trkpt>
      <trkpt lat="47.26173" lon="-2.32017">
        <ele>7</ele>
        <time>2021-05-09T07:39:30.000Z</time>
      </trkpt>
      <trkpt lat="47.26176" lon="-2.32018">
        <ele>7</ele>
        <time>2021-05-09T07:39:31.000Z</time>
      </trkpt>
      <trkpt lat="47.2618" lon="-2.32019">
        <ele>7</ele>
        <time>2021-05-09T07:39:34.000Z</time>
      </trkpt>
      <trkpt lat="47.2619" lon="-2.32021">
        <ele>7</ele>
        <time>2021-05-09T07:39:39.000Z</time>
      </trkpt>
      <trkpt lat="47.26192" lon="-2.3202">
        <ele>7</ele>
        <time>2021-05-09T07:39:40.000Z</time>
      </trkpt>
      <trkpt lat="47.26197" lon="-2.32012">
        <ele>7</ele>
        <time>2021-05-09T07:39:43.000Z</time>
      </trkpt>
      <trkpt lat="47.26204" lon="-2.32">
        <ele>7</ele>
        <time>2021-05-09T07:39:48.000Z</time>
      </trkpt>
      <trkpt lat="47.26218" lon="-2.31983">
        <ele>7</ele>
        <time>2021-05-09T07:39:53.000Z</time>
      </trkpt>
      <trkpt lat="47.26232" lon="-2.31972">
        <ele>7</ele>
        <time>2021-05-09T07:39:57.000Z</time>
      </trkpt>
      <trkpt lat="47.26234" lon="-2.31967">
        <ele>7</ele>
        <time>2021-05-09T07:39:58.000Z</time>
      </trkpt>
      <trkpt lat="47.2624" lon="-2.31953">
        <ele>7</ele>
        <time>2021-05-09T07:40:01.000Z</time>
      </trkpt>
      <trkpt lat="47.26248" lon="-2.31944">
        <ele>7</ele>
        <time>2021-05-09T07:40:03.000Z</time>
      </trkpt>
      <trkpt lat="47.26253" lon="-2.31935">
        <ele>7</ele>
        <time>2021-05-09T07:40:05.000Z</time>
      </trkpt>
      <trkpt lat="47.26271" lon="-2.31908">
        <ele>7</ele>
        <time>2021-05-09T07:40:11.000Z</time>
      </trkpt>
      <trkpt lat="47.26287" lon="-2.31897">
        <ele>7</ele>
        <time>2021-05-09T07:40:15.000Z</time>
      </trkpt>
      <trkpt lat="47.26289" lon="-2.31899">
        <ele>7</ele>
        <time>2021-05-09T07:40:16.000Z</time>
      </trkpt>
      <trkpt lat="47.26293" lon="-2.31915">
        <ele>7</ele>
        <time>2021-05-09T07:40:20.000Z</time>
      </trkpt>
      <trkpt lat="47.26299" lon="-2.31929">
        <ele>7</ele>
        <time>2021-05-09T07:40:23.000Z</time>
      </trkpt>
      <trkpt lat="47.26302" lon="-2.31931">
        <ele>7</ele>
        <time>2021-05-09T07:40:24.000Z</time>
      </trkpt>
      <trkpt lat="47.26313" lon="-2.31932">
        <ele>7</ele>
        <time>2021-05-09T07:40:27.000Z</time>
      </trkpt>
      <trkpt lat="47.26318" lon="-2.3193">
        <ele>7</ele>
        <time>2021-05-09T07:40:28.000Z</time>
      </trkpt>
      <trkpt lat="47.26336" lon="-2.31933">
        <ele>7</ele>
        <time>2021-05-09T07:40:33.000Z</time>
      </trkpt>
      <trkpt lat="47.26347" lon="-2.31955">
        <ele>7</ele>
        <time>2021-05-09T07:40:37.000Z</time>
      </trkpt>
      <trkpt lat="47.26359" lon="-2.31979">
        <ele>7.4000000953674</ele>
        <time>2021-05-09T07:40:42.000Z</time>
      </trkpt>
      <trkpt lat="47.26361" lon="-2.31982">
        <ele>8.3999996185303</ele>
        <time>2021-05-09T07:40:43.000Z</time>
      </trkpt>
      <trkpt lat="47.26365" lon="-2.31985">
        <ele>8.8000001907349</ele>
        <time>2021-05-09T07:40:44.000Z</time>
      </trkpt>
      <trkpt lat="47.26368" lon="-2.31986">
        <ele>9.1999998092651</ele>
        <time>2021-05-09T07:40:45.000Z</time>
      </trkpt>
      <trkpt lat="47.26372" lon="-2.31983">
        <ele>9.1999998092651</ele>
        <time>2021-05-09T07:40:47.000Z</time>
      </trkpt>
      <trkpt lat="47.26383" lon="-2.31984">
        <ele>9.6000003814697</ele>
        <time>2021-05-09T07:40:51.000Z</time>
      </trkpt>
      <trkpt lat="47.26386" lon="-2.31985">
        <ele>10</ele>
        <time>2021-05-09T07:40:52.000Z</time>
      </trkpt>
      <trkpt lat="47.26389" lon="-2.31986">
        <ele>10.60000038147</ele>
        <time>2021-05-09T07:40:53.000Z</time>
      </trkpt>
      <trkpt lat="47.26393" lon="-2.31989">
        <ele>11</ele>
        <time>2021-05-09T07:40:54.000Z</time>
      </trkpt>
      <trkpt lat="47.26397" lon="-2.3199">
        <ele>11.39999961853</ele>
        <time>2021-05-09T07:40:55.000Z</time>
      </trkpt>
      <trkpt lat="47.26408" lon="-2.31996">
        <ele>11.39999961853</ele>
        <time>2021-05-09T07:40:58.000Z</time>
      </trkpt>
      <trkpt lat="47.26412" lon="-2.31995">
        <ele>11.39999961853</ele>
        <time>2021-05-09T07:40:59.000Z</time>
      </trkpt>
      <trkpt lat="47.26416" lon="-2.31996">
        <ele>11.800000190735</ele>
        <time>2021-05-09T07:41:00.000Z</time>
      </trkpt>
      <trkpt lat="47.2642" lon="-2.31996">
        <ele>12.199999809265</ele>
        <time>2021-05-09T07:41:01.000Z</time>
      </trkpt>
      <trkpt lat="47.26424" lon="-2.31997">
        <ele>12.800000190735</ele>
        <time>2021-05-09T07:41:02.000Z</time>
      </trkpt>
      <trkpt lat="47.26429" lon="-2.31997">
        <ele>13.199999809265</ele>
        <time>2021-05-09T07:41:03.000Z</time>
      </trkpt>
      <trkpt lat="47.26432" lon="-2.31998">
        <ele>13.60000038147</ele>
        <time>2021-05-09T07:41:04.000Z</time>
      </trkpt>
      <trkpt lat="47.26449" lon="-2.32">
        <ele>14</ele>
        <time>2021-05-09T07:41:08.000Z</time>
      </trkpt>
      <trkpt lat="47.26452" lon="-2.32001">
        <ele>14.39999961853</ele>
        <time>2021-05-09T07:41:09.000Z</time>
      </trkpt>
      <trkpt lat="47.26457" lon="-2.32001">
        <ele>14.800000190735</ele>
        <time>2021-05-09T07:41:10.000Z</time>
      </trkpt>
      <trkpt lat="47.26461" lon="-2.32">
        <ele>15.199999809265</ele>
        <time>2021-05-09T07:41:11.000Z</time>
      </trkpt>
      <trkpt lat="47.26464" lon="-2.32">
        <ele>15.60000038147</ele>
        <time>2021-05-09T07:41:12.000Z</time>
      </trkpt>
      <trkpt lat="47.26474" lon="-2.32001">
        <ele>15.60000038147</ele>
        <time>2021-05-09T07:41:15.000Z</time>
      </trkpt>
      <trkpt lat="47.26491" lon="-2.32">
        <ele>16</ele>
        <time>2021-05-09T07:41:19.000Z</time>
      </trkpt>
      <trkpt lat="47.26496" lon="-2.32">
        <ele>16.39999961853</ele>
        <time>2021-05-09T07:41:20.000Z</time>
      </trkpt>
      <trkpt lat="47.265" lon="-2.31999">
        <ele>17</ele>
        <time>2021-05-09T07:41:21.000Z</time>
      </trkpt>
      <trkpt lat="47.26503" lon="-2.31998">
        <ele>17.39999961853</ele>
        <time>2021-05-09T07:41:22.000Z</time>
      </trkpt>
      <trkpt lat="47.26507" lon="-2.31997">
        <ele>17.799999237061</ele>
        <time>2021-05-09T07:41:23.000Z</time>
      </trkpt>
      <trkpt lat="47.26513" lon="-2.31997">
        <ele>18.200000762939</ele>
        <time>2021-05-09T07:41:25.000Z</time>
      </trkpt>
      <trkpt lat="47.26515" lon="-2.31997">
        <ele>18.60000038147</ele>
        <time>2021-05-09T07:41:26.000Z</time>
      </trkpt>
      <trkpt lat="47.26518" lon="-2.31998">
        <ele>19</ele>
        <time>2021-05-09T07:41:27.000Z</time>
      </trkpt>
      <trkpt lat="47.2652" lon="-2.31999">
        <ele>19.39999961853</ele>
        <time>2021-05-09T07:41:28.000Z</time>
      </trkpt>
      <trkpt lat="47.26522" lon="-2.31999">
        <ele>19.799999237061</ele>
        <time>2021-05-09T07:41:29.000Z</time>
      </trkpt>
      <trkpt lat="47.26529" lon="-2.32005">
        <ele>19.799999237061</ele>
        <time>2021-05-09T07:41:32.000Z</time>
      </trkpt>
      <trkpt lat="47.2654" lon="-2.32024">
        <ele>19.799999237061</ele>
        <time>2021-05-09T07:41:38.000Z</time>
      </trkpt>
      <trkpt lat="47.26541" lon="-2.32028">
        <ele>20.200000762939</ele>
        <time>2021-05-09T07:41:39.000Z</time>
      </trkpt>
      <trkpt lat="47.26542" lon="-2.3203">
        <ele>20.799999237061</ele>
        <time>2021-05-09T07:41:40.000Z</time>
      </trkpt>
      <trkpt lat="47.26543" lon="-2.32033">
        <ele>21.200000762939</ele>
        <time>2021-05-09T07:41:41.000Z</time>
      </trkpt>
      <trkpt lat="47.26544" lon="-2.32036">
        <ele>21.60000038147</ele>
        <time>2021-05-09T07:41:42.000Z</time>
      </trkpt>
      <trkpt lat="47.26547" lon="-2.32037">
        <ele>22</ele>
        <time>2021-05-09T07:41:43.000Z</time>
      </trkpt>
      <trkpt lat="47.26555" lon="-2.32032">
        <ele>22</ele>
        <time>2021-05-09T07:41:46.000Z</time>
      </trkpt>
      <trkpt lat="47.2656" lon="-2.32031">
        <ele>22</ele>
        <time>2021-05-09T07:41:48.000Z</time>
      </trkpt>
      <trkpt lat="47.26566" lon="-2.3203">
        <ele>22</ele>
        <time>2021-05-09T07:41:51.000Z</time>
      </trkpt>
      <trkpt lat="47.26575" lon="-2.32027">
        <ele>22.39999961853</ele>
        <time>2021-05-09T07:41:54.000Z</time>
      </trkpt>
      <trkpt lat="47.26578" lon="-2.32026">
        <ele>22.799999237061</ele>
        <time>2021-05-09T07:41:55.000Z</time>
      </trkpt>
      <trkpt lat="47.26582" lon="-2.32025">
        <ele>23.200000762939</ele>
        <time>2021-05-09T07:41:56.000Z</time>
      </trkpt>
      <trkpt lat="47.26586" lon="-2.32023">
        <ele>24.200000762939</ele>
        <time>2021-05-09T07:41:57.000Z</time>
      </trkpt>
      <trkpt lat="47.26611" lon="-2.32016">
        <ele>24.200000762939</ele>
        <time>2021-05-09T07:42:04.000Z</time>
      </trkpt>
      <trkpt lat="47.2662" lon="-2.32012">
        <ele>24.60000038147</ele>
        <time>2021-05-09T07:42:07.000Z</time>
      </trkpt>
      <trkpt lat="47.26623" lon="-2.32011">
        <ele>25</ele>
        <time>2021-05-09T07:42:08.000Z</time>
      </trkpt>
      <trkpt lat="47.26625" lon="-2.32009">
        <ele>25.39999961853</ele>
        <time>2021-05-09T07:42:09.000Z</time>
      </trkpt>
      <trkpt lat="47.26628" lon="-2.32008">
        <ele>25.799999237061</ele>
        <time>2021-05-09T07:42:10.000Z</time>
      </trkpt>
      <trkpt lat="47.2663" lon="-2.32007">
        <ele>26.200000762939</ele>
        <time>2021-05-09T07:42:11.000Z</time>
      </trkpt>
      <trkpt lat="47.2664" lon="-2.32005">
        <ele>26.200000762939</ele>
        <time>2021-05-09T07:42:16.000Z</time>
      </trkpt>
      <trkpt lat="47.26642" lon="-2.32006">
        <ele>26.200000762939</ele>
        <time>2021-05-09T07:42:20.000Z</time>
      </trkpt>
      <trkpt lat="47.26646" lon="-2.3201">
        <ele>26.200000762939</ele>
        <time>2021-05-09T07:42:41.000Z</time>
      </trkpt>
      <trkpt lat="47.26652" lon="-2.32031">
        <ele>26.200000762939</ele>
        <time>2021-05-09T07:42:47.000Z</time>
      </trkpt>
      <trkpt lat="47.2666" lon="-2.32059">
        <ele>26.200000762939</ele>
        <time>2021-05-09T07:42:52.000Z</time>
      </trkpt>
      <trkpt lat="47.2667" lon="-2.32096">
        <ele>26.200000762939</ele>
        <time>2021-05-09T07:42:57.000Z</time>
      </trkpt>
      <trkpt lat="47.26678" lon="-2.32124">
        <ele>26.200000762939</ele>
        <time>2021-05-09T07:43:03.000Z</time>
      </trkpt>
      <trkpt lat="47.26683" lon="-2.32115">
        <ele>26.200000762939</ele>
        <time>2021-05-09T07:43:06.000Z</time>
      </trkpt>
      <trkpt lat="47.26684" lon="-2.32098">
        <ele>26.200000762939</ele>
        <time>2021-05-09T07:43:09.000Z</time>
      </trkpt>
      <trkpt lat="47.26684" lon="-2.32092">
        <ele>26.200000762939</ele>
        <time>2021-05-09T07:43:10.000Z</time>
      </trkpt>
      <trkpt lat="47.26684" lon="-2.32052">
        <ele>26.200000762939</ele>
        <time>2021-05-09T07:43:16.000Z</time>
      </trkpt>
      <trkpt lat="47.26691" lon="-2.32026">
        <ele>26.200000762939</ele>
        <time>2021-05-09T07:43:21.000Z</time>
      </trkpt>
      <trkpt lat="47.26704" lon="-2.32004">
        <ele>26.200000762939</ele>
        <time>2021-05-09T07:43:26.000Z</time>
      </trkpt>
      <trkpt lat="47.26718" lon="-2.31995">
        <ele>26.200000762939</ele>
        <time>2021-05-09T07:43:29.000Z</time>
      </trkpt>
      <trkpt lat="47.26745" lon="-2.31975">
        <ele>26.200000762939</ele>
        <time>2021-05-09T07:43:34.000Z</time>
      </trkpt>
      <trkpt lat="47.26757" lon="-2.31958">
        <ele>26.200000762939</ele>
        <time>2021-05-09T07:43:37.000Z</time>
      </trkpt>
      <trkpt lat="47.2676" lon="-2.31952">
        <ele>26.200000762939</ele>
        <time>2021-05-09T07:43:38.000Z</time>
      </trkpt>
      <trkpt lat="47.26764" lon="-2.31948">
        <ele>25.799999237061</ele>
        <time>2021-05-09T07:43:39.000Z</time>
      </trkpt>
      <trkpt lat="47.26767" lon="-2.31947">
        <ele>25.39999961853</ele>
        <time>2021-05-09T07:43:40.000Z</time>
      </trkpt>
      <trkpt lat="47.2677" lon="-2.3195">
        <ele>25</ele>
        <time>2021-05-09T07:43:41.000Z</time>
      </trkpt>
      <trkpt lat="47.26773" lon="-2.31955">
        <ele>24.39999961853</ele>
        <time>2021-05-09T07:43:42.000Z</time>
      </trkpt>
      <trkpt lat="47.26776" lon="-2.3196">
        <ele>24</ele>
        <time>2021-05-09T07:43:43.000Z</time>
      </trkpt>
      <trkpt lat="47.26779" lon="-2.31966">
        <ele>24</ele>
        <time>2021-05-09T07:43:44.000Z</time>
      </trkpt>
      <trkpt lat="47.26797" lon="-2.32004">
        <ele>24</ele>
        <time>2021-05-09T07:43:49.000Z</time>
      </trkpt>
      <trkpt lat="47.2681" lon="-2.32032">
        <ele>23.60000038147</ele>
        <time>2021-05-09T07:43:52.000Z</time>
      </trkpt>
      <trkpt lat="47.26813" lon="-2.32043">
        <ele>23.200000762939</ele>
        <time>2021-05-09T07:43:53.000Z</time>
      </trkpt>
      <trkpt lat="47.26817" lon="-2.32053">
        <ele>22.799999237061</ele>
        <time>2021-05-09T07:43:54.000Z</time>
      </trkpt>
      <trkpt lat="47.2682" lon="-2.32064">
        <ele>22.39999961853</ele>
        <time>2021-05-09T07:43:55.000Z</time>
      </trkpt>
      <trkpt lat="47.26822" lon="-2.32074">
        <ele>22</ele>
        <time>2021-05-09T07:43:56.000Z</time>
      </trkpt>
      <trkpt lat="47.26831" lon="-2.32115">
        <ele>22</ele>
        <time>2021-05-09T07:44:00.000Z</time>
      </trkpt>
      <trkpt lat="47.26844" lon="-2.32163">
        <ele>21.39999961853</ele>
        <time>2021-05-09T07:44:05.000Z</time>
      </trkpt>
      <trkpt lat="47.26848" lon="-2.32172">
        <ele>21</ele>
        <time>2021-05-09T07:44:06.000Z</time>
      </trkpt>
      <trkpt lat="47.26851" lon="-2.32181">
        <ele>20.60000038147</ele>
        <time>2021-05-09T07:44:07.000Z</time>
      </trkpt>
      <trkpt lat="47.26854" lon="-2.3219">
        <ele>20.200000762939</ele>
        <time>2021-05-09T07:44:08.000Z</time>
      </trkpt>
      <trkpt lat="47.26858" lon="-2.32198">
        <ele>19.799999237061</ele>
        <time>2021-05-09T07:44:09.000Z</time>
      </trkpt>
      <trkpt lat="47.26875" lon="-2.32232">
        <ele>19.799999237061</ele>
        <time>2021-05-09T07:44:13.000Z</time>
      </trkpt>
      <trkpt lat="47.26879" lon="-2.3224">
        <ele>19.39999961853</ele>
        <time>2021-05-09T07:44:14.000Z</time>
      </trkpt>
      <trkpt lat="47.26883" lon="-2.32249">
        <ele>19</ele>
        <time>2021-05-09T07:44:15.000Z</time>
      </trkpt>
      <trkpt lat="47.26888" lon="-2.32257">
        <ele>18.39999961853</ele>
        <time>2021-05-09T07:44:16.000Z</time>
      </trkpt>
      <trkpt lat="47.26893" lon="-2.32265">
        <ele>18</ele>
        <time>2021-05-09T07:44:17.000Z</time>
      </trkpt>
      <trkpt lat="47.26897" lon="-2.32274">
        <ele>17.60000038147</ele>
        <time>2021-05-09T07:44:18.000Z</time>
      </trkpt>
      <trkpt lat="47.26902" lon="-2.32284">
        <ele>17.60000038147</ele>
        <time>2021-05-09T07:44:19.000Z</time>
      </trkpt>
      <trkpt lat="47.2691" lon="-2.32304">
        <ele>17.200000762939</ele>
        <time>2021-05-09T07:44:21.000Z</time>
      </trkpt>
      <trkpt lat="47.26914" lon="-2.32315">
        <ele>16.799999237061</ele>
        <time>2021-05-09T07:44:22.000Z</time>
      </trkpt>
      <trkpt lat="47.26917" lon="-2.32324">
        <ele>16.200000762939</ele>
        <time>2021-05-09T07:44:23.000Z</time>
      </trkpt>
      <trkpt lat="47.26922" lon="-2.32339">
        <ele>15.39999961853</ele>
        <time>2021-05-09T07:44:24.000Z</time>
      </trkpt>
      <trkpt lat="47.26925" lon="-2.32346">
        <ele>15.39999961853</ele>
        <time>2021-05-09T07:44:26.000Z</time>
      </trkpt>
      <trkpt lat="47.26935" lon="-2.32365">
        <ele>15</ele>
        <time>2021-05-09T07:44:29.000Z</time>
      </trkpt>
      <trkpt lat="47.26938" lon="-2.32372">
        <ele>14.60000038147</ele>
        <time>2021-05-09T07:44:30.000Z</time>
      </trkpt>
      <trkpt lat="47.2694" lon="-2.32381">
        <ele>14.199999809265</ele>
        <time>2021-05-09T07:44:31.000Z</time>
      </trkpt>
      <trkpt lat="47.26943" lon="-2.32391">
        <ele>13.800000190735</ele>
        <time>2021-05-09T07:44:32.000Z</time>
      </trkpt>
      <trkpt lat="47.26946" lon="-2.324">
        <ele>13.39999961853</ele>
        <time>2021-05-09T07:44:33.000Z</time>
      </trkpt>
      <trkpt lat="47.26948" lon="-2.32409">
        <ele>13.39999961853</ele>
        <time>2021-05-09T07:44:34.000Z</time>
      </trkpt>
      <trkpt lat="47.26963" lon="-2.3244">
        <ele>13.39999961853</ele>
        <time>2021-05-09T07:44:38.000Z</time>
      </trkpt>
      <trkpt lat="47.26968" lon="-2.32446">
        <ele>13.39999961853</ele>
        <time>2021-05-09T07:44:39.000Z</time>
      </trkpt>
      <trkpt lat="47.26983" lon="-2.32466">
        <ele>13.39999961853</ele>
        <time>2021-05-09T07:44:42.000Z</time>
      </trkpt>
      <trkpt lat="47.26994" lon="-2.32489">
        <ele>13.39999961853</ele>
        <time>2021-05-09T07:44:45.000Z</time>
      </trkpt>
      <trkpt lat="47.27006" lon="-2.32511">
        <ele>12.800000190735</ele>
        <time>2021-05-09T07:44:49.000Z</time>
      </trkpt>
      <trkpt lat="47.27008" lon="-2.32512">
        <ele>12.39999961853</ele>
        <time>2021-05-09T07:44:50.000Z</time>
      </trkpt>
      <trkpt lat="47.27011" lon="-2.32512">
        <ele>11.60000038147</ele>
        <time>2021-05-09T07:44:51.000Z</time>
      </trkpt>
      <trkpt lat="47.27014" lon="-2.32509">
        <ele>11.199999809265</ele>
        <time>2021-05-09T07:44:52.000Z</time>
      </trkpt>
      <trkpt lat="47.27018" lon="-2.32501">
        <ele>11.199999809265</ele>
        <time>2021-05-09T07:44:53.000Z</time>
      </trkpt>
      <trkpt lat="47.27024" lon="-2.32471">
        <ele>11.199999809265</ele>
        <time>2021-05-09T07:44:56.000Z</time>
      </trkpt>
      <trkpt lat="47.27025" lon="-2.32462">
        <ele>11.199999809265</ele>
        <time>2021-05-09T07:44:57.000Z</time>
      </trkpt>
      <trkpt lat="47.2702" lon="-2.32417">
        <ele>11.199999809265</ele>
        <time>2021-05-09T07:45:01.000Z</time>
      </trkpt>
      <trkpt lat="47.27019" lon="-2.32369">
        <ele>11.199999809265</ele>
        <time>2021-05-09T07:45:06.000Z</time>
      </trkpt>
      <trkpt lat="47.27017" lon="-2.32345">
        <ele>11.199999809265</ele>
        <time>2021-05-09T07:45:09.000Z</time>
      </trkpt>
      <trkpt lat="47.27018" lon="-2.32328">
        <ele>11.199999809265</ele>
        <time>2021-05-09T07:45:11.000Z</time>
      </trkpt>
      <trkpt lat="47.27017" lon="-2.32274">
        <ele>11.199999809265</ele>
        <time>2021-05-09T07:45:17.000Z</time>
      </trkpt>
      <trkpt lat="47.27018" lon="-2.32248">
        <ele>11.199999809265</ele>
        <time>2021-05-09T07:45:20.000Z</time>
      </trkpt>
      <trkpt lat="47.27017" lon="-2.32231">
        <ele>11.199999809265</ele>
        <time>2021-05-09T07:45:22.000Z</time>
      </trkpt>
      <trkpt lat="47.27011" lon="-2.32194">
        <ele>11.199999809265</ele>
        <time>2021-05-09T07:45:26.000Z</time>
      </trkpt>
      <trkpt lat="47.27008" lon="-2.32186">
        <ele>11.199999809265</ele>
        <time>2021-05-09T07:45:27.000Z</time>
      </trkpt>
      <trkpt lat="47.26994" lon="-2.32157">
        <ele>11.199999809265</ele>
        <time>2021-05-09T07:45:31.000Z</time>
      </trkpt>
      <trkpt lat="47.26993" lon="-2.32138">
        <ele>11.199999809265</ele>
        <time>2021-05-09T07:45:35.000Z</time>
      </trkpt>
      <trkpt lat="47.26995" lon="-2.32136">
        <ele>11.199999809265</ele>
        <time>2021-05-09T07:45:36.000Z</time>
      </trkpt>
      <trkpt lat="47.27008" lon="-2.32119">
        <ele>11.199999809265</ele>
        <time>2021-05-09T07:45:41.000Z</time>
      </trkpt>
      <trkpt lat="47.2701" lon="-2.32106">
        <ele>11.199999809265</ele>
        <time>2021-05-09T07:45:43.000Z</time>
      </trkpt>
      <trkpt lat="47.27011" lon="-2.32087">
        <ele>11.199999809265</ele>
        <time>2021-05-09T07:45:45.000Z</time>
      </trkpt>
      <trkpt lat="47.27012" lon="-2.32048">
        <ele>11.199999809265</ele>
        <time>2021-05-09T07:45:50.000Z</time>
      </trkpt>
      <trkpt lat="47.27013" lon="-2.32041">
        <ele>11.199999809265</ele>
        <time>2021-05-09T07:45:51.000Z</time>
      </trkpt>
      <trkpt lat="47.27012" lon="-2.32024">
        <ele>11.60000038147</ele>
        <time>2021-05-09T07:45:53.000Z</time>
      </trkpt>
      <trkpt lat="47.2701" lon="-2.32017">
        <ele>12.199999809265</ele>
        <time>2021-05-09T07:45:54.000Z</time>
      </trkpt>
      <trkpt lat="47.27009" lon="-2.32009">
        <ele>12.60000038147</ele>
        <time>2021-05-09T07:45:55.000Z</time>
      </trkpt>
      <trkpt lat="47.27007" lon="-2.32004">
        <ele>13</ele>
        <time>2021-05-09T07:45:56.000Z</time>
      </trkpt>
      <trkpt lat="47.27007" lon="-2.31999">
        <ele>13.39999961853</ele>
        <time>2021-05-09T07:45:57.000Z</time>
      </trkpt>
      <trkpt lat="47.2701" lon="-2.31991">
        <ele>13.39999961853</ele>
        <time>2021-05-09T07:45:59.000Z</time>
      </trkpt>
      <trkpt lat="47.27015" lon="-2.31982">
        <ele>13.39999961853</ele>
        <time>2021-05-09T07:46:04.000Z</time>
      </trkpt>
      <trkpt lat="47.27016" lon="-2.3198">
        <ele>13.39999961853</ele>
        <time>2021-05-09T07:46:05.000Z</time>
      </trkpt>
      <trkpt lat="47.27026" lon="-2.31973">
        <ele>13.39999961853</ele>
        <time>2021-05-09T07:46:09.000Z</time>
      </trkpt>
      <trkpt lat="47.27037" lon="-2.31962">
        <ele>13.39999961853</ele>
        <time>2021-05-09T07:46:16.000Z</time>
      </trkpt>
      <trkpt lat="47.27045" lon="-2.3196">
        <ele>13.39999961853</ele>
        <time>2021-05-09T07:46:20.000Z</time>
      </trkpt>
      <trkpt lat="47.27048" lon="-2.3196">
        <ele>13.39999961853</ele>
        <time>2021-05-09T07:46:21.000Z</time>
      </trkpt>
      <trkpt lat="47.27055" lon="-2.3196">
        <ele>13.39999961853</ele>
        <time>2021-05-09T07:46:24.000Z</time>
      </trkpt>
      <trkpt lat="47.27056" lon="-2.3196">
        <ele>13.39999961853</ele>
        <time>2021-05-09T07:46:25.000Z</time>
      </trkpt>
      <trkpt lat="47.27059" lon="-2.31959">
        <ele>13.39999961853</ele>
        <time>2021-05-09T07:46:28.000Z</time>
      </trkpt>
      <trkpt lat="47.2706" lon="-2.3196">
        <ele>13.39999961853</ele>
        <time>2021-05-09T07:46:29.000Z</time>
      </trkpt>
      <trkpt lat="47.27063" lon="-2.31959">
        <ele>13.39999961853</ele>
        <time>2021-05-09T07:46:34.000Z</time>
      </trkpt>
      <trkpt lat="47.27064" lon="-2.31959">
        <ele>13.39999961853</ele>
        <time>2021-05-09T07:46:35.000Z</time>
      </trkpt>
      <trkpt lat="47.27066" lon="-2.31959">
        <ele>13.39999961853</ele>
        <time>2021-05-09T07:46:38.000Z</time>
      </trkpt>
      <trkpt lat="47.27069" lon="-2.31959">
        <ele>13.39999961853</ele>
        <time>2021-05-09T07:46:46.000Z</time>
      </trkpt>
      <trkpt lat="47.27071" lon="-2.31956">
        <ele>13.39999961853</ele>
        <time>2021-05-09T07:46:47.000Z</time>
      </trkpt>
      <trkpt lat="47.27071" lon="-2.31946">
        <ele>13.39999961853</ele>
        <time>2021-05-09T07:46:50.000Z</time>
      </trkpt>
      <trkpt lat="47.27073" lon="-2.31928">
        <ele>13.39999961853</ele>
        <time>2021-05-09T07:46:55.000Z</time>
      </trkpt>
      <trkpt lat="47.2707" lon="-2.31904">
        <ele>13.39999961853</ele>
        <time>2021-05-09T07:47:01.000Z</time>
      </trkpt>
      <trkpt lat="47.2707" lon="-2.31882">
        <ele>13.39999961853</ele>
        <time>2021-05-09T07:47:06.000Z</time>
      </trkpt>
      <trkpt lat="47.27073" lon="-2.31864">
        <ele>13.39999961853</ele>
        <time>2021-05-09T07:47:12.000Z</time>
      </trkpt>
      <trkpt lat="47.27069" lon="-2.31857">
        <ele>13.39999961853</ele>
        <time>2021-05-09T07:47:15.000Z</time>
      </trkpt>
      <trkpt lat="47.27065" lon="-2.31854">
        <ele>13.39999961853</ele>
        <time>2021-05-09T07:47:17.000Z</time>
      </trkpt>
      <trkpt lat="47.27061" lon="-2.31849">
        <ele>13.800000190735</ele>
        <time>2021-05-09T07:47:18.000Z</time>
      </trkpt>
      <trkpt lat="47.27059" lon="-2.31844">
        <ele>14.60000038147</ele>
        <time>2021-05-09T07:47:19.000Z</time>
      </trkpt>
      <trkpt lat="47.27057" lon="-2.31837">
        <ele>15</ele>
        <time>2021-05-09T07:47:20.000Z</time>
      </trkpt>
      <trkpt lat="47.27058" lon="-2.31833">
        <ele>15.39999961853</ele>
        <time>2021-05-09T07:47:21.000Z</time>
      </trkpt>
      <trkpt lat="47.27056" lon="-2.31821">
        <ele>15.39999961853</ele>
        <time>2021-05-09T07:47:23.000Z</time>
      </trkpt>
      <trkpt lat="47.27053" lon="-2.31786">
        <ele>15.39999961853</ele>
        <time>2021-05-09T07:47:29.000Z</time>
      </trkpt>
      <trkpt lat="47.27052" lon="-2.31775">
        <ele>16</ele>
        <time>2021-05-09T07:47:31.000Z</time>
      </trkpt>
      <trkpt lat="47.27051" lon="-2.31771">
        <ele>16.39999961853</ele>
        <time>2021-05-09T07:47:32.000Z</time>
      </trkpt>
      <trkpt lat="47.27051" lon="-2.31768">
        <ele>16.799999237061</ele>
        <time>2021-05-09T07:47:33.000Z</time>
      </trkpt>
      <trkpt lat="47.27051" lon="-2.31764">
        <ele>17.200000762939</ele>
        <time>2021-05-09T07:47:34.000Z</time>
      </trkpt>
      <trkpt lat="47.27051" lon="-2.3176">
        <ele>17.60000038147</ele>
        <time>2021-05-09T07:47:35.000Z</time>
      </trkpt>
      <trkpt lat="47.27051" lon="-2.31736">
        <ele>17.60000038147</ele>
        <time>2021-05-09T07:47:41.000Z</time>
      </trkpt>
      <trkpt lat="47.27047" lon="-2.3173">
        <ele>17.60000038147</ele>
        <time>2021-05-09T07:47:43.000Z</time>
      </trkpt>
      <trkpt lat="47.27041" lon="-2.31726">
        <ele>17.60000038147</ele>
        <time>2021-05-09T07:47:45.000Z</time>
      </trkpt>
      <trkpt lat="47.27023" lon="-2.31711">
        <ele>18</ele>
        <time>2021-05-09T07:47:51.000Z</time>
      </trkpt>
      <trkpt lat="47.27021" lon="-2.31709">
        <ele>18.39999961853</ele>
        <time>2021-05-09T07:47:52.000Z</time>
      </trkpt>
      <trkpt lat="47.27019" lon="-2.31707">
        <ele>18.799999237061</ele>
        <time>2021-05-09T07:47:53.000Z</time>
      </trkpt>
      <trkpt lat="47.27018" lon="-2.31704">
        <ele>19.200000762939</ele>
        <time>2021-05-09T07:47:54.000Z</time>
      </trkpt>
      <trkpt lat="47.27016" lon="-2.31699">
        <ele>19.60000038147</ele>
        <time>2021-05-09T07:47:55.000Z</time>
      </trkpt>
      <trkpt lat="47.27012" lon="-2.3169">
        <ele>19.60000038147</ele>
        <time>2021-05-09T07:47:57.000Z</time>
      </trkpt>
      <trkpt lat="47.27017" lon="-2.31662">
        <ele>19.60000038147</ele>
        <time>2021-05-09T07:48:02.000Z</time>
      </trkpt>
      <trkpt lat="47.27017" lon="-2.31657">
        <ele>20</ele>
        <time>2021-05-09T07:48:03.000Z</time>
      </trkpt>
      <trkpt lat="47.27018" lon="-2.31654">
        <ele>20.60000038147</ele>
        <time>2021-05-09T07:48:04.000Z</time>
      </trkpt>
      <trkpt lat="47.27018" lon="-2.31649">
        <ele>21</ele>
        <time>2021-05-09T07:48:05.000Z</time>
      </trkpt>
      <trkpt lat="47.27018" lon="-2.31643">
        <ele>21.39999961853</ele>
        <time>2021-05-09T07:48:06.000Z</time>
      </trkpt>
      <trkpt lat="47.27018" lon="-2.31639">
        <ele>21.799999237061</ele>
        <time>2021-05-09T07:48:07.000Z</time>
      </trkpt>
      <trkpt lat="47.27024" lon="-2.31616">
        <ele>21.799999237061</ele>
        <time>2021-05-09T07:48:12.000Z</time>
      </trkpt>
      <trkpt lat="47.27025" lon="-2.31606">
        <ele>22.200000762939</ele>
        <time>2021-05-09T07:48:15.000Z</time>
      </trkpt>
      <trkpt lat="47.27024" lon="-2.31604">
        <ele>22.60000038147</ele>
        <time>2021-05-09T07:48:16.000Z</time>
      </trkpt>
      <trkpt lat="47.27024" lon="-2.316">
        <ele>23</ele>
        <time>2021-05-09T07:48:17.000Z</time>
      </trkpt>
      <trkpt lat="47.27023" lon="-2.31597">
        <ele>23.39999961853</ele>
        <time>2021-05-09T07:48:18.000Z</time>
      </trkpt>
      <trkpt lat="47.2702" lon="-2.31592">
        <ele>23.799999237061</ele>
        <time>2021-05-09T07:48:19.000Z</time>
      </trkpt>
      <trkpt lat="47.27014" lon="-2.31576">
        <ele>23.799999237061</ele>
        <time>2021-05-09T07:48:23.000Z</time>
      </trkpt>
      <trkpt lat="47.27011" lon="-2.31562">
        <ele>24.39999961853</ele>
        <time>2021-05-09T07:48:27.000Z</time>
      </trkpt>
      <trkpt lat="47.27009" lon="-2.31558">
        <ele>24.799999237061</ele>
        <time>2021-05-09T07:48:28.000Z</time>
      </trkpt>
      <trkpt lat="47.27009" lon="-2.31554">
        <ele>25.200000762939</ele>
        <time>2021-05-09T07:48:29.000Z</time>
      </trkpt>
      <trkpt lat="47.27009" lon="-2.31551">
        <ele>25.60000038147</ele>
        <time>2021-05-09T07:48:30.000Z</time>
      </trkpt>
      <trkpt lat="47.27008" lon="-2.31548">
        <ele>26</ele>
        <time>2021-05-09T07:48:31.000Z</time>
      </trkpt>
      <trkpt lat="47.27005" lon="-2.3154">
        <ele>26</ele>
        <time>2021-05-09T07:48:33.000Z</time>
      </trkpt>
      <trkpt lat="47.27001" lon="-2.31515">
        <ele>26</ele>
        <time>2021-05-09T07:48:39.000Z</time>
      </trkpt>
      <trkpt lat="47.27" lon="-2.31508">
        <ele>26.39999961853</ele>
        <time>2021-05-09T07:48:40.000Z</time>
      </trkpt>
      <trkpt lat="47.26998" lon="-2.31503">
        <ele>26.799999237061</ele>
        <time>2021-05-09T07:48:41.000Z</time>
      </trkpt>
      <trkpt lat="47.26997" lon="-2.31498">
        <ele>27.200000762939</ele>
        <time>2021-05-09T07:48:42.000Z</time>
      </trkpt>
      <trkpt lat="47.26996" lon="-2.31494">
        <ele>27.60000038147</ele>
        <time>2021-05-09T07:48:43.000Z</time>
      </trkpt>
      <trkpt lat="47.26995" lon="-2.3149">
        <ele>28</ele>
        <time>2021-05-09T07:48:44.000Z</time>
      </trkpt>
      <trkpt lat="47.26994" lon="-2.31482">
        <ele>28</ele>
        <time>2021-05-09T07:48:46.000Z</time>
      </trkpt>
      <trkpt lat="47.26991" lon="-2.31462">
        <ele>28.39999961853</ele>
        <time>2021-05-09T07:48:51.000Z</time>
      </trkpt>
      <trkpt lat="47.2699" lon="-2.31458">
        <ele>28.799999237061</ele>
        <time>2021-05-09T07:48:52.000Z</time>
      </trkpt>
      <trkpt lat="47.2699" lon="-2.31452">
        <ele>29.39999961853</ele>
        <time>2021-05-09T07:48:53.000Z</time>
      </trkpt>
      <trkpt lat="47.2699" lon="-2.31446">
        <ele>29.799999237061</ele>
        <time>2021-05-09T07:48:54.000Z</time>
      </trkpt>
      <trkpt lat="47.26989" lon="-2.3144">
        <ele>30.200000762939</ele>
        <time>2021-05-09T07:48:55.000Z</time>
      </trkpt>
      <trkpt lat="47.26988" lon="-2.3143">
        <ele>30.200000762939</ele>
        <time>2021-05-09T07:48:57.000Z</time>
      </trkpt>
      <trkpt lat="47.26984" lon="-2.31397">
        <ele>30.200000762939</ele>
        <time>2021-05-09T07:49:03.000Z</time>
      </trkpt>
      <trkpt lat="47.26983" lon="-2.31383">
        <ele>30.60000038147</ele>
        <time>2021-05-09T07:49:06.000Z</time>
      </trkpt>
      <trkpt lat="47.26982" lon="-2.31378">
        <ele>31</ele>
        <time>2021-05-09T07:49:07.000Z</time>
      </trkpt>
      <trkpt lat="47.26982" lon="-2.31374">
        <ele>31.39999961853</ele>
        <time>2021-05-09T07:49:08.000Z</time>
      </trkpt>
      <trkpt lat="47.26982" lon="-2.3137">
        <ele>32</ele>
        <time>2021-05-09T07:49:09.000Z</time>
      </trkpt>
      <trkpt lat="47.26982" lon="-2.31366">
        <ele>32.400001525879</ele>
        <time>2021-05-09T07:49:10.000Z</time>
      </trkpt>
      <trkpt lat="47.26979" lon="-2.31345">
        <ele>32.400001525879</ele>
        <time>2021-05-09T07:49:14.000Z</time>
      </trkpt>
      <trkpt lat="47.26975" lon="-2.31311">
        <ele>32.400001525879</ele>
        <time>2021-05-09T07:49:20.000Z</time>
      </trkpt>
      <trkpt lat="47.26974" lon="-2.31276">
        <ele>32.400001525879</ele>
        <time>2021-05-09T07:49:26.000Z</time>
      </trkpt>
      <trkpt lat="47.26973" lon="-2.31268">
        <ele>32.400001525879</ele>
        <time>2021-05-09T07:49:27.000Z</time>
      </trkpt>
      <trkpt lat="47.26973" lon="-2.31254">
        <ele>32.400001525879</ele>
        <time>2021-05-09T07:49:29.000Z</time>
      </trkpt>
      <trkpt lat="47.26975" lon="-2.31234">
        <ele>32.400001525879</ele>
        <time>2021-05-09T07:49:32.000Z</time>
      </trkpt>
      <trkpt lat="47.26982" lon="-2.31191">
        <ele>32.400001525879</ele>
        <time>2021-05-09T07:49:38.000Z</time>
      </trkpt>
      <trkpt lat="47.26986" lon="-2.31157">
        <ele>32.400001525879</ele>
        <time>2021-05-09T07:49:42.000Z</time>
      </trkpt>
      <trkpt lat="47.26987" lon="-2.31139">
        <ele>32.400001525879</ele>
        <time>2021-05-09T07:49:44.000Z</time>
      </trkpt>
      <trkpt lat="47.26989" lon="-2.31101">
        <ele>32</ele>
        <time>2021-05-09T07:49:48.000Z</time>
      </trkpt>
      <trkpt lat="47.26988" lon="-2.31093">
        <ele>31.39999961853</ele>
        <time>2021-05-09T07:49:49.000Z</time>
      </trkpt>
      <trkpt lat="47.26987" lon="-2.31086">
        <ele>31</ele>
        <time>2021-05-09T07:49:50.000Z</time>
      </trkpt>
      <trkpt lat="47.26986" lon="-2.31081">
        <ele>30.60000038147</ele>
        <time>2021-05-09T07:49:51.000Z</time>
      </trkpt>
      <trkpt lat="47.26986" lon="-2.31077">
        <ele>30.200000762939</ele>
        <time>2021-05-09T07:49:52.000Z</time>
      </trkpt>
      <trkpt lat="47.26989" lon="-2.31072">
        <ele>30.200000762939</ele>
        <time>2021-05-09T07:49:53.000Z</time>
      </trkpt>
      <trkpt lat="47.26997" lon="-2.3106">
        <ele>30.200000762939</ele>
        <time>2021-05-09T07:49:56.000Z</time>
      </trkpt>
      <trkpt lat="47.27006" lon="-2.31052">
        <ele>29.799999237061</ele>
        <time>2021-05-09T07:49:58.000Z</time>
      </trkpt>
      <trkpt lat="47.27011" lon="-2.31048">
        <ele>29.200000762939</ele>
        <time>2021-05-09T07:49:59.000Z</time>
      </trkpt>
      <trkpt lat="47.27017" lon="-2.31044">
        <ele>28.799999237061</ele>
        <time>2021-05-09T07:50:00.000Z</time>
      </trkpt>
      <trkpt lat="47.27022" lon="-2.31039">
        <ele>28.39999961853</ele>
        <time>2021-05-09T07:50:01.000Z</time>
      </trkpt>
      <trkpt lat="47.27027" lon="-2.31034">
        <ele>28</ele>
        <time>2021-05-09T07:50:02.000Z</time>
      </trkpt>
      <trkpt lat="47.27032" lon="-2.31029">
        <ele>28</ele>
        <time>2021-05-09T07:50:03.000Z</time>
      </trkpt>
      <trkpt lat="47.27054" lon="-2.31005">
        <ele>27.60000038147</ele>
        <time>2021-05-09T07:50:08.000Z</time>
      </trkpt>
      <trkpt lat="47.27056" lon="-2.30998">
        <ele>27.200000762939</ele>
        <time>2021-05-09T07:50:09.000Z</time>
      </trkpt>
      <trkpt lat="47.27058" lon="-2.30995">
        <ele>26.799999237061</ele>
        <time>2021-05-09T07:50:10.000Z</time>
      </trkpt>
      <trkpt lat="47.27057" lon="-2.3099">
        <ele>26.39999961853</ele>
        <time>2021-05-09T07:50:11.000Z</time>
      </trkpt>
      <trkpt lat="47.27056" lon="-2.30984">
        <ele>26</ele>
        <time>2021-05-09T07:50:12.000Z</time>
      </trkpt>
      <trkpt lat="47.27052" lon="-2.30965">
        <ele>26</ele>
        <time>2021-05-09T07:50:16.000Z</time>
      </trkpt>
      <trkpt lat="47.27051" lon="-2.30956">
        <ele>26</ele>
        <time>2021-05-09T07:50:18.000Z</time>
      </trkpt>
      <trkpt lat="47.27046" lon="-2.30939">
        <ele>26</ele>
        <time>2021-05-09T07:50:22.000Z</time>
      </trkpt>
      <trkpt lat="47.27042" lon="-2.30918">
        <ele>26</ele>
        <time>2021-05-09T07:50:27.000Z</time>
      </trkpt>
      <trkpt lat="47.27034" lon="-2.30885">
        <ele>26</ele>
        <time>2021-05-09T07:50:33.000Z</time>
      </trkpt>
      <trkpt lat="47.2702" lon="-2.30861">
        <ele>26</ele>
        <time>2021-05-09T07:50:38.000Z</time>
      </trkpt>
      <trkpt lat="47.27002" lon="-2.3083">
        <ele>26</ele>
        <time>2021-05-09T07:50:43.000Z</time>
      </trkpt>
      <trkpt lat="47.26998" lon="-2.30824">
        <ele>26.39999961853</ele>
        <time>2021-05-09T07:50:44.000Z</time>
      </trkpt>
      <trkpt lat="47.26995" lon="-2.30818">
        <ele>26.799999237061</ele>
        <time>2021-05-09T07:50:45.000Z</time>
      </trkpt>
      <trkpt lat="47.26991" lon="-2.30813">
        <ele>27.200000762939</ele>
        <time>2021-05-09T07:50:46.000Z</time>
      </trkpt>
      <trkpt lat="47.26988" lon="-2.30809">
        <ele>27.60000038147</ele>
        <time>2021-05-09T07:50:47.000Z</time>
      </trkpt>
      <trkpt lat="47.26985" lon="-2.30804">
        <ele>28</ele>
        <time>2021-05-09T07:50:48.000Z</time>
      </trkpt>
      <trkpt lat="47.26966" lon="-2.30774">
        <ele>28</ele>
        <time>2021-05-09T07:50:55.000Z</time>
      </trkpt>
      <trkpt lat="47.26956" lon="-2.30761">
        <ele>28.39999961853</ele>
        <time>2021-05-09T07:50:58.000Z</time>
      </trkpt>
      <trkpt lat="47.26953" lon="-2.30757">
        <ele>28.799999237061</ele>
        <time>2021-05-09T07:50:59.000Z</time>
      </trkpt>
      <trkpt lat="47.2695" lon="-2.30753">
        <ele>29.39999961853</ele>
        <time>2021-05-09T07:51:00.000Z</time>
      </trkpt>
      <trkpt lat="47.26948" lon="-2.30749">
        <ele>30.200000762939</ele>
        <time>2021-05-09T07:51:01.000Z</time>
      </trkpt>
      <trkpt lat="47.26945" lon="-2.30745">
        <ele>30.200000762939</ele>
        <time>2021-05-09T07:51:02.000Z</time>
      </trkpt>
      <trkpt lat="47.26925" lon="-2.3071">
        <ele>30.60000038147</ele>
        <time>2021-05-09T07:51:09.000Z</time>
      </trkpt>
      <trkpt lat="47.26922" lon="-2.30706">
        <ele>31</ele>
        <time>2021-05-09T07:51:10.000Z</time>
      </trkpt>
      <trkpt lat="47.26918" lon="-2.30701">
        <ele>31.39999961853</ele>
        <time>2021-05-09T07:51:11.000Z</time>
      </trkpt>
      <trkpt lat="47.26915" lon="-2.30696">
        <ele>31.799999237061</ele>
        <time>2021-05-09T07:51:12.000Z</time>
      </trkpt>
      <trkpt lat="47.26911" lon="-2.30692">
        <ele>32.200000762939</ele>
        <time>2021-05-09T07:51:13.000Z</time>
      </trkpt>
      <trkpt lat="47.26902" lon="-2.3068">
        <ele>32.200000762939</ele>
        <time>2021-05-09T07:51:16.000Z</time>
      </trkpt>
      <trkpt lat="47.26895" lon="-2.30663">
        <ele>32.200000762939</ele>
        <time>2021-05-09T07:51:21.000Z</time>
      </trkpt>
      <trkpt lat="47.26896" lon="-2.30654">
        <ele>32.200000762939</ele>
        <time>2021-05-09T07:51:23.000Z</time>
      </trkpt>
      <trkpt lat="47.26903" lon="-2.30647">
        <ele>32.200000762939</ele>
        <time>2021-05-09T07:51:25.000Z</time>
      </trkpt>
      <trkpt lat="47.2691" lon="-2.30641">
        <ele>32.200000762939</ele>
        <time>2021-05-09T07:51:27.000Z</time>
      </trkpt>
      <trkpt lat="47.26924" lon="-2.30632">
        <ele>32.200000762939</ele>
        <time>2021-05-09T07:51:30.000Z</time>
      </trkpt>
      <trkpt lat="47.26946" lon="-2.30629">
        <ele>32.200000762939</ele>
        <time>2021-05-09T07:51:34.000Z</time>
      </trkpt>
      <trkpt lat="47.2695" lon="-2.30628">
        <ele>32.200000762939</ele>
        <time>2021-05-09T07:51:35.000Z</time>
      </trkpt>
      <trkpt lat="47.26976" lon="-2.30616">
        <ele>32.200000762939</ele>
        <time>2021-05-09T07:51:40.000Z</time>
      </trkpt>
      <trkpt lat="47.27001" lon="-2.30601">
        <ele>32.200000762939</ele>
        <time>2021-05-09T07:51:45.000Z</time>
      </trkpt>
      <trkpt lat="47.27008" lon="-2.30591">
        <ele>32.200000762939</ele>
        <time>2021-05-09T07:51:47.000Z</time>
      </trkpt>
      <trkpt lat="47.27014" lon="-2.3057">
        <ele>32.200000762939</ele>
        <time>2021-05-09T07:51:50.000Z</time>
      </trkpt>
      <trkpt lat="47.27017" lon="-2.30563">
        <ele>32.200000762939</ele>
        <time>2021-05-09T07:51:51.000Z</time>
      </trkpt>
      <trkpt lat="47.27024" lon="-2.30544">
        <ele>32.200000762939</ele>
        <time>2021-05-09T07:51:54.000Z</time>
      </trkpt>
      <trkpt lat="47.27026" lon="-2.30539">
        <ele>32.200000762939</ele>
        <time>2021-05-09T07:51:55.000Z</time>
      </trkpt>
      <trkpt lat="47.2703" lon="-2.30525">
        <ele>32.200000762939</ele>
        <time>2021-05-09T07:51:57.000Z</time>
      </trkpt>
      <trkpt lat="47.27035" lon="-2.30501">
        <ele>32.200000762939</ele>
        <time>2021-05-09T07:52:00.000Z</time>
      </trkpt>
      <trkpt lat="47.2704" lon="-2.30476">
        <ele>32.200000762939</ele>
        <time>2021-05-09T07:52:03.000Z</time>
      </trkpt>
      <trkpt lat="47.27046" lon="-2.3045">
        <ele>32.200000762939</ele>
        <time>2021-05-09T07:52:06.000Z</time>
      </trkpt>
      <trkpt lat="47.27053" lon="-2.30393">
        <ele>32.200000762939</ele>
        <time>2021-05-09T07:52:13.000Z</time>
      </trkpt>
      <trkpt lat="47.27055" lon="-2.30371">
        <ele>32.200000762939</ele>
        <time>2021-05-09T07:52:16.000Z</time>
      </trkpt>
      <trkpt lat="47.2706" lon="-2.30347">
        <ele>32.200000762939</ele>
        <time>2021-05-09T07:52:20.000Z</time>
      </trkpt>
      <trkpt lat="47.27062" lon="-2.3033">
        <ele>32.200000762939</ele>
        <time>2021-05-09T07:52:25.000Z</time>
      </trkpt>
      <trkpt lat="47.27068" lon="-2.30305">
        <ele>32.200000762939</ele>
        <time>2021-05-09T07:52:32.000Z</time>
      </trkpt>
      <trkpt lat="47.27068" lon="-2.3029">
        <ele>32.200000762939</ele>
        <time>2021-05-09T07:52:38.000Z</time>
      </trkpt>
      <trkpt lat="47.27072" lon="-2.30285">
        <ele>31.799999237061</ele>
        <time>2021-05-09T07:52:41.000Z</time>
      </trkpt>
      <trkpt lat="47.27073" lon="-2.30283">
        <ele>31.39999961853</ele>
        <time>2021-05-09T07:52:42.000Z</time>
      </trkpt>
      <trkpt lat="47.27075" lon="-2.3028">
        <ele>31</ele>
        <time>2021-05-09T07:52:43.000Z</time>
      </trkpt>
      <trkpt lat="47.27076" lon="-2.30277">
        <ele>30.39999961853</ele>
        <time>2021-05-09T07:52:44.000Z</time>
      </trkpt>
      <trkpt lat="47.27079" lon="-2.30275">
        <ele>30</ele>
        <time>2021-05-09T07:52:45.000Z</time>
      </trkpt>
      <trkpt lat="47.27096" lon="-2.30265">
        <ele>30</ele>
        <time>2021-05-09T07:52:50.000Z</time>
      </trkpt>
      <trkpt lat="47.27127" lon="-2.30249">
        <ele>30</ele>
        <time>2021-05-09T07:52:56.000Z</time>
      </trkpt>
      <trkpt lat="47.27133" lon="-2.30248">
        <ele>30</ele>
        <time>2021-05-09T07:52:57.000Z</time>
      </trkpt>
      <trkpt lat="47.27149" lon="-2.30237">
        <ele>30</ele>
        <time>2021-05-09T07:53:00.000Z</time>
      </trkpt>
      <trkpt lat="47.27154" lon="-2.30221">
        <ele>30</ele>
        <time>2021-05-09T07:53:03.000Z</time>
      </trkpt>
      <trkpt lat="47.27155" lon="-2.30208">
        <ele>30</ele>
        <time>2021-05-09T07:53:05.000Z</time>
      </trkpt>
      <trkpt lat="47.27157" lon="-2.30185">
        <ele>30</ele>
        <time>2021-05-09T07:53:08.000Z</time>
      </trkpt>
      <trkpt lat="47.2716" lon="-2.30156">
        <ele>30</ele>
        <time>2021-05-09T07:53:13.000Z</time>
      </trkpt>
      <trkpt lat="47.27158" lon="-2.3013">
        <ele>30.60000038147</ele>
        <time>2021-05-09T07:53:18.000Z</time>
      </trkpt>
      <trkpt lat="47.27157" lon="-2.30126">
        <ele>31</ele>
        <time>2021-05-09T07:53:19.000Z</time>
      </trkpt>
      <trkpt lat="47.27154" lon="-2.30124">
        <ele>31.39999961853</ele>
        <time>2021-05-09T07:53:20.000Z</time>
      </trkpt>
      <trkpt lat="47.2715" lon="-2.30121">
        <ele>31.799999237061</ele>
        <time>2021-05-09T07:53:21.000Z</time>
      </trkpt>
      <trkpt lat="47.27146" lon="-2.30119">
        <ele>32.200000762939</ele>
        <time>2021-05-09T07:53:22.000Z</time>
      </trkpt>
      <trkpt lat="47.27138" lon="-2.30117">
        <ele>32.200000762939</ele>
        <time>2021-05-09T07:53:24.000Z</time>
      </trkpt>
      <trkpt lat="47.27123" lon="-2.30112">
        <ele>32.200000762939</ele>
        <time>2021-05-09T07:53:28.000Z</time>
      </trkpt>
      <trkpt lat="47.27097" lon="-2.30093">
        <ele>32.599998474121</ele>
        <time>2021-05-09T07:53:35.000Z</time>
      </trkpt>
      <trkpt lat="47.27094" lon="-2.3009">
        <ele>33</ele>
        <time>2021-05-09T07:53:36.000Z</time>
      </trkpt>
      <trkpt lat="47.27092" lon="-2.30087">
        <ele>33.400001525879</ele>
        <time>2021-05-09T07:53:37.000Z</time>
      </trkpt>
      <trkpt lat="47.27088" lon="-2.30084">
        <ele>33.799999237061</ele>
        <time>2021-05-09T07:53:38.000Z</time>
      </trkpt>
      <trkpt lat="47.27085" lon="-2.3008">
        <ele>34.200000762939</ele>
        <time>2021-05-09T07:53:39.000Z</time>
      </trkpt>
      <trkpt lat="47.27078" lon="-2.30076">
        <ele>34.200000762939</ele>
        <time>2021-05-09T07:53:41.000Z</time>
      </trkpt>
      <trkpt lat="47.27057" lon="-2.30067">
        <ele>34.200000762939</ele>
        <time>2021-05-09T07:53:46.000Z</time>
      </trkpt>
      <trkpt lat="47.27034" lon="-2.30066">
        <ele>34.200000762939</ele>
        <time>2021-05-09T07:53:52.000Z</time>
      </trkpt>
      <trkpt lat="47.27019" lon="-2.30064">
        <ele>34.200000762939</ele>
        <time>2021-05-09T07:53:57.000Z</time>
      </trkpt>
      <trkpt lat="47.27014" lon="-2.30055">
        <ele>34.599998474121</ele>
        <time>2021-05-09T07:54:00.000Z</time>
      </trkpt>
      <trkpt lat="47.27013" lon="-2.3005">
        <ele>35</ele>
        <time>2021-05-09T07:54:01.000Z</time>
      </trkpt>
      <trkpt lat="47.27015" lon="-2.30044">
        <ele>35.400001525879</ele>
        <time>2021-05-09T07:54:02.000Z</time>
      </trkpt>
      <trkpt lat="47.27016" lon="-2.30036">
        <ele>35.799999237061</ele>
        <time>2021-05-09T07:54:03.000Z</time>
      </trkpt>
      <trkpt lat="47.27018" lon="-2.3003">
        <ele>36.200000762939</ele>
        <time>2021-05-09T07:54:04.000Z</time>
      </trkpt>
      <trkpt lat="47.2702" lon="-2.30023">
        <ele>36.200000762939</ele>
        <time>2021-05-09T07:54:05.000Z</time>
      </trkpt>
      <trkpt lat="47.27034" lon="-2.29986">
        <ele>36.200000762939</ele>
        <time>2021-05-09T07:54:11.000Z</time>
      </trkpt>
      <trkpt lat="47.27036" lon="-2.29981">
        <ele>36.200000762939</ele>
        <time>2021-05-09T07:54:12.000Z</time>
      </trkpt>
      <trkpt lat="47.27051" lon="-2.29942">
        <ele>36.200000762939</ele>
        <time>2021-05-09T07:54:19.000Z</time>
      </trkpt>
      <trkpt lat="47.27054" lon="-2.29937">
        <ele>36.200000762939</ele>
        <time>2021-05-09T07:54:20.000Z</time>
      </trkpt>
      <trkpt lat="47.27077" lon="-2.29906">
        <ele>36.200000762939</ele>
        <time>2021-05-09T07:54:26.000Z</time>
      </trkpt>
      <trkpt lat="47.27092" lon="-2.29876">
        <ele>36.200000762939</ele>
        <time>2021-05-09T07:54:31.000Z</time>
      </trkpt>
      <trkpt lat="47.27094" lon="-2.2987">
        <ele>36.200000762939</ele>
        <time>2021-05-09T07:54:32.000Z</time>
      </trkpt>
      <trkpt lat="47.27103" lon="-2.29846">
        <ele>36.200000762939</ele>
        <time>2021-05-09T07:54:36.000Z</time>
      </trkpt>
      <trkpt lat="47.27112" lon="-2.29809">
        <ele>36.200000762939</ele>
        <time>2021-05-09T07:54:42.000Z</time>
      </trkpt>
      <trkpt lat="47.27113" lon="-2.29791">
        <ele>36.200000762939</ele>
        <time>2021-05-09T07:54:45.000Z</time>
      </trkpt>
      <trkpt lat="47.27112" lon="-2.29776">
        <ele>36.200000762939</ele>
        <time>2021-05-09T07:54:47.000Z</time>
      </trkpt>
      <trkpt lat="47.27114" lon="-2.29758">
        <ele>36.200000762939</ele>
        <time>2021-05-09T07:54:49.000Z</time>
      </trkpt>
      <trkpt lat="47.27118" lon="-2.29725">
        <ele>36.200000762939</ele>
        <time>2021-05-09T07:54:53.000Z</time>
      </trkpt>
      <trkpt lat="47.27119" lon="-2.29718">
        <ele>36.200000762939</ele>
        <time>2021-05-09T07:54:54.000Z</time>
      </trkpt>
      <trkpt lat="47.27121" lon="-2.29692">
        <ele>36.200000762939</ele>
        <time>2021-05-09T07:54:58.000Z</time>
      </trkpt>
      <trkpt lat="47.27122" lon="-2.29672">
        <ele>36.200000762939</ele>
        <time>2021-05-09T07:55:02.000Z</time>
      </trkpt>
      <trkpt lat="47.27124" lon="-2.29653">
        <ele>36.200000762939</ele>
        <time>2021-05-09T07:55:06.000Z</time>
      </trkpt>
      <trkpt lat="47.2714" lon="-2.29647">
        <ele>36.200000762939</ele>
        <time>2021-05-09T07:55:10.000Z</time>
      </trkpt>
      <trkpt lat="47.27159" lon="-2.29644">
        <ele>36.200000762939</ele>
        <time>2021-05-09T07:55:14.000Z</time>
      </trkpt>
      <trkpt lat="47.27167" lon="-2.2964">
        <ele>36.200000762939</ele>
        <time>2021-05-09T07:55:16.000Z</time>
      </trkpt>
      <trkpt lat="47.27179" lon="-2.2963">
        <ele>36.200000762939</ele>
        <time>2021-05-09T07:55:19.000Z</time>
      </trkpt>
      <trkpt lat="47.27192" lon="-2.29619">
        <ele>36.200000762939</ele>
        <time>2021-05-09T07:55:22.000Z</time>
      </trkpt>
      <trkpt lat="47.272" lon="-2.29612">
        <ele>36.200000762939</ele>
        <time>2021-05-09T07:55:24.000Z</time>
      </trkpt>
      <trkpt lat="47.27214" lon="-2.296">
        <ele>36.200000762939</ele>
        <time>2021-05-09T07:55:27.000Z</time>
      </trkpt>
      <trkpt lat="47.27222" lon="-2.29593">
        <ele>36.200000762939</ele>
        <time>2021-05-09T07:55:29.000Z</time>
      </trkpt>
      <trkpt lat="47.27236" lon="-2.29583">
        <ele>36.200000762939</ele>
        <time>2021-05-09T07:55:32.000Z</time>
      </trkpt>
      <trkpt lat="47.27248" lon="-2.29559">
        <ele>36.200000762939</ele>
        <time>2021-05-09T07:55:36.000Z</time>
      </trkpt>
      <trkpt lat="47.27247" lon="-2.2953">
        <ele>36.200000762939</ele>
        <time>2021-05-09T07:55:40.000Z</time>
      </trkpt>
      <trkpt lat="47.27246" lon="-2.29523">
        <ele>36.200000762939</ele>
        <time>2021-05-09T07:55:41.000Z</time>
      </trkpt>
      <trkpt lat="47.27236" lon="-2.29493">
        <ele>36.200000762939</ele>
        <time>2021-05-09T07:55:45.000Z</time>
      </trkpt>
      <trkpt lat="47.27216" lon="-2.29434">
        <ele>36.200000762939</ele>
        <time>2021-05-09T07:55:52.000Z</time>
      </trkpt>
      <trkpt lat="47.27194" lon="-2.29379">
        <ele>36.200000762939</ele>
        <time>2021-05-09T07:55:59.000Z</time>
      </trkpt>
      <trkpt lat="47.27179" lon="-2.2935">
        <ele>36.200000762939</ele>
        <time>2021-05-09T07:56:03.000Z</time>
      </trkpt>
      <trkpt lat="47.27176" lon="-2.29345">
        <ele>36.200000762939</ele>
        <time>2021-05-09T07:56:04.000Z</time>
      </trkpt>
      <trkpt lat="47.27159" lon="-2.29325">
        <ele>36.200000762939</ele>
        <time>2021-05-09T07:56:10.000Z</time>
      </trkpt>
      <trkpt lat="47.27148" lon="-2.29305">
        <ele>36.200000762939</ele>
        <time>2021-05-09T07:56:15.000Z</time>
      </trkpt>
      <trkpt lat="47.27148" lon="-2.29287">
        <ele>36.200000762939</ele>
        <time>2021-05-09T07:56:18.000Z</time>
      </trkpt>
      <trkpt lat="47.27149" lon="-2.29279">
        <ele>36.200000762939</ele>
        <time>2021-05-09T07:56:19.000Z</time>
      </trkpt>
      <trkpt lat="47.27162" lon="-2.2924">
        <ele>36.200000762939</ele>
        <time>2021-05-09T07:56:23.000Z</time>
      </trkpt>
      <trkpt lat="47.27164" lon="-2.29231">
        <ele>36.200000762939</ele>
        <time>2021-05-09T07:56:24.000Z</time>
      </trkpt>
      <trkpt lat="47.27166" lon="-2.2921">
        <ele>36.200000762939</ele>
        <time>2021-05-09T07:56:27.000Z</time>
      </trkpt>
      <trkpt lat="47.27161" lon="-2.29196">
        <ele>36.200000762939</ele>
        <time>2021-05-09T07:56:29.000Z</time>
      </trkpt>
      <trkpt lat="47.27158" lon="-2.29177">
        <ele>36.200000762939</ele>
        <time>2021-05-09T07:56:32.000Z</time>
      </trkpt>
      <trkpt lat="47.27159" lon="-2.29171">
        <ele>36.200000762939</ele>
        <time>2021-05-09T07:56:33.000Z</time>
      </trkpt>
      <trkpt lat="47.27171" lon="-2.29146">
        <ele>36.200000762939</ele>
        <time>2021-05-09T07:56:38.000Z</time>
      </trkpt>
      <trkpt lat="47.27179" lon="-2.29137">
        <ele>36.200000762939</ele>
        <time>2021-05-09T07:56:40.000Z</time>
      </trkpt>
      <trkpt lat="47.27187" lon="-2.29129">
        <ele>36.200000762939</ele>
        <time>2021-05-09T07:56:42.000Z</time>
      </trkpt>
      <trkpt lat="47.27191" lon="-2.29124">
        <ele>36.200000762939</ele>
        <time>2021-05-09T07:56:43.000Z</time>
      </trkpt>
      <trkpt lat="47.272" lon="-2.29108">
        <ele>36.200000762939</ele>
        <time>2021-05-09T07:56:46.000Z</time>
      </trkpt>
      <trkpt lat="47.27207" lon="-2.291">
        <ele>36.200000762939</ele>
        <time>2021-05-09T07:56:48.000Z</time>
      </trkpt>
      <trkpt lat="47.27215" lon="-2.29091">
        <ele>36.200000762939</ele>
        <time>2021-05-09T07:56:50.000Z</time>
      </trkpt>
      <trkpt lat="47.27219" lon="-2.29086">
        <ele>35.799999237061</ele>
        <time>2021-05-09T07:56:51.000Z</time>
      </trkpt>
      <trkpt lat="47.27223" lon="-2.29082">
        <ele>35.400001525879</ele>
        <time>2021-05-09T07:56:52.000Z</time>
      </trkpt>
      <trkpt lat="47.27227" lon="-2.29078">
        <ele>35</ele>
        <time>2021-05-09T07:56:53.000Z</time>
      </trkpt>
      <trkpt lat="47.27231" lon="-2.29074">
        <ele>34.599998474121</ele>
        <time>2021-05-09T07:56:54.000Z</time>
      </trkpt>
      <trkpt lat="47.27236" lon="-2.2907">
        <ele>34.200000762939</ele>
        <time>2021-05-09T07:56:55.000Z</time>
      </trkpt>
      <trkpt lat="47.27241" lon="-2.29067">
        <ele>34.200000762939</ele>
        <time>2021-05-09T07:56:56.000Z</time>
      </trkpt>
      <trkpt lat="47.27249" lon="-2.2906">
        <ele>34.200000762939</ele>
        <time>2021-05-09T07:56:58.000Z</time>
      </trkpt>
      <trkpt lat="47.27264" lon="-2.29039">
        <ele>34.200000762939</ele>
        <time>2021-05-09T07:57:02.000Z</time>
      </trkpt>
      <trkpt lat="47.27267" lon="-2.29033">
        <ele>34.200000762939</ele>
        <time>2021-05-09T07:57:03.000Z</time>
      </trkpt>
      <trkpt lat="47.27272" lon="-2.29017">
        <ele>34.200000762939</ele>
        <time>2021-05-09T07:57:05.000Z</time>
      </trkpt>
      <trkpt lat="47.27277" lon="-2.29005">
        <ele>34.200000762939</ele>
        <time>2021-05-09T07:57:07.000Z</time>
      </trkpt>
      <trkpt lat="47.27287" lon="-2.28988">
        <ele>34.200000762939</ele>
        <time>2021-05-09T07:57:10.000Z</time>
      </trkpt>
      <trkpt lat="47.273" lon="-2.28971">
        <ele>34.200000762939</ele>
        <time>2021-05-09T07:57:14.000Z</time>
      </trkpt>
      <trkpt lat="47.27318" lon="-2.28957">
        <ele>34.200000762939</ele>
        <time>2021-05-09T07:57:19.000Z</time>
      </trkpt>
      <trkpt lat="47.27332" lon="-2.28963">
        <ele>34.200000762939</ele>
        <time>2021-05-09T07:57:22.000Z</time>
      </trkpt>
      <trkpt lat="47.27343" lon="-2.28957">
        <ele>34.200000762939</ele>
        <time>2021-05-09T07:57:25.000Z</time>
      </trkpt>
      <trkpt lat="47.2736" lon="-2.28933">
        <ele>34.200000762939</ele>
        <time>2021-05-09T07:57:30.000Z</time>
      </trkpt>
      <trkpt lat="47.27364" lon="-2.28918">
        <ele>34.200000762939</ele>
        <time>2021-05-09T07:57:32.000Z</time>
      </trkpt>
      <trkpt lat="47.27371" lon="-2.28885">
        <ele>34.200000762939</ele>
        <time>2021-05-09T07:57:36.000Z</time>
      </trkpt>
      <trkpt lat="47.27378" lon="-2.28835">
        <ele>34.200000762939</ele>
        <time>2021-05-09T07:57:42.000Z</time>
      </trkpt>
      <trkpt lat="47.2738" lon="-2.28818">
        <ele>34.200000762939</ele>
        <time>2021-05-09T07:57:44.000Z</time>
      </trkpt>
      <trkpt lat="47.27385" lon="-2.28804">
        <ele>34.200000762939</ele>
        <time>2021-05-09T07:57:46.000Z</time>
      </trkpt>
      <trkpt lat="47.27393" lon="-2.28782">
        <ele>34.200000762939</ele>
        <time>2021-05-09T07:57:49.000Z</time>
      </trkpt>
      <trkpt lat="47.27398" lon="-2.28767">
        <ele>34.200000762939</ele>
        <time>2021-05-09T07:57:51.000Z</time>
      </trkpt>
      <trkpt lat="47.27409" lon="-2.28733">
        <ele>34.200000762939</ele>
        <time>2021-05-09T07:57:56.000Z</time>
      </trkpt>
      <trkpt lat="47.27411" lon="-2.28726">
        <ele>34.200000762939</ele>
        <time>2021-05-09T07:57:57.000Z</time>
      </trkpt>
      <trkpt lat="47.27422" lon="-2.28702">
        <ele>34.200000762939</ele>
        <time>2021-05-09T07:58:01.000Z</time>
      </trkpt>
      <trkpt lat="47.27428" lon="-2.28691">
        <ele>34.200000762939</ele>
        <time>2021-05-09T07:58:03.000Z</time>
      </trkpt>
      <trkpt lat="47.27447" lon="-2.28652">
        <ele>34.200000762939</ele>
        <time>2021-05-09T07:58:09.000Z</time>
      </trkpt>
      <trkpt lat="47.27468" lon="-2.28619">
        <ele>34.200000762939</ele>
        <time>2021-05-09T07:58:14.000Z</time>
      </trkpt>
      <trkpt lat="47.27474" lon="-2.28614">
        <ele>34.200000762939</ele>
        <time>2021-05-09T07:58:15.000Z</time>
      </trkpt>
      <trkpt lat="47.27483" lon="-2.28615">
        <ele>34.200000762939</ele>
        <time>2021-05-09T07:58:17.000Z</time>
      </trkpt>
      <trkpt lat="47.27488" lon="-2.28627">
        <ele>34.200000762939</ele>
        <time>2021-05-09T07:58:19.000Z</time>
      </trkpt>
      <trkpt lat="47.27493" lon="-2.28641">
        <ele>34.200000762939</ele>
        <time>2021-05-09T07:58:21.000Z</time>
      </trkpt>
      <trkpt lat="47.275" lon="-2.28661">
        <ele>34.200000762939</ele>
        <time>2021-05-09T07:58:24.000Z</time>
      </trkpt>
      <trkpt lat="47.27509" lon="-2.28678">
        <ele>34.200000762939</ele>
        <time>2021-05-09T07:58:27.000Z</time>
      </trkpt>
      <trkpt lat="47.27527" lon="-2.287">
        <ele>34.200000762939</ele>
        <time>2021-05-09T07:58:32.000Z</time>
      </trkpt>
      <trkpt lat="47.27531" lon="-2.28704">
        <ele>34.200000762939</ele>
        <time>2021-05-09T07:58:33.000Z</time>
      </trkpt>
      <trkpt lat="47.27553" lon="-2.28717">
        <ele>34.200000762939</ele>
        <time>2021-05-09T07:58:38.000Z</time>
      </trkpt>
      <trkpt lat="47.27568" lon="-2.28726">
        <ele>34.200000762939</ele>
        <time>2021-05-09T07:58:41.000Z</time>
      </trkpt>
      <trkpt lat="47.27584" lon="-2.28735">
        <ele>34.200000762939</ele>
        <time>2021-05-09T07:58:44.000Z</time>
      </trkpt>
      <trkpt lat="47.2762" lon="-2.28751">
        <ele>34.200000762939</ele>
        <time>2021-05-09T07:58:50.000Z</time>
      </trkpt>
      <trkpt lat="47.27637" lon="-2.28756">
        <ele>34.200000762939</ele>
        <time>2021-05-09T07:58:53.000Z</time>
      </trkpt>
      <trkpt lat="47.27647" lon="-2.2876">
        <ele>34.200000762939</ele>
        <time>2021-05-09T07:58:55.000Z</time>
      </trkpt>
      <trkpt lat="47.27657" lon="-2.28765">
        <ele>34.200000762939</ele>
        <time>2021-05-09T07:58:57.000Z</time>
      </trkpt>
      <trkpt lat="47.27667" lon="-2.28772">
        <ele>34.200000762939</ele>
        <time>2021-05-09T07:58:59.000Z</time>
      </trkpt>
      <trkpt lat="47.2769" lon="-2.28801">
        <ele>34.200000762939</ele>
        <time>2021-05-09T07:59:04.000Z</time>
      </trkpt>
      <trkpt lat="47.27701" lon="-2.28815">
        <ele>34.200000762939</ele>
        <time>2021-05-09T07:59:07.000Z</time>
      </trkpt>
      <trkpt lat="47.27715" lon="-2.28813">
        <ele>34.200000762939</ele>
        <time>2021-05-09T07:59:10.000Z</time>
      </trkpt>
      <trkpt lat="47.27747" lon="-2.28801">
        <ele>34.200000762939</ele>
        <time>2021-05-09T07:59:16.000Z</time>
      </trkpt>
      <trkpt lat="47.27783" lon="-2.28797">
        <ele>34.200000762939</ele>
        <time>2021-05-09T07:59:22.000Z</time>
      </trkpt>
      <trkpt lat="47.27818" lon="-2.28795">
        <ele>34.200000762939</ele>
        <time>2021-05-09T07:59:28.000Z</time>
      </trkpt>
      <trkpt lat="47.27846" lon="-2.28808">
        <ele>34.200000762939</ele>
        <time>2021-05-09T07:59:33.000Z</time>
      </trkpt>
      <trkpt lat="47.27859" lon="-2.28817">
        <ele>34.200000762939</ele>
        <time>2021-05-09T07:59:37.000Z</time>
      </trkpt>
      <trkpt lat="47.27862" lon="-2.28818">
        <ele>34.200000762939</ele>
        <time>2021-05-09T07:59:40.000Z</time>
      </trkpt>
      <trkpt lat="47.27868" lon="-2.28818">
        <ele>32.200000762939</ele>
        <time>2021-05-09T07:59:53.000Z</time>
      </trkpt>
      <trkpt lat="47.27868" lon="-2.28808">
        <ele>32.200000762939</ele>
        <time>2021-05-09T07:59:56.000Z</time>
      </trkpt>
      <trkpt lat="47.27869" lon="-2.28804">
        <ele>32.200000762939</ele>
        <time>2021-05-09T07:59:57.000Z</time>
      </trkpt>
      <trkpt lat="47.27876" lon="-2.28779">
        <ele>32.200000762939</ele>
        <time>2021-05-09T08:00:02.000Z</time>
      </trkpt>
      <trkpt lat="47.27879" lon="-2.28775">
        <ele>32.200000762939</ele>
        <time>2021-05-09T08:00:03.000Z</time>
      </trkpt>
      <trkpt lat="47.27887" lon="-2.28769">
        <ele>32.200000762939</ele>
        <time>2021-05-09T08:00:05.000Z</time>
      </trkpt>
      <trkpt lat="47.27921" lon="-2.28759">
        <ele>32.200000762939</ele>
        <time>2021-05-09T08:00:12.000Z</time>
      </trkpt>
      <trkpt lat="47.27937" lon="-2.28753">
        <ele>32.200000762939</ele>
        <time>2021-05-09T08:00:15.000Z</time>
      </trkpt>
      <trkpt lat="47.27947" lon="-2.2875">
        <ele>32.200000762939</ele>
        <time>2021-05-09T08:00:17.000Z</time>
      </trkpt>
      <trkpt lat="47.27975" lon="-2.28748">
        <ele>32.200000762939</ele>
        <time>2021-05-09T08:00:22.000Z</time>
      </trkpt>
      <trkpt lat="47.27987" lon="-2.28749">
        <ele>32.200000762939</ele>
        <time>2021-05-09T08:00:24.000Z</time>
      </trkpt>
      <trkpt lat="47.28015" lon="-2.28754">
        <ele>32.200000762939</ele>
        <time>2021-05-09T08:00:29.000Z</time>
      </trkpt>
      <trkpt lat="47.28052" lon="-2.28764">
        <ele>32.200000762939</ele>
        <time>2021-05-09T08:00:35.000Z</time>
      </trkpt>
      <trkpt lat="47.28086" lon="-2.28778">
        <ele>32.200000762939</ele>
        <time>2021-05-09T08:00:41.000Z</time>
      </trkpt>
      <trkpt lat="47.28122" lon="-2.28797">
        <ele>32.599998474121</ele>
        <time>2021-05-09T08:00:48.000Z</time>
      </trkpt>
      <trkpt lat="47.28127" lon="-2.288">
        <ele>33</ele>
        <time>2021-05-09T08:00:49.000Z</time>
      </trkpt>
      <trkpt lat="47.28131" lon="-2.28803">
        <ele>33.400001525879</ele>
        <time>2021-05-09T08:00:50.000Z</time>
      </trkpt>
      <trkpt lat="47.28136" lon="-2.28806">
        <ele>33.799999237061</ele>
        <time>2021-05-09T08:00:51.000Z</time>
      </trkpt>
      <trkpt lat="47.2814" lon="-2.28809">
        <ele>34.200000762939</ele>
        <time>2021-05-09T08:00:52.000Z</time>
      </trkpt>
      <trkpt lat="47.28145" lon="-2.28813">
        <ele>34.200000762939</ele>
        <time>2021-05-09T08:00:53.000Z</time>
      </trkpt>
      <trkpt lat="47.28149" lon="-2.28817">
        <ele>34.200000762939</ele>
        <time>2021-05-09T08:00:54.000Z</time>
      </trkpt>
      <trkpt lat="47.28167" lon="-2.28833">
        <ele>34.599998474121</ele>
        <time>2021-05-09T08:00:58.000Z</time>
      </trkpt>
      <trkpt lat="47.28171" lon="-2.28837">
        <ele>35.200000762939</ele>
        <time>2021-05-09T08:00:59.000Z</time>
      </trkpt>
      <trkpt lat="47.28176" lon="-2.28841">
        <ele>35.599998474121</ele>
        <time>2021-05-09T08:01:00.000Z</time>
      </trkpt>
      <trkpt lat="47.2818" lon="-2.28845">
        <ele>36</ele>
        <time>2021-05-09T08:01:01.000Z</time>
      </trkpt>
      <trkpt lat="47.28184" lon="-2.28849">
        <ele>36.400001525879</ele>
        <time>2021-05-09T08:01:02.000Z</time>
      </trkpt>
      <trkpt lat="47.28201" lon="-2.28864">
        <ele>36.400001525879</ele>
        <time>2021-05-09T08:01:06.000Z</time>
      </trkpt>
      <trkpt lat="47.28205" lon="-2.28867">
        <ele>36.400001525879</ele>
        <time>2021-05-09T08:01:07.000Z</time>
      </trkpt>
      <trkpt lat="47.28221" lon="-2.28872">
        <ele>36.400001525879</ele>
        <time>2021-05-09T08:01:10.000Z</time>
      </trkpt>
      <trkpt lat="47.28236" lon="-2.28859">
        <ele>36.400001525879</ele>
        <time>2021-05-09T08:01:13.000Z</time>
      </trkpt>
      <trkpt lat="47.28239" lon="-2.28852">
        <ele>36.799999237061</ele>
        <time>2021-05-09T08:01:14.000Z</time>
      </trkpt>
      <trkpt lat="47.28241" lon="-2.28844">
        <ele>37.200000762939</ele>
        <time>2021-05-09T08:01:15.000Z</time>
      </trkpt>
      <trkpt lat="47.28242" lon="-2.28835">
        <ele>37.599998474121</ele>
        <time>2021-05-09T08:01:16.000Z</time>
      </trkpt>
      <trkpt lat="47.28243" lon="-2.28826">
        <ele>38.400001525879</ele>
        <time>2021-05-09T08:01:17.000Z</time>
      </trkpt>
      <trkpt lat="47.28249" lon="-2.28763">
        <ele>38.400001525879</ele>
        <time>2021-05-09T08:01:24.000Z</time>
      </trkpt>
      <trkpt lat="47.2826" lon="-2.28693">
        <ele>38.400001525879</ele>
        <time>2021-05-09T08:01:32.000Z</time>
      </trkpt>
      <trkpt lat="47.28273" lon="-2.28632">
        <ele>38.400001525879</ele>
        <time>2021-05-09T08:01:39.000Z</time>
      </trkpt>
      <trkpt lat="47.28283" lon="-2.2858">
        <ele>38.400001525879</ele>
        <time>2021-05-09T08:01:45.000Z</time>
      </trkpt>
      <trkpt lat="47.28295" lon="-2.28511">
        <ele>38.400001525879</ele>
        <time>2021-05-09T08:01:53.000Z</time>
      </trkpt>
      <trkpt lat="47.28304" lon="-2.28454">
        <ele>38.400001525879</ele>
        <time>2021-05-09T08:02:00.000Z</time>
      </trkpt>
      <trkpt lat="47.28319" lon="-2.28399">
        <ele>38.400001525879</ele>
        <time>2021-05-09T08:02:07.000Z</time>
      </trkpt>
      <trkpt lat="47.28326" lon="-2.28349">
        <ele>38.400001525879</ele>
        <time>2021-05-09T08:02:13.000Z</time>
      </trkpt>
      <trkpt lat="47.28327" lon="-2.28286">
        <ele>38.400001525879</ele>
        <time>2021-05-09T08:02:21.000Z</time>
      </trkpt>
      <trkpt lat="47.28326" lon="-2.28241">
        <ele>38.400001525879</ele>
        <time>2021-05-09T08:02:27.000Z</time>
      </trkpt>
      <trkpt lat="47.28326" lon="-2.28215">
        <ele>38</ele>
        <time>2021-05-09T08:02:31.000Z</time>
      </trkpt>
      <trkpt lat="47.28326" lon="-2.28209">
        <ele>37.200000762939</ele>
        <time>2021-05-09T08:02:32.000Z</time>
      </trkpt>
      <trkpt lat="47.28326" lon="-2.28202">
        <ele>36.599998474121</ele>
        <time>2021-05-09T08:02:33.000Z</time>
      </trkpt>
      <trkpt lat="47.28326" lon="-2.28196">
        <ele>36.200000762939</ele>
        <time>2021-05-09T08:02:34.000Z</time>
      </trkpt>
      <trkpt lat="47.28326" lon="-2.28181">
        <ele>36.200000762939</ele>
        <time>2021-05-09T08:02:36.000Z</time>
      </trkpt>
      <trkpt lat="47.28326" lon="-2.28153">
        <ele>35.799999237061</ele>
        <time>2021-05-09T08:02:39.000Z</time>
      </trkpt>
      <trkpt lat="47.28326" lon="-2.28144">
        <ele>35.400001525879</ele>
        <time>2021-05-09T08:02:40.000Z</time>
      </trkpt>
      <trkpt lat="47.28326" lon="-2.28134">
        <ele>34.799999237061</ele>
        <time>2021-05-09T08:02:41.000Z</time>
      </trkpt>
      <trkpt lat="47.28326" lon="-2.28123">
        <ele>34.400001525879</ele>
        <time>2021-05-09T08:02:42.000Z</time>
      </trkpt>
      <trkpt lat="47.28325" lon="-2.28114">
        <ele>34</ele>
        <time>2021-05-09T08:02:43.000Z</time>
      </trkpt>
      <trkpt lat="47.28325" lon="-2.28099">
        <ele>33.400001525879</ele>
        <time>2021-05-09T08:02:45.000Z</time>
      </trkpt>
      <trkpt lat="47.28326" lon="-2.28094">
        <ele>33</ele>
        <time>2021-05-09T08:02:46.000Z</time>
      </trkpt>
      <trkpt lat="47.28328" lon="-2.2809">
        <ele>32.599998474121</ele>
        <time>2021-05-09T08:02:47.000Z</time>
      </trkpt>
      <trkpt lat="47.2833" lon="-2.28089">
        <ele>32</ele>
        <time>2021-05-09T08:02:48.000Z</time>
      </trkpt>
      <trkpt lat="47.28333" lon="-2.28088">
        <ele>31.60000038147</ele>
        <time>2021-05-09T08:02:49.000Z</time>
      </trkpt>
      <trkpt lat="47.28355" lon="-2.28082">
        <ele>31.60000038147</ele>
        <time>2021-05-09T08:02:58.000Z</time>
      </trkpt>
      <trkpt lat="47.28356" lon="-2.28079">
        <ele>31.60000038147</ele>
        <time>2021-05-09T08:02:59.000Z</time>
      </trkpt>
      <trkpt lat="47.28361" lon="-2.28065">
        <ele>31.60000038147</ele>
        <time>2021-05-09T08:03:05.000Z</time>
      </trkpt>
      <trkpt lat="47.28366" lon="-2.28056">
        <ele>31.60000038147</ele>
        <time>2021-05-09T08:03:10.000Z</time>
      </trkpt>
      <trkpt lat="47.28368" lon="-2.28056">
        <ele>31.60000038147</ele>
        <time>2021-05-09T08:03:11.000Z</time>
      </trkpt>
      <trkpt lat="47.28372" lon="-2.28064">
        <ele>31.60000038147</ele>
        <time>2021-05-09T08:03:15.000Z</time>
      </trkpt>
      <trkpt lat="47.28371" lon="-2.28066">
        <ele>31.60000038147</ele>
        <time>2021-05-09T08:03:16.000Z</time>
      </trkpt>
      <trkpt lat="47.28375" lon="-2.2807">
        <ele>31.60000038147</ele>
        <time>2021-05-09T08:03:21.000Z</time>
      </trkpt>
      <trkpt lat="47.28391" lon="-2.2807">
        <ele>31.60000038147</ele>
        <time>2021-05-09T08:03:27.000Z</time>
      </trkpt>
      <trkpt lat="47.28393" lon="-2.28071">
        <ele>31.60000038147</ele>
        <time>2021-05-09T08:03:28.000Z</time>
      </trkpt>
      <trkpt lat="47.28397" lon="-2.28074">
        <ele>31.60000038147</ele>
        <time>2021-05-09T08:03:30.000Z</time>
      </trkpt>
      <trkpt lat="47.28403" lon="-2.28078">
        <ele>31.60000038147</ele>
        <time>2021-05-09T08:03:33.000Z</time>
      </trkpt>
      <trkpt lat="47.28408" lon="-2.28078">
        <ele>31.60000038147</ele>
        <time>2021-05-09T08:03:35.000Z</time>
      </trkpt>
      <trkpt lat="47.28418" lon="-2.28082">
        <ele>31.60000038147</ele>
        <time>2021-05-09T08:03:40.000Z</time>
      </trkpt>
      <trkpt lat="47.28428" lon="-2.28083">
        <ele>31.60000038147</ele>
        <time>2021-05-09T08:03:45.000Z</time>
      </trkpt>
      <trkpt lat="47.28448" lon="-2.28094">
        <ele>31.60000038147</ele>
        <time>2021-05-09T08:03:50.000Z</time>
      </trkpt>
      <trkpt lat="47.28459" lon="-2.28095">
        <ele>31.60000038147</ele>
        <time>2021-05-09T08:03:53.000Z</time>
      </trkpt>
      <trkpt lat="47.28463" lon="-2.28093">
        <ele>31.60000038147</ele>
        <time>2021-05-09T08:03:54.000Z</time>
      </trkpt>
      <trkpt lat="47.28478" lon="-2.28088">
        <ele>31.60000038147</ele>
        <time>2021-05-09T08:03:58.000Z</time>
      </trkpt>
      <trkpt lat="47.28485" lon="-2.28084">
        <ele>31.60000038147</ele>
        <time>2021-05-09T08:04:00.000Z</time>
      </trkpt>
      <trkpt lat="47.28487" lon="-2.28078">
        <ele>31.60000038147</ele>
        <time>2021-05-09T08:04:02.000Z</time>
      </trkpt>
      <trkpt lat="47.28487" lon="-2.28075">
        <ele>31.60000038147</ele>
        <time>2021-05-09T08:04:03.000Z</time>
      </trkpt>
      <trkpt lat="47.28481" lon="-2.28064">
        <ele>32</ele>
        <time>2021-05-09T08:04:06.000Z</time>
      </trkpt>
      <trkpt lat="47.28478" lon="-2.2806">
        <ele>32.400001525879</ele>
        <time>2021-05-09T08:04:07.000Z</time>
      </trkpt>
      <trkpt lat="47.28476" lon="-2.28056">
        <ele>33</ele>
        <time>2021-05-09T08:04:08.000Z</time>
      </trkpt>
      <trkpt lat="47.28476" lon="-2.28053">
        <ele>33.799999237061</ele>
        <time>2021-05-09T08:04:09.000Z</time>
      </trkpt>
      <trkpt lat="47.28477" lon="-2.28045">
        <ele>33.799999237061</ele>
        <time>2021-05-09T08:04:12.000Z</time>
      </trkpt>
      <trkpt lat="47.28478" lon="-2.28044">
        <ele>33.799999237061</ele>
        <time>2021-05-09T08:04:13.000Z</time>
      </trkpt>
      <trkpt lat="47.28488" lon="-2.28041">
        <ele>33.799999237061</ele>
        <time>2021-05-09T08:04:17.000Z</time>
      </trkpt>
      <trkpt lat="47.28492" lon="-2.28043">
        <ele>33.799999237061</ele>
        <time>2021-05-09T08:04:18.000Z</time>
      </trkpt>
      <trkpt lat="47.28505" lon="-2.28048">
        <ele>33.799999237061</ele>
        <time>2021-05-09T08:04:22.000Z</time>
      </trkpt>
      <trkpt lat="47.28519" lon="-2.2805">
        <ele>33.799999237061</ele>
        <time>2021-05-09T08:04:26.000Z</time>
      </trkpt>
      <trkpt lat="47.28523" lon="-2.28052">
        <ele>33.400001525879</ele>
        <time>2021-05-09T08:04:27.000Z</time>
      </trkpt>
      <trkpt lat="47.28527" lon="-2.28053">
        <ele>32.799999237061</ele>
        <time>2021-05-09T08:04:28.000Z</time>
      </trkpt>
      <trkpt lat="47.28531" lon="-2.28053">
        <ele>32.400001525879</ele>
        <time>2021-05-09T08:04:29.000Z</time>
      </trkpt>
      <trkpt lat="47.28536" lon="-2.28052">
        <ele>31.799999237061</ele>
        <time>2021-05-09T08:04:30.000Z</time>
      </trkpt>
      <trkpt lat="47.2854" lon="-2.28052">
        <ele>31.200000762939</ele>
        <time>2021-05-09T08:04:31.000Z</time>
      </trkpt>
      <trkpt lat="47.28545" lon="-2.28053">
        <ele>30.799999237061</ele>
        <time>2021-05-09T08:04:32.000Z</time>
      </trkpt>
      <trkpt lat="47.28551" lon="-2.28053">
        <ele>30.200000762939</ele>
        <time>2021-05-09T08:04:33.000Z</time>
      </trkpt>
      <trkpt lat="47.28557" lon="-2.28052">
        <ele>29</ele>
        <time>2021-05-09T08:04:34.000Z</time>
      </trkpt>
      <trkpt lat="47.2857" lon="-2.28046">
        <ele>29</ele>
        <time>2021-05-09T08:04:38.000Z</time>
      </trkpt>
      <trkpt lat="47.28576" lon="-2.28037">
        <ele>29</ele>
        <time>2021-05-09T08:04:41.000Z</time>
      </trkpt>
      <trkpt lat="47.28583" lon="-2.28026">
        <ele>29</ele>
        <time>2021-05-09T08:04:44.000Z</time>
      </trkpt>
      <trkpt lat="47.28586" lon="-2.28019">
        <ele>29</ele>
        <time>2021-05-09T08:04:45.000Z</time>
      </trkpt>
      <trkpt lat="47.28591" lon="-2.28004">
        <ele>29</ele>
        <time>2021-05-09T08:04:47.000Z</time>
      </trkpt>
      <trkpt lat="47.28593" lon="-2.27996">
        <ele>29</ele>
        <time>2021-05-09T08:04:48.000Z</time>
      </trkpt>
      <trkpt lat="47.28595" lon="-2.27989">
        <ele>28.60000038147</ele>
        <time>2021-05-09T08:04:49.000Z</time>
      </trkpt>
      <trkpt lat="47.28597" lon="-2.27982">
        <ele>28.200000762939</ele>
        <time>2021-05-09T08:04:50.000Z</time>
      </trkpt>
      <trkpt lat="47.28599" lon="-2.27975">
        <ele>27.799999237061</ele>
        <time>2021-05-09T08:04:51.000Z</time>
      </trkpt>
      <trkpt lat="47.28602" lon="-2.27968">
        <ele>27.39999961853</ele>
        <time>2021-05-09T08:04:52.000Z</time>
      </trkpt>
      <trkpt lat="47.28605" lon="-2.27963">
        <ele>27</ele>
        <time>2021-05-09T08:04:53.000Z</time>
      </trkpt>
      <trkpt lat="47.28613" lon="-2.27953">
        <ele>27</ele>
        <time>2021-05-09T08:04:57.000Z</time>
      </trkpt>
      <trkpt lat="47.28619" lon="-2.27951">
        <ele>27</ele>
        <time>2021-05-09T08:05:05.000Z</time>
      </trkpt>
      <trkpt lat="47.2862" lon="-2.27951">
        <ele>27</ele>
        <time>2021-05-09T08:05:06.000Z</time>
      </trkpt>
      <trkpt lat="47.28626" lon="-2.27949">
        <ele>27</ele>
        <time>2021-05-09T08:05:19.000Z</time>
      </trkpt>
      <trkpt lat="47.2863" lon="-2.27943">
        <ele>27</ele>
        <time>2021-05-09T08:05:22.000Z</time>
      </trkpt>
      <trkpt lat="47.2863" lon="-2.27925">
        <ele>27</ele>
        <time>2021-05-09T08:05:26.000Z</time>
      </trkpt>
      <trkpt lat="47.28631" lon="-2.27918">
        <ele>27</ele>
        <time>2021-05-09T08:05:27.000Z</time>
      </trkpt>
      <trkpt lat="47.28633" lon="-2.27886">
        <ele>27</ele>
        <time>2021-05-09T08:05:31.000Z</time>
      </trkpt>
      <trkpt lat="47.28634" lon="-2.2786">
        <ele>27</ele>
        <time>2021-05-09T08:05:34.000Z</time>
      </trkpt>
      <trkpt lat="47.28635" lon="-2.27844">
        <ele>27</ele>
        <time>2021-05-09T08:05:36.000Z</time>
      </trkpt>
      <trkpt lat="47.28647" lon="-2.27786">
        <ele>27</ele>
        <time>2021-05-09T08:05:43.000Z</time>
      </trkpt>
      <trkpt lat="47.28651" lon="-2.27772">
        <ele>27</ele>
        <time>2021-05-09T08:05:45.000Z</time>
      </trkpt>
      <trkpt lat="47.28662" lon="-2.27744">
        <ele>27</ele>
        <time>2021-05-09T08:05:49.000Z</time>
      </trkpt>
      <trkpt lat="47.28685" lon="-2.27703">
        <ele>27</ele>
        <time>2021-05-09T08:05:55.000Z</time>
      </trkpt>
      <trkpt lat="47.28707" lon="-2.2767">
        <ele>26.60000038147</ele>
        <time>2021-05-09T08:06:00.000Z</time>
      </trkpt>
      <trkpt lat="47.28712" lon="-2.27663">
        <ele>26.200000762939</ele>
        <time>2021-05-09T08:06:01.000Z</time>
      </trkpt>
      <trkpt lat="47.28716" lon="-2.27656">
        <ele>25.799999237061</ele>
        <time>2021-05-09T08:06:02.000Z</time>
      </trkpt>
      <trkpt lat="47.2872" lon="-2.2765">
        <ele>25.39999961853</ele>
        <time>2021-05-09T08:06:03.000Z</time>
      </trkpt>
      <trkpt lat="47.28724" lon="-2.27644">
        <ele>25</ele>
        <time>2021-05-09T08:06:04.000Z</time>
      </trkpt>
      <trkpt lat="47.28749" lon="-2.27608">
        <ele>25</ele>
        <time>2021-05-09T08:06:10.000Z</time>
      </trkpt>
      <trkpt lat="47.28753" lon="-2.27603">
        <ele>25</ele>
        <time>2021-05-09T08:06:11.000Z</time>
      </trkpt>
      <trkpt lat="47.28766" lon="-2.27589">
        <ele>25</ele>
        <time>2021-05-09T08:06:14.000Z</time>
      </trkpt>
      <trkpt lat="47.28787" lon="-2.27563">
        <ele>25</ele>
        <time>2021-05-09T08:06:19.000Z</time>
      </trkpt>
      <trkpt lat="47.28791" lon="-2.27557">
        <ele>25</ele>
        <time>2021-05-09T08:06:20.000Z</time>
      </trkpt>
      <trkpt lat="47.28801" lon="-2.2754">
        <ele>25</ele>
        <time>2021-05-09T08:06:23.000Z</time>
      </trkpt>
      <trkpt lat="47.2881" lon="-2.27539">
        <ele>25</ele>
        <time>2021-05-09T08:06:25.000Z</time>
      </trkpt>
      <trkpt lat="47.28815" lon="-2.27539">
        <ele>25</ele>
        <time>2021-05-09T08:06:26.000Z</time>
      </trkpt>
      <trkpt lat="47.2883" lon="-2.27536">
        <ele>25</ele>
        <time>2021-05-09T08:06:29.000Z</time>
      </trkpt>
      <trkpt lat="47.28845" lon="-2.27534">
        <ele>25</ele>
        <time>2021-05-09T08:06:32.000Z</time>
      </trkpt>
      <trkpt lat="47.28875" lon="-2.27528">
        <ele>25</ele>
        <time>2021-05-09T08:06:37.000Z</time>
      </trkpt>
      <trkpt lat="47.2891" lon="-2.27523">
        <ele>25</ele>
        <time>2021-05-09T08:06:43.000Z</time>
      </trkpt>
      <trkpt lat="47.28916" lon="-2.27522">
        <ele>25</ele>
        <time>2021-05-09T08:06:44.000Z</time>
      </trkpt>
      <trkpt lat="47.28948" lon="-2.27522">
        <ele>25</ele>
        <time>2021-05-09T08:06:49.000Z</time>
      </trkpt>
      <trkpt lat="47.28965" lon="-2.27522">
        <ele>25</ele>
        <time>2021-05-09T08:06:52.000Z</time>
      </trkpt>
      <trkpt lat="47.28976" lon="-2.27522">
        <ele>25</ele>
        <time>2021-05-09T08:06:54.000Z</time>
      </trkpt>
      <trkpt lat="47.29022" lon="-2.27521">
        <ele>25</ele>
        <time>2021-05-09T08:07:01.000Z</time>
      </trkpt>
      <trkpt lat="47.29065" lon="-2.27526">
        <ele>25</ele>
        <time>2021-05-09T08:07:07.000Z</time>
      </trkpt>
      <trkpt lat="47.29094" lon="-2.27531">
        <ele>25</ele>
        <time>2021-05-09T08:07:12.000Z</time>
      </trkpt>
      <trkpt lat="47.29099" lon="-2.27531">
        <ele>25</ele>
        <time>2021-05-09T08:07:13.000Z</time>
      </trkpt>
      <trkpt lat="47.29105" lon="-2.27525">
        <ele>25</ele>
        <time>2021-05-09T08:07:15.000Z</time>
      </trkpt>
      <trkpt lat="47.29107" lon="-2.27515">
        <ele>25</ele>
        <time>2021-05-09T08:07:17.000Z</time>
      </trkpt>
      <trkpt lat="47.29108" lon="-2.27508">
        <ele>25</ele>
        <time>2021-05-09T08:07:18.000Z</time>
      </trkpt>
      <trkpt lat="47.29108" lon="-2.27501">
        <ele>25</ele>
        <time>2021-05-09T08:07:19.000Z</time>
      </trkpt>
      <trkpt lat="47.29109" lon="-2.27448">
        <ele>25</ele>
        <time>2021-05-09T08:07:25.000Z</time>
      </trkpt>
      <trkpt lat="47.29109" lon="-2.27401">
        <ele>25</ele>
        <time>2021-05-09T08:07:30.000Z</time>
      </trkpt>
      <trkpt lat="47.29107" lon="-2.27384">
        <ele>24.39999961853</ele>
        <time>2021-05-09T08:07:32.000Z</time>
      </trkpt>
      <trkpt lat="47.29106" lon="-2.27377">
        <ele>24</ele>
        <time>2021-05-09T08:07:33.000Z</time>
      </trkpt>
      <trkpt lat="47.29105" lon="-2.27371">
        <ele>23.60000038147</ele>
        <time>2021-05-09T08:07:34.000Z</time>
      </trkpt>
      <trkpt lat="47.29103" lon="-2.27366">
        <ele>23.200000762939</ele>
        <time>2021-05-09T08:07:35.000Z</time>
      </trkpt>
      <trkpt lat="47.29101" lon="-2.27363">
        <ele>22.799999237061</ele>
        <time>2021-05-09T08:07:36.000Z</time>
      </trkpt>
      <trkpt lat="47.29097" lon="-2.27357">
        <ele>22.799999237061</ele>
        <time>2021-05-09T08:07:39.000Z</time>
      </trkpt>
      <trkpt lat="47.29088" lon="-2.27343">
        <ele>22.799999237061</ele>
        <time>2021-05-09T08:07:44.000Z</time>
      </trkpt>
      <trkpt lat="47.29092" lon="-2.27328">
        <ele>22.799999237061</ele>
        <time>2021-05-09T08:07:48.000Z</time>
      </trkpt>
      <trkpt lat="47.29093" lon="-2.27325">
        <ele>22.799999237061</ele>
        <time>2021-05-09T08:07:49.000Z</time>
      </trkpt>
      <trkpt lat="47.29098" lon="-2.2731">
        <ele>22.799999237061</ele>
        <time>2021-05-09T08:07:54.000Z</time>
      </trkpt>
      <trkpt lat="47.29101" lon="-2.27289">
        <ele>22.799999237061</ele>
        <time>2021-05-09T08:07:59.000Z</time>
      </trkpt>
      <trkpt lat="47.29106" lon="-2.27256">
        <ele>22.799999237061</ele>
        <time>2021-05-09T08:08:06.000Z</time>
      </trkpt>
      <trkpt lat="47.29108" lon="-2.27242">
        <ele>22.799999237061</ele>
        <time>2021-05-09T08:08:10.000Z</time>
      </trkpt>
      <trkpt lat="47.29109" lon="-2.2724">
        <ele>22.799999237061</ele>
        <time>2021-05-09T08:08:11.000Z</time>
      </trkpt>
      <trkpt lat="47.2911" lon="-2.2723">
        <ele>22.799999237061</ele>
        <time>2021-05-09T08:08:21.000Z</time>
      </trkpt>
      <trkpt lat="47.29111" lon="-2.27226">
        <ele>22.799999237061</ele>
        <time>2021-05-09T08:08:23.000Z</time>
      </trkpt>
      <trkpt lat="47.29115" lon="-2.27219">
        <ele>22.799999237061</ele>
        <time>2021-05-09T08:08:26.000Z</time>
      </trkpt>
      <trkpt lat="47.29117" lon="-2.27214">
        <ele>22.799999237061</ele>
        <time>2021-05-09T08:08:29.000Z</time>
      </trkpt>
      <trkpt lat="47.29116" lon="-2.2721">
        <ele>22.799999237061</ele>
        <time>2021-05-09T08:08:31.000Z</time>
      </trkpt>
      <trkpt lat="47.29111" lon="-2.27208">
        <ele>22.799999237061</ele>
        <time>2021-05-09T08:08:34.000Z</time>
      </trkpt>
      <trkpt lat="47.29098" lon="-2.27206">
        <ele>22.799999237061</ele>
        <time>2021-05-09T08:08:38.000Z</time>
      </trkpt>
      <trkpt lat="47.29087" lon="-2.27202">
        <ele>22.799999237061</ele>
        <time>2021-05-09T08:08:41.000Z</time>
      </trkpt>
      <trkpt lat="47.29078" lon="-2.27195">
        <ele>22.799999237061</ele>
        <time>2021-05-09T08:08:43.000Z</time>
      </trkpt>
      <trkpt lat="47.29071" lon="-2.27187">
        <ele>22.799999237061</ele>
        <time>2021-05-09T08:08:45.000Z</time>
      </trkpt>
      <trkpt lat="47.29067" lon="-2.27179">
        <ele>22.799999237061</ele>
        <time>2021-05-09T08:08:47.000Z</time>
      </trkpt>
      <trkpt lat="47.29057" lon="-2.27158">
        <ele>22.799999237061</ele>
        <time>2021-05-09T08:08:52.000Z</time>
      </trkpt>
      <trkpt lat="47.29054" lon="-2.27155">
        <ele>22.799999237061</ele>
        <time>2021-05-09T08:08:53.000Z</time>
      </trkpt>
      <trkpt lat="47.29029" lon="-2.27134">
        <ele>22.799999237061</ele>
        <time>2021-05-09T08:08:59.000Z</time>
      </trkpt>
      <trkpt lat="47.29018" lon="-2.27114">
        <ele>22.799999237061</ele>
        <time>2021-05-09T08:09:04.000Z</time>
      </trkpt>
      <trkpt lat="47.2902" lon="-2.27111">
        <ele>22.799999237061</ele>
        <time>2021-05-09T08:09:05.000Z</time>
      </trkpt>
      <trkpt lat="47.29027" lon="-2.27106">
        <ele>22.799999237061</ele>
        <time>2021-05-09T08:09:08.000Z</time>
      </trkpt>
      <trkpt lat="47.29036" lon="-2.27086">
        <ele>22.799999237061</ele>
        <time>2021-05-09T08:09:12.000Z</time>
      </trkpt>
      <trkpt lat="47.29042" lon="-2.27071">
        <ele>22.799999237061</ele>
        <time>2021-05-09T08:09:14.000Z</time>
      </trkpt>
      <trkpt lat="47.29048" lon="-2.27054">
        <ele>22.799999237061</ele>
        <time>2021-05-09T08:09:17.000Z</time>
      </trkpt>
      <trkpt lat="47.29045" lon="-2.27036">
        <ele>22.799999237061</ele>
        <time>2021-05-09T08:09:21.000Z</time>
      </trkpt>
      <trkpt lat="47.29045" lon="-2.27005">
        <ele>22.799999237061</ele>
        <time>2021-05-09T08:09:25.000Z</time>
      </trkpt>
      <trkpt lat="47.29046" lon="-2.26956">
        <ele>22.799999237061</ele>
        <time>2021-05-09T08:09:30.000Z</time>
      </trkpt>
      <trkpt lat="47.29053" lon="-2.26888">
        <ele>22.799999237061</ele>
        <time>2021-05-09T08:09:36.000Z</time>
      </trkpt>
      <trkpt lat="47.29057" lon="-2.26808">
        <ele>22.799999237061</ele>
        <time>2021-05-09T08:09:44.000Z</time>
      </trkpt>
      <trkpt lat="47.29058" lon="-2.26798">
        <ele>22.799999237061</ele>
        <time>2021-05-09T08:09:45.000Z</time>
      </trkpt>
      <trkpt lat="47.29053" lon="-2.26747">
        <ele>22.799999237061</ele>
        <time>2021-05-09T08:09:51.000Z</time>
      </trkpt>
      <trkpt lat="47.29049" lon="-2.26712">
        <ele>23.60000038147</ele>
        <time>2021-05-09T08:09:56.000Z</time>
      </trkpt>
      <trkpt lat="47.29048" lon="-2.26705">
        <ele>24</ele>
        <time>2021-05-09T08:09:57.000Z</time>
      </trkpt>
      <trkpt lat="47.29047" lon="-2.26698">
        <ele>24.39999961853</ele>
        <time>2021-05-09T08:09:58.000Z</time>
      </trkpt>
      <trkpt lat="47.29046" lon="-2.26691">
        <ele>25</ele>
        <time>2021-05-09T08:09:59.000Z</time>
      </trkpt>
      <trkpt lat="47.29045" lon="-2.26669">
        <ele>25.39999961853</ele>
        <time>2021-05-09T08:10:02.000Z</time>
      </trkpt>
      <trkpt lat="47.29044" lon="-2.26663">
        <ele>25.799999237061</ele>
        <time>2021-05-09T08:10:03.000Z</time>
      </trkpt>
      <trkpt lat="47.29044" lon="-2.26656">
        <ele>26.200000762939</ele>
        <time>2021-05-09T08:10:04.000Z</time>
      </trkpt>
      <trkpt lat="47.29044" lon="-2.26649">
        <ele>26.60000038147</ele>
        <time>2021-05-09T08:10:05.000Z</time>
      </trkpt>
      <trkpt lat="47.29043" lon="-2.26642">
        <ele>27</ele>
        <time>2021-05-09T08:10:06.000Z</time>
      </trkpt>
      <trkpt lat="47.29043" lon="-2.26636">
        <ele>27</ele>
        <time>2021-05-09T08:10:07.000Z</time>
      </trkpt>
      <trkpt lat="47.29041" lon="-2.2661">
        <ele>27.39999961853</ele>
        <time>2021-05-09T08:10:11.000Z</time>
      </trkpt>
      <trkpt lat="47.2904" lon="-2.26604">
        <ele>27.799999237061</ele>
        <time>2021-05-09T08:10:12.000Z</time>
      </trkpt>
      <trkpt lat="47.2904" lon="-2.266">
        <ele>28.200000762939</ele>
        <time>2021-05-09T08:10:13.000Z</time>
      </trkpt>
      <trkpt lat="47.2904" lon="-2.26595">
        <ele>28.799999237061</ele>
        <time>2021-05-09T08:10:14.000Z</time>
      </trkpt>
      <trkpt lat="47.2904" lon="-2.26592">
        <ele>29.200000762939</ele>
        <time>2021-05-09T08:10:15.000Z</time>
      </trkpt>
      <trkpt lat="47.29038" lon="-2.2659">
        <ele>29.200000762939</ele>
        <time>2021-05-09T08:10:18.000Z</time>
      </trkpt>
      <trkpt lat="47.29038" lon="-2.26586">
        <ele>29.200000762939</ele>
        <time>2021-05-09T08:10:23.000Z</time>
      </trkpt>
      <trkpt lat="47.29037" lon="-2.2658">
        <ele>29.200000762939</ele>
        <time>2021-05-09T08:10:25.000Z</time>
      </trkpt>
      <trkpt lat="47.29032" lon="-2.26557">
        <ele>29.200000762939</ele>
        <time>2021-05-09T08:10:29.000Z</time>
      </trkpt>
      <trkpt lat="47.29021" lon="-2.26512">
        <ele>29.200000762939</ele>
        <time>2021-05-09T08:10:35.000Z</time>
      </trkpt>
      <trkpt lat="47.29015" lon="-2.26489">
        <ele>29.200000762939</ele>
        <time>2021-05-09T08:10:38.000Z</time>
      </trkpt>
      <trkpt lat="47.29013" lon="-2.26473">
        <ele>29.200000762939</ele>
        <time>2021-05-09T08:10:40.000Z</time>
      </trkpt>
      <trkpt lat="47.29008" lon="-2.2643">
        <ele>29.200000762939</ele>
        <time>2021-05-09T08:10:46.000Z</time>
      </trkpt>
      <trkpt lat="47.29007" lon="-2.26416">
        <ele>29.60000038147</ele>
        <time>2021-05-09T08:10:48.000Z</time>
      </trkpt>
      <trkpt lat="47.29006" lon="-2.26409">
        <ele>30</ele>
        <time>2021-05-09T08:10:49.000Z</time>
      </trkpt>
      <trkpt lat="47.29005" lon="-2.26403">
        <ele>30.39999961853</ele>
        <time>2021-05-09T08:10:50.000Z</time>
      </trkpt>
      <trkpt lat="47.29006" lon="-2.26395">
        <ele>30.799999237061</ele>
        <time>2021-05-09T08:10:51.000Z</time>
      </trkpt>
      <trkpt lat="47.29007" lon="-2.26388">
        <ele>31.200000762939</ele>
        <time>2021-05-09T08:10:52.000Z</time>
      </trkpt>
      <trkpt lat="47.29008" lon="-2.26381">
        <ele>31.200000762939</ele>
        <time>2021-05-09T08:10:53.000Z</time>
      </trkpt>
      <trkpt lat="47.2901" lon="-2.26374">
        <ele>31.60000038147</ele>
        <time>2021-05-09T08:10:54.000Z</time>
      </trkpt>
      <trkpt lat="47.29013" lon="-2.26368">
        <ele>32</ele>
        <time>2021-05-09T08:10:55.000Z</time>
      </trkpt>
      <trkpt lat="47.29016" lon="-2.26363">
        <ele>32.400001525879</ele>
        <time>2021-05-09T08:10:56.000Z</time>
      </trkpt>
      <trkpt lat="47.29019" lon="-2.26359">
        <ele>33</ele>
        <time>2021-05-09T08:10:57.000Z</time>
      </trkpt>
      <trkpt lat="47.29023" lon="-2.26355">
        <ele>33.400001525879</ele>
        <time>2021-05-09T08:10:58.000Z</time>
      </trkpt>
      <trkpt lat="47.29028" lon="-2.26351">
        <ele>33.400001525879</ele>
        <time>2021-05-09T08:10:59.000Z</time>
      </trkpt>
      <trkpt lat="47.29043" lon="-2.26337">
        <ele>33.400001525879</ele>
        <time>2021-05-09T08:11:02.000Z</time>
      </trkpt>
      <trkpt lat="47.29065" lon="-2.26301">
        <ele>33.400001525879</ele>
        <time>2021-05-09T08:11:07.000Z</time>
      </trkpt>
      <trkpt lat="47.29072" lon="-2.26284">
        <ele>33.400001525879</ele>
        <time>2021-05-09T08:11:09.000Z</time>
      </trkpt>
      <trkpt lat="47.29074" lon="-2.26275">
        <ele>33.400001525879</ele>
        <time>2021-05-09T08:11:10.000Z</time>
      </trkpt>
      <trkpt lat="47.29077" lon="-2.26257">
        <ele>33.400001525879</ele>
        <time>2021-05-09T08:11:12.000Z</time>
      </trkpt>
      <trkpt lat="47.29088" lon="-2.26195">
        <ele>33.400001525879</ele>
        <time>2021-05-09T08:11:19.000Z</time>
      </trkpt>
      <trkpt lat="47.29097" lon="-2.26139">
        <ele>33.400001525879</ele>
        <time>2021-05-09T08:11:26.000Z</time>
      </trkpt>
      <trkpt lat="47.291" lon="-2.26126">
        <ele>33.400001525879</ele>
        <time>2021-05-09T08:11:28.000Z</time>
      </trkpt>
      <trkpt lat="47.29103" lon="-2.26115">
        <ele>33.400001525879</ele>
        <time>2021-05-09T08:11:30.000Z</time>
      </trkpt>
      <trkpt lat="47.29103" lon="-2.2611">
        <ele>33</ele>
        <time>2021-05-09T08:11:31.000Z</time>
      </trkpt>
      <trkpt lat="47.29103" lon="-2.26104">
        <ele>32.599998474121</ele>
        <time>2021-05-09T08:11:32.000Z</time>
      </trkpt>
      <trkpt lat="47.29103" lon="-2.26098">
        <ele>32.200000762939</ele>
        <time>2021-05-09T08:11:33.000Z</time>
      </trkpt>
      <trkpt lat="47.29102" lon="-2.26092">
        <ele>31.200000762939</ele>
        <time>2021-05-09T08:11:34.000Z</time>
      </trkpt>
      <trkpt lat="47.291" lon="-2.26086">
        <ele>31.200000762939</ele>
        <time>2021-05-09T08:11:35.000Z</time>
      </trkpt>
      <trkpt lat="47.29099" lon="-2.26081">
        <ele>31.200000762939</ele>
        <time>2021-05-09T08:11:36.000Z</time>
      </trkpt>
      <trkpt lat="47.29092" lon="-2.26058">
        <ele>31.200000762939</ele>
        <time>2021-05-09T08:11:41.000Z</time>
      </trkpt>
      <trkpt lat="47.29092" lon="-2.26053">
        <ele>31.200000762939</ele>
        <time>2021-05-09T08:11:42.000Z</time>
      </trkpt>
      <trkpt lat="47.29094" lon="-2.26045">
        <ele>31.200000762939</ele>
        <time>2021-05-09T08:11:44.000Z</time>
      </trkpt>
      <trkpt lat="47.2909" lon="-2.26027">
        <ele>31.200000762939</ele>
        <time>2021-05-09T08:11:48.000Z</time>
      </trkpt>
      <trkpt lat="47.29089" lon="-2.26023">
        <ele>31.200000762939</ele>
        <time>2021-05-09T08:11:49.000Z</time>
      </trkpt>
      <trkpt lat="47.29083" lon="-2.26003">
        <ele>31.200000762939</ele>
        <time>2021-05-09T08:11:53.000Z</time>
      </trkpt>
      <trkpt lat="47.29085" lon="-2.25998">
        <ele>31.200000762939</ele>
        <time>2021-05-09T08:11:54.000Z</time>
      </trkpt>
      <trkpt lat="47.29093" lon="-2.25987">
        <ele>31.200000762939</ele>
        <time>2021-05-09T08:11:57.000Z</time>
      </trkpt>
      <trkpt lat="47.29096" lon="-2.25983">
        <ele>31.200000762939</ele>
        <time>2021-05-09T08:11:58.000Z</time>
      </trkpt>
      <trkpt lat="47.29107" lon="-2.25978">
        <ele>31.200000762939</ele>
        <time>2021-05-09T08:12:01.000Z</time>
      </trkpt>
      <trkpt lat="47.2912" lon="-2.25976">
        <ele>30.799999237061</ele>
        <time>2021-05-09T08:12:04.000Z</time>
      </trkpt>
      <trkpt lat="47.29125" lon="-2.25976">
        <ele>30.39999961853</ele>
        <time>2021-05-09T08:12:05.000Z</time>
      </trkpt>
      <trkpt lat="47.2913" lon="-2.25976">
        <ele>30</ele>
        <time>2021-05-09T08:12:06.000Z</time>
      </trkpt>
      <trkpt lat="47.29136" lon="-2.25977">
        <ele>29.60000038147</ele>
        <time>2021-05-09T08:12:07.000Z</time>
      </trkpt>
      <trkpt lat="47.29142" lon="-2.25978">
        <ele>29.200000762939</ele>
        <time>2021-05-09T08:12:08.000Z</time>
      </trkpt>
      <trkpt lat="47.29152" lon="-2.2598">
        <ele>29.200000762939</ele>
        <time>2021-05-09T08:12:10.000Z</time>
      </trkpt>
      <trkpt lat="47.29162" lon="-2.25982">
        <ele>29.200000762939</ele>
        <time>2021-05-09T08:12:12.000Z</time>
      </trkpt>
      <trkpt lat="47.29171" lon="-2.25988">
        <ele>29.200000762939</ele>
        <time>2021-05-09T08:12:14.000Z</time>
      </trkpt>
      <trkpt lat="47.29184" lon="-2.26012">
        <ele>29.200000762939</ele>
        <time>2021-05-09T08:12:18.000Z</time>
      </trkpt>
      <trkpt lat="47.29197" lon="-2.26042">
        <ele>30.200000762939</ele>
        <time>2021-05-09T08:12:23.000Z</time>
      </trkpt>
      <trkpt lat="47.292" lon="-2.26048">
        <ele>30.60000038147</ele>
        <time>2021-05-09T08:12:24.000Z</time>
      </trkpt>
      <trkpt lat="47.29203" lon="-2.26052">
        <ele>31</ele>
        <time>2021-05-09T08:12:25.000Z</time>
      </trkpt>
      <trkpt lat="47.29205" lon="-2.26056">
        <ele>31.39999961853</ele>
        <time>2021-05-09T08:12:26.000Z</time>
      </trkpt>
      <trkpt lat="47.29214" lon="-2.26069">
        <ele>31.39999961853</ele>
        <time>2021-05-09T08:12:29.000Z</time>
      </trkpt>
      <trkpt lat="47.2923" lon="-2.26093">
        <ele>31.39999961853</ele>
        <time>2021-05-09T08:12:34.000Z</time>
      </trkpt>
      <trkpt lat="47.29248" lon="-2.26124">
        <ele>31.39999961853</ele>
        <time>2021-05-09T08:12:40.000Z</time>
      </trkpt>
      <trkpt lat="47.29266" lon="-2.26162">
        <ele>31.39999961853</ele>
        <time>2021-05-09T08:12:47.000Z</time>
      </trkpt>
      <trkpt lat="47.29268" lon="-2.26168">
        <ele>31.39999961853</ele>
        <time>2021-05-09T08:12:48.000Z</time>
      </trkpt>
      <trkpt lat="47.29276" lon="-2.26174">
        <ele>31.39999961853</ele>
        <time>2021-05-09T08:12:51.000Z</time>
      </trkpt>
      <trkpt lat="47.29282" lon="-2.26176">
        <ele>31.39999961853</ele>
        <time>2021-05-09T08:12:53.000Z</time>
      </trkpt>
      <trkpt lat="47.29294" lon="-2.26177">
        <ele>31.39999961853</ele>
        <time>2021-05-09T08:12:57.000Z</time>
      </trkpt>
      <trkpt lat="47.29306" lon="-2.26182">
        <ele>31.39999961853</ele>
        <time>2021-05-09T08:13:01.000Z</time>
      </trkpt>
      <trkpt lat="47.29308" lon="-2.26182">
        <ele>31.39999961853</ele>
        <time>2021-05-09T08:13:02.000Z</time>
      </trkpt>
      <trkpt lat="47.29311" lon="-2.26181">
        <ele>31.39999961853</ele>
        <time>2021-05-09T08:13:05.000Z</time>
      </trkpt>
      <trkpt lat="47.29313" lon="-2.26174">
        <ele>31.39999961853</ele>
        <time>2021-05-09T08:13:09.000Z</time>
      </trkpt>
      <trkpt lat="47.29313" lon="-2.26172">
        <ele>31.39999961853</ele>
        <time>2021-05-09T08:13:10.000Z</time>
      </trkpt>
      <trkpt lat="47.29316" lon="-2.26171">
        <ele>31.39999961853</ele>
        <time>2021-05-09T08:13:13.000Z</time>
      </trkpt>
      <trkpt lat="47.29319" lon="-2.26171">
        <ele>31.39999961853</ele>
        <time>2021-05-09T08:13:14.000Z</time>
      </trkpt>
      <trkpt lat="47.29336" lon="-2.26169">
        <ele>31.39999961853</ele>
        <time>2021-05-09T08:13:19.000Z</time>
      </trkpt>
      <trkpt lat="47.29347" lon="-2.26166">
        <ele>31.39999961853</ele>
        <time>2021-05-09T08:13:21.000Z</time>
      </trkpt>
      <trkpt lat="47.29359" lon="-2.26162">
        <ele>31.39999961853</ele>
        <time>2021-05-09T08:13:23.000Z</time>
      </trkpt>
      <trkpt lat="47.29364" lon="-2.2616">
        <ele>31</ele>
        <time>2021-05-09T08:13:24.000Z</time>
      </trkpt>
      <trkpt lat="47.29368" lon="-2.2616">
        <ele>30.60000038147</ele>
        <time>2021-05-09T08:13:25.000Z</time>
      </trkpt>
      <trkpt lat="47.29372" lon="-2.26161">
        <ele>30.200000762939</ele>
        <time>2021-05-09T08:13:26.000Z</time>
      </trkpt>
      <trkpt lat="47.29376" lon="-2.26162">
        <ele>29.60000038147</ele>
        <time>2021-05-09T08:13:27.000Z</time>
      </trkpt>
      <trkpt lat="47.29379" lon="-2.26162">
        <ele>29.200000762939</ele>
        <time>2021-05-09T08:13:28.000Z</time>
      </trkpt>
      <trkpt lat="47.29387" lon="-2.26163">
        <ele>29.200000762939</ele>
        <time>2021-05-09T08:13:32.000Z</time>
      </trkpt>
      <trkpt lat="47.29389" lon="-2.26165">
        <ele>29.200000762939</ele>
        <time>2021-05-09T08:13:35.000Z</time>
      </trkpt>
      <trkpt lat="47.29396" lon="-2.26165">
        <ele>29.200000762939</ele>
        <time>2021-05-09T08:15:32.000Z</time>
      </trkpt>
      <trkpt lat="47.294" lon="-2.26163">
        <ele>29.200000762939</ele>
        <time>2021-05-09T08:15:33.000Z</time>
      </trkpt>
      <trkpt lat="47.29404" lon="-2.2616">
        <ele>28.799999237061</ele>
        <time>2021-05-09T08:15:34.000Z</time>
      </trkpt>
      <trkpt lat="47.29406" lon="-2.26156">
        <ele>28.39999961853</ele>
        <time>2021-05-09T08:15:35.000Z</time>
      </trkpt>
      <trkpt lat="47.29408" lon="-2.26153">
        <ele>28</ele>
        <time>2021-05-09T08:15:36.000Z</time>
      </trkpt>
      <trkpt lat="47.2941" lon="-2.26149">
        <ele>27.39999961853</ele>
        <time>2021-05-09T08:15:37.000Z</time>
      </trkpt>
      <trkpt lat="47.29412" lon="-2.26145">
        <ele>27</ele>
        <time>2021-05-09T08:15:38.000Z</time>
      </trkpt>
      <trkpt lat="47.29415" lon="-2.26133">
        <ele>26.60000038147</ele>
        <time>2021-05-09T08:15:41.000Z</time>
      </trkpt>
      <trkpt lat="47.29416" lon="-2.2613">
        <ele>26.200000762939</ele>
        <time>2021-05-09T08:15:42.000Z</time>
      </trkpt>
      <trkpt lat="47.29416" lon="-2.26126">
        <ele>25.799999237061</ele>
        <time>2021-05-09T08:15:43.000Z</time>
      </trkpt>
      <trkpt lat="47.29417" lon="-2.26121">
        <ele>25.39999961853</ele>
        <time>2021-05-09T08:15:44.000Z</time>
      </trkpt>
      <trkpt lat="47.29418" lon="-2.26118">
        <ele>25</ele>
        <time>2021-05-09T08:15:45.000Z</time>
      </trkpt>
      <trkpt lat="47.29417" lon="-2.2611">
        <ele>25</ele>
        <time>2021-05-09T08:15:47.000Z</time>
      </trkpt>
      <trkpt lat="47.29414" lon="-2.26092">
        <ele>25</ele>
        <time>2021-05-09T08:15:51.000Z</time>
      </trkpt>
      <trkpt lat="47.29408" lon="-2.26065">
        <ele>25</ele>
        <time>2021-05-09T08:15:57.000Z</time>
      </trkpt>
      <trkpt lat="47.29397" lon="-2.26024">
        <ele>25</ele>
        <time>2021-05-09T08:16:05.000Z</time>
      </trkpt>
      <trkpt lat="47.29397" lon="-2.26">
        <ele>25</ele>
        <time>2021-05-09T08:16:09.000Z</time>
      </trkpt>
      <trkpt lat="47.29396" lon="-2.25982">
        <ele>25</ele>
        <time>2021-05-09T08:16:13.000Z</time>
      </trkpt>
      <trkpt lat="47.29398" lon="-2.25975">
        <ele>25</ele>
        <time>2021-05-09T08:16:16.000Z</time>
      </trkpt>
      <trkpt lat="47.29401" lon="-2.25971">
        <ele>25</ele>
        <time>2021-05-09T08:16:18.000Z</time>
      </trkpt>
      <trkpt lat="47.29409" lon="-2.25965">
        <ele>25</ele>
        <time>2021-05-09T08:16:21.000Z</time>
      </trkpt>
      <trkpt lat="47.29412" lon="-2.25962">
        <ele>25</ele>
        <time>2021-05-09T08:16:22.000Z</time>
      </trkpt>
      <trkpt lat="47.29429" lon="-2.25947">
        <ele>25</ele>
        <time>2021-05-09T08:16:27.000Z</time>
      </trkpt>
      <trkpt lat="47.29435" lon="-2.25929">
        <ele>25</ele>
        <time>2021-05-09T08:16:31.000Z</time>
      </trkpt>
      <trkpt lat="47.29434" lon="-2.25905">
        <ele>25</ele>
        <time>2021-05-09T08:16:36.000Z</time>
      </trkpt>
      <trkpt lat="47.29429" lon="-2.25884">
        <ele>25</ele>
        <time>2021-05-09T08:16:40.000Z</time>
      </trkpt>
      <trkpt lat="47.29427" lon="-2.2588">
        <ele>25</ele>
        <time>2021-05-09T08:16:41.000Z</time>
      </trkpt>
      <trkpt lat="47.29423" lon="-2.25861">
        <ele>25</ele>
        <time>2021-05-09T08:16:45.000Z</time>
      </trkpt>
      <trkpt lat="47.29423" lon="-2.25855">
        <ele>25</ele>
        <time>2021-05-09T08:16:46.000Z</time>
      </trkpt>
      <trkpt lat="47.29426" lon="-2.25828">
        <ele>25</ele>
        <time>2021-05-09T08:16:50.000Z</time>
      </trkpt>
      <trkpt lat="47.29426" lon="-2.25807">
        <ele>25</ele>
        <time>2021-05-09T08:16:54.000Z</time>
      </trkpt>
      <trkpt lat="47.29428" lon="-2.25791">
        <ele>25</ele>
        <time>2021-05-09T08:16:59.000Z</time>
      </trkpt>
      <trkpt lat="47.29427" lon="-2.25785">
        <ele>25</ele>
        <time>2021-05-09T08:17:02.000Z</time>
      </trkpt>
      <trkpt lat="47.29426" lon="-2.2578">
        <ele>25</ele>
        <time>2021-05-09T08:17:04.000Z</time>
      </trkpt>
      <trkpt lat="47.29422" lon="-2.25766">
        <ele>25</ele>
        <time>2021-05-09T08:17:08.000Z</time>
      </trkpt>
      <trkpt lat="47.29413" lon="-2.25761">
        <ele>25.39999961853</ele>
        <time>2021-05-09T08:17:11.000Z</time>
      </trkpt>
      <trkpt lat="47.29409" lon="-2.25757">
        <ele>25.799999237061</ele>
        <time>2021-05-09T08:17:12.000Z</time>
      </trkpt>
      <trkpt lat="47.29405" lon="-2.25755">
        <ele>26.200000762939</ele>
        <time>2021-05-09T08:17:13.000Z</time>
      </trkpt>
      <trkpt lat="47.29402" lon="-2.25755">
        <ele>26.60000038147</ele>
        <time>2021-05-09T08:17:14.000Z</time>
      </trkpt>
      <trkpt lat="47.29399" lon="-2.25755">
        <ele>27</ele>
        <time>2021-05-09T08:17:15.000Z</time>
      </trkpt>
      <trkpt lat="47.29389" lon="-2.25759">
        <ele>27</ele>
        <time>2021-05-09T08:17:18.000Z</time>
      </trkpt>
      <trkpt lat="47.29376" lon="-2.25763">
        <ele>27</ele>
        <time>2021-05-09T08:17:23.000Z</time>
      </trkpt>
      <trkpt lat="47.29366" lon="-2.25776">
        <ele>27</ele>
        <time>2021-05-09T08:17:28.000Z</time>
      </trkpt>
      <trkpt lat="47.29363" lon="-2.25787">
        <ele>27</ele>
        <time>2021-05-09T08:17:32.000Z</time>
      </trkpt>
      <trkpt lat="47.29362" lon="-2.25789">
        <ele>27</ele>
        <time>2021-05-09T08:17:34.000Z</time>
      </trkpt>
      <trkpt lat="47.29365" lon="-2.258">
        <ele>27</ele>
        <time>2021-05-09T08:17:51.000Z</time>
      </trkpt>
      <trkpt lat="47.29365" lon="-2.25803">
        <ele>27</ele>
        <time>2021-05-09T08:17:52.000Z</time>
      </trkpt>
      <trkpt lat="47.29371" lon="-2.25826">
        <ele>27</ele>
        <time>2021-05-09T08:17:58.000Z</time>
      </trkpt>
      <trkpt lat="47.2937" lon="-2.25833">
        <ele>27</ele>
        <time>2021-05-09T08:18:00.000Z</time>
      </trkpt>
      <trkpt lat="47.29366" lon="-2.25843">
        <ele>27</ele>
        <time>2021-05-09T08:18:03.000Z</time>
      </trkpt>
      <trkpt lat="47.29367" lon="-2.2585">
        <ele>27</ele>
        <time>2021-05-09T08:18:05.000Z</time>
      </trkpt>
      <trkpt lat="47.29366" lon="-2.2586">
        <ele>27</ele>
        <time>2021-05-09T08:18:09.000Z</time>
      </trkpt>
      <trkpt lat="47.29361" lon="-2.2587">
        <ele>27</ele>
        <time>2021-05-09T08:18:13.000Z</time>
      </trkpt>
      <trkpt lat="47.29355" lon="-2.25876">
        <ele>27</ele>
        <time>2021-05-09T08:18:15.000Z</time>
      </trkpt>
      <trkpt lat="47.29346" lon="-2.25876">
        <ele>27</ele>
        <time>2021-05-09T08:18:18.000Z</time>
      </trkpt>
      <trkpt lat="47.29343" lon="-2.25873">
        <ele>27</ele>
        <time>2021-05-09T08:18:19.000Z</time>
      </trkpt>
      <trkpt lat="47.2934" lon="-2.25869">
        <ele>27.39999961853</ele>
        <time>2021-05-09T08:18:20.000Z</time>
      </trkpt>
      <trkpt lat="47.29338" lon="-2.25866">
        <ele>27.799999237061</ele>
        <time>2021-05-09T08:18:21.000Z</time>
      </trkpt>
      <trkpt lat="47.29335" lon="-2.25862">
        <ele>28.200000762939</ele>
        <time>2021-05-09T08:18:22.000Z</time>
      </trkpt>
      <trkpt lat="47.29333" lon="-2.25859">
        <ele>28.60000038147</ele>
        <time>2021-05-09T08:18:23.000Z</time>
      </trkpt>
      <trkpt lat="47.29332" lon="-2.25857">
        <ele>29</ele>
        <time>2021-05-09T08:18:24.000Z</time>
      </trkpt>
      <trkpt lat="47.29326" lon="-2.25851">
        <ele>29</ele>
        <time>2021-05-09T08:18:28.000Z</time>
      </trkpt>
      <trkpt lat="47.29324" lon="-2.2585">
        <ele>29</ele>
        <time>2021-05-09T08:18:29.000Z</time>
      </trkpt>
      <trkpt lat="47.29316" lon="-2.25847">
        <ele>29</ele>
        <time>2021-05-09T08:18:34.000Z</time>
      </trkpt>
      <trkpt lat="47.29314" lon="-2.25847">
        <ele>29</ele>
        <time>2021-05-09T08:18:35.000Z</time>
      </trkpt>
      <trkpt lat="47.29312" lon="-2.25849">
        <ele>29</ele>
        <time>2021-05-09T08:18:36.000Z</time>
      </trkpt>
      <trkpt lat="47.29309" lon="-2.25856">
        <ele>29</ele>
        <time>2021-05-09T08:18:39.000Z</time>
      </trkpt>
      <trkpt lat="47.29309" lon="-2.25859">
        <ele>29</ele>
        <time>2021-05-09T08:18:40.000Z</time>
      </trkpt>
      <trkpt lat="47.29317" lon="-2.25886">
        <ele>29</ele>
        <time>2021-05-09T08:18:47.000Z</time>
      </trkpt>
      <trkpt lat="47.29321" lon="-2.25893">
        <ele>29</ele>
        <time>2021-05-09T08:18:49.000Z</time>
      </trkpt>
      <trkpt lat="47.29328" lon="-2.25899">
        <ele>29</ele>
        <time>2021-05-09T08:18:51.000Z</time>
      </trkpt>
      <trkpt lat="47.29335" lon="-2.25905">
        <ele>29</ele>
        <time>2021-05-09T08:18:53.000Z</time>
      </trkpt>
      <trkpt lat="47.2934" lon="-2.25911">
        <ele>29</ele>
        <time>2021-05-09T08:18:55.000Z</time>
      </trkpt>
      <trkpt lat="47.29342" lon="-2.25913">
        <ele>29</ele>
        <time>2021-05-09T08:18:58.000Z</time>
      </trkpt>
      <trkpt lat="47.29347" lon="-2.25917">
        <ele>29</ele>
        <time>2021-05-09T08:19:06.000Z</time>
      </trkpt>
      <trkpt lat="47.29355" lon="-2.25928">
        <ele>29</ele>
        <time>2021-05-09T08:19:10.000Z</time>
      </trkpt>
      <trkpt lat="47.29348" lon="-2.25928">
        <ele>29</ele>
        <time>2021-05-09T08:19:13.000Z</time>
      </trkpt>
      <trkpt lat="47.29342" lon="-2.25927">
        <ele>29</ele>
        <time>2021-05-09T08:19:15.000Z</time>
      </trkpt>
      <trkpt lat="47.29338" lon="-2.25933">
        <ele>29</ele>
        <time>2021-05-09T08:19:17.000Z</time>
      </trkpt>
      <trkpt lat="47.29335" lon="-2.25941">
        <ele>29</ele>
        <time>2021-05-09T08:19:19.000Z</time>
      </trkpt>
      <trkpt lat="47.29333" lon="-2.25947">
        <ele>29</ele>
        <time>2021-05-09T08:19:20.000Z</time>
      </trkpt>
      <trkpt lat="47.2933" lon="-2.25952">
        <ele>29</ele>
        <time>2021-05-09T08:19:21.000Z</time>
      </trkpt>
      <trkpt lat="47.29329" lon="-2.2597">
        <ele>29</ele>
        <time>2021-05-09T08:19:25.000Z</time>
      </trkpt>
      <trkpt lat="47.29331" lon="-2.25973">
        <ele>29</ele>
        <time>2021-05-09T08:19:26.000Z</time>
      </trkpt>
      <trkpt lat="47.29338" lon="-2.25979">
        <ele>29</ele>
        <time>2021-05-09T08:19:29.000Z</time>
      </trkpt>
      <trkpt lat="47.29342" lon="-2.25978">
        <ele>29</ele>
        <time>2021-05-09T08:19:30.000Z</time>
      </trkpt>
      <trkpt lat="47.29349" lon="-2.25973">
        <ele>29</ele>
        <time>2021-05-09T08:19:32.000Z</time>
      </trkpt>
      <trkpt lat="47.29359" lon="-2.25967">
        <ele>29</ele>
        <time>2021-05-09T08:19:35.000Z</time>
      </trkpt>
      <trkpt lat="47.29365" lon="-2.25959">
        <ele>29</ele>
        <time>2021-05-09T08:19:37.000Z</time>
      </trkpt>
      <trkpt lat="47.29376" lon="-2.25954">
        <ele>29</ele>
        <time>2021-05-09T08:19:41.000Z</time>
      </trkpt>
      <trkpt lat="47.29386" lon="-2.25963">
        <ele>28.60000038147</ele>
        <time>2021-05-09T08:19:46.000Z</time>
      </trkpt>
      <trkpt lat="47.29388" lon="-2.2597">
        <ele>27.799999237061</ele>
        <time>2021-05-09T08:19:47.000Z</time>
      </trkpt>
      <trkpt lat="47.29389" lon="-2.25976">
        <ele>27.39999961853</ele>
        <time>2021-05-09T08:19:48.000Z</time>
      </trkpt>
      <trkpt lat="47.29391" lon="-2.25983">
        <ele>27</ele>
        <time>2021-05-09T08:19:49.000Z</time>
      </trkpt>
      <trkpt lat="47.2939" lon="-2.25992">
        <ele>27</ele>
        <time>2021-05-09T08:19:50.000Z</time>
      </trkpt>
      <trkpt lat="47.29391" lon="-2.26007">
        <ele>26.60000038147</ele>
        <time>2021-05-09T08:19:52.000Z</time>
      </trkpt>
      <trkpt lat="47.29392" lon="-2.26013">
        <ele>26.200000762939</ele>
        <time>2021-05-09T08:19:53.000Z</time>
      </trkpt>
      <trkpt lat="47.29394" lon="-2.26016">
        <ele>25.60000038147</ele>
        <time>2021-05-09T08:19:54.000Z</time>
      </trkpt>
      <trkpt lat="47.29394" lon="-2.26018">
        <ele>25.200000762939</ele>
        <time>2021-05-09T08:19:55.000Z</time>
      </trkpt>
      <trkpt lat="47.29394" lon="-2.26018">
        <ele>24.799999237061</ele>
        <time>2021-05-09T08:19:56.000Z</time>
      </trkpt>
      <trkpt lat="47.29393" lon="-2.26021">
        <ele>24.799999237061</ele>
        <time>2021-05-09T08:19:59.000Z</time>
      </trkpt>
      <trkpt lat="47.29337" lon="-2.26053">
        <ele>27</ele>
        <time>2021-05-09T08:21:29.000Z</time>
      </trkpt>
      <trkpt lat="47.29333" lon="-2.26057">
        <ele>27.39999961853</ele>
        <time>2021-05-09T08:21:31.000Z</time>
      </trkpt>
      <trkpt lat="47.29331" lon="-2.26059">
        <ele>27.799999237061</ele>
        <time>2021-05-09T08:21:32.000Z</time>
      </trkpt>
      <trkpt lat="47.2933" lon="-2.26061">
        <ele>28.200000762939</ele>
        <time>2021-05-09T08:21:33.000Z</time>
      </trkpt>
      <trkpt lat="47.29329" lon="-2.26063">
        <ele>28.60000038147</ele>
        <time>2021-05-09T08:21:34.000Z</time>
      </trkpt>
      <trkpt lat="47.29329" lon="-2.26066">
        <ele>29</ele>
        <time>2021-05-09T08:21:35.000Z</time>
      </trkpt>
      <trkpt lat="47.2933" lon="-2.26074">
        <ele>29</ele>
        <time>2021-05-09T08:21:37.000Z</time>
      </trkpt>
      <trkpt lat="47.29334" lon="-2.26093">
        <ele>29</ele>
        <time>2021-05-09T08:21:43.000Z</time>
      </trkpt>
      <trkpt lat="47.29334" lon="-2.26098">
        <ele>29</ele>
        <time>2021-05-09T08:21:46.000Z</time>
      </trkpt>
      <trkpt lat="47.29337" lon="-2.26105">
        <ele>29</ele>
        <time>2021-05-09T08:21:52.000Z</time>
      </trkpt>
      <trkpt lat="47.29338" lon="-2.26107">
        <ele>29</ele>
        <time>2021-05-09T08:21:53.000Z</time>
      </trkpt>
      <trkpt lat="47.29344" lon="-2.2612">
        <ele>29</ele>
        <time>2021-05-09T08:21:57.000Z</time>
      </trkpt>
      <trkpt lat="47.29346" lon="-2.26124">
        <ele>29</ele>
        <time>2021-05-09T08:21:58.000Z</time>
      </trkpt>
      <trkpt lat="47.29362" lon="-2.26144">
        <ele>29</ele>
        <time>2021-05-09T08:22:03.000Z</time>
      </trkpt>
      <trkpt lat="47.29379" lon="-2.26159">
        <ele>29</ele>
        <time>2021-05-09T08:22:08.000Z</time>
      </trkpt>
      <trkpt lat="47.29388" lon="-2.26164">
        <ele>29</ele>
        <time>2021-05-09T08:22:10.000Z</time>
      </trkpt>
      <trkpt lat="47.29402" lon="-2.26165">
        <ele>29</ele>
        <time>2021-05-09T08:22:13.000Z</time>
      </trkpt>
      <trkpt lat="47.29419" lon="-2.26149">
        <ele>28.60000038147</ele>
        <time>2021-05-09T08:22:17.000Z</time>
      </trkpt>
      <trkpt lat="47.29422" lon="-2.26144">
        <ele>28.200000762939</ele>
        <time>2021-05-09T08:22:18.000Z</time>
      </trkpt>
      <trkpt lat="47.29425" lon="-2.26138">
        <ele>27.799999237061</ele>
        <time>2021-05-09T08:22:19.000Z</time>
      </trkpt>
      <trkpt lat="47.29428" lon="-2.26131">
        <ele>27.39999961853</ele>
        <time>2021-05-09T08:22:20.000Z</time>
      </trkpt>
      <trkpt lat="47.29429" lon="-2.26124">
        <ele>26.799999237061</ele>
        <time>2021-05-09T08:22:21.000Z</time>
      </trkpt>
      <trkpt lat="47.29431" lon="-2.2611">
        <ele>26.799999237061</ele>
        <time>2021-05-09T08:22:23.000Z</time>
      </trkpt>
      <trkpt lat="47.29431" lon="-2.26105">
        <ele>26.39999961853</ele>
        <time>2021-05-09T08:22:24.000Z</time>
      </trkpt>
      <trkpt lat="47.29429" lon="-2.26098">
        <ele>26</ele>
        <time>2021-05-09T08:22:25.000Z</time>
      </trkpt>
      <trkpt lat="47.29428" lon="-2.26092">
        <ele>25.60000038147</ele>
        <time>2021-05-09T08:22:26.000Z</time>
      </trkpt>
      <trkpt lat="47.29426" lon="-2.26086">
        <ele>25.200000762939</ele>
        <time>2021-05-09T08:22:27.000Z</time>
      </trkpt>
      <trkpt lat="47.29425" lon="-2.26081">
        <ele>24.60000038147</ele>
        <time>2021-05-09T08:22:28.000Z</time>
      </trkpt>
      <trkpt lat="47.29422" lon="-2.26073">
        <ele>24.60000038147</ele>
        <time>2021-05-09T08:22:30.000Z</time>
      </trkpt>
      <trkpt lat="47.29408" lon="-2.26043">
        <ele>24.60000038147</ele>
        <time>2021-05-09T08:22:36.000Z</time>
      </trkpt>
      <trkpt lat="47.29402" lon="-2.2602">
        <ele>24.60000038147</ele>
        <time>2021-05-09T08:22:40.000Z</time>
      </trkpt>
      <trkpt lat="47.294" lon="-2.25998">
        <ele>24.60000038147</ele>
        <time>2021-05-09T08:22:45.000Z</time>
      </trkpt>
      <trkpt lat="47.29397" lon="-2.25979">
        <ele>24.60000038147</ele>
        <time>2021-05-09T08:22:50.000Z</time>
      </trkpt>
      <trkpt lat="47.29397" lon="-2.25975">
        <ele>25</ele>
        <time>2021-05-09T08:22:51.000Z</time>
      </trkpt>
      <trkpt lat="47.29399" lon="-2.25976">
        <ele>26</ele>
        <time>2021-05-09T08:22:53.000Z</time>
      </trkpt>
      <trkpt lat="47.29401" lon="-2.25976">
        <ele>26.39999961853</ele>
        <time>2021-05-09T08:22:54.000Z</time>
      </trkpt>
      <trkpt lat="47.29405" lon="-2.25973">
        <ele>26.799999237061</ele>
        <time>2021-05-09T08:22:55.000Z</time>
      </trkpt>
      <trkpt lat="47.29412" lon="-2.25967">
        <ele>26.799999237061</ele>
        <time>2021-05-09T08:22:57.000Z</time>
      </trkpt>
      <trkpt lat="47.29415" lon="-2.25964">
        <ele>26.799999237061</ele>
        <time>2021-05-09T08:22:58.000Z</time>
      </trkpt>
      <trkpt lat="47.29431" lon="-2.25943">
        <ele>26.39999961853</ele>
        <time>2021-05-09T08:23:03.000Z</time>
      </trkpt>
      <trkpt lat="47.29433" lon="-2.25937">
        <ele>26</ele>
        <time>2021-05-09T08:23:04.000Z</time>
      </trkpt>
      <trkpt lat="47.29435" lon="-2.25932">
        <ele>25.200000762939</ele>
        <time>2021-05-09T08:23:05.000Z</time>
      </trkpt>
      <trkpt lat="47.29436" lon="-2.25926">
        <ele>24.60000038147</ele>
        <time>2021-05-09T08:23:06.000Z</time>
      </trkpt>
      <trkpt lat="47.29436" lon="-2.25921">
        <ele>24.60000038147</ele>
        <time>2021-05-09T08:23:07.000Z</time>
      </trkpt>
      <trkpt lat="47.29429" lon="-2.25885">
        <ele>24.60000038147</ele>
        <time>2021-05-09T08:23:14.000Z</time>
      </trkpt>
      <trkpt lat="47.29427" lon="-2.25868">
        <ele>24.60000038147</ele>
        <time>2021-05-09T08:23:18.000Z</time>
      </trkpt>
      <trkpt lat="47.29427" lon="-2.25859">
        <ele>24.60000038147</ele>
        <time>2021-05-09T08:23:20.000Z</time>
      </trkpt>
      <trkpt lat="47.29434" lon="-2.25816">
        <ele>24.60000038147</ele>
        <time>2021-05-09T08:23:26.000Z</time>
      </trkpt>
      <trkpt lat="47.29436" lon="-2.25786">
        <ele>24.60000038147</ele>
        <time>2021-05-09T08:23:33.000Z</time>
      </trkpt>
      <trkpt lat="47.29439" lon="-2.25785">
        <ele>24.60000038147</ele>
        <time>2021-05-09T08:23:34.000Z</time>
      </trkpt>
      <trkpt lat="47.29445" lon="-2.25783">
        <ele>24.60000038147</ele>
        <time>2021-05-09T08:23:36.000Z</time>
      </trkpt>
      <trkpt lat="47.29447" lon="-2.25781">
        <ele>24.60000038147</ele>
        <time>2021-05-09T08:23:37.000Z</time>
      </trkpt>
      <trkpt lat="47.29446" lon="-2.2576">
        <ele>24.60000038147</ele>
        <time>2021-05-09T08:23:42.000Z</time>
      </trkpt>
      <trkpt lat="47.29441" lon="-2.25748">
        <ele>24.60000038147</ele>
        <time>2021-05-09T08:23:45.000Z</time>
      </trkpt>
      <trkpt lat="47.29437" lon="-2.25732">
        <ele>25</ele>
        <time>2021-05-09T08:23:48.000Z</time>
      </trkpt>
      <trkpt lat="47.29437" lon="-2.25727">
        <ele>25.39999961853</ele>
        <time>2021-05-09T08:23:49.000Z</time>
      </trkpt>
      <trkpt lat="47.29435" lon="-2.25721">
        <ele>25.799999237061</ele>
        <time>2021-05-09T08:23:50.000Z</time>
      </trkpt>
      <trkpt lat="47.29434" lon="-2.25716">
        <ele>26.39999961853</ele>
        <time>2021-05-09T08:23:51.000Z</time>
      </trkpt>
      <trkpt lat="47.29432" lon="-2.2571">
        <ele>26.799999237061</ele>
        <time>2021-05-09T08:23:52.000Z</time>
      </trkpt>
      <trkpt lat="47.29429" lon="-2.25699">
        <ele>27.200000762939</ele>
        <time>2021-05-09T08:23:54.000Z</time>
      </trkpt>
      <trkpt lat="47.29427" lon="-2.25694">
        <ele>27.60000038147</ele>
        <time>2021-05-09T08:23:55.000Z</time>
      </trkpt>
      <trkpt lat="47.29426" lon="-2.2569">
        <ele>28.200000762939</ele>
        <time>2021-05-09T08:23:56.000Z</time>
      </trkpt>
      <trkpt lat="47.29424" lon="-2.25685">
        <ele>28.60000038147</ele>
        <time>2021-05-09T08:23:57.000Z</time>
      </trkpt>
      <trkpt lat="47.29421" lon="-2.25681">
        <ele>29</ele>
        <time>2021-05-09T08:23:58.000Z</time>
      </trkpt>
      <trkpt lat="47.29414" lon="-2.25666">
        <ele>29</ele>
        <time>2021-05-09T08:24:03.000Z</time>
      </trkpt>
      <trkpt lat="47.29406" lon="-2.25659">
        <ele>29</ele>
        <time>2021-05-09T08:24:09.000Z</time>
      </trkpt>
      <trkpt lat="47.29399" lon="-2.25654">
        <ele>29</ele>
        <time>2021-05-09T08:24:15.000Z</time>
      </trkpt>
      <trkpt lat="47.29396" lon="-2.25648">
        <ele>29.39999961853</ele>
        <time>2021-05-09T08:24:19.000Z</time>
      </trkpt>
      <trkpt lat="47.29393" lon="-2.25645">
        <ele>31.200000762939</ele>
        <time>2021-05-09T08:24:30.000Z</time>
      </trkpt>
      <trkpt lat="47.29392" lon="-2.2564">
        <ele>31.200000762939</ele>
        <time>2021-05-09T08:24:32.000Z</time>
      </trkpt>
      <trkpt lat="47.29393" lon="-2.25635">
        <ele>31.200000762939</ele>
        <time>2021-05-09T08:24:34.000Z</time>
      </trkpt>
      <trkpt lat="47.29404" lon="-2.25624">
        <ele>31.200000762939</ele>
        <time>2021-05-09T08:24:39.000Z</time>
      </trkpt>
      <trkpt lat="47.29426" lon="-2.25614">
        <ele>31.200000762939</ele>
        <time>2021-05-09T08:24:44.000Z</time>
      </trkpt>
      <trkpt lat="47.29458" lon="-2.25602">
        <ele>31.200000762939</ele>
        <time>2021-05-09T08:24:50.000Z</time>
      </trkpt>
      <trkpt lat="47.29497" lon="-2.25581">
        <ele>31.200000762939</ele>
        <time>2021-05-09T08:24:57.000Z</time>
      </trkpt>
      <trkpt lat="47.2955" lon="-2.25547">
        <ele>31.200000762939</ele>
        <time>2021-05-09T08:25:06.000Z</time>
      </trkpt>
      <trkpt lat="47.29568" lon="-2.25532">
        <ele>30.799999237061</ele>
        <time>2021-05-09T08:25:09.000Z</time>
      </trkpt>
      <trkpt lat="47.29573" lon="-2.25526">
        <ele>30.200000762939</ele>
        <time>2021-05-09T08:25:10.000Z</time>
      </trkpt>
      <trkpt lat="47.29578" lon="-2.25519">
        <ele>29.799999237061</ele>
        <time>2021-05-09T08:25:11.000Z</time>
      </trkpt>
      <trkpt lat="47.29581" lon="-2.2551">
        <ele>29.39999961853</ele>
        <time>2021-05-09T08:25:12.000Z</time>
      </trkpt>
      <trkpt lat="47.29584" lon="-2.25501">
        <ele>29</ele>
        <time>2021-05-09T08:25:13.000Z</time>
      </trkpt>
      <trkpt lat="47.29585" lon="-2.25493">
        <ele>29</ele>
        <time>2021-05-09T08:25:14.000Z</time>
      </trkpt>
      <trkpt lat="47.29587" lon="-2.25455">
        <ele>29</ele>
        <time>2021-05-09T08:25:18.000Z</time>
      </trkpt>
      <trkpt lat="47.29582" lon="-2.25399">
        <ele>29</ele>
        <time>2021-05-09T08:25:23.000Z</time>
      </trkpt>
      <trkpt lat="47.29574" lon="-2.25368">
        <ele>28.60000038147</ele>
        <time>2021-05-09T08:25:26.000Z</time>
      </trkpt>
      <trkpt lat="47.2957" lon="-2.25358">
        <ele>28.200000762939</ele>
        <time>2021-05-09T08:25:27.000Z</time>
      </trkpt>
      <trkpt lat="47.29566" lon="-2.25348">
        <ele>27.799999237061</ele>
        <time>2021-05-09T08:25:28.000Z</time>
      </trkpt>
      <trkpt lat="47.29562" lon="-2.25339">
        <ele>27.200000762939</ele>
        <time>2021-05-09T08:25:29.000Z</time>
      </trkpt>
      <trkpt lat="47.29557" lon="-2.2533">
        <ele>26.799999237061</ele>
        <time>2021-05-09T08:25:30.000Z</time>
      </trkpt>
      <trkpt lat="47.29542" lon="-2.25293">
        <ele>26.39999961853</ele>
        <time>2021-05-09T08:25:34.000Z</time>
      </trkpt>
      <trkpt lat="47.2954" lon="-2.25283">
        <ele>26</ele>
        <time>2021-05-09T08:25:35.000Z</time>
      </trkpt>
      <trkpt lat="47.29538" lon="-2.25272">
        <ele>25.60000038147</ele>
        <time>2021-05-09T08:25:36.000Z</time>
      </trkpt>
      <trkpt lat="47.29538" lon="-2.25261">
        <ele>25.200000762939</ele>
        <time>2021-05-09T08:25:37.000Z</time>
      </trkpt>
      <trkpt lat="47.29538" lon="-2.2525">
        <ele>24.799999237061</ele>
        <time>2021-05-09T08:25:38.000Z</time>
      </trkpt>
      <trkpt lat="47.29539" lon="-2.2523">
        <ele>24.799999237061</ele>
        <time>2021-05-09T08:25:40.000Z</time>
      </trkpt>
      <trkpt lat="47.29543" lon="-2.25205">
        <ele>24.799999237061</ele>
        <time>2021-05-09T08:25:43.000Z</time>
      </trkpt>
      <trkpt lat="47.29549" lon="-2.25186">
        <ele>24.799999237061</ele>
        <time>2021-05-09T08:25:46.000Z</time>
      </trkpt>
      <trkpt lat="47.2955" lon="-2.25184">
        <ele>24.799999237061</ele>
        <time>2021-05-09T08:25:47.000Z</time>
      </trkpt>
      <trkpt lat="47.2955" lon="-2.2518">
        <ele>24.39999961853</ele>
        <time>2021-05-09T08:25:49.000Z</time>
      </trkpt>
      <trkpt lat="47.29548" lon="-2.2518">
        <ele>24</ele>
        <time>2021-05-09T08:25:50.000Z</time>
      </trkpt>
      <trkpt lat="47.29545" lon="-2.25181">
        <ele>23.60000038147</ele>
        <time>2021-05-09T08:25:51.000Z</time>
      </trkpt>
      <trkpt lat="47.29542" lon="-2.25181">
        <ele>23.200000762939</ele>
        <time>2021-05-09T08:25:52.000Z</time>
      </trkpt>
      <trkpt lat="47.29537" lon="-2.25183">
        <ele>22.799999237061</ele>
        <time>2021-05-09T08:25:53.000Z</time>
      </trkpt>
      <trkpt lat="47.29528" lon="-2.25186">
        <ele>22.799999237061</ele>
        <time>2021-05-09T08:25:55.000Z</time>
      </trkpt>
      <trkpt lat="47.29517" lon="-2.2519">
        <ele>22.799999237061</ele>
        <time>2021-05-09T08:25:57.000Z</time>
      </trkpt>
      <trkpt lat="47.29499" lon="-2.25196">
        <ele>22.799999237061</ele>
        <time>2021-05-09T08:26:00.000Z</time>
      </trkpt>
      <trkpt lat="47.29448" lon="-2.25211">
        <ele>22.799999237061</ele>
        <time>2021-05-09T08:26:08.000Z</time>
      </trkpt>
      <trkpt lat="47.29428" lon="-2.25219">
        <ele>22.39999961853</ele>
        <time>2021-05-09T08:26:11.000Z</time>
      </trkpt>
      <trkpt lat="47.2942" lon="-2.2522">
        <ele>22</ele>
        <time>2021-05-09T08:26:12.000Z</time>
      </trkpt>
      <trkpt lat="47.29412" lon="-2.2522">
        <ele>21.60000038147</ele>
        <time>2021-05-09T08:26:13.000Z</time>
      </trkpt>
      <trkpt lat="47.29405" lon="-2.25218">
        <ele>21.200000762939</ele>
        <time>2021-05-09T08:26:14.000Z</time>
      </trkpt>
      <trkpt lat="47.29399" lon="-2.25217">
        <ele>20.799999237061</ele>
        <time>2021-05-09T08:26:15.000Z</time>
      </trkpt>
      <trkpt lat="47.29376" lon="-2.25211">
        <ele>20.799999237061</ele>
        <time>2021-05-09T08:26:18.000Z</time>
      </trkpt>
      <trkpt lat="47.29331" lon="-2.25204">
        <ele>20.799999237061</ele>
        <time>2021-05-09T08:26:24.000Z</time>
      </trkpt>
      <trkpt lat="47.29312" lon="-2.25203">
        <ele>20.799999237061</ele>
        <time>2021-05-09T08:26:27.000Z</time>
      </trkpt>
      <trkpt lat="47.29308" lon="-2.25199">
        <ele>20.799999237061</ele>
        <time>2021-05-09T08:26:28.000Z</time>
      </trkpt>
      <trkpt lat="47.29305" lon="-2.2519">
        <ele>20.39999961853</ele>
        <time>2021-05-09T08:26:29.000Z</time>
      </trkpt>
      <trkpt lat="47.29303" lon="-2.25184">
        <ele>20</ele>
        <time>2021-05-09T08:26:30.000Z</time>
      </trkpt>
      <trkpt lat="47.29301" lon="-2.25177">
        <ele>19.39999961853</ele>
        <time>2021-05-09T08:26:31.000Z</time>
      </trkpt>
      <trkpt lat="47.29299" lon="-2.25168">
        <ele>19</ele>
        <time>2021-05-09T08:26:32.000Z</time>
      </trkpt>
      <trkpt lat="47.29299" lon="-2.25158">
        <ele>18.60000038147</ele>
        <time>2021-05-09T08:26:33.000Z</time>
      </trkpt>
      <trkpt lat="47.29297" lon="-2.25141">
        <ele>18.60000038147</ele>
        <time>2021-05-09T08:26:35.000Z</time>
      </trkpt>
      <trkpt lat="47.2929" lon="-2.25088">
        <ele>19</ele>
        <time>2021-05-09T08:26:41.000Z</time>
      </trkpt>
      <trkpt lat="47.29288" lon="-2.2508">
        <ele>19.60000038147</ele>
        <time>2021-05-09T08:26:42.000Z</time>
      </trkpt>
      <trkpt lat="47.29286" lon="-2.25072">
        <ele>20</ele>
        <time>2021-05-09T08:26:43.000Z</time>
      </trkpt>
      <trkpt lat="47.29284" lon="-2.25063">
        <ele>20.39999961853</ele>
        <time>2021-05-09T08:26:44.000Z</time>
      </trkpt>
      <trkpt lat="47.29282" lon="-2.25055">
        <ele>20.799999237061</ele>
        <time>2021-05-09T08:26:45.000Z</time>
      </trkpt>
      <trkpt lat="47.29273" lon="-2.25021">
        <ele>20.799999237061</ele>
        <time>2021-05-09T08:26:49.000Z</time>
      </trkpt>
      <trkpt lat="47.29263" lon="-2.24965">
        <ele>21.200000762939</ele>
        <time>2021-05-09T08:26:56.000Z</time>
      </trkpt>
      <trkpt lat="47.29262" lon="-2.24958">
        <ele>21.60000038147</ele>
        <time>2021-05-09T08:26:57.000Z</time>
      </trkpt>
      <trkpt lat="47.29261" lon="-2.2495">
        <ele>22</ele>
        <time>2021-05-09T08:26:58.000Z</time>
      </trkpt>
      <trkpt lat="47.2926" lon="-2.24943">
        <ele>22.39999961853</ele>
        <time>2021-05-09T08:26:59.000Z</time>
      </trkpt>
      <trkpt lat="47.29259" lon="-2.24936">
        <ele>22.799999237061</ele>
        <time>2021-05-09T08:27:00.000Z</time>
      </trkpt>
      <trkpt lat="47.29257" lon="-2.24927">
        <ele>22.799999237061</ele>
        <time>2021-05-09T08:27:02.000Z</time>
      </trkpt>
      <trkpt lat="47.29256" lon="-2.24922">
        <ele>22.799999237061</ele>
        <time>2021-05-09T08:27:06.000Z</time>
      </trkpt>
      <trkpt lat="47.29255" lon="-2.24922">
        <ele>22.799999237061</ele>
        <time>2021-05-09T08:27:08.000Z</time>
      </trkpt>
      <trkpt lat="47.29256" lon="-2.24916">
        <ele>22.799999237061</ele>
        <time>2021-05-09T08:27:50.000Z</time>
      </trkpt>
      <trkpt lat="47.29259" lon="-2.24916">
        <ele>22.799999237061</ele>
        <time>2021-05-09T08:27:51.000Z</time>
      </trkpt>
      <trkpt lat="47.29272" lon="-2.24918">
        <ele>22.799999237061</ele>
        <time>2021-05-09T08:27:55.000Z</time>
      </trkpt>
      <trkpt lat="47.29299" lon="-2.24919">
        <ele>22.799999237061</ele>
        <time>2021-05-09T08:28:01.000Z</time>
      </trkpt>
      <trkpt lat="47.29313" lon="-2.24919">
        <ele>22.799999237061</ele>
        <time>2021-05-09T08:28:04.000Z</time>
      </trkpt>
      <trkpt lat="47.29326" lon="-2.24917">
        <ele>22.799999237061</ele>
        <time>2021-05-09T08:28:07.000Z</time>
      </trkpt>
      <trkpt lat="47.29334" lon="-2.249">
        <ele>22.799999237061</ele>
        <time>2021-05-09T08:28:10.000Z</time>
      </trkpt>
      <trkpt lat="47.29336" lon="-2.24878">
        <ele>22.799999237061</ele>
        <time>2021-05-09T08:28:13.000Z</time>
      </trkpt>
      <trkpt lat="47.29336" lon="-2.24869">
        <ele>22.799999237061</ele>
        <time>2021-05-09T08:28:14.000Z</time>
      </trkpt>
      <trkpt lat="47.29334" lon="-2.24834">
        <ele>22.799999237061</ele>
        <time>2021-05-09T08:28:18.000Z</time>
      </trkpt>
      <trkpt lat="47.29332" lon="-2.24827">
        <ele>22.799999237061</ele>
        <time>2021-05-09T08:28:19.000Z</time>
      </trkpt>
      <trkpt lat="47.29328" lon="-2.24798">
        <ele>22.799999237061</ele>
        <time>2021-05-09T08:28:23.000Z</time>
      </trkpt>
      <trkpt lat="47.29324" lon="-2.24777">
        <ele>22.799999237061</ele>
        <time>2021-05-09T08:28:26.000Z</time>
      </trkpt>
      <trkpt lat="47.29316" lon="-2.24753">
        <ele>22.799999237061</ele>
        <time>2021-05-09T08:28:29.000Z</time>
      </trkpt>
      <trkpt lat="47.29314" lon="-2.24736">
        <ele>22.799999237061</ele>
        <time>2021-05-09T08:28:31.000Z</time>
      </trkpt>
      <trkpt lat="47.29312" lon="-2.24728">
        <ele>22.799999237061</ele>
        <time>2021-05-09T08:28:32.000Z</time>
      </trkpt>
      <trkpt lat="47.29311" lon="-2.24721">
        <ele>22.799999237061</ele>
        <time>2021-05-09T08:28:33.000Z</time>
      </trkpt>
      <trkpt lat="47.29307" lon="-2.24705">
        <ele>22.39999961853</ele>
        <time>2021-05-09T08:28:35.000Z</time>
      </trkpt>
      <trkpt lat="47.29304" lon="-2.24696">
        <ele>22</ele>
        <time>2021-05-09T08:28:36.000Z</time>
      </trkpt>
      <trkpt lat="47.29302" lon="-2.24685">
        <ele>21.60000038147</ele>
        <time>2021-05-09T08:28:37.000Z</time>
      </trkpt>
      <trkpt lat="47.293" lon="-2.24675">
        <ele>21.200000762939</ele>
        <time>2021-05-09T08:28:38.000Z</time>
      </trkpt>
      <trkpt lat="47.29299" lon="-2.24664">
        <ele>20.799999237061</ele>
        <time>2021-05-09T08:28:39.000Z</time>
      </trkpt>
      <trkpt lat="47.29298" lon="-2.24654">
        <ele>20.799999237061</ele>
        <time>2021-05-09T08:28:40.000Z</time>
      </trkpt>
      <trkpt lat="47.29298" lon="-2.24623">
        <ele>20.799999237061</ele>
        <time>2021-05-09T08:28:43.000Z</time>
      </trkpt>
      <trkpt lat="47.29297" lon="-2.2459">
        <ele>20.200000762939</ele>
        <time>2021-05-09T08:28:46.000Z</time>
      </trkpt>
      <trkpt lat="47.29297" lon="-2.24579">
        <ele>19.799999237061</ele>
        <time>2021-05-09T08:28:47.000Z</time>
      </trkpt>
      <trkpt lat="47.29296" lon="-2.24568">
        <ele>19.39999961853</ele>
        <time>2021-05-09T08:28:48.000Z</time>
      </trkpt>
      <trkpt lat="47.29296" lon="-2.24559">
        <ele>19</ele>
        <time>2021-05-09T08:28:49.000Z</time>
      </trkpt>
      <trkpt lat="47.29295" lon="-2.2455">
        <ele>18.60000038147</ele>
        <time>2021-05-09T08:28:50.000Z</time>
      </trkpt>
      <trkpt lat="47.29296" lon="-2.24506">
        <ele>18.60000038147</ele>
        <time>2021-05-09T08:28:55.000Z</time>
      </trkpt>
      <trkpt lat="47.29295" lon="-2.2447">
        <ele>18.60000038147</ele>
        <time>2021-05-09T08:29:00.000Z</time>
      </trkpt>
      <trkpt lat="47.29296" lon="-2.24465">
        <ele>18.60000038147</ele>
        <time>2021-05-09T08:29:01.000Z</time>
      </trkpt>
      <trkpt lat="47.293" lon="-2.2446">
        <ele>18.60000038147</ele>
        <time>2021-05-09T08:29:03.000Z</time>
      </trkpt>
      <trkpt lat="47.2931" lon="-2.24451">
        <ele>18.60000038147</ele>
        <time>2021-05-09T08:29:06.000Z</time>
      </trkpt>
      <trkpt lat="47.29316" lon="-2.24447">
        <ele>18.60000038147</ele>
        <time>2021-05-09T08:29:08.000Z</time>
      </trkpt>
      <trkpt lat="47.29333" lon="-2.24433">
        <ele>18.60000038147</ele>
        <time>2021-05-09T08:29:13.000Z</time>
      </trkpt>
      <trkpt lat="47.29342" lon="-2.24416">
        <ele>18.60000038147</ele>
        <time>2021-05-09T08:29:17.000Z</time>
      </trkpt>
      <trkpt lat="47.2936" lon="-2.24396">
        <ele>18.60000038147</ele>
        <time>2021-05-09T08:29:21.000Z</time>
      </trkpt>
      <trkpt lat="47.29374" lon="-2.24378">
        <ele>18.60000038147</ele>
        <time>2021-05-09T08:29:24.000Z</time>
      </trkpt>
      <trkpt lat="47.29384" lon="-2.24368">
        <ele>18.60000038147</ele>
        <time>2021-05-09T08:29:26.000Z</time>
      </trkpt>
      <trkpt lat="47.29422" lon="-2.2433">
        <ele>18.60000038147</ele>
        <time>2021-05-09T08:29:34.000Z</time>
      </trkpt>
      <trkpt lat="47.29437" lon="-2.24318">
        <ele>18.60000038147</ele>
        <time>2021-05-09T08:29:37.000Z</time>
      </trkpt>
      <trkpt lat="47.29449" lon="-2.24314">
        <ele>18.60000038147</ele>
        <time>2021-05-09T08:29:39.000Z</time>
      </trkpt>
      <trkpt lat="47.29475" lon="-2.24306">
        <ele>18.200000762939</ele>
        <time>2021-05-09T08:29:43.000Z</time>
      </trkpt>
      <trkpt lat="47.29481" lon="-2.24303">
        <ele>17.799999237061</ele>
        <time>2021-05-09T08:29:44.000Z</time>
      </trkpt>
      <trkpt lat="47.29488" lon="-2.24301">
        <ele>17.39999961853</ele>
        <time>2021-05-09T08:29:45.000Z</time>
      </trkpt>
      <trkpt lat="47.29494" lon="-2.24298">
        <ele>17</ele>
        <time>2021-05-09T08:29:46.000Z</time>
      </trkpt>
      <trkpt lat="47.29502" lon="-2.24295">
        <ele>16.60000038147</ele>
        <time>2021-05-09T08:29:47.000Z</time>
      </trkpt>
      <trkpt lat="47.29525" lon="-2.24286">
        <ele>16.200000762939</ele>
        <time>2021-05-09T08:29:50.000Z</time>
      </trkpt>
      <trkpt lat="47.29532" lon="-2.24283">
        <ele>15.60000038147</ele>
        <time>2021-05-09T08:29:51.000Z</time>
      </trkpt>
      <trkpt lat="47.29539" lon="-2.2428">
        <ele>15.199999809265</ele>
        <time>2021-05-09T08:29:52.000Z</time>
      </trkpt>
      <trkpt lat="47.29545" lon="-2.24279">
        <ele>14.800000190735</ele>
        <time>2021-05-09T08:29:53.000Z</time>
      </trkpt>
      <trkpt lat="47.29549" lon="-2.24279">
        <ele>14.199999809265</ele>
        <time>2021-05-09T08:29:54.000Z</time>
      </trkpt>
      <trkpt lat="47.29551" lon="-2.24278">
        <ele>13.60000038147</ele>
        <time>2021-05-09T08:29:55.000Z</time>
      </trkpt>
      <trkpt lat="47.29553" lon="-2.24278">
        <ele>13</ele>
        <time>2021-05-09T08:29:56.000Z</time>
      </trkpt>
      <trkpt lat="47.29555" lon="-2.24279">
        <ele>12.39999961853</ele>
        <time>2021-05-09T08:29:57.000Z</time>
      </trkpt>
      <trkpt lat="47.29558" lon="-2.24283">
        <ele>11.800000190735</ele>
        <time>2021-05-09T08:29:58.000Z</time>
      </trkpt>
      <trkpt lat="47.29564" lon="-2.24298">
        <ele>11.800000190735</ele>
        <time>2021-05-09T08:30:01.000Z</time>
      </trkpt>
      <trkpt lat="47.29569" lon="-2.24309">
        <ele>11.800000190735</ele>
        <time>2021-05-09T08:30:03.000Z</time>
      </trkpt>
      <trkpt lat="47.29585" lon="-2.24318">
        <ele>11.800000190735</ele>
        <time>2021-05-09T08:30:07.000Z</time>
      </trkpt>
      <trkpt lat="47.29589" lon="-2.24318">
        <ele>11.800000190735</ele>
        <time>2021-05-09T08:30:08.000Z</time>
      </trkpt>
      <trkpt lat="47.29594" lon="-2.24316">
        <ele>11.800000190735</ele>
        <time>2021-05-09T08:30:09.000Z</time>
      </trkpt>
      <trkpt lat="47.29611" lon="-2.24314">
        <ele>12.199999809265</ele>
        <time>2021-05-09T08:30:12.000Z</time>
      </trkpt>
      <trkpt lat="47.29616" lon="-2.24312">
        <ele>12.800000190735</ele>
        <time>2021-05-09T08:30:13.000Z</time>
      </trkpt>
      <trkpt lat="47.29621" lon="-2.2431">
        <ele>13.199999809265</ele>
        <time>2021-05-09T08:30:14.000Z</time>
      </trkpt>
      <trkpt lat="47.29627" lon="-2.24308">
        <ele>13.60000038147</ele>
        <time>2021-05-09T08:30:15.000Z</time>
      </trkpt>
      <trkpt lat="47.29633" lon="-2.24306">
        <ele>14</ele>
        <time>2021-05-09T08:30:16.000Z</time>
      </trkpt>
      <trkpt lat="47.29639" lon="-2.24304">
        <ele>14</ele>
        <time>2021-05-09T08:30:17.000Z</time>
      </trkpt>
      <trkpt lat="47.29646" lon="-2.24301">
        <ele>14</ele>
        <time>2021-05-09T08:30:18.000Z</time>
      </trkpt>
      <trkpt lat="47.29678" lon="-2.24283">
        <ele>14</ele>
        <time>2021-05-09T08:30:24.000Z</time>
      </trkpt>
      <trkpt lat="47.29699" lon="-2.2427">
        <ele>14.39999961853</ele>
        <time>2021-05-09T08:30:28.000Z</time>
      </trkpt>
      <trkpt lat="47.29704" lon="-2.24267">
        <ele>15.199999809265</ele>
        <time>2021-05-09T08:30:29.000Z</time>
      </trkpt>
      <trkpt lat="47.2971" lon="-2.24264">
        <ele>15.60000038147</ele>
        <time>2021-05-09T08:30:30.000Z</time>
      </trkpt>
      <trkpt lat="47.29715" lon="-2.24261">
        <ele>16</ele>
        <time>2021-05-09T08:30:31.000Z</time>
      </trkpt>
      <trkpt lat="47.29748" lon="-2.24244">
        <ele>16.39999961853</ele>
        <time>2021-05-09T08:30:37.000Z</time>
      </trkpt>
      <trkpt lat="47.29752" lon="-2.24241">
        <ele>17</ele>
        <time>2021-05-09T08:30:38.000Z</time>
      </trkpt>
      <trkpt lat="47.29757" lon="-2.24239">
        <ele>17.39999961853</ele>
        <time>2021-05-09T08:30:39.000Z</time>
      </trkpt>
      <trkpt lat="47.29762" lon="-2.24237">
        <ele>17.799999237061</ele>
        <time>2021-05-09T08:30:40.000Z</time>
      </trkpt>
      <trkpt lat="47.29767" lon="-2.24234">
        <ele>18.200000762939</ele>
        <time>2021-05-09T08:30:41.000Z</time>
      </trkpt>
      <trkpt lat="47.29786" lon="-2.24225">
        <ele>18.200000762939</ele>
        <time>2021-05-09T08:30:45.000Z</time>
      </trkpt>
      <trkpt lat="47.29795" lon="-2.24222">
        <ele>18.60000038147</ele>
        <time>2021-05-09T08:30:47.000Z</time>
      </trkpt>
      <trkpt lat="47.298" lon="-2.24221">
        <ele>19</ele>
        <time>2021-05-09T08:30:48.000Z</time>
      </trkpt>
      <trkpt lat="47.29804" lon="-2.24221">
        <ele>19.39999961853</ele>
        <time>2021-05-09T08:30:49.000Z</time>
      </trkpt>
      <trkpt lat="47.29808" lon="-2.24222">
        <ele>19.799999237061</ele>
        <time>2021-05-09T08:30:50.000Z</time>
      </trkpt>
      <trkpt lat="47.29812" lon="-2.24223">
        <ele>20.200000762939</ele>
        <time>2021-05-09T08:30:51.000Z</time>
      </trkpt>
      <trkpt lat="47.29823" lon="-2.2423">
        <ele>20.200000762939</ele>
        <time>2021-05-09T08:30:55.000Z</time>
      </trkpt>
      <trkpt lat="47.29835" lon="-2.24237">
        <ele>20.200000762939</ele>
        <time>2021-05-09T08:31:00.000Z</time>
      </trkpt>
      <trkpt lat="47.29838" lon="-2.24238">
        <ele>20.799999237061</ele>
        <time>2021-05-09T08:31:01.000Z</time>
      </trkpt>
      <trkpt lat="47.2984" lon="-2.24239">
        <ele>21.200000762939</ele>
        <time>2021-05-09T08:31:02.000Z</time>
      </trkpt>
      <trkpt lat="47.29843" lon="-2.2424">
        <ele>21.60000038147</ele>
        <time>2021-05-09T08:31:03.000Z</time>
      </trkpt>
      <trkpt lat="47.29846" lon="-2.2424">
        <ele>22</ele>
        <time>2021-05-09T08:31:04.000Z</time>
      </trkpt>
      <trkpt lat="47.29849" lon="-2.24241">
        <ele>22.39999961853</ele>
        <time>2021-05-09T08:31:05.000Z</time>
      </trkpt>
      <trkpt lat="47.29852" lon="-2.24243">
        <ele>22.39999961853</ele>
        <time>2021-05-09T08:31:06.000Z</time>
      </trkpt>
      <trkpt lat="47.29873" lon="-2.24253">
        <ele>22.39999961853</ele>
        <time>2021-05-09T08:31:12.000Z</time>
      </trkpt>
      <trkpt lat="47.29887" lon="-2.24264">
        <ele>22.39999961853</ele>
        <time>2021-05-09T08:31:16.000Z</time>
      </trkpt>
      <trkpt lat="47.29898" lon="-2.24273">
        <ele>22.39999961853</ele>
        <time>2021-05-09T08:31:19.000Z</time>
      </trkpt>
      <trkpt lat="47.29905" lon="-2.2428">
        <ele>22.39999961853</ele>
        <time>2021-05-09T08:31:21.000Z</time>
      </trkpt>
      <trkpt lat="47.29917" lon="-2.24286">
        <ele>22.39999961853</ele>
        <time>2021-05-09T08:31:24.000Z</time>
      </trkpt>
      <trkpt lat="47.29921" lon="-2.24288">
        <ele>22.39999961853</ele>
        <time>2021-05-09T08:31:25.000Z</time>
      </trkpt>
      <trkpt lat="47.29929" lon="-2.24292">
        <ele>22.39999961853</ele>
        <time>2021-05-09T08:31:28.000Z</time>
      </trkpt>
      <trkpt lat="47.29936" lon="-2.24296">
        <ele>22.39999961853</ele>
        <time>2021-05-09T08:31:34.000Z</time>
      </trkpt>
      <trkpt lat="47.29936" lon="-2.24297">
        <ele>22.39999961853</ele>
        <time>2021-05-09T08:31:35.000Z</time>
      </trkpt>
      <trkpt lat="47.29938" lon="-2.24298">
        <ele>22.39999961853</ele>
        <time>2021-05-09T08:32:01.000Z</time>
      </trkpt>
      <trkpt lat="47.2994" lon="-2.24301">
        <ele>22.39999961853</ele>
        <time>2021-05-09T08:32:03.000Z</time>
      </trkpt>
      <trkpt lat="47.29948" lon="-2.24315">
        <ele>22.39999961853</ele>
        <time>2021-05-09T08:32:08.000Z</time>
      </trkpt>
      <trkpt lat="47.29962" lon="-2.24327">
        <ele>22.39999961853</ele>
        <time>2021-05-09T08:32:12.000Z</time>
      </trkpt>
      <trkpt lat="47.29986" lon="-2.24355">
        <ele>22.39999961853</ele>
        <time>2021-05-09T08:32:19.000Z</time>
      </trkpt>
      <trkpt lat="47.29993" lon="-2.24361">
        <ele>22.39999961853</ele>
        <time>2021-05-09T08:32:22.000Z</time>
      </trkpt>
      <trkpt lat="47.29995" lon="-2.2436">
        <ele>22.39999961853</ele>
        <time>2021-05-09T08:32:23.000Z</time>
      </trkpt>
      <trkpt lat="47.3" lon="-2.24349">
        <ele>22.39999961853</ele>
        <time>2021-05-09T08:32:27.000Z</time>
      </trkpt>
      <trkpt lat="47.30002" lon="-2.24343">
        <ele>22.39999961853</ele>
        <time>2021-05-09T08:32:29.000Z</time>
      </trkpt>
      <trkpt lat="47.30004" lon="-2.24331">
        <ele>22.39999961853</ele>
        <time>2021-05-09T08:32:32.000Z</time>
      </trkpt>
      <trkpt lat="47.3001" lon="-2.24313">
        <ele>22.39999961853</ele>
        <time>2021-05-09T08:32:37.000Z</time>
      </trkpt>
      <trkpt lat="47.30018" lon="-2.24301">
        <ele>22.39999961853</ele>
        <time>2021-05-09T08:32:41.000Z</time>
      </trkpt>
      <trkpt lat="47.30022" lon="-2.24288">
        <ele>22.39999961853</ele>
        <time>2021-05-09T08:32:45.000Z</time>
      </trkpt>
      <trkpt lat="47.30023" lon="-2.24275">
        <ele>22.39999961853</ele>
        <time>2021-05-09T08:32:50.000Z</time>
      </trkpt>
      <trkpt lat="47.30021" lon="-2.24255">
        <ele>22.39999961853</ele>
        <time>2021-05-09T08:32:56.000Z</time>
      </trkpt>
      <trkpt lat="47.30019" lon="-2.24234">
        <ele>22.39999961853</ele>
        <time>2021-05-09T08:33:02.000Z</time>
      </trkpt>
      <trkpt lat="47.30019" lon="-2.24213">
        <ele>22.39999961853</ele>
        <time>2021-05-09T08:33:08.000Z</time>
      </trkpt>
      <trkpt lat="47.30019" lon="-2.24208">
        <ele>22.39999961853</ele>
        <time>2021-05-09T08:33:10.000Z</time>
      </trkpt>
      <trkpt lat="47.30021" lon="-2.24195">
        <ele>20.39999961853</ele>
        <time>2021-05-09T08:33:27.000Z</time>
      </trkpt>
      <trkpt lat="47.30021" lon="-2.24191">
        <ele>20.39999961853</ele>
        <time>2021-05-09T08:33:28.000Z</time>
      </trkpt>
      <trkpt lat="47.30022" lon="-2.24183">
        <ele>20.39999961853</ele>
        <time>2021-05-09T08:33:33.000Z</time>
      </trkpt>
      <trkpt lat="47.30011" lon="-2.24161">
        <ele>20.39999961853</ele>
        <time>2021-05-09T08:36:30.000Z</time>
      </trkpt>
      <trkpt lat="47.30008" lon="-2.24153">
        <ele>20</ele>
        <time>2021-05-09T08:36:32.000Z</time>
      </trkpt>
      <trkpt lat="47.30006" lon="-2.2415">
        <ele>19.60000038147</ele>
        <time>2021-05-09T08:36:33.000Z</time>
      </trkpt>
      <trkpt lat="47.30003" lon="-2.24147">
        <ele>19</ele>
        <time>2021-05-09T08:36:34.000Z</time>
      </trkpt>
      <trkpt lat="47.30001" lon="-2.24145">
        <ele>18.60000038147</ele>
        <time>2021-05-09T08:36:35.000Z</time>
      </trkpt>
      <trkpt lat="47.3" lon="-2.24144">
        <ele>18.200000762939</ele>
        <time>2021-05-09T08:36:36.000Z</time>
      </trkpt>
      <trkpt lat="47.29999" lon="-2.24143">
        <ele>18.200000762939</ele>
        <time>2021-05-09T08:36:37.000Z</time>
      </trkpt>
      <trkpt lat="47.3" lon="-2.24145">
        <ele>18.200000762939</ele>
        <time>2021-05-09T08:37:11.000Z</time>
      </trkpt>
      <trkpt lat="47.30002" lon="-2.24147">
        <ele>18.200000762939</ele>
        <time>2021-05-09T08:37:12.000Z</time>
      </trkpt>
      <trkpt lat="47.30004" lon="-2.24149">
        <ele>17.799999237061</ele>
        <time>2021-05-09T08:37:13.000Z</time>
      </trkpt>
      <trkpt lat="47.30006" lon="-2.2415">
        <ele>17.200000762939</ele>
        <time>2021-05-09T08:37:14.000Z</time>
      </trkpt>
      <trkpt lat="47.30009" lon="-2.2415">
        <ele>16.799999237061</ele>
        <time>2021-05-09T08:37:15.000Z</time>
      </trkpt>
      <trkpt lat="47.30011" lon="-2.24151">
        <ele>16.200000762939</ele>
        <time>2021-05-09T08:37:16.000Z</time>
      </trkpt>
      <trkpt lat="47.30014" lon="-2.24152">
        <ele>15.800000190735</ele>
        <time>2021-05-09T08:37:17.000Z</time>
      </trkpt>
      <trkpt lat="47.30019" lon="-2.24157">
        <ele>15.800000190735</ele>
        <time>2021-05-09T08:37:20.000Z</time>
      </trkpt>
      <trkpt lat="47.30022" lon="-2.24162">
        <ele>15.800000190735</ele>
        <time>2021-05-09T08:37:22.000Z</time>
      </trkpt>
      <trkpt lat="47.30028" lon="-2.2418">
        <ele>15.800000190735</ele>
        <time>2021-05-09T08:37:28.000Z</time>
      </trkpt>
      <trkpt lat="47.30028" lon="-2.24191">
        <ele>15.800000190735</ele>
        <time>2021-05-09T08:37:33.000Z</time>
      </trkpt>
      <trkpt lat="47.30026" lon="-2.24204">
        <ele>20</ele>
        <time>2021-05-09T08:49:59.000Z</time>
      </trkpt>
      <trkpt lat="47.30026" lon="-2.24198">
        <ele>19.39999961853</ele>
        <time>2021-05-09T08:50:00.000Z</time>
      </trkpt>
      <trkpt lat="47.30026" lon="-2.24192">
        <ele>19</ele>
        <time>2021-05-09T08:50:01.000Z</time>
      </trkpt>
      <trkpt lat="47.30026" lon="-2.24185">
        <ele>18.60000038147</ele>
        <time>2021-05-09T08:50:02.000Z</time>
      </trkpt>
      <trkpt lat="47.30026" lon="-2.24178">
        <ele>18.200000762939</ele>
        <time>2021-05-09T08:50:03.000Z</time>
      </trkpt>
      <trkpt lat="47.30026" lon="-2.24172">
        <ele>17.799999237061</ele>
        <time>2021-05-09T08:50:04.000Z</time>
      </trkpt>
      <trkpt lat="47.30026" lon="-2.24166">
        <ele>17.39999961853</ele>
        <time>2021-05-09T08:50:05.000Z</time>
      </trkpt>
      <trkpt lat="47.30026" lon="-2.24161">
        <ele>17</ele>
        <time>2021-05-09T08:50:06.000Z</time>
      </trkpt>
      <trkpt lat="47.30025" lon="-2.24155">
        <ele>16.60000038147</ele>
        <time>2021-05-09T08:50:07.000Z</time>
      </trkpt>
      <trkpt lat="47.30024" lon="-2.24152">
        <ele>16.200000762939</ele>
        <time>2021-05-09T08:50:08.000Z</time>
      </trkpt>
      <trkpt lat="47.30023" lon="-2.24148">
        <ele>15.800000190735</ele>
        <time>2021-05-09T08:50:09.000Z</time>
      </trkpt>
      <trkpt lat="47.30023" lon="-2.24146">
        <ele>15.800000190735</ele>
        <time>2021-05-09T08:50:10.000Z</time>
      </trkpt>
      <trkpt lat="47.30023" lon="-2.24144">
        <ele>15.800000190735</ele>
        <time>2021-05-09T08:50:11.000Z</time>
      </trkpt>
      <trkpt lat="47.30026" lon="-2.24139">
        <ele>15.800000190735</ele>
        <time>2021-05-09T08:50:14.000Z</time>
      </trkpt>
      <trkpt lat="47.30034" lon="-2.24134">
        <ele>15.800000190735</ele>
        <time>2021-05-09T08:50:17.000Z</time>
      </trkpt>
      <trkpt lat="47.30052" lon="-2.24125">
        <ele>15.800000190735</ele>
        <time>2021-05-09T08:50:23.000Z</time>
      </trkpt>
      <trkpt lat="47.30075" lon="-2.24111">
        <ele>15.800000190735</ele>
        <time>2021-05-09T08:50:30.000Z</time>
      </trkpt>
      <trkpt lat="47.30099" lon="-2.24101">
        <ele>15.800000190735</ele>
        <time>2021-05-09T08:50:36.000Z</time>
      </trkpt>
      <trkpt lat="47.30124" lon="-2.24083">
        <ele>15.800000190735</ele>
        <time>2021-05-09T08:50:43.000Z</time>
      </trkpt>
      <trkpt lat="47.30148" lon="-2.2407">
        <ele>15.800000190735</ele>
        <time>2021-05-09T08:50:49.000Z</time>
      </trkpt>
      <trkpt lat="47.30177" lon="-2.2406">
        <ele>15.800000190735</ele>
        <time>2021-05-09T08:50:55.000Z</time>
      </trkpt>
      <trkpt lat="47.30213" lon="-2.2406">
        <ele>15.800000190735</ele>
        <time>2021-05-09T08:51:02.000Z</time>
      </trkpt>
      <trkpt lat="47.30245" lon="-2.24064">
        <ele>15.800000190735</ele>
        <time>2021-05-09T08:51:09.000Z</time>
      </trkpt>
      <trkpt lat="47.3025" lon="-2.24064">
        <ele>15.800000190735</ele>
        <time>2021-05-09T08:51:10.000Z</time>
      </trkpt>
      <trkpt lat="47.30265" lon="-2.24065">
        <ele>15.800000190735</ele>
        <time>2021-05-09T08:51:13.000Z</time>
      </trkpt>
      <trkpt lat="47.30269" lon="-2.24063">
        <ele>15.800000190735</ele>
        <time>2021-05-09T08:51:14.000Z</time>
      </trkpt>
      <trkpt lat="47.30276" lon="-2.24054">
        <ele>15.800000190735</ele>
        <time>2021-05-09T08:51:16.000Z</time>
      </trkpt>
      <trkpt lat="47.30278" lon="-2.2403">
        <ele>15.199999809265</ele>
        <time>2021-05-09T08:51:19.000Z</time>
      </trkpt>
      <trkpt lat="47.30277" lon="-2.24022">
        <ele>14.800000190735</ele>
        <time>2021-05-09T08:51:20.000Z</time>
      </trkpt>
      <trkpt lat="47.30277" lon="-2.24013">
        <ele>14.39999961853</ele>
        <time>2021-05-09T08:51:21.000Z</time>
      </trkpt>
      <trkpt lat="47.30276" lon="-2.24004">
        <ele>14</ele>
        <time>2021-05-09T08:51:22.000Z</time>
      </trkpt>
      <trkpt lat="47.30275" lon="-2.23995">
        <ele>13.39999961853</ele>
        <time>2021-05-09T08:51:23.000Z</time>
      </trkpt>
      <trkpt lat="47.30274" lon="-2.23985">
        <ele>13.39999961853</ele>
        <time>2021-05-09T08:51:24.000Z</time>
      </trkpt>
      <trkpt lat="47.3027" lon="-2.23965">
        <ele>13</ele>
        <time>2021-05-09T08:51:26.000Z</time>
      </trkpt>
      <trkpt lat="47.30267" lon="-2.23954">
        <ele>12.60000038147</ele>
        <time>2021-05-09T08:51:27.000Z</time>
      </trkpt>
      <trkpt lat="47.30265" lon="-2.23945">
        <ele>12.199999809265</ele>
        <time>2021-05-09T08:51:28.000Z</time>
      </trkpt>
      <trkpt lat="47.30264" lon="-2.23936">
        <ele>11.39999961853</ele>
        <time>2021-05-09T08:51:29.000Z</time>
      </trkpt>
      <trkpt lat="47.30263" lon="-2.23927">
        <ele>11.39999961853</ele>
        <time>2021-05-09T08:51:30.000Z</time>
      </trkpt>
      <trkpt lat="47.30264" lon="-2.23917">
        <ele>11</ele>
        <time>2021-05-09T08:51:31.000Z</time>
      </trkpt>
      <trkpt lat="47.30266" lon="-2.23909">
        <ele>10.60000038147</ele>
        <time>2021-05-09T08:51:32.000Z</time>
      </trkpt>
      <trkpt lat="47.30267" lon="-2.23902">
        <ele>10.199999809265</ele>
        <time>2021-05-09T08:51:33.000Z</time>
      </trkpt>
      <trkpt lat="47.3027" lon="-2.23895">
        <ele>9.8000001907349</ele>
        <time>2021-05-09T08:51:34.000Z</time>
      </trkpt>
      <trkpt lat="47.30274" lon="-2.23891">
        <ele>9.3999996185303</ele>
        <time>2021-05-09T08:51:35.000Z</time>
      </trkpt>
      <trkpt lat="47.30279" lon="-2.23888">
        <ele>9.3999996185303</ele>
        <time>2021-05-09T08:51:36.000Z</time>
      </trkpt>
      <trkpt lat="47.3029" lon="-2.23885">
        <ele>9.3999996185303</ele>
        <time>2021-05-09T08:51:38.000Z</time>
      </trkpt>
      <trkpt lat="47.30302" lon="-2.2388">
        <ele>9.3999996185303</ele>
        <time>2021-05-09T08:51:40.000Z</time>
      </trkpt>
      <trkpt lat="47.30353" lon="-2.23858">
        <ele>9.3999996185303</ele>
        <time>2021-05-09T08:51:49.000Z</time>
      </trkpt>
      <trkpt lat="47.30359" lon="-2.23857">
        <ele>9.3999996185303</ele>
        <time>2021-05-09T08:51:50.000Z</time>
      </trkpt>
      <trkpt lat="47.30398" lon="-2.23851">
        <ele>9.3999996185303</ele>
        <time>2021-05-09T08:51:57.000Z</time>
      </trkpt>
      <trkpt lat="47.30439" lon="-2.23844">
        <ele>9.3999996185303</ele>
        <time>2021-05-09T08:52:05.000Z</time>
      </trkpt>
      <trkpt lat="47.30449" lon="-2.23842">
        <ele>9</ele>
        <time>2021-05-09T08:52:07.000Z</time>
      </trkpt>
      <trkpt lat="47.30454" lon="-2.23842">
        <ele>8.6000003814697</ele>
        <time>2021-05-09T08:52:08.000Z</time>
      </trkpt>
      <trkpt lat="47.30459" lon="-2.23841">
        <ele>8.1999998092651</ele>
        <time>2021-05-09T08:52:09.000Z</time>
      </trkpt>
      <trkpt lat="47.30465" lon="-2.23841">
        <ele>7.8000001907349</ele>
        <time>2021-05-09T08:52:10.000Z</time>
      </trkpt>
      <trkpt lat="47.3047" lon="-2.2384">
        <ele>7.4000000953674</ele>
        <time>2021-05-09T08:52:11.000Z</time>
      </trkpt>
      <trkpt lat="47.30476" lon="-2.2384">
        <ele>7.4000000953674</ele>
        <time>2021-05-09T08:52:12.000Z</time>
      </trkpt>
      <trkpt lat="47.30496" lon="-2.23844">
        <ele>7.4000000953674</ele>
        <time>2021-05-09T08:52:16.000Z</time>
      </trkpt>
      <trkpt lat="47.30499" lon="-2.23848">
        <ele>7.4000000953674</ele>
        <time>2021-05-09T08:52:17.000Z</time>
      </trkpt>
      <trkpt lat="47.30512" lon="-2.23868">
        <ele>7.4000000953674</ele>
        <time>2021-05-09T08:52:21.000Z</time>
      </trkpt>
      <trkpt lat="47.30533" lon="-2.23898">
        <ele>7.4000000953674</ele>
        <time>2021-05-09T08:52:28.000Z</time>
      </trkpt>
      <trkpt lat="47.30541" lon="-2.23909">
        <ele>7.4000000953674</ele>
        <time>2021-05-09T08:52:31.000Z</time>
      </trkpt>
      <trkpt lat="47.3055" lon="-2.23922">
        <ele>7.4000000953674</ele>
        <time>2021-05-09T08:52:34.000Z</time>
      </trkpt>
      <trkpt lat="47.30551" lon="-2.23928">
        <ele>7.4000000953674</ele>
        <time>2021-05-09T08:52:35.000Z</time>
      </trkpt>
      <trkpt lat="47.30549" lon="-2.23947">
        <ele>7.4000000953674</ele>
        <time>2021-05-09T08:52:38.000Z</time>
      </trkpt>
      <trkpt lat="47.30542" lon="-2.23955">
        <ele>7.4000000953674</ele>
        <time>2021-05-09T08:52:40.000Z</time>
      </trkpt>
      <trkpt lat="47.30535" lon="-2.23964">
        <ele>7.4000000953674</ele>
        <time>2021-05-09T08:52:42.000Z</time>
      </trkpt>
      <trkpt lat="47.30528" lon="-2.23972">
        <ele>7.4000000953674</ele>
        <time>2021-05-09T08:52:44.000Z</time>
      </trkpt>
      <trkpt lat="47.30518" lon="-2.23985">
        <ele>7.8000001907349</ele>
        <time>2021-05-09T08:52:47.000Z</time>
      </trkpt>
      <trkpt lat="47.30514" lon="-2.23988">
        <ele>8.3999996185303</ele>
        <time>2021-05-09T08:52:48.000Z</time>
      </trkpt>
      <trkpt lat="47.30511" lon="-2.23993">
        <ele>8.8000001907349</ele>
        <time>2021-05-09T08:52:49.000Z</time>
      </trkpt>
      <trkpt lat="47.30509" lon="-2.23997">
        <ele>9.1999998092651</ele>
        <time>2021-05-09T08:52:50.000Z</time>
      </trkpt>
      <trkpt lat="47.30506" lon="-2.24002">
        <ele>9.8000001907349</ele>
        <time>2021-05-09T08:52:51.000Z</time>
      </trkpt>
      <trkpt lat="47.30504" lon="-2.24006">
        <ele>9.8000001907349</ele>
        <time>2021-05-09T08:52:52.000Z</time>
      </trkpt>
      <trkpt lat="47.30499" lon="-2.24014">
        <ele>10.199999809265</ele>
        <time>2021-05-09T08:52:54.000Z</time>
      </trkpt>
      <trkpt lat="47.30496" lon="-2.24018">
        <ele>10.60000038147</ele>
        <time>2021-05-09T08:52:55.000Z</time>
      </trkpt>
      <trkpt lat="47.30493" lon="-2.24022">
        <ele>11</ele>
        <time>2021-05-09T08:52:56.000Z</time>
      </trkpt>
      <trkpt lat="47.30491" lon="-2.24025">
        <ele>11.39999961853</ele>
        <time>2021-05-09T08:52:57.000Z</time>
      </trkpt>
      <trkpt lat="47.30487" lon="-2.24028">
        <ele>11.800000190735</ele>
        <time>2021-05-09T08:52:58.000Z</time>
      </trkpt>
      <trkpt lat="47.30479" lon="-2.24035">
        <ele>12.199999809265</ele>
        <time>2021-05-09T08:53:01.000Z</time>
      </trkpt>
      <trkpt lat="47.30476" lon="-2.24037">
        <ele>12.800000190735</ele>
        <time>2021-05-09T08:53:02.000Z</time>
      </trkpt>
      <trkpt lat="47.30473" lon="-2.24039">
        <ele>13.199999809265</ele>
        <time>2021-05-09T08:53:03.000Z</time>
      </trkpt>
      <trkpt lat="47.30471" lon="-2.2404">
        <ele>13.800000190735</ele>
        <time>2021-05-09T08:53:04.000Z</time>
      </trkpt>
      <trkpt lat="47.30468" lon="-2.24042">
        <ele>14.199999809265</ele>
        <time>2021-05-09T08:53:05.000Z</time>
      </trkpt>
      <trkpt lat="47.30459" lon="-2.24049">
        <ele>14.60000038147</ele>
        <time>2021-05-09T08:53:08.000Z</time>
      </trkpt>
      <trkpt lat="47.30456" lon="-2.24052">
        <ele>15</ele>
        <time>2021-05-09T08:53:09.000Z</time>
      </trkpt>
      <trkpt lat="47.30454" lon="-2.24055">
        <ele>15.39999961853</ele>
        <time>2021-05-09T08:53:10.000Z</time>
      </trkpt>
      <trkpt lat="47.30451" lon="-2.24058">
        <ele>15.800000190735</ele>
        <time>2021-05-09T08:53:11.000Z</time>
      </trkpt>
      <trkpt lat="47.30448" lon="-2.24061">
        <ele>16.200000762939</ele>
        <time>2021-05-09T08:53:12.000Z</time>
      </trkpt>
      <trkpt lat="47.30433" lon="-2.24077">
        <ele>16.200000762939</ele>
        <time>2021-05-09T08:53:17.000Z</time>
      </trkpt>
      <trkpt lat="47.3042" lon="-2.24091">
        <ele>16.799999237061</ele>
        <time>2021-05-09T08:53:21.000Z</time>
      </trkpt>
      <trkpt lat="47.30417" lon="-2.24095">
        <ele>17.200000762939</ele>
        <time>2021-05-09T08:53:22.000Z</time>
      </trkpt>
      <trkpt lat="47.30415" lon="-2.24097">
        <ele>17.60000038147</ele>
        <time>2021-05-09T08:53:23.000Z</time>
      </trkpt>
      <trkpt lat="47.30412" lon="-2.24099">
        <ele>18</ele>
        <time>2021-05-09T08:53:24.000Z</time>
      </trkpt>
      <trkpt lat="47.3041" lon="-2.24103">
        <ele>18.39999961853</ele>
        <time>2021-05-09T08:53:25.000Z</time>
      </trkpt>
      <trkpt lat="47.30397" lon="-2.24116">
        <ele>18.39999961853</ele>
        <time>2021-05-09T08:53:29.000Z</time>
      </trkpt>
      <trkpt lat="47.3039" lon="-2.24122">
        <ele>18.799999237061</ele>
        <time>2021-05-09T08:53:31.000Z</time>
      </trkpt>
      <trkpt lat="47.30387" lon="-2.24125">
        <ele>19.200000762939</ele>
        <time>2021-05-09T08:53:32.000Z</time>
      </trkpt>
      <trkpt lat="47.30383" lon="-2.24128">
        <ele>20</ele>
        <time>2021-05-09T08:53:33.000Z</time>
      </trkpt>
      <trkpt lat="47.30378" lon="-2.24132">
        <ele>20.60000038147</ele>
        <time>2021-05-09T08:53:34.000Z</time>
      </trkpt>
      <trkpt lat="47.30375" lon="-2.24137">
        <ele>20.60000038147</ele>
        <time>2021-05-09T08:53:35.000Z</time>
      </trkpt>
      <trkpt lat="47.30358" lon="-2.24159">
        <ele>20.60000038147</ele>
        <time>2021-05-09T08:53:39.000Z</time>
      </trkpt>
      <trkpt lat="47.30355" lon="-2.24165">
        <ele>20.60000038147</ele>
        <time>2021-05-09T08:53:40.000Z</time>
      </trkpt>
      <trkpt lat="47.30348" lon="-2.24181">
        <ele>20.60000038147</ele>
        <time>2021-05-09T08:53:42.000Z</time>
      </trkpt>
      <trkpt lat="47.30349" lon="-2.24199">
        <ele>20.60000038147</ele>
        <time>2021-05-09T08:53:44.000Z</time>
      </trkpt>
      <trkpt lat="47.30359" lon="-2.24215">
        <ele>20.60000038147</ele>
        <time>2021-05-09T08:53:47.000Z</time>
      </trkpt>
      <trkpt lat="47.30363" lon="-2.24219">
        <ele>20.60000038147</ele>
        <time>2021-05-09T08:53:48.000Z</time>
      </trkpt>
      <trkpt lat="47.30387" lon="-2.24244">
        <ele>20.60000038147</ele>
        <time>2021-05-09T08:53:54.000Z</time>
      </trkpt>
      <trkpt lat="47.30413" lon="-2.24268">
        <ele>20.60000038147</ele>
        <time>2021-05-09T08:54:00.000Z</time>
      </trkpt>
      <trkpt lat="47.30426" lon="-2.24274">
        <ele>20.60000038147</ele>
        <time>2021-05-09T08:54:03.000Z</time>
      </trkpt>
      <trkpt lat="47.30437" lon="-2.24277">
        <ele>20.60000038147</ele>
        <time>2021-05-09T08:54:05.000Z</time>
      </trkpt>
      <trkpt lat="47.30464" lon="-2.24283">
        <ele>20.60000038147</ele>
        <time>2021-05-09T08:54:10.000Z</time>
      </trkpt>
      <trkpt lat="47.30469" lon="-2.24285">
        <ele>20.60000038147</ele>
        <time>2021-05-09T08:54:11.000Z</time>
      </trkpt>
      <trkpt lat="47.30479" lon="-2.2429">
        <ele>20.60000038147</ele>
        <time>2021-05-09T08:54:13.000Z</time>
      </trkpt>
      <trkpt lat="47.30492" lon="-2.24296">
        <ele>20.60000038147</ele>
        <time>2021-05-09T08:54:16.000Z</time>
      </trkpt>
      <trkpt lat="47.30512" lon="-2.24314">
        <ele>20.60000038147</ele>
        <time>2021-05-09T08:54:22.000Z</time>
      </trkpt>
      <trkpt lat="47.30522" lon="-2.24326">
        <ele>20.60000038147</ele>
        <time>2021-05-09T08:54:25.000Z</time>
      </trkpt>
      <trkpt lat="47.30532" lon="-2.24338">
        <ele>20.60000038147</ele>
        <time>2021-05-09T08:54:28.000Z</time>
      </trkpt>
      <trkpt lat="47.30553" lon="-2.24358">
        <ele>20.60000038147</ele>
        <time>2021-05-09T08:54:35.000Z</time>
      </trkpt>
      <trkpt lat="47.30563" lon="-2.24367">
        <ele>20.60000038147</ele>
        <time>2021-05-09T08:54:40.000Z</time>
      </trkpt>
      <trkpt lat="47.30577" lon="-2.24382">
        <ele>20.200000762939</ele>
        <time>2021-05-09T08:54:46.000Z</time>
      </trkpt>
      <trkpt lat="47.3058" lon="-2.24385">
        <ele>19.39999961853</ele>
        <time>2021-05-09T08:54:47.000Z</time>
      </trkpt>
      <trkpt lat="47.30582" lon="-2.24389">
        <ele>19</ele>
        <time>2021-05-09T08:54:48.000Z</time>
      </trkpt>
      <trkpt lat="47.30586" lon="-2.24392">
        <ele>18.39999961853</ele>
        <time>2021-05-09T08:54:49.000Z</time>
      </trkpt>
      <trkpt lat="47.30596" lon="-2.24403">
        <ele>18.39999961853</ele>
        <time>2021-05-09T08:54:53.000Z</time>
      </trkpt>
      <trkpt lat="47.30615" lon="-2.24416">
        <ele>18.39999961853</ele>
        <time>2021-05-09T08:54:59.000Z</time>
      </trkpt>
      <trkpt lat="47.30626" lon="-2.24417">
        <ele>18.39999961853</ele>
        <time>2021-05-09T08:55:04.000Z</time>
      </trkpt>
      <trkpt lat="47.30627" lon="-2.24418">
        <ele>18</ele>
        <time>2021-05-09T08:55:05.000Z</time>
      </trkpt>
      <trkpt lat="47.30628" lon="-2.24418">
        <ele>17.60000038147</ele>
        <time>2021-05-09T08:55:06.000Z</time>
      </trkpt>
      <trkpt lat="47.30629" lon="-2.24418">
        <ele>17.200000762939</ele>
        <time>2021-05-09T08:55:07.000Z</time>
      </trkpt>
      <trkpt lat="47.3063" lon="-2.24419">
        <ele>16.799999237061</ele>
        <time>2021-05-09T08:55:08.000Z</time>
      </trkpt>
      <trkpt lat="47.30631" lon="-2.2442">
        <ele>16.39999961853</ele>
        <time>2021-05-09T08:55:09.000Z</time>
      </trkpt>
      <trkpt lat="47.30632" lon="-2.24423">
        <ele>16.39999961853</ele>
        <time>2021-05-09T08:55:10.000Z</time>
      </trkpt>
      <trkpt lat="47.30636" lon="-2.24442">
        <ele>16.39999961853</ele>
        <time>2021-05-09T08:55:14.000Z</time>
      </trkpt>
      <trkpt lat="47.30637" lon="-2.24449">
        <ele>16.39999961853</ele>
        <time>2021-05-09T08:55:15.000Z</time>
      </trkpt>
      <trkpt lat="47.30636" lon="-2.24459">
        <ele>16.39999961853</ele>
        <time>2021-05-09T08:55:16.000Z</time>
      </trkpt>
      <trkpt lat="47.30633" lon="-2.24478">
        <ele>16.39999961853</ele>
        <time>2021-05-09T08:55:18.000Z</time>
      </trkpt>
      <trkpt lat="47.30626" lon="-2.24525">
        <ele>16.39999961853</ele>
        <time>2021-05-09T08:55:22.000Z</time>
      </trkpt>
      <trkpt lat="47.30624" lon="-2.24537">
        <ele>16</ele>
        <time>2021-05-09T08:55:23.000Z</time>
      </trkpt>
      <trkpt lat="47.30622" lon="-2.24548">
        <ele>15.39999961853</ele>
        <time>2021-05-09T08:55:24.000Z</time>
      </trkpt>
      <trkpt lat="47.30621" lon="-2.24561">
        <ele>15</ele>
        <time>2021-05-09T08:55:25.000Z</time>
      </trkpt>
      <trkpt lat="47.30619" lon="-2.24572">
        <ele>14.60000038147</ele>
        <time>2021-05-09T08:55:26.000Z</time>
      </trkpt>
      <trkpt lat="47.30618" lon="-2.24585">
        <ele>14</ele>
        <time>2021-05-09T08:55:27.000Z</time>
      </trkpt>
      <trkpt lat="47.30618" lon="-2.24597">
        <ele>13.60000038147</ele>
        <time>2021-05-09T08:55:28.000Z</time>
      </trkpt>
      <trkpt lat="47.30618" lon="-2.24608">
        <ele>13</ele>
        <time>2021-05-09T08:55:29.000Z</time>
      </trkpt>
      <trkpt lat="47.30618" lon="-2.2462">
        <ele>12.39999961853</ele>
        <time>2021-05-09T08:55:30.000Z</time>
      </trkpt>
      <trkpt lat="47.3062" lon="-2.24632">
        <ele>11.60000038147</ele>
        <time>2021-05-09T08:55:31.000Z</time>
      </trkpt>
      <trkpt lat="47.30623" lon="-2.24642">
        <ele>11</ele>
        <time>2021-05-09T08:55:32.000Z</time>
      </trkpt>
      <trkpt lat="47.30626" lon="-2.24653">
        <ele>10.199999809265</ele>
        <time>2021-05-09T08:55:33.000Z</time>
      </trkpt>
      <trkpt lat="47.30629" lon="-2.24663">
        <ele>9.6000003814697</ele>
        <time>2021-05-09T08:55:34.000Z</time>
      </trkpt>
      <trkpt lat="47.30632" lon="-2.24673">
        <ele>9.6000003814697</ele>
        <time>2021-05-09T08:55:35.000Z</time>
      </trkpt>
      <trkpt lat="47.30642" lon="-2.24711">
        <ele>9.6000003814697</ele>
        <time>2021-05-09T08:55:39.000Z</time>
      </trkpt>
      <trkpt lat="47.30653" lon="-2.24756">
        <ele>9.6000003814697</ele>
        <time>2021-05-09T08:55:44.000Z</time>
      </trkpt>
      <trkpt lat="47.30652" lon="-2.24763">
        <ele>9.6000003814697</ele>
        <time>2021-05-09T08:55:45.000Z</time>
      </trkpt>
      <trkpt lat="47.30639" lon="-2.24785">
        <ele>9.6000003814697</ele>
        <time>2021-05-09T08:55:48.000Z</time>
      </trkpt>
      <trkpt lat="47.30634" lon="-2.24792">
        <ele>9.6000003814697</ele>
        <time>2021-05-09T08:55:49.000Z</time>
      </trkpt>
      <trkpt lat="47.306" lon="-2.24839">
        <ele>9.6000003814697</ele>
        <time>2021-05-09T08:55:56.000Z</time>
      </trkpt>
      <trkpt lat="47.30582" lon="-2.2488">
        <ele>9.6000003814697</ele>
        <time>2021-05-09T08:56:01.000Z</time>
      </trkpt>
      <trkpt lat="47.30571" lon="-2.24924">
        <ele>9.6000003814697</ele>
        <time>2021-05-09T08:56:06.000Z</time>
      </trkpt>
      <trkpt lat="47.30566" lon="-2.24977">
        <ele>9.6000003814697</ele>
        <time>2021-05-09T08:56:12.000Z</time>
      </trkpt>
      <trkpt lat="47.30566" lon="-2.24986">
        <ele>9.6000003814697</ele>
        <time>2021-05-09T08:56:13.000Z</time>
      </trkpt>
      <trkpt lat="47.30571" lon="-2.25026">
        <ele>9.6000003814697</ele>
        <time>2021-05-09T08:56:17.000Z</time>
      </trkpt>
      <trkpt lat="47.30582" lon="-2.25091">
        <ele>9.6000003814697</ele>
        <time>2021-05-09T08:56:24.000Z</time>
      </trkpt>
      <trkpt lat="47.30599" lon="-2.25149">
        <ele>9.6000003814697</ele>
        <time>2021-05-09T08:56:31.000Z</time>
      </trkpt>
      <trkpt lat="47.30618" lon="-2.25184">
        <ele>9.6000003814697</ele>
        <time>2021-05-09T08:56:36.000Z</time>
      </trkpt>
      <trkpt lat="47.3064" lon="-2.25243">
        <ele>9.6000003814697</ele>
        <time>2021-05-09T08:56:43.000Z</time>
      </trkpt>
      <trkpt lat="47.30651" lon="-2.25285">
        <ele>9.6000003814697</ele>
        <time>2021-05-09T08:56:48.000Z</time>
      </trkpt>
      <trkpt lat="47.30658" lon="-2.25324">
        <ele>9.6000003814697</ele>
        <time>2021-05-09T08:56:53.000Z</time>
      </trkpt>
      <trkpt lat="47.30663" lon="-2.25375">
        <ele>9.6000003814697</ele>
        <time>2021-05-09T08:56:59.000Z</time>
      </trkpt>
      <trkpt lat="47.30663" lon="-2.25384">
        <ele>9.6000003814697</ele>
        <time>2021-05-09T08:57:00.000Z</time>
      </trkpt>
      <trkpt lat="47.30663" lon="-2.25406">
        <ele>9.6000003814697</ele>
        <time>2021-05-09T08:57:03.000Z</time>
      </trkpt>
      <trkpt lat="47.30669" lon="-2.25418">
        <ele>9.6000003814697</ele>
        <time>2021-05-09T08:57:06.000Z</time>
      </trkpt>
      <trkpt lat="47.30688" lon="-2.2543">
        <ele>9.6000003814697</ele>
        <time>2021-05-09T08:57:10.000Z</time>
      </trkpt>
      <trkpt lat="47.30705" lon="-2.25431">
        <ele>9.6000003814697</ele>
        <time>2021-05-09T08:57:13.000Z</time>
      </trkpt>
      <trkpt lat="47.30716" lon="-2.25432">
        <ele>9.6000003814697</ele>
        <time>2021-05-09T08:57:15.000Z</time>
      </trkpt>
      <trkpt lat="47.30738" lon="-2.25433">
        <ele>9.6000003814697</ele>
        <time>2021-05-09T08:57:19.000Z</time>
      </trkpt>
      <trkpt lat="47.30748" lon="-2.25431">
        <ele>9.6000003814697</ele>
        <time>2021-05-09T08:57:21.000Z</time>
      </trkpt>
      <trkpt lat="47.30781" lon="-2.25425">
        <ele>9.6000003814697</ele>
        <time>2021-05-09T08:57:28.000Z</time>
      </trkpt>
      <trkpt lat="47.30789" lon="-2.25423">
        <ele>10</ele>
        <time>2021-05-09T08:57:30.000Z</time>
      </trkpt>
      <trkpt lat="47.30793" lon="-2.25421">
        <ele>10.39999961853</ele>
        <time>2021-05-09T08:57:31.000Z</time>
      </trkpt>
      <trkpt lat="47.30798" lon="-2.2542">
        <ele>10.800000190735</ele>
        <time>2021-05-09T08:57:32.000Z</time>
      </trkpt>
      <trkpt lat="47.30802" lon="-2.2542">
        <ele>11.199999809265</ele>
        <time>2021-05-09T08:57:33.000Z</time>
      </trkpt>
      <trkpt lat="47.30806" lon="-2.25418">
        <ele>11.60000038147</ele>
        <time>2021-05-09T08:57:34.000Z</time>
      </trkpt>
      <trkpt lat="47.30819" lon="-2.25415">
        <ele>12.199999809265</ele>
        <time>2021-05-09T08:57:37.000Z</time>
      </trkpt>
      <trkpt lat="47.30823" lon="-2.25415">
        <ele>12.60000038147</ele>
        <time>2021-05-09T08:57:38.000Z</time>
      </trkpt>
      <trkpt lat="47.30828" lon="-2.25414">
        <ele>13</ele>
        <time>2021-05-09T08:57:39.000Z</time>
      </trkpt>
      <trkpt lat="47.30832" lon="-2.25414">
        <ele>14</ele>
        <time>2021-05-09T08:57:40.000Z</time>
      </trkpt>
      <trkpt lat="47.30837" lon="-2.25415">
        <ele>14</ele>
        <time>2021-05-09T08:57:41.000Z</time>
      </trkpt>
      <trkpt lat="47.30849" lon="-2.25418">
        <ele>14</ele>
        <time>2021-05-09T08:57:44.000Z</time>
      </trkpt>
      <trkpt lat="47.30853" lon="-2.25428">
        <ele>14</ele>
        <time>2021-05-09T08:57:46.000Z</time>
      </trkpt>
      <trkpt lat="47.30858" lon="-2.25453">
        <ele>14</ele>
        <time>2021-05-09T08:57:50.000Z</time>
      </trkpt>
      <trkpt lat="47.3086" lon="-2.25468">
        <ele>14</ele>
        <time>2021-05-09T08:57:52.000Z</time>
      </trkpt>
      <trkpt lat="47.30861" lon="-2.25475">
        <ele>14</ele>
        <time>2021-05-09T08:57:53.000Z</time>
      </trkpt>
      <trkpt lat="47.30862" lon="-2.25489">
        <ele>14</ele>
        <time>2021-05-09T08:57:55.000Z</time>
      </trkpt>
      <trkpt lat="47.30863" lon="-2.25503">
        <ele>14.39999961853</ele>
        <time>2021-05-09T08:57:57.000Z</time>
      </trkpt>
      <trkpt lat="47.30864" lon="-2.25509">
        <ele>14.800000190735</ele>
        <time>2021-05-09T08:57:58.000Z</time>
      </trkpt>
      <trkpt lat="47.30865" lon="-2.25516">
        <ele>15.199999809265</ele>
        <time>2021-05-09T08:57:59.000Z</time>
      </trkpt>
      <trkpt lat="47.30865" lon="-2.25522">
        <ele>15.60000038147</ele>
        <time>2021-05-09T08:58:00.000Z</time>
      </trkpt>
      <trkpt lat="47.30867" lon="-2.25528">
        <ele>16</ele>
        <time>2021-05-09T08:58:01.000Z</time>
      </trkpt>
      <trkpt lat="47.30867" lon="-2.25535">
        <ele>16</ele>
        <time>2021-05-09T08:58:02.000Z</time>
      </trkpt>
      <trkpt lat="47.30871" lon="-2.25589">
        <ele>16</ele>
        <time>2021-05-09T08:58:09.000Z</time>
      </trkpt>
      <trkpt lat="47.30874" lon="-2.25641">
        <ele>16</ele>
        <time>2021-05-09T08:58:16.000Z</time>
      </trkpt>
      <trkpt lat="47.30874" lon="-2.25657">
        <ele>16.39999961853</ele>
        <time>2021-05-09T08:58:18.000Z</time>
      </trkpt>
      <trkpt lat="47.30875" lon="-2.25664">
        <ele>16.799999237061</ele>
        <time>2021-05-09T08:58:19.000Z</time>
      </trkpt>
      <trkpt lat="47.30875" lon="-2.25671">
        <ele>17.39999961853</ele>
        <time>2021-05-09T08:58:20.000Z</time>
      </trkpt>
      <trkpt lat="47.30875" lon="-2.25679">
        <ele>17.799999237061</ele>
        <time>2021-05-09T08:58:21.000Z</time>
      </trkpt>
      <trkpt lat="47.30875" lon="-2.25686">
        <ele>18.200000762939</ele>
        <time>2021-05-09T08:58:22.000Z</time>
      </trkpt>
      <trkpt lat="47.30876" lon="-2.25692">
        <ele>18.200000762939</ele>
        <time>2021-05-09T08:58:23.000Z</time>
      </trkpt>
      <trkpt lat="47.30877" lon="-2.25748">
        <ele>18.200000762939</ele>
        <time>2021-05-09T08:58:30.000Z</time>
      </trkpt>
      <trkpt lat="47.30886" lon="-2.25794">
        <ele>18.200000762939</ele>
        <time>2021-05-09T08:58:36.000Z</time>
      </trkpt>
      <trkpt lat="47.30891" lon="-2.25808">
        <ele>18.60000038147</ele>
        <time>2021-05-09T08:58:38.000Z</time>
      </trkpt>
      <trkpt lat="47.30893" lon="-2.25815">
        <ele>19</ele>
        <time>2021-05-09T08:58:39.000Z</time>
      </trkpt>
      <trkpt lat="47.30895" lon="-2.25821">
        <ele>19.39999961853</ele>
        <time>2021-05-09T08:58:40.000Z</time>
      </trkpt>
      <trkpt lat="47.30898" lon="-2.25828">
        <ele>19.799999237061</ele>
        <time>2021-05-09T08:58:41.000Z</time>
      </trkpt>
      <trkpt lat="47.309" lon="-2.25835">
        <ele>20.200000762939</ele>
        <time>2021-05-09T08:58:42.000Z</time>
      </trkpt>
      <trkpt lat="47.30902" lon="-2.25842">
        <ele>20.200000762939</ele>
        <time>2021-05-09T08:58:43.000Z</time>
      </trkpt>
      <trkpt lat="47.30913" lon="-2.25882">
        <ele>20.200000762939</ele>
        <time>2021-05-09T08:58:49.000Z</time>
      </trkpt>
      <trkpt lat="47.30906" lon="-2.259">
        <ele>20.200000762939</ele>
        <time>2021-05-09T08:58:52.000Z</time>
      </trkpt>
      <trkpt lat="47.30898" lon="-2.25911">
        <ele>20.200000762939</ele>
        <time>2021-05-09T08:58:54.000Z</time>
      </trkpt>
      <trkpt lat="47.30885" lon="-2.25927">
        <ele>20.200000762939</ele>
        <time>2021-05-09T08:58:57.000Z</time>
      </trkpt>
      <trkpt lat="47.30866" lon="-2.25947">
        <ele>20.200000762939</ele>
        <time>2021-05-09T08:59:01.000Z</time>
      </trkpt>
      <trkpt lat="47.30854" lon="-2.25963">
        <ele>20.200000762939</ele>
        <time>2021-05-09T08:59:04.000Z</time>
      </trkpt>
      <trkpt lat="47.30818" lon="-2.26003">
        <ele>20.200000762939</ele>
        <time>2021-05-09T08:59:12.000Z</time>
      </trkpt>
      <trkpt lat="47.30799" lon="-2.26021">
        <ele>20.200000762939</ele>
        <time>2021-05-09T08:59:16.000Z</time>
      </trkpt>
      <trkpt lat="47.30784" lon="-2.26032">
        <ele>20.200000762939</ele>
        <time>2021-05-09T08:59:19.000Z</time>
      </trkpt>
      <trkpt lat="47.30745" lon="-2.26057">
        <ele>20.200000762939</ele>
        <time>2021-05-09T08:59:26.000Z</time>
      </trkpt>
      <trkpt lat="47.30693" lon="-2.26084">
        <ele>20.200000762939</ele>
        <time>2021-05-09T08:59:34.000Z</time>
      </trkpt>
      <trkpt lat="47.30642" lon="-2.26112">
        <ele>20.200000762939</ele>
        <time>2021-05-09T08:59:42.000Z</time>
      </trkpt>
      <trkpt lat="47.30636" lon="-2.26115">
        <ele>20.200000762939</ele>
        <time>2021-05-09T08:59:43.000Z</time>
      </trkpt>
      <trkpt lat="47.30627" lon="-2.26124">
        <ele>19.799999237061</ele>
        <time>2021-05-09T08:59:45.000Z</time>
      </trkpt>
      <trkpt lat="47.30623" lon="-2.26131">
        <ele>19.200000762939</ele>
        <time>2021-05-09T08:59:46.000Z</time>
      </trkpt>
      <trkpt lat="47.3062" lon="-2.26137">
        <ele>18.799999237061</ele>
        <time>2021-05-09T08:59:47.000Z</time>
      </trkpt>
      <trkpt lat="47.30617" lon="-2.26143">
        <ele>18.39999961853</ele>
        <time>2021-05-09T08:59:48.000Z</time>
      </trkpt>
      <trkpt lat="47.30613" lon="-2.26149">
        <ele>18</ele>
        <time>2021-05-09T08:59:49.000Z</time>
      </trkpt>
      <trkpt lat="47.30599" lon="-2.26173">
        <ele>18</ele>
        <time>2021-05-09T08:59:53.000Z</time>
      </trkpt>
      <trkpt lat="47.3059" lon="-2.26198">
        <ele>18</ele>
        <time>2021-05-09T08:59:57.000Z</time>
      </trkpt>
      <trkpt lat="47.30587" lon="-2.26209">
        <ele>18</ele>
        <time>2021-05-09T08:59:59.000Z</time>
      </trkpt>
      <trkpt lat="47.30587" lon="-2.26215">
        <ele>18</ele>
        <time>2021-05-09T09:00:00.000Z</time>
      </trkpt>
      <trkpt lat="47.30579" lon="-2.26239">
        <ele>18</ele>
        <time>2021-05-09T09:00:04.000Z</time>
      </trkpt>
      <trkpt lat="47.30566" lon="-2.2628">
        <ele>18</ele>
        <time>2021-05-09T09:00:11.000Z</time>
      </trkpt>
      <trkpt lat="47.30553" lon="-2.26339">
        <ele>18</ele>
        <time>2021-05-09T09:00:19.000Z</time>
      </trkpt>
      <trkpt lat="47.3055" lon="-2.26355">
        <ele>18</ele>
        <time>2021-05-09T09:00:21.000Z</time>
      </trkpt>
      <trkpt lat="47.30541" lon="-2.26383">
        <ele>18</ele>
        <time>2021-05-09T09:00:25.000Z</time>
      </trkpt>
      <trkpt lat="47.30526" lon="-2.26421">
        <ele>18</ele>
        <time>2021-05-09T09:00:31.000Z</time>
      </trkpt>
      <trkpt lat="47.30517" lon="-2.26439">
        <ele>18</ele>
        <time>2021-05-09T09:00:34.000Z</time>
      </trkpt>
      <trkpt lat="47.30507" lon="-2.26457">
        <ele>18</ele>
        <time>2021-05-09T09:00:37.000Z</time>
      </trkpt>
      <trkpt lat="47.30499" lon="-2.26476">
        <ele>18</ele>
        <time>2021-05-09T09:00:40.000Z</time>
      </trkpt>
      <trkpt lat="47.30493" lon="-2.2649">
        <ele>18</ele>
        <time>2021-05-09T09:00:43.000Z</time>
      </trkpt>
      <trkpt lat="47.30476" lon="-2.26524">
        <ele>18</ele>
        <time>2021-05-09T09:00:49.000Z</time>
      </trkpt>
      <trkpt lat="47.30458" lon="-2.26565">
        <ele>18</ele>
        <time>2021-05-09T09:00:56.000Z</time>
      </trkpt>
      <trkpt lat="47.30442" lon="-2.26599">
        <ele>18</ele>
        <time>2021-05-09T09:01:01.000Z</time>
      </trkpt>
      <trkpt lat="47.30438" lon="-2.26605">
        <ele>18</ele>
        <time>2021-05-09T09:01:02.000Z</time>
      </trkpt>
      <trkpt lat="47.3042" lon="-2.26643">
        <ele>18</ele>
        <time>2021-05-09T09:01:08.000Z</time>
      </trkpt>
      <trkpt lat="47.30406" lon="-2.26677">
        <ele>18</ele>
        <time>2021-05-09T09:01:13.000Z</time>
      </trkpt>
      <trkpt lat="47.30381" lon="-2.26722">
        <ele>18</ele>
        <time>2021-05-09T09:01:20.000Z</time>
      </trkpt>
      <trkpt lat="47.30356" lon="-2.26769">
        <ele>18</ele>
        <time>2021-05-09T09:01:27.000Z</time>
      </trkpt>
      <trkpt lat="47.30351" lon="-2.26782">
        <ele>18</ele>
        <time>2021-05-09T09:01:29.000Z</time>
      </trkpt>
      <trkpt lat="47.30351" lon="-2.26798">
        <ele>18</ele>
        <time>2021-05-09T09:01:31.000Z</time>
      </trkpt>
      <trkpt lat="47.30354" lon="-2.26817">
        <ele>18</ele>
        <time>2021-05-09T09:01:33.000Z</time>
      </trkpt>
      <trkpt lat="47.30355" lon="-2.26837">
        <ele>18</ele>
        <time>2021-05-09T09:01:35.000Z</time>
      </trkpt>
      <trkpt lat="47.30363" lon="-2.26902">
        <ele>18</ele>
        <time>2021-05-09T09:01:41.000Z</time>
      </trkpt>
      <trkpt lat="47.30374" lon="-2.26963">
        <ele>18</ele>
        <time>2021-05-09T09:01:47.000Z</time>
      </trkpt>
      <trkpt lat="47.30374" lon="-2.26974">
        <ele>18</ele>
        <time>2021-05-09T09:01:48.000Z</time>
      </trkpt>
      <trkpt lat="47.30375" lon="-2.27012">
        <ele>17.60000038147</ele>
        <time>2021-05-09T09:01:52.000Z</time>
      </trkpt>
      <trkpt lat="47.30375" lon="-2.27021">
        <ele>17.200000762939</ele>
        <time>2021-05-09T09:01:53.000Z</time>
      </trkpt>
      <trkpt lat="47.30375" lon="-2.2703">
        <ele>16.799999237061</ele>
        <time>2021-05-09T09:01:54.000Z</time>
      </trkpt>
      <trkpt lat="47.30375" lon="-2.27037">
        <ele>16.39999961853</ele>
        <time>2021-05-09T09:01:55.000Z</time>
      </trkpt>
      <trkpt lat="47.30376" lon="-2.27044">
        <ele>16</ele>
        <time>2021-05-09T09:01:56.000Z</time>
      </trkpt>
      <trkpt lat="47.30377" lon="-2.27051">
        <ele>16</ele>
        <time>2021-05-09T09:01:57.000Z</time>
      </trkpt>
      <trkpt lat="47.30379" lon="-2.27056">
        <ele>16</ele>
        <time>2021-05-09T09:01:58.000Z</time>
      </trkpt>
      <trkpt lat="47.30383" lon="-2.27059">
        <ele>16</ele>
        <time>2021-05-09T09:01:59.000Z</time>
      </trkpt>
      <trkpt lat="47.30393" lon="-2.27064">
        <ele>16</ele>
        <time>2021-05-09T09:02:01.000Z</time>
      </trkpt>
      <trkpt lat="47.30403" lon="-2.27072">
        <ele>16</ele>
        <time>2021-05-09T09:02:03.000Z</time>
      </trkpt>
      <trkpt lat="47.30409" lon="-2.27085">
        <ele>16</ele>
        <time>2021-05-09T09:02:05.000Z</time>
      </trkpt>
      <trkpt lat="47.30413" lon="-2.27102">
        <ele>16</ele>
        <time>2021-05-09T09:02:07.000Z</time>
      </trkpt>
      <trkpt lat="47.30415" lon="-2.27119">
        <ele>16</ele>
        <time>2021-05-09T09:02:09.000Z</time>
      </trkpt>
      <trkpt lat="47.30417" lon="-2.27133">
        <ele>15.60000038147</ele>
        <time>2021-05-09T09:02:11.000Z</time>
      </trkpt>
      <trkpt lat="47.30417" lon="-2.2714">
        <ele>14.800000190735</ele>
        <time>2021-05-09T09:02:12.000Z</time>
      </trkpt>
      <trkpt lat="47.30417" lon="-2.27146">
        <ele>14.39999961853</ele>
        <time>2021-05-09T09:02:13.000Z</time>
      </trkpt>
      <trkpt lat="47.30416" lon="-2.27151">
        <ele>13.800000190735</ele>
        <time>2021-05-09T09:02:14.000Z</time>
      </trkpt>
      <trkpt lat="47.30411" lon="-2.27161">
        <ele>13.800000190735</ele>
        <time>2021-05-09T09:02:18.000Z</time>
      </trkpt>
      <trkpt lat="47.3041" lon="-2.27162">
        <ele>13.800000190735</ele>
        <time>2021-05-09T09:02:19.000Z</time>
      </trkpt>
      <trkpt lat="47.30409" lon="-2.27162">
        <ele>13.800000190735</ele>
        <time>2021-05-09T09:02:20.000Z</time>
      </trkpt>
      <trkpt lat="47.30407" lon="-2.27157">
        <ele>13.800000190735</ele>
        <time>2021-05-09T09:02:23.000Z</time>
      </trkpt>
      <trkpt lat="47.30409" lon="-2.27156">
        <ele>13.800000190735</ele>
        <time>2021-05-09T09:02:25.000Z</time>
      </trkpt>
      <trkpt lat="47.30411" lon="-2.27153">
        <ele>13.800000190735</ele>
        <time>2021-05-09T09:02:27.000Z</time>
      </trkpt>
      <trkpt lat="47.30414" lon="-2.27158">
        <ele>13.800000190735</ele>
        <time>2021-05-09T09:02:31.000Z</time>
      </trkpt>
      <trkpt lat="47.30406" lon="-2.27165">
        <ele>13.800000190735</ele>
        <time>2021-05-09T09:02:34.000Z</time>
      </trkpt>
      <trkpt lat="47.30392" lon="-2.27164">
        <ele>13.800000190735</ele>
        <time>2021-05-09T09:02:38.000Z</time>
      </trkpt>
      <trkpt lat="47.30389" lon="-2.27164">
        <ele>13.800000190735</ele>
        <time>2021-05-09T09:02:39.000Z</time>
      </trkpt>
      <trkpt lat="47.30377" lon="-2.27167">
        <ele>13.800000190735</ele>
        <time>2021-05-09T09:02:44.000Z</time>
      </trkpt>
      <trkpt lat="47.30367" lon="-2.27168">
        <ele>13.800000190735</ele>
        <time>2021-05-09T09:02:49.000Z</time>
      </trkpt>
      <trkpt lat="47.30352" lon="-2.27176">
        <ele>13.800000190735</ele>
        <time>2021-05-09T09:02:56.000Z</time>
      </trkpt>
      <trkpt lat="47.30349" lon="-2.27176">
        <ele>13.800000190735</ele>
        <time>2021-05-09T09:02:58.000Z</time>
      </trkpt>
      <trkpt lat="47.30348" lon="-2.27172">
        <ele>13.800000190735</ele>
        <time>2021-05-09T09:03:00.000Z</time>
      </trkpt>
      <trkpt lat="47.30351" lon="-2.2717">
        <ele>13.800000190735</ele>
        <time>2021-05-09T09:03:03.000Z</time>
      </trkpt>
      <trkpt lat="47.30352" lon="-2.27172">
        <ele>13.800000190735</ele>
        <time>2021-05-09T09:03:05.000Z</time>
      </trkpt>
      <trkpt lat="47.3036" lon="-2.27173">
        <ele>13.800000190735</ele>
        <time>2021-05-09T09:03:10.000Z</time>
      </trkpt>
      <trkpt lat="47.30361" lon="-2.27171">
        <ele>13.800000190735</ele>
        <time>2021-05-09T09:03:11.000Z</time>
      </trkpt>
      <trkpt lat="47.30356" lon="-2.27168">
        <ele>13.800000190735</ele>
        <time>2021-05-09T09:03:15.000Z</time>
      </trkpt>
      <trkpt lat="47.30353" lon="-2.27169">
        <ele>13.800000190735</ele>
        <time>2021-05-09T09:03:17.000Z</time>
      </trkpt>
      <trkpt lat="47.30342" lon="-2.27174">
        <ele>13.800000190735</ele>
        <time>2021-05-09T09:03:22.000Z</time>
      </trkpt>
      <trkpt lat="47.30331" lon="-2.27179">
        <ele>13.800000190735</ele>
        <time>2021-05-09T09:03:28.000Z</time>
      </trkpt>
      <trkpt lat="47.30319" lon="-2.27182">
        <ele>13.800000190735</ele>
        <time>2021-05-09T09:03:36.000Z</time>
      </trkpt>
      <trkpt lat="47.30306" lon="-2.27186">
        <ele>13.800000190735</ele>
        <time>2021-05-09T09:03:42.000Z</time>
      </trkpt>
      <trkpt lat="47.30283" lon="-2.27186">
        <ele>13.800000190735</ele>
        <time>2021-05-09T09:03:48.000Z</time>
      </trkpt>
      <trkpt lat="47.30255" lon="-2.27174">
        <ele>13.800000190735</ele>
        <time>2021-05-09T09:03:54.000Z</time>
      </trkpt>
      <trkpt lat="47.30233" lon="-2.27164">
        <ele>14.39999961853</ele>
        <time>2021-05-09T09:03:59.000Z</time>
      </trkpt>
      <trkpt lat="47.3023" lon="-2.27162">
        <ele>14.800000190735</ele>
        <time>2021-05-09T09:04:00.000Z</time>
      </trkpt>
      <trkpt lat="47.30227" lon="-2.27161">
        <ele>15.199999809265</ele>
        <time>2021-05-09T09:04:01.000Z</time>
      </trkpt>
      <trkpt lat="47.30224" lon="-2.27159">
        <ele>15.60000038147</ele>
        <time>2021-05-09T09:04:02.000Z</time>
      </trkpt>
      <trkpt lat="47.3022" lon="-2.27158">
        <ele>16</ele>
        <time>2021-05-09T09:04:03.000Z</time>
      </trkpt>
      <trkpt lat="47.30211" lon="-2.2716">
        <ele>16</ele>
        <time>2021-05-09T09:04:05.000Z</time>
      </trkpt>
      <trkpt lat="47.30203" lon="-2.27167">
        <ele>16</ele>
        <time>2021-05-09T09:04:07.000Z</time>
      </trkpt>
      <trkpt lat="47.30196" lon="-2.27176">
        <ele>16</ele>
        <time>2021-05-09T09:04:09.000Z</time>
      </trkpt>
      <trkpt lat="47.30169" lon="-2.27209">
        <ele>16</ele>
        <time>2021-05-09T09:04:16.000Z</time>
      </trkpt>
      <trkpt lat="47.30138" lon="-2.27249">
        <ele>16</ele>
        <time>2021-05-09T09:04:23.000Z</time>
      </trkpt>
      <trkpt lat="47.30099" lon="-2.27299">
        <ele>16</ele>
        <time>2021-05-09T09:04:32.000Z</time>
      </trkpt>
      <trkpt lat="47.30096" lon="-2.27306">
        <ele>16</ele>
        <time>2021-05-09T09:04:33.000Z</time>
      </trkpt>
      <trkpt lat="47.30082" lon="-2.27336">
        <ele>16</ele>
        <time>2021-05-09T09:04:37.000Z</time>
      </trkpt>
      <trkpt lat="47.30062" lon="-2.27384">
        <ele>16</ele>
        <time>2021-05-09T09:04:43.000Z</time>
      </trkpt>
      <trkpt lat="47.30037" lon="-2.27424">
        <ele>16</ele>
        <time>2021-05-09T09:04:49.000Z</time>
      </trkpt>
      <trkpt lat="47.30004" lon="-2.27474">
        <ele>16</ele>
        <time>2021-05-09T09:04:56.000Z</time>
      </trkpt>
      <trkpt lat="47.29999" lon="-2.27491">
        <ele>16</ele>
        <time>2021-05-09T09:04:58.000Z</time>
      </trkpt>
      <trkpt lat="47.29993" lon="-2.27517">
        <ele>16</ele>
        <time>2021-05-09T09:05:01.000Z</time>
      </trkpt>
      <trkpt lat="47.29982" lon="-2.2756">
        <ele>16</ele>
        <time>2021-05-09T09:05:06.000Z</time>
      </trkpt>
      <trkpt lat="47.29965" lon="-2.27619">
        <ele>16</ele>
        <time>2021-05-09T09:05:13.000Z</time>
      </trkpt>
      <trkpt lat="47.29959" lon="-2.27664">
        <ele>16.39999961853</ele>
        <time>2021-05-09T09:05:18.000Z</time>
      </trkpt>
      <trkpt lat="47.29958" lon="-2.27674">
        <ele>16.799999237061</ele>
        <time>2021-05-09T09:05:19.000Z</time>
      </trkpt>
      <trkpt lat="47.29957" lon="-2.27682">
        <ele>17.39999961853</ele>
        <time>2021-05-09T09:05:20.000Z</time>
      </trkpt>
      <trkpt lat="47.29957" lon="-2.27691">
        <ele>17.799999237061</ele>
        <time>2021-05-09T09:05:21.000Z</time>
      </trkpt>
      <trkpt lat="47.29956" lon="-2.277">
        <ele>18.200000762939</ele>
        <time>2021-05-09T09:05:22.000Z</time>
      </trkpt>
      <trkpt lat="47.29952" lon="-2.27744">
        <ele>18.200000762939</ele>
        <time>2021-05-09T09:05:27.000Z</time>
      </trkpt>
      <trkpt lat="47.29946" lon="-2.27806">
        <ele>18.200000762939</ele>
        <time>2021-05-09T09:05:34.000Z</time>
      </trkpt>
      <trkpt lat="47.29943" lon="-2.27839">
        <ele>18.60000038147</ele>
        <time>2021-05-09T09:05:38.000Z</time>
      </trkpt>
      <trkpt lat="47.29942" lon="-2.27847">
        <ele>19</ele>
        <time>2021-05-09T09:05:39.000Z</time>
      </trkpt>
      <trkpt lat="47.29941" lon="-2.27856">
        <ele>19.39999961853</ele>
        <time>2021-05-09T09:05:40.000Z</time>
      </trkpt>
      <trkpt lat="47.2994" lon="-2.27864">
        <ele>20</ele>
        <time>2021-05-09T09:05:41.000Z</time>
      </trkpt>
      <trkpt lat="47.29939" lon="-2.27872">
        <ele>20.39999961853</ele>
        <time>2021-05-09T09:05:42.000Z</time>
      </trkpt>
      <trkpt lat="47.29938" lon="-2.27888">
        <ele>20.39999961853</ele>
        <time>2021-05-09T09:05:44.000Z</time>
      </trkpt>
      <trkpt lat="47.29933" lon="-2.27946">
        <ele>20.39999961853</ele>
        <time>2021-05-09T09:05:51.000Z</time>
      </trkpt>
      <trkpt lat="47.29931" lon="-2.27981">
        <ele>20.39999961853</ele>
        <time>2021-05-09T09:05:55.000Z</time>
      </trkpt>
      <trkpt lat="47.29932" lon="-2.27998">
        <ele>20.39999961853</ele>
        <time>2021-05-09T09:05:57.000Z</time>
      </trkpt>
      <trkpt lat="47.29942" lon="-2.28037">
        <ele>20.39999961853</ele>
        <time>2021-05-09T09:06:02.000Z</time>
      </trkpt>
      <trkpt lat="47.29953" lon="-2.28048">
        <ele>20.39999961853</ele>
        <time>2021-05-09T09:06:05.000Z</time>
      </trkpt>
      <trkpt lat="47.29963" lon="-2.28045">
        <ele>20.39999961853</ele>
        <time>2021-05-09T09:06:07.000Z</time>
      </trkpt>
      <trkpt lat="47.29972" lon="-2.2804">
        <ele>20.39999961853</ele>
        <time>2021-05-09T09:06:09.000Z</time>
      </trkpt>
      <trkpt lat="47.29986" lon="-2.28034">
        <ele>20.39999961853</ele>
        <time>2021-05-09T09:06:13.000Z</time>
      </trkpt>
      <trkpt lat="47.2999" lon="-2.28042">
        <ele>20.39999961853</ele>
        <time>2021-05-09T09:06:16.000Z</time>
      </trkpt>
      <trkpt lat="47.29988" lon="-2.28046">
        <ele>20.39999961853</ele>
        <time>2021-05-09T09:06:17.000Z</time>
      </trkpt>
      <trkpt lat="47.29981" lon="-2.28068">
        <ele>20.39999961853</ele>
        <time>2021-05-09T09:06:21.000Z</time>
      </trkpt>
      <trkpt lat="47.29973" lon="-2.28098">
        <ele>20.39999961853</ele>
        <time>2021-05-09T09:06:26.000Z</time>
      </trkpt>
      <trkpt lat="47.2996" lon="-2.28139">
        <ele>20.39999961853</ele>
        <time>2021-05-09T09:06:32.000Z</time>
      </trkpt>
      <trkpt lat="47.29946" lon="-2.2818">
        <ele>20.39999961853</ele>
        <time>2021-05-09T09:06:39.000Z</time>
      </trkpt>
      <trkpt lat="47.29944" lon="-2.28187">
        <ele>20.39999961853</ele>
        <time>2021-05-09T09:06:40.000Z</time>
      </trkpt>
      <trkpt lat="47.29944" lon="-2.28211">
        <ele>20.39999961853</ele>
        <time>2021-05-09T09:06:43.000Z</time>
      </trkpt>
      <trkpt lat="47.29945" lon="-2.28227">
        <ele>20.39999961853</ele>
        <time>2021-05-09T09:06:45.000Z</time>
      </trkpt>
      <trkpt lat="47.29949" lon="-2.28262">
        <ele>20.39999961853</ele>
        <time>2021-05-09T09:06:49.000Z</time>
      </trkpt>
      <trkpt lat="47.29949" lon="-2.28272">
        <ele>20.39999961853</ele>
        <time>2021-05-09T09:06:50.000Z</time>
      </trkpt>
      <trkpt lat="47.29948" lon="-2.28299">
        <ele>20.39999961853</ele>
        <time>2021-05-09T09:06:53.000Z</time>
      </trkpt>
      <trkpt lat="47.29946" lon="-2.28333">
        <ele>20.39999961853</ele>
        <time>2021-05-09T09:06:57.000Z</time>
      </trkpt>
      <trkpt lat="47.29946" lon="-2.28342">
        <ele>20.39999961853</ele>
        <time>2021-05-09T09:06:58.000Z</time>
      </trkpt>
      <trkpt lat="47.29945" lon="-2.28359">
        <ele>20.39999961853</ele>
        <time>2021-05-09T09:07:00.000Z</time>
      </trkpt>
      <trkpt lat="47.29946" lon="-2.28377">
        <ele>20.39999961853</ele>
        <time>2021-05-09T09:07:02.000Z</time>
      </trkpt>
      <trkpt lat="47.29946" lon="-2.28413">
        <ele>20.39999961853</ele>
        <time>2021-05-09T09:07:06.000Z</time>
      </trkpt>
      <trkpt lat="47.29941" lon="-2.28429">
        <ele>20.39999961853</ele>
        <time>2021-05-09T09:07:08.000Z</time>
      </trkpt>
      <trkpt lat="47.2994" lon="-2.28437">
        <ele>20.39999961853</ele>
        <time>2021-05-09T09:07:09.000Z</time>
      </trkpt>
      <trkpt lat="47.29939" lon="-2.28445">
        <ele>20.39999961853</ele>
        <time>2021-05-09T09:07:10.000Z</time>
      </trkpt>
      <trkpt lat="47.29938" lon="-2.28486">
        <ele>20.39999961853</ele>
        <time>2021-05-09T09:07:15.000Z</time>
      </trkpt>
      <trkpt lat="47.29937" lon="-2.28494">
        <ele>20.39999961853</ele>
        <time>2021-05-09T09:07:16.000Z</time>
      </trkpt>
      <trkpt lat="47.2993" lon="-2.28524">
        <ele>20.39999961853</ele>
        <time>2021-05-09T09:07:20.000Z</time>
      </trkpt>
      <trkpt lat="47.29928" lon="-2.28532">
        <ele>20.39999961853</ele>
        <time>2021-05-09T09:07:21.000Z</time>
      </trkpt>
      <trkpt lat="47.29929" lon="-2.28547">
        <ele>20.39999961853</ele>
        <time>2021-05-09T09:07:23.000Z</time>
      </trkpt>
      <trkpt lat="47.29938" lon="-2.28562">
        <ele>20.39999961853</ele>
        <time>2021-05-09T09:07:26.000Z</time>
      </trkpt>
      <trkpt lat="47.2994" lon="-2.28582">
        <ele>20.39999961853</ele>
        <time>2021-05-09T09:07:29.000Z</time>
      </trkpt>
      <trkpt lat="47.29937" lon="-2.28596">
        <ele>20.39999961853</ele>
        <time>2021-05-09T09:07:31.000Z</time>
      </trkpt>
      <trkpt lat="47.29935" lon="-2.28612">
        <ele>19.60000038147</ele>
        <time>2021-05-09T09:07:33.000Z</time>
      </trkpt>
      <trkpt lat="47.29933" lon="-2.2862">
        <ele>19</ele>
        <time>2021-05-09T09:07:34.000Z</time>
      </trkpt>
      <trkpt lat="47.29932" lon="-2.28628">
        <ele>18.60000038147</ele>
        <time>2021-05-09T09:07:35.000Z</time>
      </trkpt>
      <trkpt lat="47.29932" lon="-2.28636">
        <ele>18.200000762939</ele>
        <time>2021-05-09T09:07:36.000Z</time>
      </trkpt>
      <trkpt lat="47.29927" lon="-2.28658">
        <ele>18.200000762939</ele>
        <time>2021-05-09T09:07:39.000Z</time>
      </trkpt>
      <trkpt lat="47.29918" lon="-2.28702">
        <ele>18.200000762939</ele>
        <time>2021-05-09T09:07:45.000Z</time>
      </trkpt>
      <trkpt lat="47.29917" lon="-2.2871">
        <ele>18.200000762939</ele>
        <time>2021-05-09T09:07:46.000Z</time>
      </trkpt>
      <trkpt lat="47.29914" lon="-2.28727">
        <ele>18.200000762939</ele>
        <time>2021-05-09T09:07:48.000Z</time>
      </trkpt>
      <trkpt lat="47.29907" lon="-2.28754">
        <ele>18.200000762939</ele>
        <time>2021-05-09T09:07:51.000Z</time>
      </trkpt>
      <trkpt lat="47.29902" lon="-2.28788">
        <ele>18.200000762939</ele>
        <time>2021-05-09T09:07:55.000Z</time>
      </trkpt>
      <trkpt lat="47.29898" lon="-2.28803">
        <ele>18.200000762939</ele>
        <time>2021-05-09T09:07:57.000Z</time>
      </trkpt>
      <trkpt lat="47.29887" lon="-2.28861">
        <ele>18.200000762939</ele>
        <time>2021-05-09T09:08:04.000Z</time>
      </trkpt>
      <trkpt lat="47.29884" lon="-2.28877">
        <ele>18.200000762939</ele>
        <time>2021-05-09T09:08:06.000Z</time>
      </trkpt>
      <trkpt lat="47.29877" lon="-2.28897">
        <ele>18.200000762939</ele>
        <time>2021-05-09T09:08:09.000Z</time>
      </trkpt>
      <trkpt lat="47.29874" lon="-2.28903">
        <ele>18.200000762939</ele>
        <time>2021-05-09T09:08:10.000Z</time>
      </trkpt>
      <trkpt lat="47.29872" lon="-2.28916">
        <ele>18.200000762939</ele>
        <time>2021-05-09T09:08:12.000Z</time>
      </trkpt>
      <trkpt lat="47.2987" lon="-2.28927">
        <ele>17.799999237061</ele>
        <time>2021-05-09T09:08:14.000Z</time>
      </trkpt>
      <trkpt lat="47.29869" lon="-2.2893">
        <ele>17.39999961853</ele>
        <time>2021-05-09T09:08:15.000Z</time>
      </trkpt>
      <trkpt lat="47.29867" lon="-2.28931">
        <ele>17</ele>
        <time>2021-05-09T09:08:16.000Z</time>
      </trkpt>
      <trkpt lat="47.29866" lon="-2.28932">
        <ele>16.60000038147</ele>
        <time>2021-05-09T09:08:17.000Z</time>
      </trkpt>
      <trkpt lat="47.29866" lon="-2.28932">
        <ele>16.200000762939</ele>
        <time>2021-05-09T09:08:18.000Z</time>
      </trkpt>
      <trkpt lat="47.29871" lon="-2.28937">
        <ele>14.199999809265</ele>
        <time>2021-05-09T09:16:32.000Z</time>
      </trkpt>
      <trkpt lat="47.29872" lon="-2.28938">
        <ele>14.199999809265</ele>
        <time>2021-05-09T09:16:33.000Z</time>
      </trkpt>
      <trkpt lat="47.29883" lon="-2.28942">
        <ele>14.199999809265</ele>
        <time>2021-05-09T09:16:38.000Z</time>
      </trkpt>
      <trkpt lat="47.29889" lon="-2.28943">
        <ele>14.199999809265</ele>
        <time>2021-05-09T09:16:40.000Z</time>
      </trkpt>
      <trkpt lat="47.29903" lon="-2.28949">
        <ele>14.199999809265</ele>
        <time>2021-05-09T09:16:44.000Z</time>
      </trkpt>
      <trkpt lat="47.29923" lon="-2.28957">
        <ele>14.199999809265</ele>
        <time>2021-05-09T09:16:50.000Z</time>
      </trkpt>
      <trkpt lat="47.29936" lon="-2.28981">
        <ele>14.199999809265</ele>
        <time>2021-05-09T09:16:55.000Z</time>
      </trkpt>
      <trkpt lat="47.29959" lon="-2.29019">
        <ele>14.199999809265</ele>
        <time>2021-05-09T09:17:02.000Z</time>
      </trkpt>
      <trkpt lat="47.29981" lon="-2.29055">
        <ele>14.199999809265</ele>
        <time>2021-05-09T09:17:08.000Z</time>
      </trkpt>
      <trkpt lat="47.29984" lon="-2.29061">
        <ele>14.199999809265</ele>
        <time>2021-05-09T09:17:09.000Z</time>
      </trkpt>
      <trkpt lat="47.29995" lon="-2.29081">
        <ele>14.199999809265</ele>
        <time>2021-05-09T09:17:12.000Z</time>
      </trkpt>
      <trkpt lat="47.30005" lon="-2.2909">
        <ele>14.199999809265</ele>
        <time>2021-05-09T09:17:14.000Z</time>
      </trkpt>
      <trkpt lat="47.30024" lon="-2.29109">
        <ele>14.199999809265</ele>
        <time>2021-05-09T09:17:18.000Z</time>
      </trkpt>
      <trkpt lat="47.30054" lon="-2.2913">
        <ele>14.199999809265</ele>
        <time>2021-05-09T09:17:24.000Z</time>
      </trkpt>
      <trkpt lat="47.30074" lon="-2.29157">
        <ele>14.199999809265</ele>
        <time>2021-05-09T09:17:28.000Z</time>
      </trkpt>
      <trkpt lat="47.30109" lon="-2.29214">
        <ele>13.800000190735</ele>
        <time>2021-05-09T09:17:35.000Z</time>
      </trkpt>
      <trkpt lat="47.30114" lon="-2.29221">
        <ele>13.39999961853</ele>
        <time>2021-05-09T09:17:36.000Z</time>
      </trkpt>
      <trkpt lat="47.3012" lon="-2.29229">
        <ele>13</ele>
        <time>2021-05-09T09:17:37.000Z</time>
      </trkpt>
      <trkpt lat="47.30125" lon="-2.29237">
        <ele>12.39999961853</ele>
        <time>2021-05-09T09:17:38.000Z</time>
      </trkpt>
      <trkpt lat="47.3013" lon="-2.29246">
        <ele>12</ele>
        <time>2021-05-09T09:17:39.000Z</time>
      </trkpt>
      <trkpt lat="47.30145" lon="-2.29271">
        <ele>12</ele>
        <time>2021-05-09T09:17:42.000Z</time>
      </trkpt>
      <trkpt lat="47.30179" lon="-2.29327">
        <ele>12</ele>
        <time>2021-05-09T09:17:49.000Z</time>
      </trkpt>
      <trkpt lat="47.30198" lon="-2.29356">
        <ele>12</ele>
        <time>2021-05-09T09:17:53.000Z</time>
      </trkpt>
      <trkpt lat="47.30204" lon="-2.29374">
        <ele>12</ele>
        <time>2021-05-09T09:17:55.000Z</time>
      </trkpt>
      <trkpt lat="47.3021" lon="-2.29392">
        <ele>12</ele>
        <time>2021-05-09T09:17:57.000Z</time>
      </trkpt>
      <trkpt lat="47.30215" lon="-2.29408">
        <ele>12</ele>
        <time>2021-05-09T09:17:59.000Z</time>
      </trkpt>
      <trkpt lat="47.30216" lon="-2.29417">
        <ele>11.60000038147</ele>
        <time>2021-05-09T09:18:00.000Z</time>
      </trkpt>
      <trkpt lat="47.30216" lon="-2.29425">
        <ele>11.199999809265</ele>
        <time>2021-05-09T09:18:01.000Z</time>
      </trkpt>
      <trkpt lat="47.30214" lon="-2.29432">
        <ele>10.800000190735</ele>
        <time>2021-05-09T09:18:02.000Z</time>
      </trkpt>
      <trkpt lat="47.30211" lon="-2.29438">
        <ele>10.39999961853</ele>
        <time>2021-05-09T09:18:03.000Z</time>
      </trkpt>
      <trkpt lat="47.30208" lon="-2.29445">
        <ele>10</ele>
        <time>2021-05-09T09:18:04.000Z</time>
      </trkpt>
      <trkpt lat="47.30194" lon="-2.29474">
        <ele>10</ele>
        <time>2021-05-09T09:18:08.000Z</time>
      </trkpt>
      <trkpt lat="47.30168" lon="-2.29522">
        <ele>10</ele>
        <time>2021-05-09T09:18:15.000Z</time>
      </trkpt>
      <trkpt lat="47.30148" lon="-2.29556">
        <ele>10</ele>
        <time>2021-05-09T09:18:20.000Z</time>
      </trkpt>
      <trkpt lat="47.30142" lon="-2.29571">
        <ele>10</ele>
        <time>2021-05-09T09:18:22.000Z</time>
      </trkpt>
      <trkpt lat="47.30141" lon="-2.29589">
        <ele>10</ele>
        <time>2021-05-09T09:18:24.000Z</time>
      </trkpt>
      <trkpt lat="47.30142" lon="-2.29628">
        <ele>10</ele>
        <time>2021-05-09T09:18:29.000Z</time>
      </trkpt>
      <trkpt lat="47.30141" lon="-2.29635">
        <ele>10</ele>
        <time>2021-05-09T09:18:30.000Z</time>
      </trkpt>
      <trkpt lat="47.30146" lon="-2.29657">
        <ele>10</ele>
        <time>2021-05-09T09:18:34.000Z</time>
      </trkpt>
      <trkpt lat="47.30149" lon="-2.2966">
        <ele>10</ele>
        <time>2021-05-09T09:18:35.000Z</time>
      </trkpt>
      <trkpt lat="47.30163" lon="-2.29667">
        <ele>10</ele>
        <time>2021-05-09T09:18:38.000Z</time>
      </trkpt>
      <trkpt lat="47.30169" lon="-2.29669">
        <ele>10</ele>
        <time>2021-05-09T09:18:39.000Z</time>
      </trkpt>
      <trkpt lat="47.30185" lon="-2.29678">
        <ele>10</ele>
        <time>2021-05-09T09:18:42.000Z</time>
      </trkpt>
      <trkpt lat="47.30191" lon="-2.29683">
        <ele>10</ele>
        <time>2021-05-09T09:18:43.000Z</time>
      </trkpt>
      <trkpt lat="47.30221" lon="-2.297">
        <ele>10</ele>
        <time>2021-05-09T09:18:48.000Z</time>
      </trkpt>
      <trkpt lat="47.3024" lon="-2.29708">
        <ele>10</ele>
        <time>2021-05-09T09:18:52.000Z</time>
      </trkpt>
      <trkpt lat="47.30246" lon="-2.29711">
        <ele>10</ele>
        <time>2021-05-09T09:18:56.000Z</time>
      </trkpt>
      <trkpt lat="47.30248" lon="-2.29715">
        <ele>10</ele>
        <time>2021-05-09T09:18:59.000Z</time>
      </trkpt>
      <trkpt lat="47.30247" lon="-2.29719">
        <ele>10</ele>
        <time>2021-05-09T09:19:01.000Z</time>
      </trkpt>
      <trkpt lat="47.30243" lon="-2.29725">
        <ele>9.6000003814697</ele>
        <time>2021-05-09T09:19:05.000Z</time>
      </trkpt>
      <trkpt lat="47.30243" lon="-2.29726">
        <ele>9</ele>
        <time>2021-05-09T09:19:06.000Z</time>
      </trkpt>
      <trkpt lat="47.30242" lon="-2.29727">
        <ele>8.6000003814697</ele>
        <time>2021-05-09T09:19:07.000Z</time>
      </trkpt>
      <trkpt lat="47.30241" lon="-2.29728">
        <ele>8.1999998092651</ele>
        <time>2021-05-09T09:19:08.000Z</time>
      </trkpt>
      <trkpt lat="47.3024" lon="-2.29728">
        <ele>7.8000001907349</ele>
        <time>2021-05-09T09:19:09.000Z</time>
      </trkpt>
      <trkpt lat="47.30236" lon="-2.29732">
        <ele>7.8000001907349</ele>
        <time>2021-05-09T09:19:13.000Z</time>
      </trkpt>
      <trkpt lat="47.30235" lon="-2.29734">
        <ele>7.8000001907349</ele>
        <time>2021-05-09T09:19:15.000Z</time>
      </trkpt>
      <trkpt lat="47.30228" lon="-2.29747">
        <ele>7.8000001907349</ele>
        <time>2021-05-09T09:19:20.000Z</time>
      </trkpt>
      <trkpt lat="47.30226" lon="-2.2975">
        <ele>7.8000001907349</ele>
        <time>2021-05-09T09:19:21.000Z</time>
      </trkpt>
      <trkpt lat="47.3021" lon="-2.29775">
        <ele>7.8000001907349</ele>
        <time>2021-05-09T09:19:27.000Z</time>
      </trkpt>
      <trkpt lat="47.30199" lon="-2.2979">
        <ele>7.8000001907349</ele>
        <time>2021-05-09T09:19:32.000Z</time>
      </trkpt>
      <trkpt lat="47.30188" lon="-2.29803">
        <ele>7.8000001907349</ele>
        <time>2021-05-09T09:19:38.000Z</time>
      </trkpt>
      <trkpt lat="47.30183" lon="-2.29812">
        <ele>7.8000001907349</ele>
        <time>2021-05-09T09:19:43.000Z</time>
      </trkpt>
      <trkpt lat="47.30174" lon="-2.29822">
        <ele>7.8000001907349</ele>
        <time>2021-05-09T09:19:48.000Z</time>
      </trkpt>
      <trkpt lat="47.30157" lon="-2.29852">
        <ele>7.8000001907349</ele>
        <time>2021-05-09T09:19:55.000Z</time>
      </trkpt>
      <trkpt lat="47.3014" lon="-2.29871">
        <ele>7.8000001907349</ele>
        <time>2021-05-09T09:20:01.000Z</time>
      </trkpt>
      <trkpt lat="47.30127" lon="-2.29884">
        <ele>7.8000001907349</ele>
        <time>2021-05-09T09:20:05.000Z</time>
      </trkpt>
      <trkpt lat="47.30107" lon="-2.29905">
        <ele>7.8000001907349</ele>
        <time>2021-05-09T09:20:11.000Z</time>
      </trkpt>
      <trkpt lat="47.30096" lon="-2.29915">
        <ele>7.8000001907349</ele>
        <time>2021-05-09T09:20:15.000Z</time>
      </trkpt>
      <trkpt lat="47.30095" lon="-2.29918">
        <ele>7.8000001907349</ele>
        <time>2021-05-09T09:20:16.000Z</time>
      </trkpt>
      <trkpt lat="47.30093" lon="-2.2993">
        <ele>7.8000001907349</ele>
        <time>2021-05-09T09:20:20.000Z</time>
      </trkpt>
      <trkpt lat="47.30093" lon="-2.29932">
        <ele>7.8000001907349</ele>
        <time>2021-05-09T09:20:21.000Z</time>
      </trkpt>
      <trkpt lat="47.30095" lon="-2.29934">
        <ele>7.8000001907349</ele>
        <time>2021-05-09T09:20:22.000Z</time>
      </trkpt>
      <trkpt lat="47.301" lon="-2.29948">
        <ele>7.8000001907349</ele>
        <time>2021-05-09T09:20:26.000Z</time>
      </trkpt>
      <trkpt lat="47.30097" lon="-2.29967">
        <ele>7.8000001907349</ele>
        <time>2021-05-09T09:20:31.000Z</time>
      </trkpt>
      <trkpt lat="47.30097" lon="-2.29971">
        <ele>7.8000001907349</ele>
        <time>2021-05-09T09:20:32.000Z</time>
      </trkpt>
      <trkpt lat="47.301" lon="-2.29983">
        <ele>7.8000001907349</ele>
        <time>2021-05-09T09:20:35.000Z</time>
      </trkpt>
      <trkpt lat="47.30111" lon="-2.29995">
        <ele>7.8000001907349</ele>
        <time>2021-05-09T09:20:39.000Z</time>
      </trkpt>
      <trkpt lat="47.3012" lon="-2.30008">
        <ele>7.8000001907349</ele>
        <time>2021-05-09T09:20:43.000Z</time>
      </trkpt>
      <trkpt lat="47.3013" lon="-2.30022">
        <ele>7.8000001907349</ele>
        <time>2021-05-09T09:20:46.000Z</time>
      </trkpt>
      <trkpt lat="47.30132" lon="-2.30028">
        <ele>7.8000001907349</ele>
        <time>2021-05-09T09:20:47.000Z</time>
      </trkpt>
      <trkpt lat="47.30152" lon="-2.30069">
        <ele>7.8000001907349</ele>
        <time>2021-05-09T09:20:54.000Z</time>
      </trkpt>
      <trkpt lat="47.3016" lon="-2.30087">
        <ele>7.8000001907349</ele>
        <time>2021-05-09T09:20:57.000Z</time>
      </trkpt>
      <trkpt lat="47.30166" lon="-2.30108">
        <ele>7.8000001907349</ele>
        <time>2021-05-09T09:21:00.000Z</time>
      </trkpt>
      <trkpt lat="47.30173" lon="-2.30128">
        <ele>8.1999998092651</ele>
        <time>2021-05-09T09:21:03.000Z</time>
      </trkpt>
      <trkpt lat="47.30176" lon="-2.30135">
        <ele>8.8000001907349</ele>
        <time>2021-05-09T09:21:04.000Z</time>
      </trkpt>
      <trkpt lat="47.30178" lon="-2.30143">
        <ele>9.1999998092651</ele>
        <time>2021-05-09T09:21:05.000Z</time>
      </trkpt>
      <trkpt lat="47.30181" lon="-2.3015">
        <ele>9.6000003814697</ele>
        <time>2021-05-09T09:21:06.000Z</time>
      </trkpt>
      <trkpt lat="47.30184" lon="-2.30158">
        <ele>10</ele>
        <time>2021-05-09T09:21:07.000Z</time>
      </trkpt>
      <trkpt lat="47.30196" lon="-2.30196">
        <ele>10</ele>
        <time>2021-05-09T09:21:12.000Z</time>
      </trkpt>
      <trkpt lat="47.302" lon="-2.30223">
        <ele>10</ele>
        <time>2021-05-09T09:21:17.000Z</time>
      </trkpt>
      <trkpt lat="47.30195" lon="-2.30229">
        <ele>10</ele>
        <time>2021-05-09T09:21:20.000Z</time>
      </trkpt>
      <trkpt lat="47.30191" lon="-2.30232">
        <ele>10</ele>
        <time>2021-05-09T09:21:25.000Z</time>
      </trkpt>
      <trkpt lat="47.30181" lon="-2.30242">
        <ele>10</ele>
        <time>2021-05-09T09:21:30.000Z</time>
      </trkpt>
      <trkpt lat="47.30165" lon="-2.30249">
        <ele>10</ele>
        <time>2021-05-09T09:21:35.000Z</time>
      </trkpt>
      <trkpt lat="47.3015" lon="-2.30256">
        <ele>10</ele>
        <time>2021-05-09T09:21:39.000Z</time>
      </trkpt>
      <trkpt lat="47.30136" lon="-2.3026">
        <ele>10</ele>
        <time>2021-05-09T09:21:42.000Z</time>
      </trkpt>
      <trkpt lat="47.30111" lon="-2.3027">
        <ele>10</ele>
        <time>2021-05-09T09:21:48.000Z</time>
      </trkpt>
      <trkpt lat="47.30108" lon="-2.30275">
        <ele>10</ele>
        <time>2021-05-09T09:21:49.000Z</time>
      </trkpt>
      <trkpt lat="47.30105" lon="-2.30294">
        <ele>10</ele>
        <time>2021-05-09T09:21:52.000Z</time>
      </trkpt>
      <trkpt lat="47.3011" lon="-2.30321">
        <ele>10</ele>
        <time>2021-05-09T09:21:56.000Z</time>
      </trkpt>
      <trkpt lat="47.30125" lon="-2.30373">
        <ele>10</ele>
        <time>2021-05-09T09:22:03.000Z</time>
      </trkpt>
      <trkpt lat="47.3014" lon="-2.30429">
        <ele>10</ele>
        <time>2021-05-09T09:22:10.000Z</time>
      </trkpt>
      <trkpt lat="47.30149" lon="-2.30452">
        <ele>10</ele>
        <time>2021-05-09T09:22:13.000Z</time>
      </trkpt>
      <trkpt lat="47.3016" lon="-2.30472">
        <ele>10</ele>
        <time>2021-05-09T09:22:16.000Z</time>
      </trkpt>
      <trkpt lat="47.30185" lon="-2.30503">
        <ele>10</ele>
        <time>2021-05-09T09:22:22.000Z</time>
      </trkpt>
      <trkpt lat="47.30211" lon="-2.30527">
        <ele>10</ele>
        <time>2021-05-09T09:22:28.000Z</time>
      </trkpt>
      <trkpt lat="47.30224" lon="-2.3054">
        <ele>10</ele>
        <time>2021-05-09T09:22:31.000Z</time>
      </trkpt>
      <trkpt lat="47.30229" lon="-2.30553">
        <ele>10</ele>
        <time>2021-05-09T09:22:33.000Z</time>
      </trkpt>
      <trkpt lat="47.30234" lon="-2.30563">
        <ele>10</ele>
        <time>2021-05-09T09:22:35.000Z</time>
      </trkpt>
      <trkpt lat="47.30241" lon="-2.30569">
        <ele>10</ele>
        <time>2021-05-09T09:22:38.000Z</time>
      </trkpt>
      <trkpt lat="47.3025" lon="-2.3057">
        <ele>10</ele>
        <time>2021-05-09T09:22:43.000Z</time>
      </trkpt>
      <trkpt lat="47.30247" lon="-2.30579">
        <ele>10</ele>
        <time>2021-05-09T09:22:46.000Z</time>
      </trkpt>
      <trkpt lat="47.3023" lon="-2.30591">
        <ele>10</ele>
        <time>2021-05-09T09:22:50.000Z</time>
      </trkpt>
      <trkpt lat="47.30204" lon="-2.30603">
        <ele>10</ele>
        <time>2021-05-09T09:22:56.000Z</time>
      </trkpt>
      <trkpt lat="47.30198" lon="-2.30609">
        <ele>10</ele>
        <time>2021-05-09T09:22:58.000Z</time>
      </trkpt>
      <trkpt lat="47.30195" lon="-2.30615">
        <ele>10</ele>
        <time>2021-05-09T09:23:00.000Z</time>
      </trkpt>
      <trkpt lat="47.30176" lon="-2.30632">
        <ele>10</ele>
        <time>2021-05-09T09:23:06.000Z</time>
      </trkpt>
      <trkpt lat="47.30172" lon="-2.30636">
        <ele>10</ele>
        <time>2021-05-09T09:23:07.000Z</time>
      </trkpt>
      <trkpt lat="47.30166" lon="-2.30648">
        <ele>10</ele>
        <time>2021-05-09T09:23:09.000Z</time>
      </trkpt>
      <trkpt lat="47.30165" lon="-2.30675">
        <ele>10</ele>
        <time>2021-05-09T09:23:12.000Z</time>
      </trkpt>
      <trkpt lat="47.30166" lon="-2.30693">
        <ele>10</ele>
        <time>2021-05-09T09:23:14.000Z</time>
      </trkpt>
      <trkpt lat="47.30168" lon="-2.3072">
        <ele>10</ele>
        <time>2021-05-09T09:23:17.000Z</time>
      </trkpt>
      <trkpt lat="47.30171" lon="-2.30743">
        <ele>10</ele>
        <time>2021-05-09T09:23:20.000Z</time>
      </trkpt>
      <trkpt lat="47.30175" lon="-2.30746">
        <ele>10</ele>
        <time>2021-05-09T09:23:21.000Z</time>
      </trkpt>
      <trkpt lat="47.30179" lon="-2.30752">
        <ele>10</ele>
        <time>2021-05-09T09:23:23.000Z</time>
      </trkpt>
      <trkpt lat="47.30179" lon="-2.30762">
        <ele>10</ele>
        <time>2021-05-09T09:23:25.000Z</time>
      </trkpt>
      <trkpt lat="47.30178" lon="-2.30776">
        <ele>10</ele>
        <time>2021-05-09T09:23:27.000Z</time>
      </trkpt>
      <trkpt lat="47.30178" lon="-2.30783">
        <ele>10</ele>
        <time>2021-05-09T09:23:28.000Z</time>
      </trkpt>
      <trkpt lat="47.30178" lon="-2.3079">
        <ele>10</ele>
        <time>2021-05-09T09:23:29.000Z</time>
      </trkpt>
      <trkpt lat="47.30181" lon="-2.30804">
        <ele>10</ele>
        <time>2021-05-09T09:23:31.000Z</time>
      </trkpt>
      <trkpt lat="47.30187" lon="-2.30814">
        <ele>10</ele>
        <time>2021-05-09T09:23:33.000Z</time>
      </trkpt>
      <trkpt lat="47.30198" lon="-2.30825">
        <ele>10</ele>
        <time>2021-05-09T09:23:36.000Z</time>
      </trkpt>
      <trkpt lat="47.30207" lon="-2.30833">
        <ele>10</ele>
        <time>2021-05-09T09:23:38.000Z</time>
      </trkpt>
      <trkpt lat="47.30232" lon="-2.30859">
        <ele>10</ele>
        <time>2021-05-09T09:23:43.000Z</time>
      </trkpt>
      <trkpt lat="47.3026" lon="-2.30895">
        <ele>10</ele>
        <time>2021-05-09T09:23:49.000Z</time>
      </trkpt>
      <trkpt lat="47.30276" lon="-2.30917">
        <ele>10.39999961853</ele>
        <time>2021-05-09T09:23:53.000Z</time>
      </trkpt>
      <trkpt lat="47.3028" lon="-2.30923">
        <ele>10.800000190735</ele>
        <time>2021-05-09T09:23:54.000Z</time>
      </trkpt>
      <trkpt lat="47.30283" lon="-2.30928">
        <ele>11.199999809265</ele>
        <time>2021-05-09T09:23:55.000Z</time>
      </trkpt>
      <trkpt lat="47.30287" lon="-2.30934">
        <ele>11.60000038147</ele>
        <time>2021-05-09T09:23:56.000Z</time>
      </trkpt>
      <trkpt lat="47.30291" lon="-2.3094">
        <ele>12</ele>
        <time>2021-05-09T09:23:57.000Z</time>
      </trkpt>
      <trkpt lat="47.30308" lon="-2.30965">
        <ele>12.60000038147</ele>
        <time>2021-05-09T09:24:01.000Z</time>
      </trkpt>
      <trkpt lat="47.30312" lon="-2.30971">
        <ele>13</ele>
        <time>2021-05-09T09:24:02.000Z</time>
      </trkpt>
      <trkpt lat="47.30316" lon="-2.30977">
        <ele>13.39999961853</ele>
        <time>2021-05-09T09:24:03.000Z</time>
      </trkpt>
      <trkpt lat="47.3032" lon="-2.30983">
        <ele>13.800000190735</ele>
        <time>2021-05-09T09:24:04.000Z</time>
      </trkpt>
      <trkpt lat="47.30324" lon="-2.30988">
        <ele>14.199999809265</ele>
        <time>2021-05-09T09:24:05.000Z</time>
      </trkpt>
      <trkpt lat="47.30339" lon="-2.31009">
        <ele>14.60000038147</ele>
        <time>2021-05-09T09:24:09.000Z</time>
      </trkpt>
      <trkpt lat="47.30343" lon="-2.31014">
        <ele>15</ele>
        <time>2021-05-09T09:24:10.000Z</time>
      </trkpt>
      <trkpt lat="47.30348" lon="-2.31019">
        <ele>15.39999961853</ele>
        <time>2021-05-09T09:24:11.000Z</time>
      </trkpt>
      <trkpt lat="47.30351" lon="-2.31025">
        <ele>15.800000190735</ele>
        <time>2021-05-09T09:24:12.000Z</time>
      </trkpt>
      <trkpt lat="47.30355" lon="-2.3103">
        <ele>16.200000762939</ele>
        <time>2021-05-09T09:24:13.000Z</time>
      </trkpt>
      <trkpt lat="47.30363" lon="-2.3104">
        <ele>16.200000762939</ele>
        <time>2021-05-09T09:24:15.000Z</time>
      </trkpt>
      <trkpt lat="47.30385" lon="-2.31072">
        <ele>16.60000038147</ele>
        <time>2021-05-09T09:24:20.000Z</time>
      </trkpt>
      <trkpt lat="47.3039" lon="-2.31078">
        <ele>17.200000762939</ele>
        <time>2021-05-09T09:24:21.000Z</time>
      </trkpt>
      <trkpt lat="47.30394" lon="-2.31083">
        <ele>17.60000038147</ele>
        <time>2021-05-09T09:24:22.000Z</time>
      </trkpt>
      <trkpt lat="47.30399" lon="-2.31087">
        <ele>18</ele>
        <time>2021-05-09T09:24:23.000Z</time>
      </trkpt>
      <trkpt lat="47.30403" lon="-2.31091">
        <ele>18.39999961853</ele>
        <time>2021-05-09T09:24:24.000Z</time>
      </trkpt>
      <trkpt lat="47.30407" lon="-2.31096">
        <ele>18.39999961853</ele>
        <time>2021-05-09T09:24:25.000Z</time>
      </trkpt>
      <trkpt lat="47.30412" lon="-2.31099">
        <ele>18.39999961853</ele>
        <time>2021-05-09T09:24:26.000Z</time>
      </trkpt>
      <trkpt lat="47.30435" lon="-2.31116">
        <ele>18.39999961853</ele>
        <time>2021-05-09T09:24:31.000Z</time>
      </trkpt>
      <trkpt lat="47.30439" lon="-2.3112">
        <ele>18.39999961853</ele>
        <time>2021-05-09T09:24:32.000Z</time>
      </trkpt>
      <trkpt lat="47.30448" lon="-2.31136">
        <ele>18.39999961853</ele>
        <time>2021-05-09T09:24:35.000Z</time>
      </trkpt>
      <trkpt lat="47.30456" lon="-2.31166">
        <ele>18.39999961853</ele>
        <time>2021-05-09T09:24:39.000Z</time>
      </trkpt>
      <trkpt lat="47.30458" lon="-2.31173">
        <ele>18.799999237061</ele>
        <time>2021-05-09T09:24:40.000Z</time>
      </trkpt>
      <trkpt lat="47.3046" lon="-2.3118">
        <ele>19.200000762939</ele>
        <time>2021-05-09T09:24:41.000Z</time>
      </trkpt>
      <trkpt lat="47.30463" lon="-2.31188">
        <ele>19.60000038147</ele>
        <time>2021-05-09T09:24:42.000Z</time>
      </trkpt>
      <trkpt lat="47.30465" lon="-2.31195">
        <ele>20</ele>
        <time>2021-05-09T09:24:43.000Z</time>
      </trkpt>
      <trkpt lat="47.30467" lon="-2.31202">
        <ele>20.39999961853</ele>
        <time>2021-05-09T09:24:44.000Z</time>
      </trkpt>
      <trkpt lat="47.30471" lon="-2.31216">
        <ele>20.39999961853</ele>
        <time>2021-05-09T09:24:46.000Z</time>
      </trkpt>
      <trkpt lat="47.30486" lon="-2.31248">
        <ele>20.39999961853</ele>
        <time>2021-05-09T09:24:51.000Z</time>
      </trkpt>
      <trkpt lat="47.30518" lon="-2.313">
        <ele>20.39999961853</ele>
        <time>2021-05-09T09:24:59.000Z</time>
      </trkpt>
      <trkpt lat="47.30543" lon="-2.31339">
        <ele>20.39999961853</ele>
        <time>2021-05-09T09:25:05.000Z</time>
      </trkpt>
      <trkpt lat="47.30571" lon="-2.31383">
        <ele>20.39999961853</ele>
        <time>2021-05-09T09:25:12.000Z</time>
      </trkpt>
      <trkpt lat="47.30598" lon="-2.31441">
        <ele>20.39999961853</ele>
        <time>2021-05-09T09:25:20.000Z</time>
      </trkpt>
      <trkpt lat="47.3062" lon="-2.31498">
        <ele>20.39999961853</ele>
        <time>2021-05-09T09:25:27.000Z</time>
      </trkpt>
      <trkpt lat="47.30645" lon="-2.31558">
        <ele>20</ele>
        <time>2021-05-09T09:25:34.000Z</time>
      </trkpt>
      <trkpt lat="47.30649" lon="-2.31567">
        <ele>19.60000038147</ele>
        <time>2021-05-09T09:25:35.000Z</time>
      </trkpt>
      <trkpt lat="47.30653" lon="-2.31576">
        <ele>19.200000762939</ele>
        <time>2021-05-09T09:25:36.000Z</time>
      </trkpt>
      <trkpt lat="47.30657" lon="-2.31585">
        <ele>18.799999237061</ele>
        <time>2021-05-09T09:25:37.000Z</time>
      </trkpt>
      <trkpt lat="47.30661" lon="-2.31594">
        <ele>18.200000762939</ele>
        <time>2021-05-09T09:25:38.000Z</time>
      </trkpt>
      <trkpt lat="47.30678" lon="-2.31632">
        <ele>18.200000762939</ele>
        <time>2021-05-09T09:25:42.000Z</time>
      </trkpt>
      <trkpt lat="47.30693" lon="-2.31679">
        <ele>18.200000762939</ele>
        <time>2021-05-09T09:25:47.000Z</time>
      </trkpt>
      <trkpt lat="47.30707" lon="-2.31706">
        <ele>18.200000762939</ele>
        <time>2021-05-09T09:25:51.000Z</time>
      </trkpt>
      <trkpt lat="47.3071" lon="-2.31713">
        <ele>18.200000762939</ele>
        <time>2021-05-09T09:25:52.000Z</time>
      </trkpt>
      <trkpt lat="47.30725" lon="-2.31753">
        <ele>18.200000762939</ele>
        <time>2021-05-09T09:25:58.000Z</time>
      </trkpt>
      <trkpt lat="47.30729" lon="-2.31759">
        <ele>18.200000762939</ele>
        <time>2021-05-09T09:25:59.000Z</time>
      </trkpt>
      <trkpt lat="47.30735" lon="-2.31764">
        <ele>17.799999237061</ele>
        <time>2021-05-09T09:26:01.000Z</time>
      </trkpt>
      <trkpt lat="47.30737" lon="-2.31763">
        <ele>17.39999961853</ele>
        <time>2021-05-09T09:26:02.000Z</time>
      </trkpt>
      <trkpt lat="47.30741" lon="-2.31763">
        <ele>17</ele>
        <time>2021-05-09T09:26:03.000Z</time>
      </trkpt>
      <trkpt lat="47.30744" lon="-2.31761">
        <ele>16.60000038147</ele>
        <time>2021-05-09T09:26:04.000Z</time>
      </trkpt>
      <trkpt lat="47.30748" lon="-2.31758">
        <ele>16.200000762939</ele>
        <time>2021-05-09T09:26:05.000Z</time>
      </trkpt>
      <trkpt lat="47.30752" lon="-2.31755">
        <ele>16.200000762939</ele>
        <time>2021-05-09T09:26:06.000Z</time>
      </trkpt>
      <trkpt lat="47.30759" lon="-2.31748">
        <ele>16.200000762939</ele>
        <time>2021-05-09T09:26:08.000Z</time>
      </trkpt>
      <trkpt lat="47.30771" lon="-2.31735">
        <ele>16.200000762939</ele>
        <time>2021-05-09T09:26:11.000Z</time>
      </trkpt>
      <trkpt lat="47.30775" lon="-2.3173">
        <ele>16.200000762939</ele>
        <time>2021-05-09T09:26:12.000Z</time>
      </trkpt>
      <trkpt lat="47.3079" lon="-2.3171">
        <ele>16.200000762939</ele>
        <time>2021-05-09T09:26:16.000Z</time>
      </trkpt>
      <trkpt lat="47.30794" lon="-2.31706">
        <ele>16.60000038147</ele>
        <time>2021-05-09T09:26:17.000Z</time>
      </trkpt>
      <trkpt lat="47.30798" lon="-2.31701">
        <ele>17</ele>
        <time>2021-05-09T09:26:18.000Z</time>
      </trkpt>
      <trkpt lat="47.30802" lon="-2.31696">
        <ele>17.39999961853</ele>
        <time>2021-05-09T09:26:19.000Z</time>
      </trkpt>
      <trkpt lat="47.30806" lon="-2.31691">
        <ele>18</ele>
        <time>2021-05-09T09:26:20.000Z</time>
      </trkpt>
      <trkpt lat="47.3081" lon="-2.31686">
        <ele>18.39999961853</ele>
        <time>2021-05-09T09:26:21.000Z</time>
      </trkpt>
      <trkpt lat="47.30827" lon="-2.31665">
        <ele>18.39999961853</ele>
        <time>2021-05-09T09:26:25.000Z</time>
      </trkpt>
      <trkpt lat="47.30835" lon="-2.31656">
        <ele>18.39999961853</ele>
        <time>2021-05-09T09:26:27.000Z</time>
      </trkpt>
      <trkpt lat="47.30843" lon="-2.31647">
        <ele>18.799999237061</ele>
        <time>2021-05-09T09:26:29.000Z</time>
      </trkpt>
      <trkpt lat="47.30848" lon="-2.31647">
        <ele>19.200000762939</ele>
        <time>2021-05-09T09:26:30.000Z</time>
      </trkpt>
      <trkpt lat="47.30852" lon="-2.31651">
        <ele>19.60000038147</ele>
        <time>2021-05-09T09:26:31.000Z</time>
      </trkpt>
      <trkpt lat="47.30856" lon="-2.31656">
        <ele>20</ele>
        <time>2021-05-09T09:26:32.000Z</time>
      </trkpt>
      <trkpt lat="47.3086" lon="-2.31661">
        <ele>20.39999961853</ele>
        <time>2021-05-09T09:26:33.000Z</time>
      </trkpt>
      <trkpt lat="47.30864" lon="-2.31667">
        <ele>20.39999961853</ele>
        <time>2021-05-09T09:26:34.000Z</time>
      </trkpt>
      <trkpt lat="47.30891" lon="-2.31699">
        <ele>20.39999961853</ele>
        <time>2021-05-09T09:26:40.000Z</time>
      </trkpt>
      <trkpt lat="47.30918" lon="-2.31734">
        <ele>20.39999961853</ele>
        <time>2021-05-09T09:26:46.000Z</time>
      </trkpt>
      <trkpt lat="47.30952" lon="-2.31772">
        <ele>20.39999961853</ele>
        <time>2021-05-09T09:26:53.000Z</time>
      </trkpt>
      <trkpt lat="47.30991" lon="-2.31812">
        <ele>20.39999961853</ele>
        <time>2021-05-09T09:27:01.000Z</time>
      </trkpt>
      <trkpt lat="47.31002" lon="-2.31825">
        <ele>20.39999961853</ele>
        <time>2021-05-09T09:27:04.000Z</time>
      </trkpt>
      <trkpt lat="47.31003" lon="-2.3184">
        <ele>20.39999961853</ele>
        <time>2021-05-09T09:27:06.000Z</time>
      </trkpt>
      <trkpt lat="47.30995" lon="-2.31862">
        <ele>20.39999961853</ele>
        <time>2021-05-09T09:27:09.000Z</time>
      </trkpt>
      <trkpt lat="47.30992" lon="-2.31868">
        <ele>20.39999961853</ele>
        <time>2021-05-09T09:27:10.000Z</time>
      </trkpt>
      <trkpt lat="47.30988" lon="-2.31883">
        <ele>20.39999961853</ele>
        <time>2021-05-09T09:27:12.000Z</time>
      </trkpt>
      <trkpt lat="47.30986" lon="-2.31898">
        <ele>20.39999961853</ele>
        <time>2021-05-09T09:27:14.000Z</time>
      </trkpt>
      <trkpt lat="47.30973" lon="-2.31931">
        <ele>20.39999961853</ele>
        <time>2021-05-09T09:27:19.000Z</time>
      </trkpt>
      <trkpt lat="47.30966" lon="-2.31953">
        <ele>20.39999961853</ele>
        <time>2021-05-09T09:27:22.000Z</time>
      </trkpt>
      <trkpt lat="47.30967" lon="-2.31967">
        <ele>20.39999961853</ele>
        <time>2021-05-09T09:27:24.000Z</time>
      </trkpt>
      <trkpt lat="47.30976" lon="-2.31993">
        <ele>20.39999961853</ele>
        <time>2021-05-09T09:27:28.000Z</time>
      </trkpt>
      <trkpt lat="47.30997" lon="-2.32041">
        <ele>20.39999961853</ele>
        <time>2021-05-09T09:27:36.000Z</time>
      </trkpt>
      <trkpt lat="47.31021" lon="-2.32084">
        <ele>20.39999961853</ele>
        <time>2021-05-09T09:27:44.000Z</time>
      </trkpt>
      <trkpt lat="47.31041" lon="-2.32114">
        <ele>20.39999961853</ele>
        <time>2021-05-09T09:27:50.000Z</time>
      </trkpt>
      <trkpt lat="47.31053" lon="-2.3213">
        <ele>20.799999237061</ele>
        <time>2021-05-09T09:27:53.000Z</time>
      </trkpt>
      <trkpt lat="47.31057" lon="-2.32135">
        <ele>21.200000762939</ele>
        <time>2021-05-09T09:27:54.000Z</time>
      </trkpt>
      <trkpt lat="47.3106" lon="-2.32142">
        <ele>21.60000038147</ele>
        <time>2021-05-09T09:27:55.000Z</time>
      </trkpt>
      <trkpt lat="47.31063" lon="-2.32149">
        <ele>22</ele>
        <time>2021-05-09T09:27:56.000Z</time>
      </trkpt>
      <trkpt lat="47.31066" lon="-2.32155">
        <ele>22.39999961853</ele>
        <time>2021-05-09T09:27:57.000Z</time>
      </trkpt>
      <trkpt lat="47.31081" lon="-2.32181">
        <ele>22.39999961853</ele>
        <time>2021-05-09T09:28:02.000Z</time>
      </trkpt>
      <trkpt lat="47.31094" lon="-2.32212">
        <ele>22.39999961853</ele>
        <time>2021-05-09T09:28:08.000Z</time>
      </trkpt>
      <trkpt lat="47.31099" lon="-2.32225">
        <ele>23</ele>
        <time>2021-05-09T09:28:11.000Z</time>
      </trkpt>
      <trkpt lat="47.311" lon="-2.3223">
        <ele>23.39999961853</ele>
        <time>2021-05-09T09:28:12.000Z</time>
      </trkpt>
      <trkpt lat="47.31102" lon="-2.32235">
        <ele>23.799999237061</ele>
        <time>2021-05-09T09:28:13.000Z</time>
      </trkpt>
      <trkpt lat="47.31104" lon="-2.32239">
        <ele>24.200000762939</ele>
        <time>2021-05-09T09:28:14.000Z</time>
      </trkpt>
      <trkpt lat="47.31105" lon="-2.32244">
        <ele>24.60000038147</ele>
        <time>2021-05-09T09:28:15.000Z</time>
      </trkpt>
      <trkpt lat="47.31114" lon="-2.32263">
        <ele>24.60000038147</ele>
        <time>2021-05-09T09:28:19.000Z</time>
      </trkpt>
      <trkpt lat="47.31119" lon="-2.32271">
        <ele>25</ele>
        <time>2021-05-09T09:28:21.000Z</time>
      </trkpt>
      <trkpt lat="47.31121" lon="-2.32275">
        <ele>25.39999961853</ele>
        <time>2021-05-09T09:28:22.000Z</time>
      </trkpt>
      <trkpt lat="47.31123" lon="-2.3228">
        <ele>25.799999237061</ele>
        <time>2021-05-09T09:28:23.000Z</time>
      </trkpt>
      <trkpt lat="47.31126" lon="-2.32285">
        <ele>26.200000762939</ele>
        <time>2021-05-09T09:28:24.000Z</time>
      </trkpt>
      <trkpt lat="47.31128" lon="-2.3229">
        <ele>26.60000038147</ele>
        <time>2021-05-09T09:28:25.000Z</time>
      </trkpt>
      <trkpt lat="47.31137" lon="-2.32324">
        <ele>26.60000038147</ele>
        <time>2021-05-09T09:28:31.000Z</time>
      </trkpt>
      <trkpt lat="47.31142" lon="-2.32357">
        <ele>27</ele>
        <time>2021-05-09T09:28:37.000Z</time>
      </trkpt>
      <trkpt lat="47.31143" lon="-2.32362">
        <ele>27.39999961853</ele>
        <time>2021-05-09T09:28:38.000Z</time>
      </trkpt>
      <trkpt lat="47.31143" lon="-2.32368">
        <ele>27.799999237061</ele>
        <time>2021-05-09T09:28:39.000Z</time>
      </trkpt>
      <trkpt lat="47.31144" lon="-2.32373">
        <ele>28.39999961853</ele>
        <time>2021-05-09T09:28:40.000Z</time>
      </trkpt>
      <trkpt lat="47.31144" lon="-2.32378">
        <ele>28.799999237061</ele>
        <time>2021-05-09T09:28:41.000Z</time>
      </trkpt>
      <trkpt lat="47.31145" lon="-2.32393">
        <ele>28.799999237061</ele>
        <time>2021-05-09T09:28:44.000Z</time>
      </trkpt>
      <trkpt lat="47.31151" lon="-2.32421">
        <ele>28.799999237061</ele>
        <time>2021-05-09T09:28:50.000Z</time>
      </trkpt>
      <trkpt lat="47.31157" lon="-2.32423">
        <ele>28.799999237061</ele>
        <time>2021-05-09T09:28:52.000Z</time>
      </trkpt>
      <trkpt lat="47.31163" lon="-2.32425">
        <ele>28.799999237061</ele>
        <time>2021-05-09T09:28:54.000Z</time>
      </trkpt>
      <trkpt lat="47.31181" lon="-2.32435">
        <ele>28.799999237061</ele>
        <time>2021-05-09T09:29:00.000Z</time>
      </trkpt>
      <trkpt lat="47.312" lon="-2.32423">
        <ele>28.799999237061</ele>
        <time>2021-05-09T09:29:05.000Z</time>
      </trkpt>
      <trkpt lat="47.3121" lon="-2.32417">
        <ele>29.200000762939</ele>
        <time>2021-05-09T09:29:07.000Z</time>
      </trkpt>
      <trkpt lat="47.31215" lon="-2.32415">
        <ele>29.60000038147</ele>
        <time>2021-05-09T09:29:08.000Z</time>
      </trkpt>
      <trkpt lat="47.31219" lon="-2.32412">
        <ele>30</ele>
        <time>2021-05-09T09:29:09.000Z</time>
      </trkpt>
      <trkpt lat="47.31224" lon="-2.32409">
        <ele>30.39999961853</ele>
        <time>2021-05-09T09:29:10.000Z</time>
      </trkpt>
      <trkpt lat="47.31229" lon="-2.32406">
        <ele>30.799999237061</ele>
        <time>2021-05-09T09:29:11.000Z</time>
      </trkpt>
      <trkpt lat="47.31241" lon="-2.32398">
        <ele>30.799999237061</ele>
        <time>2021-05-09T09:29:15.000Z</time>
      </trkpt>
      <trkpt lat="47.31242" lon="-2.32398">
        <ele>30.799999237061</ele>
        <time>2021-05-09T09:29:16.000Z</time>
      </trkpt>
      <trkpt lat="47.31242" lon="-2.32399">
        <ele>30.799999237061</ele>
        <time>2021-05-09T09:29:18.000Z</time>
      </trkpt>
      <trkpt lat="47.31241" lon="-2.32401">
        <ele>30.799999237061</ele>
        <time>2021-05-09T09:29:19.000Z</time>
      </trkpt>
      <trkpt lat="47.31241" lon="-2.324">
        <ele>30.799999237061</ele>
        <time>2021-05-09T09:29:20.000Z</time>
      </trkpt>
      <trkpt lat="47.31238" lon="-2.32402">
        <ele>30.799999237061</ele>
        <time>2021-05-09T09:29:23.000Z</time>
      </trkpt>
      <trkpt lat="47.31236" lon="-2.32403">
        <ele>30.799999237061</ele>
        <time>2021-05-09T09:29:24.000Z</time>
      </trkpt>
      <trkpt lat="47.31221" lon="-2.32412">
        <ele>30.799999237061</ele>
        <time>2021-05-09T09:29:30.000Z</time>
      </trkpt>
      <trkpt lat="47.31212" lon="-2.32415">
        <ele>30.799999237061</ele>
        <time>2021-05-09T09:29:34.000Z</time>
      </trkpt>
      <trkpt lat="47.31212" lon="-2.32415">
        <ele>30.799999237061</ele>
        <time>2021-05-09T09:29:35.000Z</time>
      </trkpt>
      <trkpt lat="47.31214" lon="-2.32417">
        <ele>30.799999237061</ele>
        <time>2021-05-09T09:29:50.000Z</time>
      </trkpt>
      <trkpt lat="47.31217" lon="-2.32413">
        <ele>30.799999237061</ele>
        <time>2021-05-09T09:29:52.000Z</time>
      </trkpt>
      <trkpt lat="47.31231" lon="-2.32403">
        <ele>30.799999237061</ele>
        <time>2021-05-09T09:29:56.000Z</time>
      </trkpt>
      <trkpt lat="47.31252" lon="-2.32388">
        <ele>30.799999237061</ele>
        <time>2021-05-09T09:30:00.000Z</time>
      </trkpt>
      <trkpt lat="47.31286" lon="-2.32354">
        <ele>30.799999237061</ele>
        <time>2021-05-09T09:30:06.000Z</time>
      </trkpt>
      <trkpt lat="47.31314" lon="-2.32323">
        <ele>30.799999237061</ele>
        <time>2021-05-09T09:30:11.000Z</time>
      </trkpt>
      <trkpt lat="47.31347" lon="-2.32294">
        <ele>30.39999961853</ele>
        <time>2021-05-09T09:30:17.000Z</time>
      </trkpt>
      <trkpt lat="47.31352" lon="-2.3229">
        <ele>30</ele>
        <time>2021-05-09T09:30:18.000Z</time>
      </trkpt>
      <trkpt lat="47.31358" lon="-2.32287">
        <ele>29.60000038147</ele>
        <time>2021-05-09T09:30:19.000Z</time>
      </trkpt>
      <trkpt lat="47.31363" lon="-2.32284">
        <ele>29.200000762939</ele>
        <time>2021-05-09T09:30:20.000Z</time>
      </trkpt>
      <trkpt lat="47.31369" lon="-2.32282">
        <ele>28.799999237061</ele>
        <time>2021-05-09T09:30:21.000Z</time>
      </trkpt>
      <trkpt lat="47.31387" lon="-2.32275">
        <ele>28.799999237061</ele>
        <time>2021-05-09T09:30:24.000Z</time>
      </trkpt>
      <trkpt lat="47.31422" lon="-2.32268">
        <ele>28.799999237061</ele>
        <time>2021-05-09T09:30:30.000Z</time>
      </trkpt>
      <trkpt lat="47.31432" lon="-2.32266">
        <ele>28.799999237061</ele>
        <time>2021-05-09T09:30:32.000Z</time>
      </trkpt>
      <trkpt lat="47.31448" lon="-2.32257">
        <ele>28.799999237061</ele>
        <time>2021-05-09T09:30:35.000Z</time>
      </trkpt>
      <trkpt lat="47.31458" lon="-2.32239">
        <ele>28.799999237061</ele>
        <time>2021-05-09T09:30:38.000Z</time>
      </trkpt>
      <trkpt lat="47.31461" lon="-2.32233">
        <ele>29.200000762939</ele>
        <time>2021-05-09T09:30:39.000Z</time>
      </trkpt>
      <trkpt lat="47.31463" lon="-2.32226">
        <ele>29.60000038147</ele>
        <time>2021-05-09T09:30:40.000Z</time>
      </trkpt>
      <trkpt lat="47.31466" lon="-2.32219">
        <ele>30</ele>
        <time>2021-05-09T09:30:41.000Z</time>
      </trkpt>
      <trkpt lat="47.31469" lon="-2.32212">
        <ele>30.60000038147</ele>
        <time>2021-05-09T09:30:42.000Z</time>
      </trkpt>
      <trkpt lat="47.31471" lon="-2.32206">
        <ele>31</ele>
        <time>2021-05-09T09:30:43.000Z</time>
      </trkpt>
      <trkpt lat="47.31481" lon="-2.3218">
        <ele>31</ele>
        <time>2021-05-09T09:30:47.000Z</time>
      </trkpt>
      <trkpt lat="47.3149" lon="-2.32171">
        <ele>31</ele>
        <time>2021-05-09T09:30:50.000Z</time>
      </trkpt>
      <trkpt lat="47.31496" lon="-2.32176">
        <ele>31</ele>
        <time>2021-05-09T09:30:52.000Z</time>
      </trkpt>
      <trkpt lat="47.31503" lon="-2.32181">
        <ele>31</ele>
        <time>2021-05-09T09:30:54.000Z</time>
      </trkpt>
      <trkpt lat="47.31513" lon="-2.32179">
        <ele>31</ele>
        <time>2021-05-09T09:30:57.000Z</time>
      </trkpt>
      <trkpt lat="47.31514" lon="-2.32164">
        <ele>31</ele>
        <time>2021-05-09T09:31:00.000Z</time>
      </trkpt>
      <trkpt lat="47.31506" lon="-2.32148">
        <ele>31</ele>
        <time>2021-05-09T09:31:03.000Z</time>
      </trkpt>
      <trkpt lat="47.31503" lon="-2.32142">
        <ele>31</ele>
        <time>2021-05-09T09:31:04.000Z</time>
      </trkpt>
      <trkpt lat="47.31497" lon="-2.3213">
        <ele>31</ele>
        <time>2021-05-09T09:31:06.000Z</time>
      </trkpt>
      <trkpt lat="47.31494" lon="-2.32111">
        <ele>31</ele>
        <time>2021-05-09T09:31:09.000Z</time>
      </trkpt>
      <trkpt lat="47.31499" lon="-2.32107">
        <ele>31</ele>
        <time>2021-05-09T09:31:12.000Z</time>
      </trkpt>
      <trkpt lat="47.31505" lon="-2.32106">
        <ele>31</ele>
        <time>2021-05-09T09:31:16.000Z</time>
      </trkpt>
      <trkpt lat="47.31507" lon="-2.32108">
        <ele>31</ele>
        <time>2021-05-09T09:31:17.000Z</time>
      </trkpt>
      <trkpt lat="47.31519" lon="-2.32113">
        <ele>31</ele>
        <time>2021-05-09T09:31:20.000Z</time>
      </trkpt>
      <trkpt lat="47.31533" lon="-2.32115">
        <ele>31</ele>
        <time>2021-05-09T09:31:23.000Z</time>
      </trkpt>
      <trkpt lat="47.31544" lon="-2.32117">
        <ele>31</ele>
        <time>2021-05-09T09:31:25.000Z</time>
      </trkpt>
      <trkpt lat="47.31559" lon="-2.3212">
        <ele>31</ele>
        <time>2021-05-09T09:31:28.000Z</time>
      </trkpt>
      <trkpt lat="47.31565" lon="-2.32121">
        <ele>31.39999961853</ele>
        <time>2021-05-09T09:31:29.000Z</time>
      </trkpt>
      <trkpt lat="47.3157" lon="-2.32123">
        <ele>31.799999237061</ele>
        <time>2021-05-09T09:31:30.000Z</time>
      </trkpt>
      <trkpt lat="47.31575" lon="-2.32124">
        <ele>32.200000762939</ele>
        <time>2021-05-09T09:31:31.000Z</time>
      </trkpt>
      <trkpt lat="47.31581" lon="-2.32126">
        <ele>32.599998474121</ele>
        <time>2021-05-09T09:31:32.000Z</time>
      </trkpt>
      <trkpt lat="47.31586" lon="-2.32127">
        <ele>33</ele>
        <time>2021-05-09T09:31:33.000Z</time>
      </trkpt>
      <trkpt lat="47.31618" lon="-2.32136">
        <ele>33</ele>
        <time>2021-05-09T09:31:39.000Z</time>
      </trkpt>
      <trkpt lat="47.31654" lon="-2.32145">
        <ele>33</ele>
        <time>2021-05-09T09:31:46.000Z</time>
      </trkpt>
      <trkpt lat="47.31685" lon="-2.32154">
        <ele>33</ele>
        <time>2021-05-09T09:31:52.000Z</time>
      </trkpt>
      <trkpt lat="47.31701" lon="-2.32158">
        <ele>33.400001525879</ele>
        <time>2021-05-09T09:31:55.000Z</time>
      </trkpt>
      <trkpt lat="47.31706" lon="-2.3216">
        <ele>33.799999237061</ele>
        <time>2021-05-09T09:31:56.000Z</time>
      </trkpt>
      <trkpt lat="47.31711" lon="-2.32162">
        <ele>34.200000762939</ele>
        <time>2021-05-09T09:31:57.000Z</time>
      </trkpt>
      <trkpt lat="47.31716" lon="-2.32163">
        <ele>34.599998474121</ele>
        <time>2021-05-09T09:31:58.000Z</time>
      </trkpt>
      <trkpt lat="47.31722" lon="-2.32164">
        <ele>35</ele>
        <time>2021-05-09T09:31:59.000Z</time>
      </trkpt>
      <trkpt lat="47.31767" lon="-2.32175">
        <ele>35</ele>
        <time>2021-05-09T09:32:07.000Z</time>
      </trkpt>
      <trkpt lat="47.31806" lon="-2.32184">
        <ele>35</ele>
        <time>2021-05-09T09:32:13.000Z</time>
      </trkpt>
      <trkpt lat="47.31812" lon="-2.32185">
        <ele>34.599998474121</ele>
        <time>2021-05-09T09:32:14.000Z</time>
      </trkpt>
      <trkpt lat="47.3182" lon="-2.32186">
        <ele>34.200000762939</ele>
        <time>2021-05-09T09:32:15.000Z</time>
      </trkpt>
      <trkpt lat="47.31827" lon="-2.32188">
        <ele>33.799999237061</ele>
        <time>2021-05-09T09:32:16.000Z</time>
      </trkpt>
      <trkpt lat="47.31834" lon="-2.32189">
        <ele>33.400001525879</ele>
        <time>2021-05-09T09:32:17.000Z</time>
      </trkpt>
      <trkpt lat="47.31841" lon="-2.32191">
        <ele>33</ele>
        <time>2021-05-09T09:32:18.000Z</time>
      </trkpt>
      <trkpt lat="47.31856" lon="-2.32194">
        <ele>33</ele>
        <time>2021-05-09T09:32:20.000Z</time>
      </trkpt>
      <trkpt lat="47.31863" lon="-2.32195">
        <ele>32.400001525879</ele>
        <time>2021-05-09T09:32:21.000Z</time>
      </trkpt>
      <trkpt lat="47.3187" lon="-2.32197">
        <ele>32</ele>
        <time>2021-05-09T09:32:22.000Z</time>
      </trkpt>
      <trkpt lat="47.31876" lon="-2.32198">
        <ele>31.60000038147</ele>
        <time>2021-05-09T09:32:23.000Z</time>
      </trkpt>
      <trkpt lat="47.31882" lon="-2.32199">
        <ele>31.200000762939</ele>
        <time>2021-05-09T09:32:24.000Z</time>
      </trkpt>
      <trkpt lat="47.31887" lon="-2.32199">
        <ele>30.60000038147</ele>
        <time>2021-05-09T09:32:25.000Z</time>
      </trkpt>
      <trkpt lat="47.31891" lon="-2.322">
        <ele>30.200000762939</ele>
        <time>2021-05-09T09:32:26.000Z</time>
      </trkpt>
      <trkpt lat="47.31893" lon="-2.32202">
        <ele>29.60000038147</ele>
        <time>2021-05-09T09:32:27.000Z</time>
      </trkpt>
      <trkpt lat="47.31893" lon="-2.32206">
        <ele>29.200000762939</ele>
        <time>2021-05-09T09:32:28.000Z</time>
      </trkpt>
      <trkpt lat="47.31891" lon="-2.32209">
        <ele>28.60000038147</ele>
        <time>2021-05-09T09:32:29.000Z</time>
      </trkpt>
      <trkpt lat="47.31888" lon="-2.32211">
        <ele>28.200000762939</ele>
        <time>2021-05-09T09:32:30.000Z</time>
      </trkpt>
      <trkpt lat="47.31884" lon="-2.32211">
        <ele>27.799999237061</ele>
        <time>2021-05-09T09:32:31.000Z</time>
      </trkpt>
      <trkpt lat="47.31881" lon="-2.32212">
        <ele>27.39999961853</ele>
        <time>2021-05-09T09:32:32.000Z</time>
      </trkpt>
      <trkpt lat="47.31876" lon="-2.32214">
        <ele>26.60000038147</ele>
        <time>2021-05-09T09:32:33.000Z</time>
      </trkpt>
      <trkpt lat="47.31863" lon="-2.32218">
        <ele>26.60000038147</ele>
        <time>2021-05-09T09:32:36.000Z</time>
      </trkpt>
      <trkpt lat="47.31858" lon="-2.3222">
        <ele>26.60000038147</ele>
        <time>2021-05-09T09:32:37.000Z</time>
      </trkpt>
      <trkpt lat="47.31845" lon="-2.32224">
        <ele>27</ele>
        <time>2021-05-09T09:32:40.000Z</time>
      </trkpt>
      <trkpt lat="47.3184" lon="-2.32226">
        <ele>27.39999961853</ele>
        <time>2021-05-09T09:32:41.000Z</time>
      </trkpt>
      <trkpt lat="47.31835" lon="-2.32227">
        <ele>27.799999237061</ele>
        <time>2021-05-09T09:32:42.000Z</time>
      </trkpt>
      <trkpt lat="47.3183" lon="-2.32228">
        <ele>28.200000762939</ele>
        <time>2021-05-09T09:32:43.000Z</time>
      </trkpt>
      <trkpt lat="47.31825" lon="-2.32228">
        <ele>28.60000038147</ele>
        <time>2021-05-09T09:32:44.000Z</time>
      </trkpt>
      <trkpt lat="47.31815" lon="-2.32229">
        <ele>28.60000038147</ele>
        <time>2021-05-09T09:32:46.000Z</time>
      </trkpt>
      <trkpt lat="47.31811" lon="-2.32229">
        <ele>29</ele>
        <time>2021-05-09T09:32:47.000Z</time>
      </trkpt>
      <trkpt lat="47.31806" lon="-2.32229">
        <ele>29.60000038147</ele>
        <time>2021-05-09T09:32:48.000Z</time>
      </trkpt>
      <trkpt lat="47.318" lon="-2.3223">
        <ele>30</ele>
        <time>2021-05-09T09:32:49.000Z</time>
      </trkpt>
      <trkpt lat="47.31795" lon="-2.3223">
        <ele>30.39999961853</ele>
        <time>2021-05-09T09:32:50.000Z</time>
      </trkpt>
      <trkpt lat="47.3179" lon="-2.32231">
        <ele>30.799999237061</ele>
        <time>2021-05-09T09:32:51.000Z</time>
      </trkpt>
      <trkpt lat="47.31765" lon="-2.32233">
        <ele>31.200000762939</ele>
        <time>2021-05-09T09:32:56.000Z</time>
      </trkpt>
      <trkpt lat="47.3176" lon="-2.32234">
        <ele>31.60000038147</ele>
        <time>2021-05-09T09:32:57.000Z</time>
      </trkpt>
      <trkpt lat="47.31756" lon="-2.32236">
        <ele>32.599998474121</ele>
        <time>2021-05-09T09:32:58.000Z</time>
      </trkpt>
      <trkpt lat="47.31753" lon="-2.3224">
        <ele>33</ele>
        <time>2021-05-09T09:32:59.000Z</time>
      </trkpt>
      <trkpt lat="47.31752" lon="-2.32245">
        <ele>33</ele>
        <time>2021-05-09T09:33:00.000Z</time>
      </trkpt>
      <trkpt lat="47.31756" lon="-2.32264">
        <ele>33</ele>
        <time>2021-05-09T09:33:03.000Z</time>
      </trkpt>
      <trkpt lat="47.31764" lon="-2.32308">
        <ele>33</ele>
        <time>2021-05-09T09:33:08.000Z</time>
      </trkpt>
      <trkpt lat="47.31777" lon="-2.32371">
        <ele>33</ele>
        <time>2021-05-09T09:33:15.000Z</time>
      </trkpt>
      <trkpt lat="47.31786" lon="-2.32416">
        <ele>32.599998474121</ele>
        <time>2021-05-09T09:33:20.000Z</time>
      </trkpt>
      <trkpt lat="47.31787" lon="-2.32425">
        <ele>32.200000762939</ele>
        <time>2021-05-09T09:33:21.000Z</time>
      </trkpt>
      <trkpt lat="47.31788" lon="-2.32433">
        <ele>31.60000038147</ele>
        <time>2021-05-09T09:33:22.000Z</time>
      </trkpt>
      <trkpt lat="47.31789" lon="-2.32441">
        <ele>30.799999237061</ele>
        <time>2021-05-09T09:33:23.000Z</time>
      </trkpt>
      <trkpt lat="47.3179" lon="-2.32456">
        <ele>30.799999237061</ele>
        <time>2021-05-09T09:33:25.000Z</time>
      </trkpt>
      <trkpt lat="47.31793" lon="-2.32471">
        <ele>30.39999961853</ele>
        <time>2021-05-09T09:33:27.000Z</time>
      </trkpt>
      <trkpt lat="47.31795" lon="-2.32478">
        <ele>30</ele>
        <time>2021-05-09T09:33:28.000Z</time>
      </trkpt>
      <trkpt lat="47.31797" lon="-2.32486">
        <ele>29.60000038147</ele>
        <time>2021-05-09T09:33:29.000Z</time>
      </trkpt>
      <trkpt lat="47.31799" lon="-2.32494">
        <ele>29.200000762939</ele>
        <time>2021-05-09T09:33:30.000Z</time>
      </trkpt>
      <trkpt lat="47.31801" lon="-2.32502">
        <ele>28.799999237061</ele>
        <time>2021-05-09T09:33:31.000Z</time>
      </trkpt>
      <trkpt lat="47.31803" lon="-2.32511">
        <ele>28.39999961853</ele>
        <time>2021-05-09T09:33:32.000Z</time>
      </trkpt>
      <trkpt lat="47.31806" lon="-2.3252">
        <ele>28</ele>
        <time>2021-05-09T09:33:33.000Z</time>
      </trkpt>
      <trkpt lat="47.31808" lon="-2.32528">
        <ele>27.39999961853</ele>
        <time>2021-05-09T09:33:34.000Z</time>
      </trkpt>
      <trkpt lat="47.31811" lon="-2.32538">
        <ele>27</ele>
        <time>2021-05-09T09:33:35.000Z</time>
      </trkpt>
      <trkpt lat="47.31813" lon="-2.32548">
        <ele>26.60000038147</ele>
        <time>2021-05-09T09:33:36.000Z</time>
      </trkpt>
      <trkpt lat="47.31821" lon="-2.32586">
        <ele>26.200000762939</ele>
        <time>2021-05-09T09:33:40.000Z</time>
      </trkpt>
      <trkpt lat="47.31823" lon="-2.32596">
        <ele>25.799999237061</ele>
        <time>2021-05-09T09:33:41.000Z</time>
      </trkpt>
      <trkpt lat="47.31826" lon="-2.32606">
        <ele>25.39999961853</ele>
        <time>2021-05-09T09:33:42.000Z</time>
      </trkpt>
      <trkpt lat="47.31828" lon="-2.32615">
        <ele>25</ele>
        <time>2021-05-09T09:33:43.000Z</time>
      </trkpt>
      <trkpt lat="47.3183" lon="-2.32625">
        <ele>24.60000038147</ele>
        <time>2021-05-09T09:33:44.000Z</time>
      </trkpt>
      <trkpt lat="47.31842" lon="-2.32661">
        <ele>24.200000762939</ele>
        <time>2021-05-09T09:33:48.000Z</time>
      </trkpt>
      <trkpt lat="47.31845" lon="-2.32669">
        <ele>23.799999237061</ele>
        <time>2021-05-09T09:33:49.000Z</time>
      </trkpt>
      <trkpt lat="47.31849" lon="-2.32679">
        <ele>23.39999961853</ele>
        <time>2021-05-09T09:33:50.000Z</time>
      </trkpt>
      <trkpt lat="47.31853" lon="-2.32687">
        <ele>23</ele>
        <time>2021-05-09T09:33:51.000Z</time>
      </trkpt>
      <trkpt lat="47.31856" lon="-2.32697">
        <ele>22.60000038147</ele>
        <time>2021-05-09T09:33:52.000Z</time>
      </trkpt>
      <trkpt lat="47.31868" lon="-2.32725">
        <ele>22.60000038147</ele>
        <time>2021-05-09T09:33:55.000Z</time>
      </trkpt>
      <trkpt lat="47.31877" lon="-2.3276">
        <ele>22.60000038147</ele>
        <time>2021-05-09T09:33:58.000Z</time>
      </trkpt>
      <trkpt lat="47.31879" lon="-2.32772">
        <ele>22.60000038147</ele>
        <time>2021-05-09T09:33:59.000Z</time>
      </trkpt>
      <trkpt lat="47.31883" lon="-2.32805">
        <ele>22</ele>
        <time>2021-05-09T09:34:02.000Z</time>
      </trkpt>
      <trkpt lat="47.31884" lon="-2.32815">
        <ele>21.60000038147</ele>
        <time>2021-05-09T09:34:03.000Z</time>
      </trkpt>
      <trkpt lat="47.31885" lon="-2.32826">
        <ele>21.200000762939</ele>
        <time>2021-05-09T09:34:04.000Z</time>
      </trkpt>
      <trkpt lat="47.31886" lon="-2.32836">
        <ele>20.799999237061</ele>
        <time>2021-05-09T09:34:05.000Z</time>
      </trkpt>
      <trkpt lat="47.31887" lon="-2.32847">
        <ele>20.39999961853</ele>
        <time>2021-05-09T09:34:06.000Z</time>
      </trkpt>
      <trkpt lat="47.31889" lon="-2.32917">
        <ele>20.39999961853</ele>
        <time>2021-05-09T09:34:13.000Z</time>
      </trkpt>
      <trkpt lat="47.31883" lon="-2.32974">
        <ele>20.39999961853</ele>
        <time>2021-05-09T09:34:19.000Z</time>
      </trkpt>
      <trkpt lat="47.31881" lon="-2.33006">
        <ele>20.39999961853</ele>
        <time>2021-05-09T09:34:22.000Z</time>
      </trkpt>
      <trkpt lat="47.31882" lon="-2.33016">
        <ele>20.39999961853</ele>
        <time>2021-05-09T09:34:23.000Z</time>
      </trkpt>
      <trkpt lat="47.31883" lon="-2.33037">
        <ele>20</ele>
        <time>2021-05-09T09:34:25.000Z</time>
      </trkpt>
      <trkpt lat="47.31883" lon="-2.33048">
        <ele>19.60000038147</ele>
        <time>2021-05-09T09:34:26.000Z</time>
      </trkpt>
      <trkpt lat="47.31882" lon="-2.33058">
        <ele>19.200000762939</ele>
        <time>2021-05-09T09:34:27.000Z</time>
      </trkpt>
      <trkpt lat="47.31882" lon="-2.33067">
        <ele>18.799999237061</ele>
        <time>2021-05-09T09:34:28.000Z</time>
      </trkpt>
      <trkpt lat="47.31883" lon="-2.33076">
        <ele>18.39999961853</ele>
        <time>2021-05-09T09:34:29.000Z</time>
      </trkpt>
      <trkpt lat="47.31882" lon="-2.33092">
        <ele>18.39999961853</ele>
        <time>2021-05-09T09:34:31.000Z</time>
      </trkpt>
      <trkpt lat="47.31881" lon="-2.33114">
        <ele>18.39999961853</ele>
        <time>2021-05-09T09:34:34.000Z</time>
      </trkpt>
      <trkpt lat="47.3188" lon="-2.33127">
        <ele>18.39999961853</ele>
        <time>2021-05-09T09:34:36.000Z</time>
      </trkpt>
      <trkpt lat="47.31878" lon="-2.33144">
        <ele>18.799999237061</ele>
        <time>2021-05-09T09:34:39.000Z</time>
      </trkpt>
      <trkpt lat="47.31877" lon="-2.3315">
        <ele>19.200000762939</ele>
        <time>2021-05-09T09:34:40.000Z</time>
      </trkpt>
      <trkpt lat="47.31877" lon="-2.33155">
        <ele>19.60000038147</ele>
        <time>2021-05-09T09:34:41.000Z</time>
      </trkpt>
      <trkpt lat="47.31876" lon="-2.3316">
        <ele>20</ele>
        <time>2021-05-09T09:34:42.000Z</time>
      </trkpt>
      <trkpt lat="47.31876" lon="-2.33166">
        <ele>20.39999961853</ele>
        <time>2021-05-09T09:34:43.000Z</time>
      </trkpt>
      <trkpt lat="47.31874" lon="-2.33186">
        <ele>20.39999961853</ele>
        <time>2021-05-09T09:34:46.000Z</time>
      </trkpt>
      <trkpt lat="47.31872" lon="-2.33194">
        <ele>20.799999237061</ele>
        <time>2021-05-09T09:34:47.000Z</time>
      </trkpt>
      <trkpt lat="47.31871" lon="-2.33202">
        <ele>21.200000762939</ele>
        <time>2021-05-09T09:34:48.000Z</time>
      </trkpt>
      <trkpt lat="47.3187" lon="-2.33209">
        <ele>21.60000038147</ele>
        <time>2021-05-09T09:34:49.000Z</time>
      </trkpt>
      <trkpt lat="47.31869" lon="-2.33217">
        <ele>22</ele>
        <time>2021-05-09T09:34:50.000Z</time>
      </trkpt>
      <trkpt lat="47.31867" lon="-2.33224">
        <ele>22.60000038147</ele>
        <time>2021-05-09T09:34:51.000Z</time>
      </trkpt>
      <trkpt lat="47.3186" lon="-2.33245">
        <ele>22.60000038147</ele>
        <time>2021-05-09T09:34:54.000Z</time>
      </trkpt>
      <trkpt lat="47.31852" lon="-2.33262">
        <ele>22.60000038147</ele>
        <time>2021-05-09T09:34:57.000Z</time>
      </trkpt>
      <trkpt lat="47.31845" lon="-2.33273">
        <ele>22.60000038147</ele>
        <time>2021-05-09T09:34:59.000Z</time>
      </trkpt>
      <trkpt lat="47.31833" lon="-2.33285">
        <ele>23</ele>
        <time>2021-05-09T09:35:02.000Z</time>
      </trkpt>
      <trkpt lat="47.31829" lon="-2.33288">
        <ele>23.39999961853</ele>
        <time>2021-05-09T09:35:03.000Z</time>
      </trkpt>
      <trkpt lat="47.31825" lon="-2.33291">
        <ele>23.799999237061</ele>
        <time>2021-05-09T09:35:04.000Z</time>
      </trkpt>
      <trkpt lat="47.31821" lon="-2.33294">
        <ele>24.200000762939</ele>
        <time>2021-05-09T09:35:05.000Z</time>
      </trkpt>
      <trkpt lat="47.31817" lon="-2.33297">
        <ele>24.60000038147</ele>
        <time>2021-05-09T09:35:06.000Z</time>
      </trkpt>
      <trkpt lat="47.31805" lon="-2.33306">
        <ele>24.60000038147</ele>
        <time>2021-05-09T09:35:09.000Z</time>
      </trkpt>
      <trkpt lat="47.31802" lon="-2.33309">
        <ele>25</ele>
        <time>2021-05-09T09:35:10.000Z</time>
      </trkpt>
      <trkpt lat="47.31799" lon="-2.33311">
        <ele>25.39999961853</ele>
        <time>2021-05-09T09:35:11.000Z</time>
      </trkpt>
      <trkpt lat="47.31796" lon="-2.33314">
        <ele>25.799999237061</ele>
        <time>2021-05-09T09:35:12.000Z</time>
      </trkpt>
      <trkpt lat="47.31792" lon="-2.33317">
        <ele>26.200000762939</ele>
        <time>2021-05-09T09:35:13.000Z</time>
      </trkpt>
      <trkpt lat="47.31788" lon="-2.3332">
        <ele>26.60000038147</ele>
        <time>2021-05-09T09:35:14.000Z</time>
      </trkpt>
      <trkpt lat="47.31785" lon="-2.3332">
        <ele>26.60000038147</ele>
        <time>2021-05-09T09:35:15.000Z</time>
      </trkpt>
      <trkpt lat="47.3178" lon="-2.33319">
        <ele>27</ele>
        <time>2021-05-09T09:35:16.000Z</time>
      </trkpt>
      <trkpt lat="47.31777" lon="-2.33317">
        <ele>27.39999961853</ele>
        <time>2021-05-09T09:35:17.000Z</time>
      </trkpt>
      <trkpt lat="47.31774" lon="-2.33314">
        <ele>27.799999237061</ele>
        <time>2021-05-09T09:35:18.000Z</time>
      </trkpt>
      <trkpt lat="47.31771" lon="-2.3331">
        <ele>28.200000762939</ele>
        <time>2021-05-09T09:35:19.000Z</time>
      </trkpt>
      <trkpt lat="47.31768" lon="-2.33306">
        <ele>28.60000038147</ele>
        <time>2021-05-09T09:35:20.000Z</time>
      </trkpt>
      <trkpt lat="47.3176" lon="-2.33292">
        <ele>28.60000038147</ele>
        <time>2021-05-09T09:35:23.000Z</time>
      </trkpt>
      <trkpt lat="47.31754" lon="-2.33276">
        <ele>29</ele>
        <time>2021-05-09T09:35:26.000Z</time>
      </trkpt>
      <trkpt lat="47.31752" lon="-2.3327">
        <ele>29.799999237061</ele>
        <time>2021-05-09T09:35:27.000Z</time>
      </trkpt>
      <trkpt lat="47.31751" lon="-2.33264">
        <ele>30.200000762939</ele>
        <time>2021-05-09T09:35:28.000Z</time>
      </trkpt>
      <trkpt lat="47.3175" lon="-2.33259">
        <ele>30.799999237061</ele>
        <time>2021-05-09T09:35:29.000Z</time>
      </trkpt>
      <trkpt lat="47.31747" lon="-2.33255">
        <ele>30.799999237061</ele>
        <time>2021-05-09T09:35:30.000Z</time>
      </trkpt>
      <trkpt lat="47.31743" lon="-2.33254">
        <ele>30.799999237061</ele>
        <time>2021-05-09T09:35:31.000Z</time>
      </trkpt>
      <trkpt lat="47.31718" lon="-2.3326">
        <ele>30.799999237061</ele>
        <time>2021-05-09T09:35:36.000Z</time>
      </trkpt>
      <trkpt lat="47.31696" lon="-2.33268">
        <ele>31.200000762939</ele>
        <time>2021-05-09T09:35:41.000Z</time>
      </trkpt>
      <trkpt lat="47.31692" lon="-2.33269">
        <ele>31.60000038147</ele>
        <time>2021-05-09T09:35:42.000Z</time>
      </trkpt>
      <trkpt lat="47.31688" lon="-2.33271">
        <ele>32</ele>
        <time>2021-05-09T09:35:43.000Z</time>
      </trkpt>
      <trkpt lat="47.31684" lon="-2.33273">
        <ele>32.400001525879</ele>
        <time>2021-05-09T09:35:44.000Z</time>
      </trkpt>
      <trkpt lat="47.3168" lon="-2.33275">
        <ele>32.799999237061</ele>
        <time>2021-05-09T09:35:45.000Z</time>
      </trkpt>
      <trkpt lat="47.31666" lon="-2.33281">
        <ele>32.799999237061</ele>
        <time>2021-05-09T09:35:48.000Z</time>
      </trkpt>
      <trkpt lat="47.31652" lon="-2.33287">
        <ele>33.200000762939</ele>
        <time>2021-05-09T09:35:51.000Z</time>
      </trkpt>
      <trkpt lat="47.31647" lon="-2.33289">
        <ele>34</ele>
        <time>2021-05-09T09:35:52.000Z</time>
      </trkpt>
      <trkpt lat="47.31643" lon="-2.33291">
        <ele>34.400001525879</ele>
        <time>2021-05-09T09:35:53.000Z</time>
      </trkpt>
      <trkpt lat="47.31638" lon="-2.33293">
        <ele>34.799999237061</ele>
        <time>2021-05-09T09:35:54.000Z</time>
      </trkpt>
      <trkpt lat="47.31634" lon="-2.33294">
        <ele>34.799999237061</ele>
        <time>2021-05-09T09:35:55.000Z</time>
      </trkpt>
      <trkpt lat="47.3161" lon="-2.33307">
        <ele>34.799999237061</ele>
        <time>2021-05-09T09:36:00.000Z</time>
      </trkpt>
      <trkpt lat="47.31575" lon="-2.33328">
        <ele>34.799999237061</ele>
        <time>2021-05-09T09:36:07.000Z</time>
      </trkpt>
      <trkpt lat="47.3157" lon="-2.33331">
        <ele>34.799999237061</ele>
        <time>2021-05-09T09:36:08.000Z</time>
      </trkpt>
      <trkpt lat="47.31554" lon="-2.33337">
        <ele>34.799999237061</ele>
        <time>2021-05-09T09:36:11.000Z</time>
      </trkpt>
      <trkpt lat="47.31515" lon="-2.33357">
        <ele>34.799999237061</ele>
        <time>2021-05-09T09:36:19.000Z</time>
      </trkpt>
      <trkpt lat="47.3149" lon="-2.3337">
        <ele>34.799999237061</ele>
        <time>2021-05-09T09:36:25.000Z</time>
      </trkpt>
      <trkpt lat="47.31484" lon="-2.33374">
        <ele>34.799999237061</ele>
        <time>2021-05-09T09:36:29.000Z</time>
      </trkpt>
      <trkpt lat="47.31484" lon="-2.33374">
        <ele>34.799999237061</ele>
        <time>2021-05-09T09:36:30.000Z</time>
      </trkpt>
      <trkpt lat="47.31482" lon="-2.3337">
        <ele>34.799999237061</ele>
        <time>2021-05-09T09:37:40.000Z</time>
      </trkpt>
      <trkpt lat="47.3148" lon="-2.33365">
        <ele>34.799999237061</ele>
        <time>2021-05-09T09:37:42.000Z</time>
      </trkpt>
      <trkpt lat="47.3147" lon="-2.33349">
        <ele>34.799999237061</ele>
        <time>2021-05-09T09:37:46.000Z</time>
      </trkpt>
      <trkpt lat="47.31454" lon="-2.33317">
        <ele>34.799999237061</ele>
        <time>2021-05-09T09:37:51.000Z</time>
      </trkpt>
      <trkpt lat="47.31444" lon="-2.33298">
        <ele>34.799999237061</ele>
        <time>2021-05-09T09:37:54.000Z</time>
      </trkpt>
      <trkpt lat="47.3143" lon="-2.33282">
        <ele>34.799999237061</ele>
        <time>2021-05-09T09:37:57.000Z</time>
      </trkpt>
      <trkpt lat="47.31394" lon="-2.33253">
        <ele>34.799999237061</ele>
        <time>2021-05-09T09:38:04.000Z</time>
      </trkpt>
      <trkpt lat="47.31378" lon="-2.33244">
        <ele>34.799999237061</ele>
        <time>2021-05-09T09:38:07.000Z</time>
      </trkpt>
      <trkpt lat="47.31361" lon="-2.33232">
        <ele>34.799999237061</ele>
        <time>2021-05-09T09:38:10.000Z</time>
      </trkpt>
      <trkpt lat="47.31323" lon="-2.33197">
        <ele>34.799999237061</ele>
        <time>2021-05-09T09:38:17.000Z</time>
      </trkpt>
      <trkpt lat="47.31289" lon="-2.33169">
        <ele>34.799999237061</ele>
        <time>2021-05-09T09:38:23.000Z</time>
      </trkpt>
      <trkpt lat="47.31251" lon="-2.33153">
        <ele>34.799999237061</ele>
        <time>2021-05-09T09:38:29.000Z</time>
      </trkpt>
      <trkpt lat="47.3122" lon="-2.33151">
        <ele>34.799999237061</ele>
        <time>2021-05-09T09:38:34.000Z</time>
      </trkpt>
      <trkpt lat="47.31213" lon="-2.33152">
        <ele>34.400001525879</ele>
        <time>2021-05-09T09:38:35.000Z</time>
      </trkpt>
      <trkpt lat="47.31207" lon="-2.33153">
        <ele>34</ele>
        <time>2021-05-09T09:38:36.000Z</time>
      </trkpt>
      <trkpt lat="47.312" lon="-2.33155">
        <ele>33.599998474121</ele>
        <time>2021-05-09T09:38:37.000Z</time>
      </trkpt>
      <trkpt lat="47.31194" lon="-2.33158">
        <ele>33.200000762939</ele>
        <time>2021-05-09T09:38:38.000Z</time>
      </trkpt>
      <trkpt lat="47.31188" lon="-2.33161">
        <ele>32.799999237061</ele>
        <time>2021-05-09T09:38:39.000Z</time>
      </trkpt>
      <trkpt lat="47.31176" lon="-2.33169">
        <ele>32.799999237061</ele>
        <time>2021-05-09T09:38:41.000Z</time>
      </trkpt>
      <trkpt lat="47.31158" lon="-2.33179">
        <ele>32.799999237061</ele>
        <time>2021-05-09T09:38:44.000Z</time>
      </trkpt>
      <trkpt lat="47.31143" lon="-2.33189">
        <ele>32.799999237061</ele>
        <time>2021-05-09T09:38:47.000Z</time>
      </trkpt>
      <trkpt lat="47.31117" lon="-2.33202">
        <ele>32.799999237061</ele>
        <time>2021-05-09T09:38:52.000Z</time>
      </trkpt>
      <trkpt lat="47.31108" lon="-2.3321">
        <ele>32.799999237061</ele>
        <time>2021-05-09T09:38:54.000Z</time>
      </trkpt>
      <trkpt lat="47.31103" lon="-2.33224">
        <ele>32.799999237061</ele>
        <time>2021-05-09T09:38:56.000Z</time>
      </trkpt>
      <trkpt lat="47.311" lon="-2.33257">
        <ele>32.799999237061</ele>
        <time>2021-05-09T09:39:00.000Z</time>
      </trkpt>
      <trkpt lat="47.311" lon="-2.33266">
        <ele>32.799999237061</ele>
        <time>2021-05-09T09:39:01.000Z</time>
      </trkpt>
      <trkpt lat="47.31097" lon="-2.33323">
        <ele>32.799999237061</ele>
        <time>2021-05-09T09:39:07.000Z</time>
      </trkpt>
      <trkpt lat="47.31097" lon="-2.33371">
        <ele>33.200000762939</ele>
        <time>2021-05-09T09:39:12.000Z</time>
      </trkpt>
      <trkpt lat="47.31096" lon="-2.33381">
        <ele>33.599998474121</ele>
        <time>2021-05-09T09:39:13.000Z</time>
      </trkpt>
      <trkpt lat="47.31096" lon="-2.3339">
        <ele>34</ele>
        <time>2021-05-09T09:39:14.000Z</time>
      </trkpt>
      <trkpt lat="47.31096" lon="-2.334">
        <ele>34.599998474121</ele>
        <time>2021-05-09T09:39:15.000Z</time>
      </trkpt>
      <trkpt lat="47.31096" lon="-2.33409">
        <ele>35</ele>
        <time>2021-05-09T09:39:16.000Z</time>
      </trkpt>
      <trkpt lat="47.31096" lon="-2.33454">
        <ele>35</ele>
        <time>2021-05-09T09:39:21.000Z</time>
      </trkpt>
      <trkpt lat="47.31099" lon="-2.33505">
        <ele>35</ele>
        <time>2021-05-09T09:39:27.000Z</time>
      </trkpt>
      <trkpt lat="47.31101" lon="-2.33513">
        <ele>35.400001525879</ele>
        <time>2021-05-09T09:39:28.000Z</time>
      </trkpt>
      <trkpt lat="47.31102" lon="-2.33521">
        <ele>35.799999237061</ele>
        <time>2021-05-09T09:39:29.000Z</time>
      </trkpt>
      <trkpt lat="47.31105" lon="-2.33529">
        <ele>36.200000762939</ele>
        <time>2021-05-09T09:39:30.000Z</time>
      </trkpt>
      <trkpt lat="47.31107" lon="-2.33539">
        <ele>36.599998474121</ele>
        <time>2021-05-09T09:39:31.000Z</time>
      </trkpt>
      <trkpt lat="47.31109" lon="-2.33548">
        <ele>37</ele>
        <time>2021-05-09T09:39:32.000Z</time>
      </trkpt>
      <trkpt lat="47.31111" lon="-2.33566">
        <ele>37</ele>
        <time>2021-05-09T09:39:34.000Z</time>
      </trkpt>
      <trkpt lat="47.31113" lon="-2.33583">
        <ele>37</ele>
        <time>2021-05-09T09:39:36.000Z</time>
      </trkpt>
      <trkpt lat="47.31113" lon="-2.33611">
        <ele>37</ele>
        <time>2021-05-09T09:39:39.000Z</time>
      </trkpt>
      <trkpt lat="47.3111" lon="-2.33632">
        <ele>37</ele>
        <time>2021-05-09T09:39:41.000Z</time>
      </trkpt>
      <trkpt lat="47.31105" lon="-2.33675">
        <ele>37</ele>
        <time>2021-05-09T09:39:45.000Z</time>
      </trkpt>
      <trkpt lat="47.31096" lon="-2.3374">
        <ele>37</ele>
        <time>2021-05-09T09:39:51.000Z</time>
      </trkpt>
      <trkpt lat="47.31091" lon="-2.3376">
        <ele>37</ele>
        <time>2021-05-09T09:39:53.000Z</time>
      </trkpt>
      <trkpt lat="47.31081" lon="-2.33788">
        <ele>37</ele>
        <time>2021-05-09T09:39:56.000Z</time>
      </trkpt>
      <trkpt lat="47.31071" lon="-2.33815">
        <ele>37</ele>
        <time>2021-05-09T09:39:59.000Z</time>
      </trkpt>
      <trkpt lat="47.31069" lon="-2.33825">
        <ele>37</ele>
        <time>2021-05-09T09:40:00.000Z</time>
      </trkpt>
      <trkpt lat="47.31064" lon="-2.33879">
        <ele>37</ele>
        <time>2021-05-09T09:40:06.000Z</time>
      </trkpt>
      <trkpt lat="47.31063" lon="-2.33923">
        <ele>37</ele>
        <time>2021-05-09T09:40:11.000Z</time>
      </trkpt>
      <trkpt lat="47.31064" lon="-2.34005">
        <ele>37</ele>
        <time>2021-05-09T09:40:19.000Z</time>
      </trkpt>
      <trkpt lat="47.31071" lon="-2.34065">
        <ele>37</ele>
        <time>2021-05-09T09:40:25.000Z</time>
      </trkpt>
      <trkpt lat="47.31079" lon="-2.34094">
        <ele>37</ele>
        <time>2021-05-09T09:40:28.000Z</time>
      </trkpt>
      <trkpt lat="47.31086" lon="-2.34113">
        <ele>37</ele>
        <time>2021-05-09T09:40:30.000Z</time>
      </trkpt>
      <trkpt lat="47.31104" lon="-2.34152">
        <ele>36.599998474121</ele>
        <time>2021-05-09T09:40:34.000Z</time>
      </trkpt>
      <trkpt lat="47.31109" lon="-2.34163">
        <ele>36.200000762939</ele>
        <time>2021-05-09T09:40:35.000Z</time>
      </trkpt>
      <trkpt lat="47.31114" lon="-2.34173">
        <ele>35.799999237061</ele>
        <time>2021-05-09T09:40:36.000Z</time>
      </trkpt>
      <trkpt lat="47.3112" lon="-2.34184">
        <ele>35.400001525879</ele>
        <time>2021-05-09T09:40:37.000Z</time>
      </trkpt>
      <trkpt lat="47.31125" lon="-2.34195">
        <ele>35</ele>
        <time>2021-05-09T09:40:38.000Z</time>
      </trkpt>
      <trkpt lat="47.31137" lon="-2.34218">
        <ele>34.400001525879</ele>
        <time>2021-05-09T09:40:40.000Z</time>
      </trkpt>
      <trkpt lat="47.31144" lon="-2.3423">
        <ele>34</ele>
        <time>2021-05-09T09:40:41.000Z</time>
      </trkpt>
      <trkpt lat="47.3115" lon="-2.34242">
        <ele>33.400001525879</ele>
        <time>2021-05-09T09:40:42.000Z</time>
      </trkpt>
      <trkpt lat="47.31157" lon="-2.34254">
        <ele>33</ele>
        <time>2021-05-09T09:40:43.000Z</time>
      </trkpt>
      <trkpt lat="47.31163" lon="-2.34266">
        <ele>32.400001525879</ele>
        <time>2021-05-09T09:40:44.000Z</time>
      </trkpt>
      <trkpt lat="47.31169" lon="-2.34277">
        <ele>31.799999237061</ele>
        <time>2021-05-09T09:40:45.000Z</time>
      </trkpt>
      <trkpt lat="47.31174" lon="-2.34289">
        <ele>31.39999961853</ele>
        <time>2021-05-09T09:40:46.000Z</time>
      </trkpt>
      <trkpt lat="47.3118" lon="-2.34301">
        <ele>30.799999237061</ele>
        <time>2021-05-09T09:40:47.000Z</time>
      </trkpt>
      <trkpt lat="47.31185" lon="-2.34313">
        <ele>30.200000762939</ele>
        <time>2021-05-09T09:40:48.000Z</time>
      </trkpt>
      <trkpt lat="47.31196" lon="-2.34333">
        <ele>30.200000762939</ele>
        <time>2021-05-09T09:40:50.000Z</time>
      </trkpt>
      <trkpt lat="47.31209" lon="-2.34347">
        <ele>30.200000762939</ele>
        <time>2021-05-09T09:40:52.000Z</time>
      </trkpt>
      <trkpt lat="47.3123" lon="-2.34356">
        <ele>30.200000762939</ele>
        <time>2021-05-09T09:40:55.000Z</time>
      </trkpt>
      <trkpt lat="47.31236" lon="-2.34359">
        <ele>30.200000762939</ele>
        <time>2021-05-09T09:40:56.000Z</time>
      </trkpt>
      <trkpt lat="47.31255" lon="-2.34371">
        <ele>30.200000762939</ele>
        <time>2021-05-09T09:40:59.000Z</time>
      </trkpt>
      <trkpt lat="47.3126" lon="-2.34377">
        <ele>30.200000762939</ele>
        <time>2021-05-09T09:41:00.000Z</time>
      </trkpt>
      <trkpt lat="47.31268" lon="-2.34414">
        <ele>30.200000762939</ele>
        <time>2021-05-09T09:41:04.000Z</time>
      </trkpt>
      <trkpt lat="47.3127" lon="-2.34437">
        <ele>30.200000762939</ele>
        <time>2021-05-09T09:41:06.000Z</time>
      </trkpt>
      <trkpt lat="47.31275" lon="-2.34472">
        <ele>30.60000038147</ele>
        <time>2021-05-09T09:41:09.000Z</time>
      </trkpt>
      <trkpt lat="47.31276" lon="-2.34482">
        <ele>31</ele>
        <time>2021-05-09T09:41:10.000Z</time>
      </trkpt>
      <trkpt lat="47.31277" lon="-2.34492">
        <ele>31.39999961853</ele>
        <time>2021-05-09T09:41:11.000Z</time>
      </trkpt>
      <trkpt lat="47.31278" lon="-2.34503">
        <ele>31.799999237061</ele>
        <time>2021-05-09T09:41:12.000Z</time>
      </trkpt>
      <trkpt lat="47.31279" lon="-2.34513">
        <ele>32.200000762939</ele>
        <time>2021-05-09T09:41:13.000Z</time>
      </trkpt>
      <trkpt lat="47.31281" lon="-2.34533">
        <ele>32.200000762939</ele>
        <time>2021-05-09T09:41:15.000Z</time>
      </trkpt>
      <trkpt lat="47.31283" lon="-2.34553">
        <ele>32.599998474121</ele>
        <time>2021-05-09T09:41:17.000Z</time>
      </trkpt>
      <trkpt lat="47.31284" lon="-2.34563">
        <ele>33.200000762939</ele>
        <time>2021-05-09T09:41:18.000Z</time>
      </trkpt>
      <trkpt lat="47.31285" lon="-2.34572">
        <ele>33.599998474121</ele>
        <time>2021-05-09T09:41:19.000Z</time>
      </trkpt>
      <trkpt lat="47.31286" lon="-2.34582">
        <ele>34</ele>
        <time>2021-05-09T09:41:20.000Z</time>
      </trkpt>
      <trkpt lat="47.31287" lon="-2.34592">
        <ele>34.400001525879</ele>
        <time>2021-05-09T09:41:21.000Z</time>
      </trkpt>
      <trkpt lat="47.3129" lon="-2.3461">
        <ele>34.400001525879</ele>
        <time>2021-05-09T09:41:23.000Z</time>
      </trkpt>
      <trkpt lat="47.31293" lon="-2.34649">
        <ele>34.799999237061</ele>
        <time>2021-05-09T09:41:28.000Z</time>
      </trkpt>
      <trkpt lat="47.31295" lon="-2.34654">
        <ele>35.200000762939</ele>
        <time>2021-05-09T09:41:29.000Z</time>
      </trkpt>
      <trkpt lat="47.31298" lon="-2.34658">
        <ele>35.799999237061</ele>
        <time>2021-05-09T09:41:30.000Z</time>
      </trkpt>
      <trkpt lat="47.31301" lon="-2.34661">
        <ele>36.200000762939</ele>
        <time>2021-05-09T09:41:31.000Z</time>
      </trkpt>
      <trkpt lat="47.31303" lon="-2.34666">
        <ele>36.599998474121</ele>
        <time>2021-05-09T09:41:32.000Z</time>
      </trkpt>
      <trkpt lat="47.31302" lon="-2.34671">
        <ele>36.599998474121</ele>
        <time>2021-05-09T09:41:33.000Z</time>
      </trkpt>
      <trkpt lat="47.31292" lon="-2.34682">
        <ele>36.599998474121</ele>
        <time>2021-05-09T09:41:36.000Z</time>
      </trkpt>
      <trkpt lat="47.31279" lon="-2.3471">
        <ele>36.599998474121</ele>
        <time>2021-05-09T09:41:41.000Z</time>
      </trkpt>
      <trkpt lat="47.3128" lon="-2.34735">
        <ele>37</ele>
        <time>2021-05-09T09:41:44.000Z</time>
      </trkpt>
      <trkpt lat="47.31281" lon="-2.34744">
        <ele>37.400001525879</ele>
        <time>2021-05-09T09:41:45.000Z</time>
      </trkpt>
      <trkpt lat="47.31283" lon="-2.34753">
        <ele>37.799999237061</ele>
        <time>2021-05-09T09:41:46.000Z</time>
      </trkpt>
      <trkpt lat="47.31285" lon="-2.34762">
        <ele>38.400001525879</ele>
        <time>2021-05-09T09:41:47.000Z</time>
      </trkpt>
      <trkpt lat="47.31286" lon="-2.34771">
        <ele>38.799999237061</ele>
        <time>2021-05-09T09:41:48.000Z</time>
      </trkpt>
      <trkpt lat="47.31291" lon="-2.34799">
        <ele>38.799999237061</ele>
        <time>2021-05-09T09:41:51.000Z</time>
      </trkpt>
      <trkpt lat="47.31304" lon="-2.34859">
        <ele>38.799999237061</ele>
        <time>2021-05-09T09:41:58.000Z</time>
      </trkpt>
      <trkpt lat="47.31318" lon="-2.34906">
        <ele>38.799999237061</ele>
        <time>2021-05-09T09:42:04.000Z</time>
      </trkpt>
      <trkpt lat="47.31335" lon="-2.34972">
        <ele>38.799999237061</ele>
        <time>2021-05-09T09:42:11.000Z</time>
      </trkpt>
      <trkpt lat="47.31343" lon="-2.35019">
        <ele>38.799999237061</ele>
        <time>2021-05-09T09:42:16.000Z</time>
      </trkpt>
      <trkpt lat="47.31343" lon="-2.35029">
        <ele>38.799999237061</ele>
        <time>2021-05-09T09:42:17.000Z</time>
      </trkpt>
      <trkpt lat="47.31343" lon="-2.35089">
        <ele>38.799999237061</ele>
        <time>2021-05-09T09:42:23.000Z</time>
      </trkpt>
      <trkpt lat="47.3134" lon="-2.35146">
        <ele>38.799999237061</ele>
        <time>2021-05-09T09:42:28.000Z</time>
      </trkpt>
      <trkpt lat="47.3134" lon="-2.35199">
        <ele>38.799999237061</ele>
        <time>2021-05-09T09:42:32.000Z</time>
      </trkpt>
      <trkpt lat="47.31338" lon="-2.35283">
        <ele>38.799999237061</ele>
        <time>2021-05-09T09:42:38.000Z</time>
      </trkpt>
      <trkpt lat="47.31338" lon="-2.35296">
        <ele>38.799999237061</ele>
        <time>2021-05-09T09:42:39.000Z</time>
      </trkpt>
      <trkpt lat="47.31336" lon="-2.35372">
        <ele>38.799999237061</ele>
        <time>2021-05-09T09:42:45.000Z</time>
      </trkpt>
      <trkpt lat="47.31335" lon="-2.35433">
        <ele>38.799999237061</ele>
        <time>2021-05-09T09:42:51.000Z</time>
      </trkpt>
      <trkpt lat="47.31333" lon="-2.35482">
        <ele>38.799999237061</ele>
        <time>2021-05-09T09:42:57.000Z</time>
      </trkpt>
      <trkpt lat="47.31333" lon="-2.3549">
        <ele>38.799999237061</ele>
        <time>2021-05-09T09:42:58.000Z</time>
      </trkpt>
      <trkpt lat="47.31332" lon="-2.35521">
        <ele>38.799999237061</ele>
        <time>2021-05-09T09:43:02.000Z</time>
      </trkpt>
      <trkpt lat="47.31332" lon="-2.35529">
        <ele>38.799999237061</ele>
        <time>2021-05-09T09:43:03.000Z</time>
      </trkpt>
      <trkpt lat="47.31337" lon="-2.3554">
        <ele>38.799999237061</ele>
        <time>2021-05-09T09:43:05.000Z</time>
      </trkpt>
      <trkpt lat="47.31351" lon="-2.35541">
        <ele>38.799999237061</ele>
        <time>2021-05-09T09:43:08.000Z</time>
      </trkpt>
      <trkpt lat="47.31357" lon="-2.35539">
        <ele>38.799999237061</ele>
        <time>2021-05-09T09:43:09.000Z</time>
      </trkpt>
      <trkpt lat="47.31367" lon="-2.35534">
        <ele>38.799999237061</ele>
        <time>2021-05-09T09:43:11.000Z</time>
      </trkpt>
      <trkpt lat="47.31382" lon="-2.35528">
        <ele>38.799999237061</ele>
        <time>2021-05-09T09:43:14.000Z</time>
      </trkpt>
      <trkpt lat="47.31406" lon="-2.35527">
        <ele>38.799999237061</ele>
        <time>2021-05-09T09:43:18.000Z</time>
      </trkpt>
      <trkpt lat="47.31411" lon="-2.35527">
        <ele>38.799999237061</ele>
        <time>2021-05-09T09:43:19.000Z</time>
      </trkpt>
      <trkpt lat="47.31428" lon="-2.35527">
        <ele>38.799999237061</ele>
        <time>2021-05-09T09:43:22.000Z</time>
      </trkpt>
      <trkpt lat="47.31447" lon="-2.35527">
        <ele>38.799999237061</ele>
        <time>2021-05-09T09:43:25.000Z</time>
      </trkpt>
      <trkpt lat="47.31467" lon="-2.35524">
        <ele>38.799999237061</ele>
        <time>2021-05-09T09:43:29.000Z</time>
      </trkpt>
      <trkpt lat="47.31472" lon="-2.35522">
        <ele>38.799999237061</ele>
        <time>2021-05-09T09:43:30.000Z</time>
      </trkpt>
      <trkpt lat="47.31482" lon="-2.35505">
        <ele>38.799999237061</ele>
        <time>2021-05-09T09:43:33.000Z</time>
      </trkpt>
      <trkpt lat="47.31485" lon="-2.35488">
        <ele>38.799999237061</ele>
        <time>2021-05-09T09:43:35.000Z</time>
      </trkpt>
      <trkpt lat="47.3149" lon="-2.35453">
        <ele>38.799999237061</ele>
        <time>2021-05-09T09:43:39.000Z</time>
      </trkpt>
      <trkpt lat="47.31494" lon="-2.35437">
        <ele>38.799999237061</ele>
        <time>2021-05-09T09:43:41.000Z</time>
      </trkpt>
      <trkpt lat="47.315" lon="-2.35423">
        <ele>38.799999237061</ele>
        <time>2021-05-09T09:43:43.000Z</time>
      </trkpt>
      <trkpt lat="47.31512" lon="-2.35404">
        <ele>38.799999237061</ele>
        <time>2021-05-09T09:43:46.000Z</time>
      </trkpt>
      <trkpt lat="47.31522" lon="-2.35393">
        <ele>38.799999237061</ele>
        <time>2021-05-09T09:43:48.000Z</time>
      </trkpt>
      <trkpt lat="47.31528" lon="-2.35389">
        <ele>38.799999237061</ele>
        <time>2021-05-09T09:43:49.000Z</time>
      </trkpt>
      <trkpt lat="47.31568" lon="-2.35367">
        <ele>38.799999237061</ele>
        <time>2021-05-09T09:43:55.000Z</time>
      </trkpt>
      <trkpt lat="47.316" lon="-2.35357">
        <ele>38.799999237061</ele>
        <time>2021-05-09T09:44:00.000Z</time>
      </trkpt>
      <trkpt lat="47.31607" lon="-2.35356">
        <ele>38.799999237061</ele>
        <time>2021-05-09T09:44:01.000Z</time>
      </trkpt>
      <trkpt lat="47.31629" lon="-2.35362">
        <ele>38.799999237061</ele>
        <time>2021-05-09T09:44:04.000Z</time>
      </trkpt>
      <trkpt lat="47.31636" lon="-2.35365">
        <ele>38.799999237061</ele>
        <time>2021-05-09T09:44:05.000Z</time>
      </trkpt>
      <trkpt lat="47.31678" lon="-2.35374">
        <ele>38.799999237061</ele>
        <time>2021-05-09T09:44:11.000Z</time>
      </trkpt>
      <trkpt lat="47.31699" lon="-2.35373">
        <ele>38.400001525879</ele>
        <time>2021-05-09T09:44:15.000Z</time>
      </trkpt>
      <trkpt lat="47.31704" lon="-2.35372">
        <ele>38</ele>
        <time>2021-05-09T09:44:16.000Z</time>
      </trkpt>
      <trkpt lat="47.31709" lon="-2.35371">
        <ele>37.599998474121</ele>
        <time>2021-05-09T09:44:17.000Z</time>
      </trkpt>
      <trkpt lat="47.31714" lon="-2.3537">
        <ele>37.200000762939</ele>
        <time>2021-05-09T09:44:18.000Z</time>
      </trkpt>
      <trkpt lat="47.3172" lon="-2.35369">
        <ele>36.799999237061</ele>
        <time>2021-05-09T09:44:19.000Z</time>
      </trkpt>
      <trkpt lat="47.31735" lon="-2.35369">
        <ele>36.799999237061</ele>
        <time>2021-05-09T09:44:22.000Z</time>
      </trkpt>
      <trkpt lat="47.31747" lon="-2.35382">
        <ele>36.799999237061</ele>
        <time>2021-05-09T09:44:25.000Z</time>
      </trkpt>
      <trkpt lat="47.31751" lon="-2.35388">
        <ele>36.400001525879</ele>
        <time>2021-05-09T09:44:26.000Z</time>
      </trkpt>
      <trkpt lat="47.31755" lon="-2.35394">
        <ele>36</ele>
        <time>2021-05-09T09:44:27.000Z</time>
      </trkpt>
      <trkpt lat="47.31759" lon="-2.35401">
        <ele>35.599998474121</ele>
        <time>2021-05-09T09:44:28.000Z</time>
      </trkpt>
      <trkpt lat="47.31762" lon="-2.35408">
        <ele>35</ele>
        <time>2021-05-09T09:44:29.000Z</time>
      </trkpt>
      <trkpt lat="47.31767" lon="-2.35415">
        <ele>34.599998474121</ele>
        <time>2021-05-09T09:44:30.000Z</time>
      </trkpt>
      <trkpt lat="47.31787" lon="-2.35442">
        <ele>34.200000762939</ele>
        <time>2021-05-09T09:44:35.000Z</time>
      </trkpt>
      <trkpt lat="47.31791" lon="-2.35448">
        <ele>33.799999237061</ele>
        <time>2021-05-09T09:44:36.000Z</time>
      </trkpt>
      <trkpt lat="47.31795" lon="-2.35455">
        <ele>33.400001525879</ele>
        <time>2021-05-09T09:44:37.000Z</time>
      </trkpt>
      <trkpt lat="47.31798" lon="-2.35461">
        <ele>33</ele>
        <time>2021-05-09T09:44:38.000Z</time>
      </trkpt>
      <trkpt lat="47.31801" lon="-2.35467">
        <ele>32.599998474121</ele>
        <time>2021-05-09T09:44:39.000Z</time>
      </trkpt>
      <trkpt lat="47.31806" lon="-2.35479">
        <ele>32.599998474121</ele>
        <time>2021-05-09T09:44:41.000Z</time>
      </trkpt>
      <trkpt lat="47.31817" lon="-2.35499">
        <ele>32.599998474121</ele>
        <time>2021-05-09T09:44:45.000Z</time>
      </trkpt>
      <trkpt lat="47.31823" lon="-2.35511">
        <ele>32.599998474121</ele>
        <time>2021-05-09T09:44:47.000Z</time>
      </trkpt>
      <trkpt lat="47.31833" lon="-2.35539">
        <ele>32.200000762939</ele>
        <time>2021-05-09T09:44:52.000Z</time>
      </trkpt>
      <trkpt lat="47.31834" lon="-2.35543">
        <ele>31.799999237061</ele>
        <time>2021-05-09T09:44:53.000Z</time>
      </trkpt>
      <trkpt lat="47.31834" lon="-2.35547">
        <ele>31.39999961853</ele>
        <time>2021-05-09T09:44:54.000Z</time>
      </trkpt>
      <trkpt lat="47.31833" lon="-2.35551">
        <ele>30.60000038147</ele>
        <time>2021-05-09T09:44:55.000Z</time>
      </trkpt>
      <trkpt lat="47.31832" lon="-2.35555">
        <ele>30.60000038147</ele>
        <time>2021-05-09T09:44:56.000Z</time>
      </trkpt>
      <trkpt lat="47.31821" lon="-2.35572">
        <ele>30.60000038147</ele>
        <time>2021-05-09T09:45:01.000Z</time>
      </trkpt>
      <trkpt lat="47.31806" lon="-2.35593">
        <ele>30.60000038147</ele>
        <time>2021-05-09T09:45:07.000Z</time>
      </trkpt>
      <trkpt lat="47.31792" lon="-2.35621">
        <ele>30.60000038147</ele>
        <time>2021-05-09T09:45:13.000Z</time>
      </trkpt>
      <trkpt lat="47.31789" lon="-2.35631">
        <ele>31</ele>
        <time>2021-05-09T09:45:15.000Z</time>
      </trkpt>
      <trkpt lat="47.31788" lon="-2.35635">
        <ele>31.39999961853</ele>
        <time>2021-05-09T09:45:16.000Z</time>
      </trkpt>
      <trkpt lat="47.31787" lon="-2.35639">
        <ele>31.799999237061</ele>
        <time>2021-05-09T09:45:17.000Z</time>
      </trkpt>
      <trkpt lat="47.31786" lon="-2.35644">
        <ele>32.200000762939</ele>
        <time>2021-05-09T09:45:18.000Z</time>
      </trkpt>
      <trkpt lat="47.31787" lon="-2.3565">
        <ele>32.599998474121</ele>
        <time>2021-05-09T09:45:19.000Z</time>
      </trkpt>
      <trkpt lat="47.31788" lon="-2.35667">
        <ele>32.599998474121</ele>
        <time>2021-05-09T09:45:22.000Z</time>
      </trkpt>
      <trkpt lat="47.31787" lon="-2.35689">
        <ele>33</ele>
        <time>2021-05-09T09:45:26.000Z</time>
      </trkpt>
      <trkpt lat="47.31787" lon="-2.35694">
        <ele>33.400001525879</ele>
        <time>2021-05-09T09:45:27.000Z</time>
      </trkpt>
      <trkpt lat="47.31787" lon="-2.35701">
        <ele>33.799999237061</ele>
        <time>2021-05-09T09:45:28.000Z</time>
      </trkpt>
      <trkpt lat="47.31786" lon="-2.35706">
        <ele>34.200000762939</ele>
        <time>2021-05-09T09:45:29.000Z</time>
      </trkpt>
      <trkpt lat="47.31786" lon="-2.35712">
        <ele>34.599998474121</ele>
        <time>2021-05-09T09:45:30.000Z</time>
      </trkpt>
      <trkpt lat="47.31786" lon="-2.35736">
        <ele>34.599998474121</ele>
        <time>2021-05-09T09:45:34.000Z</time>
      </trkpt>
      <trkpt lat="47.31786" lon="-2.35771">
        <ele>34.599998474121</ele>
        <time>2021-05-09T09:45:38.000Z</time>
      </trkpt>
      <trkpt lat="47.318" lon="-2.35809">
        <ele>35</ele>
        <time>2021-05-09T09:45:43.000Z</time>
      </trkpt>
      <trkpt lat="47.31805" lon="-2.35816">
        <ele>35.799999237061</ele>
        <time>2021-05-09T09:45:44.000Z</time>
      </trkpt>
      <trkpt lat="47.31808" lon="-2.35821">
        <ele>36.400001525879</ele>
        <time>2021-05-09T09:45:45.000Z</time>
      </trkpt>
      <trkpt lat="47.31812" lon="-2.35826">
        <ele>36.799999237061</ele>
        <time>2021-05-09T09:45:46.000Z</time>
      </trkpt>
      <trkpt lat="47.31819" lon="-2.35834">
        <ele>36.799999237061</ele>
        <time>2021-05-09T09:45:48.000Z</time>
      </trkpt>
      <trkpt lat="47.31821" lon="-2.35839">
        <ele>36.799999237061</ele>
        <time>2021-05-09T09:45:49.000Z</time>
      </trkpt>
      <trkpt lat="47.31826" lon="-2.35866">
        <ele>36.799999237061</ele>
        <time>2021-05-09T09:45:54.000Z</time>
      </trkpt>
      <trkpt lat="47.31823" lon="-2.35876">
        <ele>36.799999237061</ele>
        <time>2021-05-09T09:45:56.000Z</time>
      </trkpt>
      <trkpt lat="47.31817" lon="-2.35883">
        <ele>36.799999237061</ele>
        <time>2021-05-09T09:45:58.000Z</time>
      </trkpt>
      <trkpt lat="47.31797" lon="-2.35894">
        <ele>36.799999237061</ele>
        <time>2021-05-09T09:46:03.000Z</time>
      </trkpt>
      <trkpt lat="47.31784" lon="-2.35902">
        <ele>36.799999237061</ele>
        <time>2021-05-09T09:46:06.000Z</time>
      </trkpt>
      <trkpt lat="47.3177" lon="-2.35909">
        <ele>36.799999237061</ele>
        <time>2021-05-09T09:46:09.000Z</time>
      </trkpt>
      <trkpt lat="47.31743" lon="-2.35923">
        <ele>36.799999237061</ele>
        <time>2021-05-09T09:46:15.000Z</time>
      </trkpt>
      <trkpt lat="47.31715" lon="-2.3594">
        <ele>37.200000762939</ele>
        <time>2021-05-09T09:46:21.000Z</time>
      </trkpt>
      <trkpt lat="47.3171" lon="-2.35943">
        <ele>37.599998474121</ele>
        <time>2021-05-09T09:46:22.000Z</time>
      </trkpt>
      <trkpt lat="47.31706" lon="-2.35946">
        <ele>38</ele>
        <time>2021-05-09T09:46:23.000Z</time>
      </trkpt>
      <trkpt lat="47.31701" lon="-2.35948">
        <ele>38.400001525879</ele>
        <time>2021-05-09T09:46:24.000Z</time>
      </trkpt>
      <trkpt lat="47.31696" lon="-2.35949">
        <ele>38.799999237061</ele>
        <time>2021-05-09T09:46:25.000Z</time>
      </trkpt>
      <trkpt lat="47.31691" lon="-2.35952">
        <ele>38.799999237061</ele>
        <time>2021-05-09T09:46:26.000Z</time>
      </trkpt>
      <trkpt lat="47.31687" lon="-2.35955">
        <ele>38.799999237061</ele>
        <time>2021-05-09T09:46:27.000Z</time>
      </trkpt>
      <trkpt lat="47.31651" lon="-2.35976">
        <ele>38.799999237061</ele>
        <time>2021-05-09T09:46:35.000Z</time>
      </trkpt>
      <trkpt lat="47.31626" lon="-2.35998">
        <ele>39.400001525879</ele>
        <time>2021-05-09T09:46:41.000Z</time>
      </trkpt>
      <trkpt lat="47.31621" lon="-2.36002">
        <ele>39.799999237061</ele>
        <time>2021-05-09T09:46:42.000Z</time>
      </trkpt>
      <trkpt lat="47.31617" lon="-2.36007">
        <ele>40.200000762939</ele>
        <time>2021-05-09T09:46:43.000Z</time>
      </trkpt>
      <trkpt lat="47.31613" lon="-2.36012">
        <ele>40.599998474121</ele>
        <time>2021-05-09T09:46:44.000Z</time>
      </trkpt>
      <trkpt lat="47.31609" lon="-2.36017">
        <ele>41</ele>
        <time>2021-05-09T09:46:45.000Z</time>
      </trkpt>
      <trkpt lat="47.316" lon="-2.36026">
        <ele>41</ele>
        <time>2021-05-09T09:46:47.000Z</time>
      </trkpt>
      <trkpt lat="47.31568" lon="-2.36055">
        <ele>41</ele>
        <time>2021-05-09T09:46:54.000Z</time>
      </trkpt>
      <trkpt lat="47.3155" lon="-2.36074">
        <ele>41.400001525879</ele>
        <time>2021-05-09T09:46:59.000Z</time>
      </trkpt>
      <trkpt lat="47.31546" lon="-2.36079">
        <ele>42.200000762939</ele>
        <time>2021-05-09T09:47:00.000Z</time>
      </trkpt>
      <trkpt lat="47.31542" lon="-2.36084">
        <ele>42.599998474121</ele>
        <time>2021-05-09T09:47:01.000Z</time>
      </trkpt>
      <trkpt lat="47.31538" lon="-2.36089">
        <ele>43</ele>
        <time>2021-05-09T09:47:02.000Z</time>
      </trkpt>
      <trkpt lat="47.31516" lon="-2.36114">
        <ele>43</ele>
        <time>2021-05-09T09:47:07.000Z</time>
      </trkpt>
      <trkpt lat="47.31511" lon="-2.36119">
        <ele>43</ele>
        <time>2021-05-09T09:47:08.000Z</time>
      </trkpt>
      <trkpt lat="47.31484" lon="-2.36146">
        <ele>43</ele>
        <time>2021-05-09T09:47:14.000Z</time>
      </trkpt>
      <trkpt lat="47.31467" lon="-2.36165">
        <ele>43</ele>
        <time>2021-05-09T09:47:19.000Z</time>
      </trkpt>
      <trkpt lat="47.31454" lon="-2.36178">
        <ele>43</ele>
        <time>2021-05-09T09:47:24.000Z</time>
      </trkpt>
      <trkpt lat="47.31453" lon="-2.36179">
        <ele>43</ele>
        <time>2021-05-09T09:47:26.000Z</time>
      </trkpt>
      <trkpt lat="47.31452" lon="-2.36182">
        <ele>43</ele>
        <time>2021-05-09T09:48:52.000Z</time>
      </trkpt>
      <trkpt lat="47.31441" lon="-2.36193">
        <ele>43</ele>
        <time>2021-05-09T09:48:57.000Z</time>
      </trkpt>
      <trkpt lat="47.31418" lon="-2.3621">
        <ele>43</ele>
        <time>2021-05-09T09:49:04.000Z</time>
      </trkpt>
      <trkpt lat="47.31402" lon="-2.3622">
        <ele>43</ele>
        <time>2021-05-09T09:49:08.000Z</time>
      </trkpt>
      <trkpt lat="47.31394" lon="-2.36223">
        <ele>43</ele>
        <time>2021-05-09T09:49:10.000Z</time>
      </trkpt>
      <trkpt lat="47.31366" lon="-2.36238">
        <ele>43</ele>
        <time>2021-05-09T09:49:17.000Z</time>
      </trkpt>
      <trkpt lat="47.31342" lon="-2.36259">
        <ele>43</ele>
        <time>2021-05-09T09:49:23.000Z</time>
      </trkpt>
      <trkpt lat="47.31315" lon="-2.36287">
        <ele>43</ele>
        <time>2021-05-09T09:49:30.000Z</time>
      </trkpt>
      <trkpt lat="47.31306" lon="-2.36293">
        <ele>43</ele>
        <time>2021-05-09T09:49:32.000Z</time>
      </trkpt>
      <trkpt lat="47.31296" lon="-2.36299">
        <ele>43</ele>
        <time>2021-05-09T09:49:34.000Z</time>
      </trkpt>
      <trkpt lat="47.31285" lon="-2.36304">
        <ele>43</ele>
        <time>2021-05-09T09:49:36.000Z</time>
      </trkpt>
      <trkpt lat="47.31251" lon="-2.3632">
        <ele>43</ele>
        <time>2021-05-09T09:49:42.000Z</time>
      </trkpt>
      <trkpt lat="47.31216" lon="-2.36344">
        <ele>43</ele>
        <time>2021-05-09T09:49:48.000Z</time>
      </trkpt>
      <trkpt lat="47.31179" lon="-2.36365">
        <ele>43</ele>
        <time>2021-05-09T09:49:54.000Z</time>
      </trkpt>
      <trkpt lat="47.31145" lon="-2.3639">
        <ele>43</ele>
        <time>2021-05-09T09:50:00.000Z</time>
      </trkpt>
      <trkpt lat="47.31113" lon="-2.36411">
        <ele>43</ele>
        <time>2021-05-09T09:50:06.000Z</time>
      </trkpt>
      <trkpt lat="47.31094" lon="-2.36421">
        <ele>43</ele>
        <time>2021-05-09T09:50:11.000Z</time>
      </trkpt>
      <trkpt lat="47.31089" lon="-2.3642">
        <ele>42.599998474121</ele>
        <time>2021-05-09T09:50:13.000Z</time>
      </trkpt>
      <trkpt lat="47.31085" lon="-2.36419">
        <ele>42.200000762939</ele>
        <time>2021-05-09T09:50:14.000Z</time>
      </trkpt>
      <trkpt lat="47.31082" lon="-2.36418">
        <ele>41.799999237061</ele>
        <time>2021-05-09T09:50:15.000Z</time>
      </trkpt>
      <trkpt lat="47.31078" lon="-2.36419">
        <ele>41.400001525879</ele>
        <time>2021-05-09T09:50:16.000Z</time>
      </trkpt>
      <trkpt lat="47.31073" lon="-2.36419">
        <ele>41</ele>
        <time>2021-05-09T09:50:17.000Z</time>
      </trkpt>
      <trkpt lat="47.31052" lon="-2.36421">
        <ele>41</ele>
        <time>2021-05-09T09:50:21.000Z</time>
      </trkpt>
      <trkpt lat="47.31024" lon="-2.36428">
        <ele>41.400001525879</ele>
        <time>2021-05-09T09:50:26.000Z</time>
      </trkpt>
      <trkpt lat="47.31018" lon="-2.3643">
        <ele>41.799999237061</ele>
        <time>2021-05-09T09:50:27.000Z</time>
      </trkpt>
      <trkpt lat="47.31013" lon="-2.36431">
        <ele>42.200000762939</ele>
        <time>2021-05-09T09:50:28.000Z</time>
      </trkpt>
      <trkpt lat="47.31007" lon="-2.36434">
        <ele>42.599998474121</ele>
        <time>2021-05-09T09:50:29.000Z</time>
      </trkpt>
      <trkpt lat="47.31001" lon="-2.36437">
        <ele>43</ele>
        <time>2021-05-09T09:50:30.000Z</time>
      </trkpt>
      <trkpt lat="47.30977" lon="-2.36447">
        <ele>43</ele>
        <time>2021-05-09T09:50:34.000Z</time>
      </trkpt>
      <trkpt lat="47.30946" lon="-2.36463">
        <ele>43</ele>
        <time>2021-05-09T09:50:40.000Z</time>
      </trkpt>
      <trkpt lat="47.3094" lon="-2.36465">
        <ele>43</ele>
        <time>2021-05-09T09:50:41.000Z</time>
      </trkpt>
      <trkpt lat="47.30902" lon="-2.36475">
        <ele>43</ele>
        <time>2021-05-09T09:50:47.000Z</time>
      </trkpt>
      <trkpt lat="47.30873" lon="-2.36483">
        <ele>43</ele>
        <time>2021-05-09T09:50:52.000Z</time>
      </trkpt>
      <trkpt lat="47.30833" lon="-2.36488">
        <ele>43</ele>
        <time>2021-05-09T09:50:59.000Z</time>
      </trkpt>
      <trkpt lat="47.30829" lon="-2.36487">
        <ele>43</ele>
        <time>2021-05-09T09:51:00.000Z</time>
      </trkpt>
      <trkpt lat="47.30815" lon="-2.36478">
        <ele>43</ele>
        <time>2021-05-09T09:51:03.000Z</time>
      </trkpt>
      <trkpt lat="47.3081" lon="-2.36475">
        <ele>43</ele>
        <time>2021-05-09T09:51:04.000Z</time>
      </trkpt>
      <trkpt lat="47.30793" lon="-2.36477">
        <ele>43</ele>
        <time>2021-05-09T09:51:07.000Z</time>
      </trkpt>
      <trkpt lat="47.30777" lon="-2.36485">
        <ele>43</ele>
        <time>2021-05-09T09:51:10.000Z</time>
      </trkpt>
      <trkpt lat="47.30766" lon="-2.36489">
        <ele>43</ele>
        <time>2021-05-09T09:51:12.000Z</time>
      </trkpt>
      <trkpt lat="47.30749" lon="-2.36495">
        <ele>43.400001525879</ele>
        <time>2021-05-09T09:51:15.000Z</time>
      </trkpt>
      <trkpt lat="47.30744" lon="-2.36497">
        <ele>43.799999237061</ele>
        <time>2021-05-09T09:51:16.000Z</time>
      </trkpt>
      <trkpt lat="47.30738" lon="-2.36499">
        <ele>44.200000762939</ele>
        <time>2021-05-09T09:51:17.000Z</time>
      </trkpt>
      <trkpt lat="47.30732" lon="-2.36502">
        <ele>44.599998474121</ele>
        <time>2021-05-09T09:51:18.000Z</time>
      </trkpt>
      <trkpt lat="47.30727" lon="-2.36504">
        <ele>45</ele>
        <time>2021-05-09T09:51:19.000Z</time>
      </trkpt>
      <trkpt lat="47.30722" lon="-2.36507">
        <ele>45</ele>
        <time>2021-05-09T09:51:20.000Z</time>
      </trkpt>
      <trkpt lat="47.30717" lon="-2.36511">
        <ele>45</ele>
        <time>2021-05-09T09:51:21.000Z</time>
      </trkpt>
      <trkpt lat="47.30702" lon="-2.36523">
        <ele>45</ele>
        <time>2021-05-09T09:51:25.000Z</time>
      </trkpt>
      <trkpt lat="47.30699" lon="-2.3652">
        <ele>45</ele>
        <time>2021-05-09T09:51:26.000Z</time>
      </trkpt>
      <trkpt lat="47.30693" lon="-2.36513">
        <ele>45</ele>
        <time>2021-05-09T09:51:28.000Z</time>
      </trkpt>
      <trkpt lat="47.30688" lon="-2.36513">
        <ele>45.400001525879</ele>
        <time>2021-05-09T09:51:29.000Z</time>
      </trkpt>
      <trkpt lat="47.30684" lon="-2.36514">
        <ele>46</ele>
        <time>2021-05-09T09:51:30.000Z</time>
      </trkpt>
      <trkpt lat="47.3068" lon="-2.36516">
        <ele>46.799999237061</ele>
        <time>2021-05-09T09:51:31.000Z</time>
      </trkpt>
      <trkpt lat="47.30676" lon="-2.36518">
        <ele>47.200000762939</ele>
        <time>2021-05-09T09:51:32.000Z</time>
      </trkpt>
      <trkpt lat="47.30646" lon="-2.36534">
        <ele>47.200000762939</ele>
        <time>2021-05-09T09:51:39.000Z</time>
      </trkpt>
      <trkpt lat="47.3061" lon="-2.36549">
        <ele>47.200000762939</ele>
        <time>2021-05-09T09:51:47.000Z</time>
      </trkpt>
      <trkpt lat="47.30572" lon="-2.36562">
        <ele>47.200000762939</ele>
        <time>2021-05-09T09:51:54.000Z</time>
      </trkpt>
      <trkpt lat="47.30549" lon="-2.36579">
        <ele>47.200000762939</ele>
        <time>2021-05-09T09:51:59.000Z</time>
      </trkpt>
      <trkpt lat="47.30524" lon="-2.36596">
        <ele>47.200000762939</ele>
        <time>2021-05-09T09:52:05.000Z</time>
      </trkpt>
      <trkpt lat="47.30495" lon="-2.36606">
        <ele>47.200000762939</ele>
        <time>2021-05-09T09:52:11.000Z</time>
      </trkpt>
      <trkpt lat="47.30486" lon="-2.36608">
        <ele>47.200000762939</ele>
        <time>2021-05-09T09:52:13.000Z</time>
      </trkpt>
      <trkpt lat="47.30473" lon="-2.36615">
        <ele>47.200000762939</ele>
        <time>2021-05-09T09:52:16.000Z</time>
      </trkpt>
      <trkpt lat="47.30457" lon="-2.36629">
        <ele>47.200000762939</ele>
        <time>2021-05-09T09:52:20.000Z</time>
      </trkpt>
      <trkpt lat="47.30449" lon="-2.36637">
        <ele>47.200000762939</ele>
        <time>2021-05-09T09:52:22.000Z</time>
      </trkpt>
      <trkpt lat="47.30433" lon="-2.36652">
        <ele>47.200000762939</ele>
        <time>2021-05-09T09:52:26.000Z</time>
      </trkpt>
      <trkpt lat="47.30429" lon="-2.36655">
        <ele>47.599998474121</ele>
        <time>2021-05-09T09:52:27.000Z</time>
      </trkpt>
      <trkpt lat="47.30424" lon="-2.36657">
        <ele>48</ele>
        <time>2021-05-09T09:52:28.000Z</time>
      </trkpt>
      <trkpt lat="47.30419" lon="-2.36659">
        <ele>48.400001525879</ele>
        <time>2021-05-09T09:52:29.000Z</time>
      </trkpt>
      <trkpt lat="47.30414" lon="-2.36661">
        <ele>48.799999237061</ele>
        <time>2021-05-09T09:52:30.000Z</time>
      </trkpt>
      <trkpt lat="47.30409" lon="-2.36661">
        <ele>49.200000762939</ele>
        <time>2021-05-09T09:52:31.000Z</time>
      </trkpt>
      <trkpt lat="47.30404" lon="-2.36662">
        <ele>49.200000762939</ele>
        <time>2021-05-09T09:52:32.000Z</time>
      </trkpt>
      <trkpt lat="47.30398" lon="-2.36663">
        <ele>49.200000762939</ele>
        <time>2021-05-09T09:52:33.000Z</time>
      </trkpt>
      <trkpt lat="47.30392" lon="-2.36663">
        <ele>49.200000762939</ele>
        <time>2021-05-09T09:52:34.000Z</time>
      </trkpt>
      <trkpt lat="47.30367" lon="-2.3666">
        <ele>49.200000762939</ele>
        <time>2021-05-09T09:52:38.000Z</time>
      </trkpt>
      <trkpt lat="47.30327" lon="-2.36653">
        <ele>49.200000762939</ele>
        <time>2021-05-09T09:52:44.000Z</time>
      </trkpt>
      <trkpt lat="47.30307" lon="-2.36653">
        <ele>48.799999237061</ele>
        <time>2021-05-09T09:52:47.000Z</time>
      </trkpt>
      <trkpt lat="47.30301" lon="-2.36654">
        <ele>48.400001525879</ele>
        <time>2021-05-09T09:52:48.000Z</time>
      </trkpt>
      <trkpt lat="47.30295" lon="-2.36657">
        <ele>48</ele>
        <time>2021-05-09T09:52:49.000Z</time>
      </trkpt>
      <trkpt lat="47.30289" lon="-2.36659">
        <ele>47.400001525879</ele>
        <time>2021-05-09T09:52:50.000Z</time>
      </trkpt>
      <trkpt lat="47.30283" lon="-2.36661">
        <ele>47</ele>
        <time>2021-05-09T09:52:51.000Z</time>
      </trkpt>
      <trkpt lat="47.30255" lon="-2.36671">
        <ele>47</ele>
        <time>2021-05-09T09:52:56.000Z</time>
      </trkpt>
      <trkpt lat="47.30216" lon="-2.36675">
        <ele>47</ele>
        <time>2021-05-09T09:53:03.000Z</time>
      </trkpt>
      <trkpt lat="47.30189" lon="-2.36681">
        <ele>47</ele>
        <time>2021-05-09T09:53:09.000Z</time>
      </trkpt>
      <trkpt lat="47.30181" lon="-2.36685">
        <ele>47</ele>
        <time>2021-05-09T09:53:13.000Z</time>
      </trkpt>
      <trkpt lat="47.3018" lon="-2.36684">
        <ele>47</ele>
        <time>2021-05-09T09:53:15.000Z</time>
      </trkpt>
      <trkpt lat="47.30174" lon="-2.36682">
        <ele>47</ele>
        <time>2021-05-09T09:55:37.000Z</time>
      </trkpt>
      <trkpt lat="47.30172" lon="-2.36684">
        <ele>47</ele>
        <time>2021-05-09T09:55:38.000Z</time>
      </trkpt>
      <trkpt lat="47.30154" lon="-2.36689">
        <ele>47</ele>
        <time>2021-05-09T09:55:43.000Z</time>
      </trkpt>
      <trkpt lat="47.30142" lon="-2.36694">
        <ele>46.599998474121</ele>
        <time>2021-05-09T09:55:45.000Z</time>
      </trkpt>
      <trkpt lat="47.30137" lon="-2.36697">
        <ele>46.200000762939</ele>
        <time>2021-05-09T09:55:46.000Z</time>
      </trkpt>
      <trkpt lat="47.30132" lon="-2.36699">
        <ele>45.799999237061</ele>
        <time>2021-05-09T09:55:47.000Z</time>
      </trkpt>
      <trkpt lat="47.30126" lon="-2.36702">
        <ele>45.200000762939</ele>
        <time>2021-05-09T09:55:48.000Z</time>
      </trkpt>
      <trkpt lat="47.3012" lon="-2.36705">
        <ele>44.799999237061</ele>
        <time>2021-05-09T09:55:49.000Z</time>
      </trkpt>
      <trkpt lat="47.3011" lon="-2.36713">
        <ele>44.799999237061</ele>
        <time>2021-05-09T09:55:51.000Z</time>
      </trkpt>
      <trkpt lat="47.301" lon="-2.3672">
        <ele>44.799999237061</ele>
        <time>2021-05-09T09:55:53.000Z</time>
      </trkpt>
      <trkpt lat="47.30072" lon="-2.36749">
        <ele>44.799999237061</ele>
        <time>2021-05-09T09:56:00.000Z</time>
      </trkpt>
      <trkpt lat="47.30061" lon="-2.36762">
        <ele>45.200000762939</ele>
        <time>2021-05-09T09:56:03.000Z</time>
      </trkpt>
      <trkpt lat="47.30057" lon="-2.36767">
        <ele>45.599998474121</ele>
        <time>2021-05-09T09:56:04.000Z</time>
      </trkpt>
      <trkpt lat="47.30053" lon="-2.36772">
        <ele>46</ele>
        <time>2021-05-09T09:56:05.000Z</time>
      </trkpt>
      <trkpt lat="47.30049" lon="-2.36777">
        <ele>46.599998474121</ele>
        <time>2021-05-09T09:56:06.000Z</time>
      </trkpt>
      <trkpt lat="47.30045" lon="-2.36782">
        <ele>47</ele>
        <time>2021-05-09T09:56:07.000Z</time>
      </trkpt>
      <trkpt lat="47.30014" lon="-2.3682">
        <ele>47</ele>
        <time>2021-05-09T09:56:15.000Z</time>
      </trkpt>
      <trkpt lat="47.29978" lon="-2.36863">
        <ele>47</ele>
        <time>2021-05-09T09:56:24.000Z</time>
      </trkpt>
      <trkpt lat="47.29962" lon="-2.36883">
        <ele>47</ele>
        <time>2021-05-09T09:56:28.000Z</time>
      </trkpt>
      <trkpt lat="47.29951" lon="-2.36897">
        <ele>47</ele>
        <time>2021-05-09T09:56:31.000Z</time>
      </trkpt>
      <trkpt lat="47.29922" lon="-2.3693">
        <ele>47</ele>
        <time>2021-05-09T09:56:39.000Z</time>
      </trkpt>
      <trkpt lat="47.29907" lon="-2.36953">
        <ele>47</ele>
        <time>2021-05-09T09:56:44.000Z</time>
      </trkpt>
      <trkpt lat="47.29902" lon="-2.36964">
        <ele>47</ele>
        <time>2021-05-09T09:56:46.000Z</time>
      </trkpt>
      <trkpt lat="47.29893" lon="-2.36973">
        <ele>47</ele>
        <time>2021-05-09T09:56:49.000Z</time>
      </trkpt>
      <trkpt lat="47.29889" lon="-2.36973">
        <ele>47</ele>
        <time>2021-05-09T09:56:50.000Z</time>
      </trkpt>
      <trkpt lat="47.2988" lon="-2.36976">
        <ele>47</ele>
        <time>2021-05-09T09:56:52.000Z</time>
      </trkpt>
      <trkpt lat="47.29869" lon="-2.36988">
        <ele>47</ele>
        <time>2021-05-09T09:56:55.000Z</time>
      </trkpt>
      <trkpt lat="47.29858" lon="-2.37001">
        <ele>47</ele>
        <time>2021-05-09T09:56:58.000Z</time>
      </trkpt>
      <trkpt lat="47.29842" lon="-2.3702">
        <ele>47</ele>
        <time>2021-05-09T09:57:02.000Z</time>
      </trkpt>
      <trkpt lat="47.2982" lon="-2.37052">
        <ele>47</ele>
        <time>2021-05-09T09:57:08.000Z</time>
      </trkpt>
      <trkpt lat="47.29805" lon="-2.37096">
        <ele>47</ele>
        <time>2021-05-09T09:57:15.000Z</time>
      </trkpt>
      <trkpt lat="47.29802" lon="-2.37109">
        <ele>47</ele>
        <time>2021-05-09T09:57:17.000Z</time>
      </trkpt>
      <trkpt lat="47.29798" lon="-2.37139">
        <ele>47</ele>
        <time>2021-05-09T09:57:21.000Z</time>
      </trkpt>
      <trkpt lat="47.29785" lon="-2.37163">
        <ele>47.400001525879</ele>
        <time>2021-05-09T09:57:25.000Z</time>
      </trkpt>
      <trkpt lat="47.29781" lon="-2.37168">
        <ele>47.799999237061</ele>
        <time>2021-05-09T09:57:26.000Z</time>
      </trkpt>
      <trkpt lat="47.29776" lon="-2.37172">
        <ele>48.200000762939</ele>
        <time>2021-05-09T09:57:27.000Z</time>
      </trkpt>
      <trkpt lat="47.29771" lon="-2.37175">
        <ele>48.599998474121</ele>
        <time>2021-05-09T09:57:28.000Z</time>
      </trkpt>
      <trkpt lat="47.29766" lon="-2.37179">
        <ele>49</ele>
        <time>2021-05-09T09:57:29.000Z</time>
      </trkpt>
      <trkpt lat="47.29761" lon="-2.37181">
        <ele>49</ele>
        <time>2021-05-09T09:57:30.000Z</time>
      </trkpt>
      <trkpt lat="47.29734" lon="-2.37189">
        <ele>49</ele>
        <time>2021-05-09T09:57:35.000Z</time>
      </trkpt>
      <trkpt lat="47.29728" lon="-2.37188">
        <ele>49</ele>
        <time>2021-05-09T09:57:36.000Z</time>
      </trkpt>
      <trkpt lat="47.29717" lon="-2.3719">
        <ele>49</ele>
        <time>2021-05-09T09:57:38.000Z</time>
      </trkpt>
      <trkpt lat="47.29699" lon="-2.37197">
        <ele>49</ele>
        <time>2021-05-09T09:57:41.000Z</time>
      </trkpt>
      <trkpt lat="47.29682" lon="-2.37204">
        <ele>48.599998474121</ele>
        <time>2021-05-09T09:57:44.000Z</time>
      </trkpt>
      <trkpt lat="47.29677" lon="-2.37205">
        <ele>48.200000762939</ele>
        <time>2021-05-09T09:57:45.000Z</time>
      </trkpt>
      <trkpt lat="47.29672" lon="-2.37207">
        <ele>47.799999237061</ele>
        <time>2021-05-09T09:57:46.000Z</time>
      </trkpt>
      <trkpt lat="47.29666" lon="-2.37209">
        <ele>47.400001525879</ele>
        <time>2021-05-09T09:57:47.000Z</time>
      </trkpt>
      <trkpt lat="47.29661" lon="-2.37211">
        <ele>47</ele>
        <time>2021-05-09T09:57:48.000Z</time>
      </trkpt>
      <trkpt lat="47.29655" lon="-2.37212">
        <ele>47</ele>
        <time>2021-05-09T09:57:49.000Z</time>
      </trkpt>
      <trkpt lat="47.29628" lon="-2.37222">
        <ele>47</ele>
        <time>2021-05-09T09:57:54.000Z</time>
      </trkpt>
      <trkpt lat="47.29622" lon="-2.37225">
        <ele>47</ele>
        <time>2021-05-09T09:57:55.000Z</time>
      </trkpt>
      <trkpt lat="47.29589" lon="-2.37245">
        <ele>47</ele>
        <time>2021-05-09T09:58:01.000Z</time>
      </trkpt>
      <trkpt lat="47.29562" lon="-2.37261">
        <ele>46.200000762939</ele>
        <time>2021-05-09T09:58:06.000Z</time>
      </trkpt>
      <trkpt lat="47.29556" lon="-2.37264">
        <ele>45.599998474121</ele>
        <time>2021-05-09T09:58:07.000Z</time>
      </trkpt>
      <trkpt lat="47.29551" lon="-2.37268">
        <ele>45.200000762939</ele>
        <time>2021-05-09T09:58:08.000Z</time>
      </trkpt>
      <trkpt lat="47.29545" lon="-2.37271">
        <ele>44.799999237061</ele>
        <time>2021-05-09T09:58:09.000Z</time>
      </trkpt>
      <trkpt lat="47.2952" lon="-2.37283">
        <ele>44.400001525879</ele>
        <time>2021-05-09T09:58:13.000Z</time>
      </trkpt>
      <trkpt lat="47.29514" lon="-2.37285">
        <ele>43.799999237061</ele>
        <time>2021-05-09T09:58:14.000Z</time>
      </trkpt>
      <trkpt lat="47.29508" lon="-2.37286">
        <ele>43.400001525879</ele>
        <time>2021-05-09T09:58:15.000Z</time>
      </trkpt>
      <trkpt lat="47.29502" lon="-2.37285">
        <ele>43</ele>
        <time>2021-05-09T09:58:16.000Z</time>
      </trkpt>
      <trkpt lat="47.29496" lon="-2.37284">
        <ele>42.599998474121</ele>
        <time>2021-05-09T09:58:17.000Z</time>
      </trkpt>
      <trkpt lat="47.2949" lon="-2.37283">
        <ele>42.200000762939</ele>
        <time>2021-05-09T09:58:18.000Z</time>
      </trkpt>
      <trkpt lat="47.29484" lon="-2.37283">
        <ele>41.799999237061</ele>
        <time>2021-05-09T09:58:19.000Z</time>
      </trkpt>
      <trkpt lat="47.29479" lon="-2.37284">
        <ele>41.200000762939</ele>
        <time>2021-05-09T09:58:20.000Z</time>
      </trkpt>
      <trkpt lat="47.29474" lon="-2.37286">
        <ele>40.799999237061</ele>
        <time>2021-05-09T09:58:21.000Z</time>
      </trkpt>
      <trkpt lat="47.29471" lon="-2.37289">
        <ele>40.400001525879</ele>
        <time>2021-05-09T09:58:22.000Z</time>
      </trkpt>
      <trkpt lat="47.29473" lon="-2.37298">
        <ele>40.400001525879</ele>
        <time>2021-05-09T09:58:25.000Z</time>
      </trkpt>
      <trkpt lat="47.29486" lon="-2.3731">
        <ele>40.400001525879</ele>
        <time>2021-05-09T09:58:29.000Z</time>
      </trkpt>
      <trkpt lat="47.29489" lon="-2.37313">
        <ele>40.400001525879</ele>
        <time>2021-05-09T09:58:30.000Z</time>
      </trkpt>
      <trkpt lat="47.295" lon="-2.37326">
        <ele>40.400001525879</ele>
        <time>2021-05-09T09:58:37.000Z</time>
      </trkpt>
      <trkpt lat="47.29505" lon="-2.37328">
        <ele>40.400001525879</ele>
        <time>2021-05-09T09:58:42.000Z</time>
      </trkpt>
      <trkpt lat="47.29507" lon="-2.37332">
        <ele>38.400001525879</ele>
        <time>2021-05-09T09:59:34.000Z</time>
      </trkpt>
      <trkpt lat="47.29518" lon="-2.37346">
        <ele>38.400001525879</ele>
        <time>2021-05-09T09:59:40.000Z</time>
      </trkpt>
      <trkpt lat="47.29536" lon="-2.37366">
        <ele>38.400001525879</ele>
        <time>2021-05-09T09:59:46.000Z</time>
      </trkpt>
      <trkpt lat="47.29555" lon="-2.37392">
        <ele>38.400001525879</ele>
        <time>2021-05-09T09:59:53.000Z</time>
      </trkpt>
      <trkpt lat="47.29568" lon="-2.3741">
        <ele>38.799999237061</ele>
        <time>2021-05-09T09:59:57.000Z</time>
      </trkpt>
      <trkpt lat="47.29571" lon="-2.37415">
        <ele>39.200000762939</ele>
        <time>2021-05-09T09:59:58.000Z</time>
      </trkpt>
      <trkpt lat="47.29574" lon="-2.3742">
        <ele>39.599998474121</ele>
        <time>2021-05-09T09:59:59.000Z</time>
      </trkpt>
      <trkpt lat="47.29577" lon="-2.37425">
        <ele>40</ele>
        <time>2021-05-09T10:00:00.000Z</time>
      </trkpt>
      <trkpt lat="47.2958" lon="-2.3743">
        <ele>40.400001525879</ele>
        <time>2021-05-09T10:00:01.000Z</time>
      </trkpt>
      <trkpt lat="47.29595" lon="-2.3746">
        <ele>40.400001525879</ele>
        <time>2021-05-09T10:00:07.000Z</time>
      </trkpt>
      <trkpt lat="47.29606" lon="-2.37476">
        <ele>40.400001525879</ele>
        <time>2021-05-09T10:00:10.000Z</time>
      </trkpt>
      <trkpt lat="47.29618" lon="-2.37491">
        <ele>40.400001525879</ele>
        <time>2021-05-09T10:00:13.000Z</time>
      </trkpt>
      <trkpt lat="47.29641" lon="-2.37507">
        <ele>40</ele>
        <time>2021-05-09T10:00:17.000Z</time>
      </trkpt>
      <trkpt lat="47.29647" lon="-2.37512">
        <ele>39.599998474121</ele>
        <time>2021-05-09T10:00:18.000Z</time>
      </trkpt>
      <trkpt lat="47.29653" lon="-2.37516">
        <ele>39</ele>
        <time>2021-05-09T10:00:19.000Z</time>
      </trkpt>
      <trkpt lat="47.2966" lon="-2.3752">
        <ele>38.599998474121</ele>
        <time>2021-05-09T10:00:20.000Z</time>
      </trkpt>
      <trkpt lat="47.29667" lon="-2.37525">
        <ele>38.200000762939</ele>
        <time>2021-05-09T10:00:21.000Z</time>
      </trkpt>
      <trkpt lat="47.29691" lon="-2.37544">
        <ele>38.200000762939</ele>
        <time>2021-05-09T10:00:25.000Z</time>
      </trkpt>
      <trkpt lat="47.2972" lon="-2.37575">
        <ele>38.200000762939</ele>
        <time>2021-05-09T10:00:31.000Z</time>
      </trkpt>
      <trkpt lat="47.2974" lon="-2.37603">
        <ele>38.599998474121</ele>
        <time>2021-05-09T10:00:36.000Z</time>
      </trkpt>
      <trkpt lat="47.29744" lon="-2.37608">
        <ele>39</ele>
        <time>2021-05-09T10:00:37.000Z</time>
      </trkpt>
      <trkpt lat="47.29748" lon="-2.37613">
        <ele>39.400001525879</ele>
        <time>2021-05-09T10:00:38.000Z</time>
      </trkpt>
      <trkpt lat="47.29752" lon="-2.37619">
        <ele>39.799999237061</ele>
        <time>2021-05-09T10:00:39.000Z</time>
      </trkpt>
      <trkpt lat="47.29756" lon="-2.37625">
        <ele>40.200000762939</ele>
        <time>2021-05-09T10:00:40.000Z</time>
      </trkpt>
      <trkpt lat="47.29789" lon="-2.37669">
        <ele>40.200000762939</ele>
        <time>2021-05-09T10:00:48.000Z</time>
      </trkpt>
      <trkpt lat="47.29814" lon="-2.37711">
        <ele>40.200000762939</ele>
        <time>2021-05-09T10:00:55.000Z</time>
      </trkpt>
      <trkpt lat="47.29844" lon="-2.3776">
        <ele>40.200000762939</ele>
        <time>2021-05-09T10:01:03.000Z</time>
      </trkpt>
      <trkpt lat="47.2987" lon="-2.37802">
        <ele>40.200000762939</ele>
        <time>2021-05-09T10:01:10.000Z</time>
      </trkpt>
      <trkpt lat="47.29872" lon="-2.37814">
        <ele>40.200000762939</ele>
        <time>2021-05-09T10:01:13.000Z</time>
      </trkpt>
      <trkpt lat="47.29868" lon="-2.37822">
        <ele>39.799999237061</ele>
        <time>2021-05-09T10:01:16.000Z</time>
      </trkpt>
      <trkpt lat="47.29867" lon="-2.37826">
        <ele>39.400001525879</ele>
        <time>2021-05-09T10:01:17.000Z</time>
      </trkpt>
      <trkpt lat="47.29865" lon="-2.37829">
        <ele>39</ele>
        <time>2021-05-09T10:01:18.000Z</time>
      </trkpt>
      <trkpt lat="47.29863" lon="-2.37833">
        <ele>38.599998474121</ele>
        <time>2021-05-09T10:01:19.000Z</time>
      </trkpt>
      <trkpt lat="47.29861" lon="-2.37837">
        <ele>38.200000762939</ele>
        <time>2021-05-09T10:01:20.000Z</time>
      </trkpt>
      <trkpt lat="47.29855" lon="-2.37846">
        <ele>38.200000762939</ele>
        <time>2021-05-09T10:01:22.000Z</time>
      </trkpt>
      <trkpt lat="47.29842" lon="-2.37869">
        <ele>38.200000762939</ele>
        <time>2021-05-09T10:01:26.000Z</time>
      </trkpt>
      <trkpt lat="47.29838" lon="-2.37874">
        <ele>38.200000762939</ele>
        <time>2021-05-09T10:01:27.000Z</time>
      </trkpt>
      <trkpt lat="47.29827" lon="-2.37884">
        <ele>38.200000762939</ele>
        <time>2021-05-09T10:01:30.000Z</time>
      </trkpt>
      <trkpt lat="47.29814" lon="-2.37895">
        <ele>38.200000762939</ele>
        <time>2021-05-09T10:01:33.000Z</time>
      </trkpt>
      <trkpt lat="47.29787" lon="-2.37914">
        <ele>38.599998474121</ele>
        <time>2021-05-09T10:01:39.000Z</time>
      </trkpt>
      <trkpt lat="47.29782" lon="-2.37918">
        <ele>39</ele>
        <time>2021-05-09T10:01:40.000Z</time>
      </trkpt>
      <trkpt lat="47.29775" lon="-2.37923">
        <ele>39.400001525879</ele>
        <time>2021-05-09T10:01:41.000Z</time>
      </trkpt>
      <trkpt lat="47.2977" lon="-2.3793">
        <ele>39.799999237061</ele>
        <time>2021-05-09T10:01:42.000Z</time>
      </trkpt>
      <trkpt lat="47.29764" lon="-2.37937">
        <ele>40.200000762939</ele>
        <time>2021-05-09T10:01:43.000Z</time>
      </trkpt>
      <trkpt lat="47.29758" lon="-2.37943">
        <ele>40.200000762939</ele>
        <time>2021-05-09T10:01:44.000Z</time>
      </trkpt>
      <trkpt lat="47.29742" lon="-2.37965">
        <ele>39.799999237061</ele>
        <time>2021-05-09T10:01:47.000Z</time>
      </trkpt>
      <trkpt lat="47.29738" lon="-2.37973">
        <ele>39.200000762939</ele>
        <time>2021-05-09T10:01:48.000Z</time>
      </trkpt>
      <trkpt lat="47.29733" lon="-2.3798">
        <ele>38.799999237061</ele>
        <time>2021-05-09T10:01:49.000Z</time>
      </trkpt>
      <trkpt lat="47.29732" lon="-2.37988">
        <ele>38.200000762939</ele>
        <time>2021-05-09T10:01:50.000Z</time>
      </trkpt>
      <trkpt lat="47.2973" lon="-2.37996">
        <ele>37.599998474121</ele>
        <time>2021-05-09T10:01:51.000Z</time>
      </trkpt>
      <trkpt lat="47.29731" lon="-2.38005">
        <ele>37</ele>
        <time>2021-05-09T10:01:52.000Z</time>
      </trkpt>
      <trkpt lat="47.29731" lon="-2.38013">
        <ele>36.200000762939</ele>
        <time>2021-05-09T10:01:53.000Z</time>
      </trkpt>
      <trkpt lat="47.29732" lon="-2.38021">
        <ele>35.400001525879</ele>
        <time>2021-05-09T10:01:54.000Z</time>
      </trkpt>
      <trkpt lat="47.29732" lon="-2.38029">
        <ele>34.599998474121</ele>
        <time>2021-05-09T10:01:55.000Z</time>
      </trkpt>
      <trkpt lat="47.29732" lon="-2.38036">
        <ele>33.599998474121</ele>
        <time>2021-05-09T10:01:56.000Z</time>
      </trkpt>
      <trkpt lat="47.29731" lon="-2.38042">
        <ele>32.799999237061</ele>
        <time>2021-05-09T10:01:57.000Z</time>
      </trkpt>
      <trkpt lat="47.29728" lon="-2.38046">
        <ele>31.799999237061</ele>
        <time>2021-05-09T10:01:58.000Z</time>
      </trkpt>
      <trkpt lat="47.29722" lon="-2.3805">
        <ele>30.799999237061</ele>
        <time>2021-05-09T10:01:59.000Z</time>
      </trkpt>
      <trkpt lat="47.29715" lon="-2.38054">
        <ele>29.799999237061</ele>
        <time>2021-05-09T10:02:00.000Z</time>
      </trkpt>
      <trkpt lat="47.29708" lon="-2.3806">
        <ele>29</ele>
        <time>2021-05-09T10:02:01.000Z</time>
      </trkpt>
      <trkpt lat="47.297" lon="-2.38066">
        <ele>28.39999961853</ele>
        <time>2021-05-09T10:02:02.000Z</time>
      </trkpt>
      <trkpt lat="47.29692" lon="-2.38073">
        <ele>27.60000038147</ele>
        <time>2021-05-09T10:02:03.000Z</time>
      </trkpt>
      <trkpt lat="47.29684" lon="-2.38078">
        <ele>27</ele>
        <time>2021-05-09T10:02:04.000Z</time>
      </trkpt>
      <trkpt lat="47.29676" lon="-2.38083">
        <ele>26.200000762939</ele>
        <time>2021-05-09T10:02:05.000Z</time>
      </trkpt>
      <trkpt lat="47.29667" lon="-2.38088">
        <ele>25.60000038147</ele>
        <time>2021-05-09T10:02:06.000Z</time>
      </trkpt>
      <trkpt lat="47.29658" lon="-2.38093">
        <ele>24.799999237061</ele>
        <time>2021-05-09T10:02:07.000Z</time>
      </trkpt>
      <trkpt lat="47.29649" lon="-2.38097">
        <ele>24.200000762939</ele>
        <time>2021-05-09T10:02:08.000Z</time>
      </trkpt>
      <trkpt lat="47.2964" lon="-2.38102">
        <ele>23.60000038147</ele>
        <time>2021-05-09T10:02:09.000Z</time>
      </trkpt>
      <trkpt lat="47.29631" lon="-2.38106">
        <ele>22.799999237061</ele>
        <time>2021-05-09T10:02:10.000Z</time>
      </trkpt>
      <trkpt lat="47.29622" lon="-2.3811">
        <ele>22.200000762939</ele>
        <time>2021-05-09T10:02:11.000Z</time>
      </trkpt>
      <trkpt lat="47.29613" lon="-2.38113">
        <ele>21</ele>
        <time>2021-05-09T10:02:12.000Z</time>
      </trkpt>
      <trkpt lat="47.29604" lon="-2.38116">
        <ele>20.39999961853</ele>
        <time>2021-05-09T10:02:13.000Z</time>
      </trkpt>
      <trkpt lat="47.29595" lon="-2.38118">
        <ele>19.799999237061</ele>
        <time>2021-05-09T10:02:14.000Z</time>
      </trkpt>
      <trkpt lat="47.29586" lon="-2.3812">
        <ele>19.39999961853</ele>
        <time>2021-05-09T10:02:15.000Z</time>
      </trkpt>
      <trkpt lat="47.29577" lon="-2.38122">
        <ele>18.799999237061</ele>
        <time>2021-05-09T10:02:16.000Z</time>
      </trkpt>
      <trkpt lat="47.29551" lon="-2.38126">
        <ele>18.39999961853</ele>
        <time>2021-05-09T10:02:19.000Z</time>
      </trkpt>
      <trkpt lat="47.29542" lon="-2.38126">
        <ele>17.799999237061</ele>
        <time>2021-05-09T10:02:20.000Z</time>
      </trkpt>
      <trkpt lat="47.29534" lon="-2.38126">
        <ele>17.39999961853</ele>
        <time>2021-05-09T10:02:21.000Z</time>
      </trkpt>
      <trkpt lat="47.29525" lon="-2.38126">
        <ele>17</ele>
        <time>2021-05-09T10:02:22.000Z</time>
      </trkpt>
      <trkpt lat="47.29516" lon="-2.38125">
        <ele>16.60000038147</ele>
        <time>2021-05-09T10:02:23.000Z</time>
      </trkpt>
      <trkpt lat="47.29507" lon="-2.38124">
        <ele>16.200000762939</ele>
        <time>2021-05-09T10:02:24.000Z</time>
      </trkpt>
      <trkpt lat="47.29499" lon="-2.38123">
        <ele>15.60000038147</ele>
        <time>2021-05-09T10:02:25.000Z</time>
      </trkpt>
      <trkpt lat="47.29491" lon="-2.38124">
        <ele>15.199999809265</ele>
        <time>2021-05-09T10:02:26.000Z</time>
      </trkpt>
      <trkpt lat="47.29483" lon="-2.38128">
        <ele>14.60000038147</ele>
        <time>2021-05-09T10:02:27.000Z</time>
      </trkpt>
      <trkpt lat="47.29476" lon="-2.38131">
        <ele>14.199999809265</ele>
        <time>2021-05-09T10:02:28.000Z</time>
      </trkpt>
      <trkpt lat="47.29469" lon="-2.38136">
        <ele>13.60000038147</ele>
        <time>2021-05-09T10:02:29.000Z</time>
      </trkpt>
      <trkpt lat="47.29463" lon="-2.38141">
        <ele>13.199999809265</ele>
        <time>2021-05-09T10:02:30.000Z</time>
      </trkpt>
      <trkpt lat="47.29457" lon="-2.38146">
        <ele>12.60000038147</ele>
        <time>2021-05-09T10:02:31.000Z</time>
      </trkpt>
      <trkpt lat="47.29451" lon="-2.3815">
        <ele>12.199999809265</ele>
        <time>2021-05-09T10:02:32.000Z</time>
      </trkpt>
      <trkpt lat="47.29445" lon="-2.38151">
        <ele>11.800000190735</ele>
        <time>2021-05-09T10:02:34.000Z</time>
      </trkpt>
      <trkpt lat="47.29443" lon="-2.38147">
        <ele>11.39999961853</ele>
        <time>2021-05-09T10:02:35.000Z</time>
      </trkpt>
      <trkpt lat="47.2944" lon="-2.38142">
        <ele>10.39999961853</ele>
        <time>2021-05-09T10:02:36.000Z</time>
      </trkpt>
      <trkpt lat="47.29438" lon="-2.38135">
        <ele>10</ele>
        <time>2021-05-09T10:02:37.000Z</time>
      </trkpt>
      <trkpt lat="47.29422" lon="-2.38089">
        <ele>10</ele>
        <time>2021-05-09T10:02:43.000Z</time>
      </trkpt>
      <trkpt lat="47.29407" lon="-2.38046">
        <ele>10</ele>
        <time>2021-05-09T10:02:49.000Z</time>
      </trkpt>
      <trkpt lat="47.29389" lon="-2.37995">
        <ele>10</ele>
        <time>2021-05-09T10:02:57.000Z</time>
      </trkpt>
      <trkpt lat="47.2937" lon="-2.37942">
        <ele>10</ele>
        <time>2021-05-09T10:03:05.000Z</time>
      </trkpt>
      <trkpt lat="47.29354" lon="-2.37892">
        <ele>10</ele>
        <time>2021-05-09T10:03:12.000Z</time>
      </trkpt>
      <trkpt lat="47.29351" lon="-2.37885">
        <ele>10.39999961853</ele>
        <time>2021-05-09T10:03:13.000Z</time>
      </trkpt>
      <trkpt lat="47.29349" lon="-2.37878">
        <ele>10.800000190735</ele>
        <time>2021-05-09T10:03:14.000Z</time>
      </trkpt>
      <trkpt lat="47.29346" lon="-2.37872">
        <ele>11.199999809265</ele>
        <time>2021-05-09T10:03:15.000Z</time>
      </trkpt>
      <trkpt lat="47.29344" lon="-2.37865">
        <ele>11.60000038147</ele>
        <time>2021-05-09T10:03:16.000Z</time>
      </trkpt>
      <trkpt lat="47.29342" lon="-2.37858">
        <ele>12</ele>
        <time>2021-05-09T10:03:17.000Z</time>
      </trkpt>
      <trkpt lat="47.29335" lon="-2.37827">
        <ele>12</ele>
        <time>2021-05-09T10:03:21.000Z</time>
      </trkpt>
      <trkpt lat="47.29332" lon="-2.37803">
        <ele>12.39999961853</ele>
        <time>2021-05-09T10:03:24.000Z</time>
      </trkpt>
      <trkpt lat="47.29331" lon="-2.37795">
        <ele>13</ele>
        <time>2021-05-09T10:03:25.000Z</time>
      </trkpt>
      <trkpt lat="47.29331" lon="-2.37787">
        <ele>13.800000190735</ele>
        <time>2021-05-09T10:03:26.000Z</time>
      </trkpt>
      <trkpt lat="47.29331" lon="-2.37779">
        <ele>14.199999809265</ele>
        <time>2021-05-09T10:03:27.000Z</time>
      </trkpt>
      <trkpt lat="47.29329" lon="-2.37732">
        <ele>14.60000038147</ele>
        <time>2021-05-09T10:03:33.000Z</time>
      </trkpt>
      <trkpt lat="47.29329" lon="-2.37724">
        <ele>15</ele>
        <time>2021-05-09T10:03:34.000Z</time>
      </trkpt>
      <trkpt lat="47.29329" lon="-2.37716">
        <ele>15.39999961853</ele>
        <time>2021-05-09T10:03:35.000Z</time>
      </trkpt>
      <trkpt lat="47.29329" lon="-2.37709">
        <ele>15.800000190735</ele>
        <time>2021-05-09T10:03:36.000Z</time>
      </trkpt>
      <trkpt lat="47.29328" lon="-2.37702">
        <ele>16.200000762939</ele>
        <time>2021-05-09T10:03:37.000Z</time>
      </trkpt>
      <trkpt lat="47.29328" lon="-2.37681">
        <ele>16.60000038147</ele>
        <time>2021-05-09T10:03:40.000Z</time>
      </trkpt>
      <trkpt lat="47.29328" lon="-2.37674">
        <ele>17</ele>
        <time>2021-05-09T10:03:41.000Z</time>
      </trkpt>
      <trkpt lat="47.29328" lon="-2.37667">
        <ele>17.60000038147</ele>
        <time>2021-05-09T10:03:42.000Z</time>
      </trkpt>
      <trkpt lat="47.29328" lon="-2.3766">
        <ele>18</ele>
        <time>2021-05-09T10:03:43.000Z</time>
      </trkpt>
      <trkpt lat="47.29327" lon="-2.37653">
        <ele>18.39999961853</ele>
        <time>2021-05-09T10:03:44.000Z</time>
      </trkpt>
      <trkpt lat="47.29326" lon="-2.37646">
        <ele>18.39999961853</ele>
        <time>2021-05-09T10:03:45.000Z</time>
      </trkpt>
      <trkpt lat="47.29322" lon="-2.37632">
        <ele>18.39999961853</ele>
        <time>2021-05-09T10:03:47.000Z</time>
      </trkpt>
      <trkpt lat="47.29321" lon="-2.37626">
        <ele>18.799999237061</ele>
        <time>2021-05-09T10:03:48.000Z</time>
      </trkpt>
      <trkpt lat="47.29319" lon="-2.37619">
        <ele>19.200000762939</ele>
        <time>2021-05-09T10:03:49.000Z</time>
      </trkpt>
      <trkpt lat="47.29316" lon="-2.37612">
        <ele>20</ele>
        <time>2021-05-09T10:03:50.000Z</time>
      </trkpt>
      <trkpt lat="47.29312" lon="-2.37606">
        <ele>20.39999961853</ele>
        <time>2021-05-09T10:03:51.000Z</time>
      </trkpt>
      <trkpt lat="47.29305" lon="-2.37594">
        <ele>20.39999961853</ele>
        <time>2021-05-09T10:03:53.000Z</time>
      </trkpt>
      <trkpt lat="47.29274" lon="-2.37543">
        <ele>20.39999961853</ele>
        <time>2021-05-09T10:04:01.000Z</time>
      </trkpt>
      <trkpt lat="47.29272" lon="-2.37536">
        <ele>20.39999961853</ele>
        <time>2021-05-09T10:04:02.000Z</time>
      </trkpt>
      <trkpt lat="47.2926" lon="-2.37519">
        <ele>20.39999961853</ele>
        <time>2021-05-09T10:04:05.000Z</time>
      </trkpt>
      <trkpt lat="47.29257" lon="-2.37513">
        <ele>20.39999961853</ele>
        <time>2021-05-09T10:04:06.000Z</time>
      </trkpt>
      <trkpt lat="47.29234" lon="-2.37479">
        <ele>20.39999961853</ele>
        <time>2021-05-09T10:04:12.000Z</time>
      </trkpt>
      <trkpt lat="47.29218" lon="-2.37454">
        <ele>20.799999237061</ele>
        <time>2021-05-09T10:04:16.000Z</time>
      </trkpt>
      <trkpt lat="47.29214" lon="-2.37449">
        <ele>21.200000762939</ele>
        <time>2021-05-09T10:04:17.000Z</time>
      </trkpt>
      <trkpt lat="47.2921" lon="-2.37443">
        <ele>21.60000038147</ele>
        <time>2021-05-09T10:04:18.000Z</time>
      </trkpt>
      <trkpt lat="47.29206" lon="-2.37437">
        <ele>22</ele>
        <time>2021-05-09T10:04:19.000Z</time>
      </trkpt>
      <trkpt lat="47.29203" lon="-2.37431">
        <ele>22.60000038147</ele>
        <time>2021-05-09T10:04:20.000Z</time>
      </trkpt>
      <trkpt lat="47.29177" lon="-2.3739">
        <ele>23</ele>
        <time>2021-05-09T10:04:27.000Z</time>
      </trkpt>
      <trkpt lat="47.29174" lon="-2.37385">
        <ele>23.39999961853</ele>
        <time>2021-05-09T10:04:28.000Z</time>
      </trkpt>
      <trkpt lat="47.29171" lon="-2.3738">
        <ele>23.799999237061</ele>
        <time>2021-05-09T10:04:29.000Z</time>
      </trkpt>
      <trkpt lat="47.29168" lon="-2.37374">
        <ele>24.200000762939</ele>
        <time>2021-05-09T10:04:30.000Z</time>
      </trkpt>
      <trkpt lat="47.29165" lon="-2.37368">
        <ele>24.799999237061</ele>
        <time>2021-05-09T10:04:31.000Z</time>
      </trkpt>
      <trkpt lat="47.29162" lon="-2.37362">
        <ele>24.799999237061</ele>
        <time>2021-05-09T10:04:32.000Z</time>
      </trkpt>
      <trkpt lat="47.29143" lon="-2.37322">
        <ele>24.799999237061</ele>
        <time>2021-05-09T10:04:38.000Z</time>
      </trkpt>
      <trkpt lat="47.29139" lon="-2.37316">
        <ele>24.799999237061</ele>
        <time>2021-05-09T10:04:39.000Z</time>
      </trkpt>
      <trkpt lat="47.29131" lon="-2.37306">
        <ele>24.799999237061</ele>
        <time>2021-05-09T10:04:41.000Z</time>
      </trkpt>
      <trkpt lat="47.29118" lon="-2.37292">
        <ele>24.799999237061</ele>
        <time>2021-05-09T10:04:44.000Z</time>
      </trkpt>
      <trkpt lat="47.29084" lon="-2.37255">
        <ele>24.799999237061</ele>
        <time>2021-05-09T10:04:52.000Z</time>
      </trkpt>
      <trkpt lat="47.29053" lon="-2.37225">
        <ele>24.799999237061</ele>
        <time>2021-05-09T10:04:59.000Z</time>
      </trkpt>
      <trkpt lat="47.29025" lon="-2.37198">
        <ele>24.799999237061</ele>
        <time>2021-05-09T10:05:05.000Z</time>
      </trkpt>
      <trkpt lat="47.29007" lon="-2.37177">
        <ele>24.200000762939</ele>
        <time>2021-05-09T10:05:09.000Z</time>
      </trkpt>
      <trkpt lat="47.29004" lon="-2.37173">
        <ele>23.60000038147</ele>
        <time>2021-05-09T10:05:10.000Z</time>
      </trkpt>
      <trkpt lat="47.29" lon="-2.3717">
        <ele>23.200000762939</ele>
        <time>2021-05-09T10:05:11.000Z</time>
      </trkpt>
      <trkpt lat="47.28997" lon="-2.37169">
        <ele>22.60000038147</ele>
        <time>2021-05-09T10:05:12.000Z</time>
      </trkpt>
      <trkpt lat="47.28992" lon="-2.37172">
        <ele>22.200000762939</ele>
        <time>2021-05-09T10:05:13.000Z</time>
      </trkpt>
      <trkpt lat="47.28987" lon="-2.37174">
        <ele>22.200000762939</ele>
        <time>2021-05-09T10:05:14.000Z</time>
      </trkpt>
      <trkpt lat="47.28984" lon="-2.37177">
        <ele>21.60000038147</ele>
        <time>2021-05-09T10:05:15.000Z</time>
      </trkpt>
      <trkpt lat="47.28982" lon="-2.37178">
        <ele>21.200000762939</ele>
        <time>2021-05-09T10:05:16.000Z</time>
      </trkpt>
      <trkpt lat="47.28981" lon="-2.37179">
        <ele>20.60000038147</ele>
        <time>2021-05-09T10:05:17.000Z</time>
      </trkpt>
      <trkpt lat="47.2898" lon="-2.3718">
        <ele>20.200000762939</ele>
        <time>2021-05-09T10:05:18.000Z</time>
      </trkpt>
      <trkpt lat="47.2898" lon="-2.37179">
        <ele>19.60000038147</ele>
        <time>2021-05-09T10:05:19.000Z</time>
      </trkpt>
      <trkpt lat="47.2898" lon="-2.37179">
        <ele>19.60000038147</ele>
        <time>2021-05-09T10:05:20.000Z</time>
      </trkpt>
      <trkpt lat="47.28978" lon="-2.37181">
        <ele>19.60000038147</ele>
        <time>2021-05-09T10:05:24.000Z</time>
      </trkpt>
      <trkpt lat="47.28969" lon="-2.37194">
        <ele>19.60000038147</ele>
        <time>2021-05-09T10:05:28.000Z</time>
      </trkpt>
      <trkpt lat="47.28965" lon="-2.37198">
        <ele>19.200000762939</ele>
        <time>2021-05-09T10:05:29.000Z</time>
      </trkpt>
      <trkpt lat="47.28961" lon="-2.372">
        <ele>18.799999237061</ele>
        <time>2021-05-09T10:05:30.000Z</time>
      </trkpt>
      <trkpt lat="47.28957" lon="-2.37201">
        <ele>18.39999961853</ele>
        <time>2021-05-09T10:05:31.000Z</time>
      </trkpt>
      <trkpt lat="47.28955" lon="-2.37202">
        <ele>18</ele>
        <time>2021-05-09T10:05:32.000Z</time>
      </trkpt>
      <trkpt lat="47.28951" lon="-2.37204">
        <ele>17.60000038147</ele>
        <time>2021-05-09T10:05:33.000Z</time>
      </trkpt>
      <trkpt lat="47.28936" lon="-2.37209">
        <ele>17.60000038147</ele>
        <time>2021-05-09T10:05:38.000Z</time>
      </trkpt>
      <trkpt lat="47.28932" lon="-2.3721">
        <ele>17.200000762939</ele>
        <time>2021-05-09T10:05:39.000Z</time>
      </trkpt>
      <trkpt lat="47.28928" lon="-2.37211">
        <ele>16.799999237061</ele>
        <time>2021-05-09T10:05:40.000Z</time>
      </trkpt>
      <trkpt lat="47.28924" lon="-2.37214">
        <ele>16.39999961853</ele>
        <time>2021-05-09T10:05:41.000Z</time>
      </trkpt>
      <trkpt lat="47.2892" lon="-2.37216">
        <ele>16</ele>
        <time>2021-05-09T10:05:42.000Z</time>
      </trkpt>
      <trkpt lat="47.28915" lon="-2.37218">
        <ele>15.39999961853</ele>
        <time>2021-05-09T10:05:43.000Z</time>
      </trkpt>
      <trkpt lat="47.28883" lon="-2.37232">
        <ele>15.39999961853</ele>
        <time>2021-05-09T10:05:49.000Z</time>
      </trkpt>
      <trkpt lat="47.28857" lon="-2.37244">
        <ele>15</ele>
        <time>2021-05-09T10:05:54.000Z</time>
      </trkpt>
      <trkpt lat="47.28853" lon="-2.37245">
        <ele>14.60000038147</ele>
        <time>2021-05-09T10:05:55.000Z</time>
      </trkpt>
      <trkpt lat="47.28849" lon="-2.37246">
        <ele>14.199999809265</ele>
        <time>2021-05-09T10:05:56.000Z</time>
      </trkpt>
      <trkpt lat="47.28846" lon="-2.37243">
        <ele>13.800000190735</ele>
        <time>2021-05-09T10:05:57.000Z</time>
      </trkpt>
      <trkpt lat="47.28843" lon="-2.37239">
        <ele>13.39999961853</ele>
        <time>2021-05-09T10:05:58.000Z</time>
      </trkpt>
      <trkpt lat="47.28837" lon="-2.37218">
        <ele>13.39999961853</ele>
        <time>2021-05-09T10:06:02.000Z</time>
      </trkpt>
      <trkpt lat="47.28833" lon="-2.37202">
        <ele>13.39999961853</ele>
        <time>2021-05-09T10:06:07.000Z</time>
      </trkpt>
      <trkpt lat="47.28832" lon="-2.37181">
        <ele>13.39999961853</ele>
        <time>2021-05-09T10:06:13.000Z</time>
      </trkpt>
      <trkpt lat="47.28827" lon="-2.37147">
        <ele>13.39999961853</ele>
        <time>2021-05-09T10:06:19.000Z</time>
      </trkpt>
      <trkpt lat="47.28827" lon="-2.37125">
        <ele>13.39999961853</ele>
        <time>2021-05-09T10:06:24.000Z</time>
      </trkpt>
      <trkpt lat="47.28827" lon="-2.3712">
        <ele>13.39999961853</ele>
        <time>2021-05-09T10:06:26.000Z</time>
      </trkpt>
      <trkpt lat="47.28824" lon="-2.37113">
        <ele>13.39999961853</ele>
        <time>2021-05-09T10:06:29.000Z</time>
      </trkpt>
      <trkpt lat="47.28818" lon="-2.37114">
        <ele>14</ele>
        <time>2021-05-09T10:06:33.000Z</time>
      </trkpt>
      <trkpt lat="47.28816" lon="-2.37115">
        <ele>14.39999961853</ele>
        <time>2021-05-09T10:06:34.000Z</time>
      </trkpt>
      <trkpt lat="47.28815" lon="-2.37115">
        <ele>14.800000190735</ele>
        <time>2021-05-09T10:06:35.000Z</time>
      </trkpt>
      <trkpt lat="47.28814" lon="-2.37117">
        <ele>15.39999961853</ele>
        <time>2021-05-09T10:06:36.000Z</time>
      </trkpt>
      <trkpt lat="47.28813" lon="-2.37118">
        <ele>15.800000190735</ele>
        <time>2021-05-09T10:06:37.000Z</time>
      </trkpt>
      <trkpt lat="47.28811" lon="-2.37118">
        <ele>16.200000762939</ele>
        <time>2021-05-09T10:06:38.000Z</time>
      </trkpt>
      <trkpt lat="47.28809" lon="-2.37118">
        <ele>16.60000038147</ele>
        <time>2021-05-09T10:06:39.000Z</time>
      </trkpt>
      <trkpt lat="47.28808" lon="-2.37118">
        <ele>17</ele>
        <time>2021-05-09T10:06:40.000Z</time>
      </trkpt>
      <trkpt lat="47.28806" lon="-2.37118">
        <ele>17.39999961853</ele>
        <time>2021-05-09T10:06:41.000Z</time>
      </trkpt>
      <trkpt lat="47.28804" lon="-2.37118">
        <ele>17.799999237061</ele>
        <time>2021-05-09T10:06:42.000Z</time>
      </trkpt>
      <trkpt lat="47.28801" lon="-2.37116">
        <ele>18.60000038147</ele>
        <time>2021-05-09T10:06:44.000Z</time>
      </trkpt>
      <trkpt lat="47.288" lon="-2.37113">
        <ele>19</ele>
        <time>2021-05-09T10:06:45.000Z</time>
      </trkpt>
      <trkpt lat="47.288" lon="-2.37108">
        <ele>19.39999961853</ele>
        <time>2021-05-09T10:06:46.000Z</time>
      </trkpt>
      <trkpt lat="47.28799" lon="-2.37104">
        <ele>19.799999237061</ele>
        <time>2021-05-09T10:06:47.000Z</time>
      </trkpt>
      <trkpt lat="47.28794" lon="-2.37081">
        <ele>19.799999237061</ele>
        <time>2021-05-09T10:06:53.000Z</time>
      </trkpt>
      <trkpt lat="47.28793" lon="-2.37076">
        <ele>20.200000762939</ele>
        <time>2021-05-09T10:06:54.000Z</time>
      </trkpt>
      <trkpt lat="47.28792" lon="-2.37072">
        <ele>20.60000038147</ele>
        <time>2021-05-09T10:06:55.000Z</time>
      </trkpt>
      <trkpt lat="47.28791" lon="-2.37068">
        <ele>21.200000762939</ele>
        <time>2021-05-09T10:06:56.000Z</time>
      </trkpt>
      <trkpt lat="47.2879" lon="-2.37066">
        <ele>21.60000038147</ele>
        <time>2021-05-09T10:06:57.000Z</time>
      </trkpt>
      <trkpt lat="47.28789" lon="-2.37063">
        <ele>22</ele>
        <time>2021-05-09T10:06:58.000Z</time>
      </trkpt>
      <trkpt lat="47.28787" lon="-2.37054">
        <ele>22</ele>
        <time>2021-05-09T10:07:00.000Z</time>
      </trkpt>
      <trkpt lat="47.28786" lon="-2.3705">
        <ele>22.39999961853</ele>
        <time>2021-05-09T10:07:01.000Z</time>
      </trkpt>
      <trkpt lat="47.28786" lon="-2.37047">
        <ele>22.799999237061</ele>
        <time>2021-05-09T10:07:02.000Z</time>
      </trkpt>
      <trkpt lat="47.28785" lon="-2.37044">
        <ele>23.200000762939</ele>
        <time>2021-05-09T10:07:03.000Z</time>
      </trkpt>
      <trkpt lat="47.28784" lon="-2.3704">
        <ele>23.60000038147</ele>
        <time>2021-05-09T10:07:04.000Z</time>
      </trkpt>
      <trkpt lat="47.28784" lon="-2.37037">
        <ele>24</ele>
        <time>2021-05-09T10:07:05.000Z</time>
      </trkpt>
      <trkpt lat="47.2878" lon="-2.37021">
        <ele>24</ele>
        <time>2021-05-09T10:07:08.000Z</time>
      </trkpt>
      <trkpt lat="47.28776" lon="-2.37014">
        <ele>24</ele>
        <time>2021-05-09T10:07:10.000Z</time>
      </trkpt>
      <trkpt lat="47.28773" lon="-2.37008">
        <ele>24.39999961853</ele>
        <time>2021-05-09T10:07:12.000Z</time>
      </trkpt>
      <trkpt lat="47.28771" lon="-2.37007">
        <ele>25</ele>
        <time>2021-05-09T10:07:13.000Z</time>
      </trkpt>
      <trkpt lat="47.2877" lon="-2.37004">
        <ele>25.39999961853</ele>
        <time>2021-05-09T10:07:14.000Z</time>
      </trkpt>
      <trkpt lat="47.28769" lon="-2.37001">
        <ele>25.799999237061</ele>
        <time>2021-05-09T10:07:15.000Z</time>
      </trkpt>
      <trkpt lat="47.28766" lon="-2.36996">
        <ele>26.200000762939</ele>
        <time>2021-05-09T10:07:16.000Z</time>
      </trkpt>
      <trkpt lat="47.28762" lon="-2.36983">
        <ele>26.200000762939</ele>
        <time>2021-05-09T10:07:20.000Z</time>
      </trkpt>
      <trkpt lat="47.28762" lon="-2.36961">
        <ele>25.799999237061</ele>
        <time>2021-05-09T10:07:25.000Z</time>
      </trkpt>
      <trkpt lat="47.2876" lon="-2.36956">
        <ele>25.39999961853</ele>
        <time>2021-05-09T10:07:26.000Z</time>
      </trkpt>
      <trkpt lat="47.28757" lon="-2.36951">
        <ele>25</ele>
        <time>2021-05-09T10:07:27.000Z</time>
      </trkpt>
      <trkpt lat="47.28754" lon="-2.36945">
        <ele>24.60000038147</ele>
        <time>2021-05-09T10:07:28.000Z</time>
      </trkpt>
      <trkpt lat="47.28753" lon="-2.36941">
        <ele>24.200000762939</ele>
        <time>2021-05-09T10:07:29.000Z</time>
      </trkpt>
      <trkpt lat="47.28752" lon="-2.36938">
        <ele>23.799999237061</ele>
        <time>2021-05-09T10:07:30.000Z</time>
      </trkpt>
      <trkpt lat="47.28747" lon="-2.36931">
        <ele>23.200000762939</ele>
        <time>2021-05-09T10:07:31.000Z</time>
      </trkpt>
      <trkpt lat="47.28745" lon="-2.36926">
        <ele>22.799999237061</ele>
        <time>2021-05-09T10:07:32.000Z</time>
      </trkpt>
      <trkpt lat="47.28742" lon="-2.36923">
        <ele>21.799999237061</ele>
        <time>2021-05-09T10:07:33.000Z</time>
      </trkpt>
      <trkpt lat="47.2873" lon="-2.36916">
        <ele>21.799999237061</ele>
        <time>2021-05-09T10:07:36.000Z</time>
      </trkpt>
      <trkpt lat="47.28713" lon="-2.36895">
        <ele>21.799999237061</ele>
        <time>2021-05-09T10:07:41.000Z</time>
      </trkpt>
      <trkpt lat="47.28704" lon="-2.36875">
        <ele>22.200000762939</ele>
        <time>2021-05-09T10:07:45.000Z</time>
      </trkpt>
      <trkpt lat="47.28701" lon="-2.3687">
        <ele>22.60000038147</ele>
        <time>2021-05-09T10:07:46.000Z</time>
      </trkpt>
      <trkpt lat="47.28699" lon="-2.36865">
        <ele>23</ele>
        <time>2021-05-09T10:07:47.000Z</time>
      </trkpt>
      <trkpt lat="47.28697" lon="-2.36861">
        <ele>23.39999961853</ele>
        <time>2021-05-09T10:07:48.000Z</time>
      </trkpt>
      <trkpt lat="47.28695" lon="-2.36858">
        <ele>23.799999237061</ele>
        <time>2021-05-09T10:07:49.000Z</time>
      </trkpt>
      <trkpt lat="47.28687" lon="-2.36844">
        <ele>23.799999237061</ele>
        <time>2021-05-09T10:07:52.000Z</time>
      </trkpt>
      <trkpt lat="47.28678" lon="-2.36823">
        <ele>24.200000762939</ele>
        <time>2021-05-09T10:07:56.000Z</time>
      </trkpt>
      <trkpt lat="47.28676" lon="-2.36817">
        <ele>25</ele>
        <time>2021-05-09T10:07:57.000Z</time>
      </trkpt>
      <trkpt lat="47.28673" lon="-2.36813">
        <ele>25.39999961853</ele>
        <time>2021-05-09T10:07:58.000Z</time>
      </trkpt>
      <trkpt lat="47.28672" lon="-2.36809">
        <ele>25.799999237061</ele>
        <time>2021-05-09T10:07:59.000Z</time>
      </trkpt>
      <trkpt lat="47.28664" lon="-2.368">
        <ele>25.799999237061</ele>
        <time>2021-05-09T10:08:02.000Z</time>
      </trkpt>
      <trkpt lat="47.28661" lon="-2.36798">
        <ele>25.799999237061</ele>
        <time>2021-05-09T10:08:03.000Z</time>
      </trkpt>
      <trkpt lat="47.28646" lon="-2.36805">
        <ele>25.799999237061</ele>
        <time>2021-05-09T10:08:07.000Z</time>
      </trkpt>
      <trkpt lat="47.28633" lon="-2.3682">
        <ele>25.799999237061</ele>
        <time>2021-05-09T10:08:10.000Z</time>
      </trkpt>
      <trkpt lat="47.28624" lon="-2.36831">
        <ele>25.799999237061</ele>
        <time>2021-05-09T10:08:12.000Z</time>
      </trkpt>
      <trkpt lat="47.28614" lon="-2.36841">
        <ele>25.799999237061</ele>
        <time>2021-05-09T10:08:14.000Z</time>
      </trkpt>
      <trkpt lat="47.286" lon="-2.36848">
        <ele>25.799999237061</ele>
        <time>2021-05-09T10:08:17.000Z</time>
      </trkpt>
      <trkpt lat="47.28588" lon="-2.36834">
        <ele>25.799999237061</ele>
        <time>2021-05-09T10:08:20.000Z</time>
      </trkpt>
      <trkpt lat="47.28581" lon="-2.3682">
        <ele>25.799999237061</ele>
        <time>2021-05-09T10:08:22.000Z</time>
      </trkpt>
      <trkpt lat="47.28567" lon="-2.36793">
        <ele>25.799999237061</ele>
        <time>2021-05-09T10:08:26.000Z</time>
      </trkpt>
      <trkpt lat="47.28546" lon="-2.36755">
        <ele>25.799999237061</ele>
        <time>2021-05-09T10:08:33.000Z</time>
      </trkpt>
      <trkpt lat="47.2853" lon="-2.36727">
        <ele>25.799999237061</ele>
        <time>2021-05-09T10:08:39.000Z</time>
      </trkpt>
      <trkpt lat="47.28521" lon="-2.36717">
        <ele>26.200000762939</ele>
        <time>2021-05-09T10:08:42.000Z</time>
      </trkpt>
      <trkpt lat="47.28518" lon="-2.36713">
        <ele>26.60000038147</ele>
        <time>2021-05-09T10:08:43.000Z</time>
      </trkpt>
      <trkpt lat="47.28516" lon="-2.3671">
        <ele>27</ele>
        <time>2021-05-09T10:08:44.000Z</time>
      </trkpt>
      <trkpt lat="47.28514" lon="-2.36706">
        <ele>27.60000038147</ele>
        <time>2021-05-09T10:08:45.000Z</time>
      </trkpt>
      <trkpt lat="47.28512" lon="-2.36703">
        <ele>28</ele>
        <time>2021-05-09T10:08:46.000Z</time>
      </trkpt>
      <trkpt lat="47.28508" lon="-2.36697">
        <ele>28</ele>
        <time>2021-05-09T10:08:49.000Z</time>
      </trkpt>
      <trkpt lat="47.28508" lon="-2.36696">
        <ele>28</ele>
        <time>2021-05-09T10:08:51.000Z</time>
      </trkpt>
      <trkpt lat="47.28507" lon="-2.36689">
        <ele>29.60000038147</ele>
        <time>2021-05-09T10:09:56.000Z</time>
      </trkpt>
      <trkpt lat="47.28506" lon="-2.36688">
        <ele>30</ele>
        <time>2021-05-09T10:09:57.000Z</time>
      </trkpt>
      <trkpt lat="47.28502" lon="-2.36684">
        <ele>30</ele>
        <time>2021-05-09T10:10:01.000Z</time>
      </trkpt>
      <trkpt lat="47.28499" lon="-2.36682">
        <ele>30</ele>
        <time>2021-05-09T10:10:27.000Z</time>
      </trkpt>
      <trkpt lat="47.28497" lon="-2.3668">
        <ele>30</ele>
        <time>2021-05-09T10:10:28.000Z</time>
      </trkpt>
      <trkpt lat="47.28494" lon="-2.3666">
        <ele>30</ele>
        <time>2021-05-09T10:10:32.000Z</time>
      </trkpt>
      <trkpt lat="47.2849" lon="-2.36642">
        <ele>30</ele>
        <time>2021-05-09T10:10:35.000Z</time>
      </trkpt>
      <trkpt lat="47.28486" lon="-2.36628">
        <ele>30</ele>
        <time>2021-05-09T10:10:37.000Z</time>
      </trkpt>
      <trkpt lat="47.28474" lon="-2.36588">
        <ele>30</ele>
        <time>2021-05-09T10:10:43.000Z</time>
      </trkpt>
      <trkpt lat="47.28473" lon="-2.36581">
        <ele>30</ele>
        <time>2021-05-09T10:10:44.000Z</time>
      </trkpt>
      <trkpt lat="47.28477" lon="-2.36561">
        <ele>30</ele>
        <time>2021-05-09T10:10:47.000Z</time>
      </trkpt>
      <trkpt lat="47.28484" lon="-2.36551">
        <ele>30</ele>
        <time>2021-05-09T10:10:49.000Z</time>
      </trkpt>
      <trkpt lat="47.28494" lon="-2.36537">
        <ele>30</ele>
        <time>2021-05-09T10:10:52.000Z</time>
      </trkpt>
      <trkpt lat="47.28497" lon="-2.36534">
        <ele>30.39999961853</ele>
        <time>2021-05-09T10:10:53.000Z</time>
      </trkpt>
      <trkpt lat="47.28501" lon="-2.36529">
        <ele>30.799999237061</ele>
        <time>2021-05-09T10:10:54.000Z</time>
      </trkpt>
      <trkpt lat="47.28504" lon="-2.36525">
        <ele>31.200000762939</ele>
        <time>2021-05-09T10:10:55.000Z</time>
      </trkpt>
      <trkpt lat="47.28508" lon="-2.36521">
        <ele>31.60000038147</ele>
        <time>2021-05-09T10:10:56.000Z</time>
      </trkpt>
      <trkpt lat="47.28511" lon="-2.36516">
        <ele>32</ele>
        <time>2021-05-09T10:10:57.000Z</time>
      </trkpt>
      <trkpt lat="47.28514" lon="-2.36512">
        <ele>32</ele>
        <time>2021-05-09T10:10:58.000Z</time>
      </trkpt>
      <trkpt lat="47.28528" lon="-2.36499">
        <ele>32.599998474121</ele>
        <time>2021-05-09T10:11:03.000Z</time>
      </trkpt>
      <trkpt lat="47.28529" lon="-2.36496">
        <ele>33</ele>
        <time>2021-05-09T10:11:04.000Z</time>
      </trkpt>
      <trkpt lat="47.28529" lon="-2.36493">
        <ele>33.400001525879</ele>
        <time>2021-05-09T10:11:05.000Z</time>
      </trkpt>
      <trkpt lat="47.28529" lon="-2.36489">
        <ele>33.799999237061</ele>
        <time>2021-05-09T10:11:06.000Z</time>
      </trkpt>
      <trkpt lat="47.28528" lon="-2.36485">
        <ele>34.200000762939</ele>
        <time>2021-05-09T10:11:07.000Z</time>
      </trkpt>
      <trkpt lat="47.28526" lon="-2.36476">
        <ele>34.200000762939</ele>
        <time>2021-05-09T10:11:09.000Z</time>
      </trkpt>
      <trkpt lat="47.28521" lon="-2.36465">
        <ele>34.200000762939</ele>
        <time>2021-05-09T10:11:11.000Z</time>
      </trkpt>
      <trkpt lat="47.28518" lon="-2.3646">
        <ele>34.200000762939</ele>
        <time>2021-05-09T10:11:12.000Z</time>
      </trkpt>
      <trkpt lat="47.28509" lon="-2.36453">
        <ele>34.200000762939</ele>
        <time>2021-05-09T10:11:14.000Z</time>
      </trkpt>
      <trkpt lat="47.28501" lon="-2.36446">
        <ele>34.200000762939</ele>
        <time>2021-05-09T10:11:16.000Z</time>
      </trkpt>
      <trkpt lat="47.28489" lon="-2.36432">
        <ele>34.599998474121</ele>
        <time>2021-05-09T10:11:20.000Z</time>
      </trkpt>
      <trkpt lat="47.28487" lon="-2.36429">
        <ele>35</ele>
        <time>2021-05-09T10:11:21.000Z</time>
      </trkpt>
      <trkpt lat="47.28484" lon="-2.36425">
        <ele>35.400001525879</ele>
        <time>2021-05-09T10:11:22.000Z</time>
      </trkpt>
      <trkpt lat="47.28482" lon="-2.36422">
        <ele>35.799999237061</ele>
        <time>2021-05-09T10:11:23.000Z</time>
      </trkpt>
      <trkpt lat="47.28478" lon="-2.36419">
        <ele>36.200000762939</ele>
        <time>2021-05-09T10:11:24.000Z</time>
      </trkpt>
      <trkpt lat="47.28472" lon="-2.36413">
        <ele>36.200000762939</ele>
        <time>2021-05-09T10:11:26.000Z</time>
      </trkpt>
      <trkpt lat="47.28449" lon="-2.36394">
        <ele>36.200000762939</ele>
        <time>2021-05-09T10:11:31.000Z</time>
      </trkpt>
      <trkpt lat="47.28445" lon="-2.3639">
        <ele>36.200000762939</ele>
        <time>2021-05-09T10:11:32.000Z</time>
      </trkpt>
      <trkpt lat="47.28432" lon="-2.36372">
        <ele>36.200000762939</ele>
        <time>2021-05-09T10:11:35.000Z</time>
      </trkpt>
      <trkpt lat="47.28428" lon="-2.36367">
        <ele>36.200000762939</ele>
        <time>2021-05-09T10:11:36.000Z</time>
      </trkpt>
      <trkpt lat="47.28424" lon="-2.36362">
        <ele>35.799999237061</ele>
        <time>2021-05-09T10:11:37.000Z</time>
      </trkpt>
      <trkpt lat="47.28419" lon="-2.36357">
        <ele>35.400001525879</ele>
        <time>2021-05-09T10:11:38.000Z</time>
      </trkpt>
      <trkpt lat="47.28415" lon="-2.36353">
        <ele>35</ele>
        <time>2021-05-09T10:11:39.000Z</time>
      </trkpt>
      <trkpt lat="47.28411" lon="-2.36349">
        <ele>34.200000762939</ele>
        <time>2021-05-09T10:11:40.000Z</time>
      </trkpt>
      <trkpt lat="47.28394" lon="-2.36336">
        <ele>34.200000762939</ele>
        <time>2021-05-09T10:11:44.000Z</time>
      </trkpt>
      <trkpt lat="47.28389" lon="-2.36332">
        <ele>33.799999237061</ele>
        <time>2021-05-09T10:11:45.000Z</time>
      </trkpt>
      <trkpt lat="47.28385" lon="-2.36329">
        <ele>33.400001525879</ele>
        <time>2021-05-09T10:11:46.000Z</time>
      </trkpt>
      <trkpt lat="47.28381" lon="-2.36323">
        <ele>33</ele>
        <time>2021-05-09T10:11:47.000Z</time>
      </trkpt>
      <trkpt lat="47.28378" lon="-2.36317">
        <ele>32.599998474121</ele>
        <time>2021-05-09T10:11:48.000Z</time>
      </trkpt>
      <trkpt lat="47.28375" lon="-2.36311">
        <ele>32.200000762939</ele>
        <time>2021-05-09T10:11:49.000Z</time>
      </trkpt>
      <trkpt lat="47.28365" lon="-2.36282">
        <ele>32.200000762939</ele>
        <time>2021-05-09T10:11:52.000Z</time>
      </trkpt>
      <trkpt lat="47.28365" lon="-2.36258">
        <ele>32.200000762939</ele>
        <time>2021-05-09T10:11:56.000Z</time>
      </trkpt>
      <trkpt lat="47.28367" lon="-2.36255">
        <ele>32.200000762939</ele>
        <time>2021-05-09T10:11:57.000Z</time>
      </trkpt>
      <trkpt lat="47.2838" lon="-2.36245">
        <ele>32.200000762939</ele>
        <time>2021-05-09T10:12:01.000Z</time>
      </trkpt>
      <trkpt lat="47.28391" lon="-2.36228">
        <ele>33</ele>
        <time>2021-05-09T10:12:05.000Z</time>
      </trkpt>
      <trkpt lat="47.28395" lon="-2.36223">
        <ele>33.400001525879</ele>
        <time>2021-05-09T10:12:06.000Z</time>
      </trkpt>
      <trkpt lat="47.28401" lon="-2.36218">
        <ele>33.799999237061</ele>
        <time>2021-05-09T10:12:07.000Z</time>
      </trkpt>
      <trkpt lat="47.28406" lon="-2.36216">
        <ele>34.200000762939</ele>
        <time>2021-05-09T10:12:08.000Z</time>
      </trkpt>
      <trkpt lat="47.2842" lon="-2.36213">
        <ele>34.599998474121</ele>
        <time>2021-05-09T10:12:12.000Z</time>
      </trkpt>
      <trkpt lat="47.28423" lon="-2.36212">
        <ele>35</ele>
        <time>2021-05-09T10:12:13.000Z</time>
      </trkpt>
      <trkpt lat="47.28426" lon="-2.36211">
        <ele>35.400001525879</ele>
        <time>2021-05-09T10:12:14.000Z</time>
      </trkpt>
      <trkpt lat="47.28427" lon="-2.36211">
        <ele>35.799999237061</ele>
        <time>2021-05-09T10:12:15.000Z</time>
      </trkpt>
      <trkpt lat="47.28429" lon="-2.3621">
        <ele>36.200000762939</ele>
        <time>2021-05-09T10:12:16.000Z</time>
      </trkpt>
      <trkpt lat="47.2843" lon="-2.3621">
        <ele>36.200000762939</ele>
        <time>2021-05-09T10:12:17.000Z</time>
      </trkpt>
      <trkpt lat="47.28439" lon="-2.36202">
        <ele>36.200000762939</ele>
        <time>2021-05-09T10:12:25.000Z</time>
      </trkpt>
      <trkpt lat="47.2844" lon="-2.36201">
        <ele>36.200000762939</ele>
        <time>2021-05-09T10:12:28.000Z</time>
      </trkpt>
      <trkpt lat="47.28448" lon="-2.36194">
        <ele>36.200000762939</ele>
        <time>2021-05-09T10:12:57.000Z</time>
      </trkpt>
      <trkpt lat="47.28448" lon="-2.3619">
        <ele>36.200000762939</ele>
        <time>2021-05-09T10:12:59.000Z</time>
      </trkpt>
      <trkpt lat="47.28447" lon="-2.36188">
        <ele>36.200000762939</ele>
        <time>2021-05-09T10:13:00.000Z</time>
      </trkpt>
      <trkpt lat="47.28446" lon="-2.36185">
        <ele>36.799999237061</ele>
        <time>2021-05-09T10:13:01.000Z</time>
      </trkpt>
      <trkpt lat="47.28446" lon="-2.36182">
        <ele>37.200000762939</ele>
        <time>2021-05-09T10:13:02.000Z</time>
      </trkpt>
      <trkpt lat="47.28446" lon="-2.36178">
        <ele>37.599998474121</ele>
        <time>2021-05-09T10:13:03.000Z</time>
      </trkpt>
      <trkpt lat="47.28446" lon="-2.36175">
        <ele>38</ele>
        <time>2021-05-09T10:13:04.000Z</time>
      </trkpt>
      <trkpt lat="47.28447" lon="-2.36172">
        <ele>38.400001525879</ele>
        <time>2021-05-09T10:13:05.000Z</time>
      </trkpt>
      <trkpt lat="47.28448" lon="-2.36159">
        <ele>38.400001525879</ele>
        <time>2021-05-09T10:13:09.000Z</time>
      </trkpt>
      <trkpt lat="47.28446" lon="-2.36156">
        <ele>39</ele>
        <time>2021-05-09T10:13:10.000Z</time>
      </trkpt>
      <trkpt lat="47.28445" lon="-2.36154">
        <ele>39.400001525879</ele>
        <time>2021-05-09T10:13:11.000Z</time>
      </trkpt>
      <trkpt lat="47.28444" lon="-2.36152">
        <ele>39.799999237061</ele>
        <time>2021-05-09T10:13:12.000Z</time>
      </trkpt>
      <trkpt lat="47.28443" lon="-2.3615">
        <ele>40.200000762939</ele>
        <time>2021-05-09T10:13:13.000Z</time>
      </trkpt>
      <trkpt lat="47.28443" lon="-2.36147">
        <ele>40.599998474121</ele>
        <time>2021-05-09T10:13:14.000Z</time>
      </trkpt>
      <trkpt lat="47.28442" lon="-2.36143">
        <ele>40.599998474121</ele>
        <time>2021-05-09T10:13:16.000Z</time>
      </trkpt>
      <trkpt lat="47.28441" lon="-2.36139">
        <ele>40.599998474121</ele>
        <time>2021-05-09T10:13:18.000Z</time>
      </trkpt>
      <trkpt lat="47.2844" lon="-2.36132">
        <ele>40.599998474121</ele>
        <time>2021-05-09T10:13:21.000Z</time>
      </trkpt>
      <trkpt lat="47.28439" lon="-2.36127">
        <ele>40.599998474121</ele>
        <time>2021-05-09T10:13:23.000Z</time>
      </trkpt>
      <trkpt lat="47.28437" lon="-2.36122">
        <ele>41</ele>
        <time>2021-05-09T10:13:25.000Z</time>
      </trkpt>
      <trkpt lat="47.28437" lon="-2.36119">
        <ele>41.599998474121</ele>
        <time>2021-05-09T10:13:26.000Z</time>
      </trkpt>
      <trkpt lat="47.28438" lon="-2.36116">
        <ele>42</ele>
        <time>2021-05-09T10:13:27.000Z</time>
      </trkpt>
      <trkpt lat="47.28437" lon="-2.36113">
        <ele>42.400001525879</ele>
        <time>2021-05-09T10:13:28.000Z</time>
      </trkpt>
      <trkpt lat="47.28437" lon="-2.3611">
        <ele>42.799999237061</ele>
        <time>2021-05-09T10:13:29.000Z</time>
      </trkpt>
      <trkpt lat="47.28435" lon="-2.36095">
        <ele>42.799999237061</ele>
        <time>2021-05-09T10:13:33.000Z</time>
      </trkpt>
      <trkpt lat="47.28435" lon="-2.36084">
        <ele>43.200000762939</ele>
        <time>2021-05-09T10:13:36.000Z</time>
      </trkpt>
      <trkpt lat="47.28435" lon="-2.36081">
        <ele>43.599998474121</ele>
        <time>2021-05-09T10:13:37.000Z</time>
      </trkpt>
      <trkpt lat="47.28435" lon="-2.36079">
        <ele>44</ele>
        <time>2021-05-09T10:13:38.000Z</time>
      </trkpt>
      <trkpt lat="47.28435" lon="-2.36076">
        <ele>44.400001525879</ele>
        <time>2021-05-09T10:13:39.000Z</time>
      </trkpt>
      <trkpt lat="47.28435" lon="-2.36074">
        <ele>44.799999237061</ele>
        <time>2021-05-09T10:13:40.000Z</time>
      </trkpt>
      <trkpt lat="47.28435" lon="-2.3606">
        <ele>44.799999237061</ele>
        <time>2021-05-09T10:13:44.000Z</time>
      </trkpt>
      <trkpt lat="47.28437" lon="-2.36041">
        <ele>45.200000762939</ele>
        <time>2021-05-09T10:13:49.000Z</time>
      </trkpt>
      <trkpt lat="47.28437" lon="-2.36038">
        <ele>45.599998474121</ele>
        <time>2021-05-09T10:13:50.000Z</time>
      </trkpt>
      <trkpt lat="47.28437" lon="-2.36036">
        <ele>46</ele>
        <time>2021-05-09T10:13:51.000Z</time>
      </trkpt>
      <trkpt lat="47.28437" lon="-2.36034">
        <ele>46.400001525879</ele>
        <time>2021-05-09T10:13:52.000Z</time>
      </trkpt>
      <trkpt lat="47.28437" lon="-2.36032">
        <ele>46.799999237061</ele>
        <time>2021-05-09T10:13:53.000Z</time>
      </trkpt>
      <trkpt lat="47.28438" lon="-2.3603">
        <ele>46.799999237061</ele>
        <time>2021-05-09T10:13:54.000Z</time>
      </trkpt>
      <trkpt lat="47.28441" lon="-2.36025">
        <ele>46.799999237061</ele>
        <time>2021-05-09T10:13:59.000Z</time>
      </trkpt>
      <trkpt lat="47.28441" lon="-2.36024">
        <ele>46.799999237061</ele>
        <time>2021-05-09T10:14:00.000Z</time>
      </trkpt>
      <trkpt lat="47.28444" lon="-2.3601">
        <ele>46.799999237061</ele>
        <time>2021-05-09T10:14:11.000Z</time>
      </trkpt>
      <trkpt lat="47.28447" lon="-2.36004">
        <ele>46.799999237061</ele>
        <time>2021-05-09T10:14:14.000Z</time>
      </trkpt>
      <trkpt lat="47.28451" lon="-2.36002">
        <ele>46.799999237061</ele>
        <time>2021-05-09T10:14:17.000Z</time>
      </trkpt>
      <trkpt lat="47.2845" lon="-2.35996">
        <ele>46.799999237061</ele>
        <time>2021-05-09T10:15:34.000Z</time>
      </trkpt>
      <trkpt lat="47.28449" lon="-2.35994">
        <ele>46.799999237061</ele>
        <time>2021-05-09T10:15:35.000Z</time>
      </trkpt>
      <trkpt lat="47.28439" lon="-2.35994">
        <ele>46.799999237061</ele>
        <time>2021-05-09T10:15:39.000Z</time>
      </trkpt>
      <trkpt lat="47.28424" lon="-2.36005">
        <ele>46.799999237061</ele>
        <time>2021-05-09T10:15:45.000Z</time>
      </trkpt>
      <trkpt lat="47.28408" lon="-2.36019">
        <ele>46.799999237061</ele>
        <time>2021-05-09T10:15:50.000Z</time>
      </trkpt>
      <trkpt lat="47.28386" lon="-2.36021">
        <ele>46.799999237061</ele>
        <time>2021-05-09T10:15:55.000Z</time>
      </trkpt>
      <trkpt lat="47.28365" lon="-2.36023">
        <ele>46.200000762939</ele>
        <time>2021-05-09T10:15:58.000Z</time>
      </trkpt>
      <trkpt lat="47.28358" lon="-2.36026">
        <ele>45.599998474121</ele>
        <time>2021-05-09T10:15:59.000Z</time>
      </trkpt>
      <trkpt lat="47.28351" lon="-2.36029">
        <ele>45</ele>
        <time>2021-05-09T10:16:00.000Z</time>
      </trkpt>
      <trkpt lat="47.28344" lon="-2.36034">
        <ele>44.400001525879</ele>
        <time>2021-05-09T10:16:01.000Z</time>
      </trkpt>
      <trkpt lat="47.28338" lon="-2.36039">
        <ele>43.799999237061</ele>
        <time>2021-05-09T10:16:02.000Z</time>
      </trkpt>
      <trkpt lat="47.28333" lon="-2.36044">
        <ele>43.400001525879</ele>
        <time>2021-05-09T10:16:03.000Z</time>
      </trkpt>
      <trkpt lat="47.28327" lon="-2.36048">
        <ele>42.799999237061</ele>
        <time>2021-05-09T10:16:04.000Z</time>
      </trkpt>
      <trkpt lat="47.28323" lon="-2.3605">
        <ele>42.400001525879</ele>
        <time>2021-05-09T10:16:05.000Z</time>
      </trkpt>
      <trkpt lat="47.28319" lon="-2.36051">
        <ele>41.799999237061</ele>
        <time>2021-05-09T10:16:06.000Z</time>
      </trkpt>
      <trkpt lat="47.28314" lon="-2.36052">
        <ele>41.400001525879</ele>
        <time>2021-05-09T10:16:07.000Z</time>
      </trkpt>
      <trkpt lat="47.28302" lon="-2.36048">
        <ele>41.400001525879</ele>
        <time>2021-05-09T10:16:10.000Z</time>
      </trkpt>
      <trkpt lat="47.28298" lon="-2.36046">
        <ele>40.400001525879</ele>
        <time>2021-05-09T10:16:11.000Z</time>
      </trkpt>
      <trkpt lat="47.28294" lon="-2.36042">
        <ele>39.799999237061</ele>
        <time>2021-05-09T10:16:12.000Z</time>
      </trkpt>
      <trkpt lat="47.28291" lon="-2.36037">
        <ele>39</ele>
        <time>2021-05-09T10:16:13.000Z</time>
      </trkpt>
      <trkpt lat="47.28288" lon="-2.36032">
        <ele>38.200000762939</ele>
        <time>2021-05-09T10:16:14.000Z</time>
      </trkpt>
      <trkpt lat="47.28286" lon="-2.36025">
        <ele>37.400001525879</ele>
        <time>2021-05-09T10:16:15.000Z</time>
      </trkpt>
      <trkpt lat="47.28285" lon="-2.36017">
        <ele>36.599998474121</ele>
        <time>2021-05-09T10:16:16.000Z</time>
      </trkpt>
      <trkpt lat="47.28285" lon="-2.3601">
        <ele>35.599998474121</ele>
        <time>2021-05-09T10:16:17.000Z</time>
      </trkpt>
      <trkpt lat="47.28286" lon="-2.36002">
        <ele>34.799999237061</ele>
        <time>2021-05-09T10:16:18.000Z</time>
      </trkpt>
      <trkpt lat="47.28287" lon="-2.35995">
        <ele>34</ele>
        <time>2021-05-09T10:16:19.000Z</time>
      </trkpt>
      <trkpt lat="47.28287" lon="-2.35988">
        <ele>33.200000762939</ele>
        <time>2021-05-09T10:16:20.000Z</time>
      </trkpt>
      <trkpt lat="47.28285" lon="-2.35982">
        <ele>32.400001525879</ele>
        <time>2021-05-09T10:16:21.000Z</time>
      </trkpt>
      <trkpt lat="47.28279" lon="-2.35963">
        <ele>32.400001525879</ele>
        <time>2021-05-09T10:16:25.000Z</time>
      </trkpt>
      <trkpt lat="47.28274" lon="-2.35951">
        <ele>32.400001525879</ele>
        <time>2021-05-09T10:16:27.000Z</time>
      </trkpt>
      <trkpt lat="47.28261" lon="-2.3592">
        <ele>32.400001525879</ele>
        <time>2021-05-09T10:16:33.000Z</time>
      </trkpt>
      <trkpt lat="47.28258" lon="-2.35917">
        <ele>32.400001525879</ele>
        <time>2021-05-09T10:16:34.000Z</time>
      </trkpt>
      <trkpt lat="47.28251" lon="-2.35917">
        <ele>32.400001525879</ele>
        <time>2021-05-09T10:16:36.000Z</time>
      </trkpt>
      <trkpt lat="47.28238" lon="-2.35913">
        <ele>32.400001525879</ele>
        <time>2021-05-09T10:16:39.000Z</time>
      </trkpt>
      <trkpt lat="47.28231" lon="-2.35911">
        <ele>32.400001525879</ele>
        <time>2021-05-09T10:16:41.000Z</time>
      </trkpt>
      <trkpt lat="47.28204" lon="-2.35909">
        <ele>32.400001525879</ele>
        <time>2021-05-09T10:16:47.000Z</time>
      </trkpt>
      <trkpt lat="47.28193" lon="-2.35903">
        <ele>32.400001525879</ele>
        <time>2021-05-09T10:16:51.000Z</time>
      </trkpt>
      <trkpt lat="47.28176" lon="-2.35897">
        <ele>32.400001525879</ele>
        <time>2021-05-09T10:16:57.000Z</time>
      </trkpt>
      <trkpt lat="47.28163" lon="-2.35891">
        <ele>32.400001525879</ele>
        <time>2021-05-09T10:17:01.000Z</time>
      </trkpt>
      <trkpt lat="47.28161" lon="-2.35886">
        <ele>32.400001525879</ele>
        <time>2021-05-09T10:17:02.000Z</time>
      </trkpt>
      <trkpt lat="47.28154" lon="-2.35865">
        <ele>32.400001525879</ele>
        <time>2021-05-09T10:17:06.000Z</time>
      </trkpt>
      <trkpt lat="47.28153" lon="-2.35863">
        <ele>32.400001525879</ele>
        <time>2021-05-09T10:17:07.000Z</time>
      </trkpt>
      <trkpt lat="47.28147" lon="-2.35862">
        <ele>32.400001525879</ele>
        <time>2021-05-09T10:17:09.000Z</time>
      </trkpt>
      <trkpt lat="47.28142" lon="-2.35863">
        <ele>32.400001525879</ele>
        <time>2021-05-09T10:17:11.000Z</time>
      </trkpt>
      <trkpt lat="47.2813" lon="-2.35854">
        <ele>32.400001525879</ele>
        <time>2021-05-09T10:17:16.000Z</time>
      </trkpt>
      <trkpt lat="47.28121" lon="-2.35833">
        <ele>32.400001525879</ele>
        <time>2021-05-09T10:17:20.000Z</time>
      </trkpt>
      <trkpt lat="47.28114" lon="-2.35827">
        <ele>31.799999237061</ele>
        <time>2021-05-09T10:17:21.000Z</time>
      </trkpt>
      <trkpt lat="47.28108" lon="-2.35824">
        <ele>31.39999961853</ele>
        <time>2021-05-09T10:17:22.000Z</time>
      </trkpt>
      <trkpt lat="47.28104" lon="-2.35822">
        <ele>31</ele>
        <time>2021-05-09T10:17:23.000Z</time>
      </trkpt>
      <trkpt lat="47.281" lon="-2.3582">
        <ele>30.60000038147</ele>
        <time>2021-05-09T10:17:24.000Z</time>
      </trkpt>
      <trkpt lat="47.28097" lon="-2.35819">
        <ele>30</ele>
        <time>2021-05-09T10:17:25.000Z</time>
      </trkpt>
      <trkpt lat="47.28091" lon="-2.35817">
        <ele>30</ele>
        <time>2021-05-09T10:17:27.000Z</time>
      </trkpt>
      <trkpt lat="47.28088" lon="-2.35815">
        <ele>30</ele>
        <time>2021-05-09T10:17:28.000Z</time>
      </trkpt>
      <trkpt lat="47.28086" lon="-2.35813">
        <ele>30</ele>
        <time>2021-05-09T10:17:29.000Z</time>
      </trkpt>
      <trkpt lat="47.28084" lon="-2.3581">
        <ele>30</ele>
        <time>2021-05-09T10:17:30.000Z</time>
      </trkpt>
      <trkpt lat="47.28081" lon="-2.35795">
        <ele>30.60000038147</ele>
        <time>2021-05-09T10:17:33.000Z</time>
      </trkpt>
      <trkpt lat="47.28081" lon="-2.3579">
        <ele>31</ele>
        <time>2021-05-09T10:17:34.000Z</time>
      </trkpt>
      <trkpt lat="47.28081" lon="-2.35786">
        <ele>31.39999961853</ele>
        <time>2021-05-09T10:17:35.000Z</time>
      </trkpt>
      <trkpt lat="47.28082" lon="-2.35781">
        <ele>32</ele>
        <time>2021-05-09T10:17:36.000Z</time>
      </trkpt>
      <trkpt lat="47.28082" lon="-2.35776">
        <ele>32.400001525879</ele>
        <time>2021-05-09T10:17:37.000Z</time>
      </trkpt>
      <trkpt lat="47.28085" lon="-2.35754">
        <ele>32.400001525879</ele>
        <time>2021-05-09T10:17:41.000Z</time>
      </trkpt>
      <trkpt lat="47.28087" lon="-2.35741">
        <ele>32.799999237061</ele>
        <time>2021-05-09T10:17:44.000Z</time>
      </trkpt>
      <trkpt lat="47.28087" lon="-2.35737">
        <ele>33.200000762939</ele>
        <time>2021-05-09T10:17:45.000Z</time>
      </trkpt>
      <trkpt lat="47.28088" lon="-2.35733">
        <ele>33.599998474121</ele>
        <time>2021-05-09T10:17:46.000Z</time>
      </trkpt>
      <trkpt lat="47.28089" lon="-2.35729">
        <ele>34</ele>
        <time>2021-05-09T10:17:47.000Z</time>
      </trkpt>
      <trkpt lat="47.28089" lon="-2.35724">
        <ele>34.400001525879</ele>
        <time>2021-05-09T10:17:48.000Z</time>
      </trkpt>
      <trkpt lat="47.2809" lon="-2.357">
        <ele>34.400001525879</ele>
        <time>2021-05-09T10:17:53.000Z</time>
      </trkpt>
      <trkpt lat="47.28084" lon="-2.35664">
        <ele>34.400001525879</ele>
        <time>2021-05-09T10:17:58.000Z</time>
      </trkpt>
      <trkpt lat="47.28078" lon="-2.3563">
        <ele>34.400001525879</ele>
        <time>2021-05-09T10:18:02.000Z</time>
      </trkpt>
      <trkpt lat="47.28077" lon="-2.35622">
        <ele>34</ele>
        <time>2021-05-09T10:18:03.000Z</time>
      </trkpt>
      <trkpt lat="47.28076" lon="-2.35613">
        <ele>33.599998474121</ele>
        <time>2021-05-09T10:18:04.000Z</time>
      </trkpt>
      <trkpt lat="47.28074" lon="-2.35605">
        <ele>33</ele>
        <time>2021-05-09T10:18:05.000Z</time>
      </trkpt>
      <trkpt lat="47.28073" lon="-2.35597">
        <ele>32.599998474121</ele>
        <time>2021-05-09T10:18:06.000Z</time>
      </trkpt>
      <trkpt lat="47.2807" lon="-2.3559">
        <ele>32</ele>
        <time>2021-05-09T10:18:07.000Z</time>
      </trkpt>
      <trkpt lat="47.28067" lon="-2.35585">
        <ele>32</ele>
        <time>2021-05-09T10:18:08.000Z</time>
      </trkpt>
      <trkpt lat="47.28063" lon="-2.3558">
        <ele>31.60000038147</ele>
        <time>2021-05-09T10:18:09.000Z</time>
      </trkpt>
      <trkpt lat="47.28057" lon="-2.35579">
        <ele>31.200000762939</ele>
        <time>2021-05-09T10:18:10.000Z</time>
      </trkpt>
      <trkpt lat="47.28051" lon="-2.35578">
        <ele>30.799999237061</ele>
        <time>2021-05-09T10:18:11.000Z</time>
      </trkpt>
      <trkpt lat="47.28044" lon="-2.35578">
        <ele>30.39999961853</ele>
        <time>2021-05-09T10:18:12.000Z</time>
      </trkpt>
      <trkpt lat="47.28037" lon="-2.35578">
        <ele>30</ele>
        <time>2021-05-09T10:18:13.000Z</time>
      </trkpt>
      <trkpt lat="47.28032" lon="-2.35577">
        <ele>30</ele>
        <time>2021-05-09T10:18:14.000Z</time>
      </trkpt>
      <trkpt lat="47.28029" lon="-2.35577">
        <ele>30</ele>
        <time>2021-05-09T10:18:15.000Z</time>
      </trkpt>
      <trkpt lat="47.28027" lon="-2.35578">
        <ele>30</ele>
        <time>2021-05-09T10:18:16.000Z</time>
      </trkpt>
      <trkpt lat="47.28027" lon="-2.35578">
        <ele>29.60000038147</ele>
        <time>2021-05-09T10:18:17.000Z</time>
      </trkpt>
      <trkpt lat="47.28023" lon="-2.35571">
        <ele>27.799999237061</ele>
        <time>2021-05-09T10:20:28.000Z</time>
      </trkpt>
      <trkpt lat="47.28013" lon="-2.35568">
        <ele>27.799999237061</ele>
        <time>2021-05-09T10:20:35.000Z</time>
      </trkpt>
      <trkpt lat="47.28013" lon="-2.35567">
        <ele>27.799999237061</ele>
        <time>2021-05-09T10:20:49.000Z</time>
      </trkpt>
      <trkpt lat="47.2801" lon="-2.3556">
        <ele>27.799999237061</ele>
        <time>2021-05-09T10:20:51.000Z</time>
      </trkpt>
      <trkpt lat="47.28007" lon="-2.35556">
        <ele>27.799999237061</ele>
        <time>2021-05-09T10:20:52.000Z</time>
      </trkpt>
      <trkpt lat="47.28003" lon="-2.3555">
        <ele>27.799999237061</ele>
        <time>2021-05-09T10:20:53.000Z</time>
      </trkpt>
      <trkpt lat="47.27998" lon="-2.35534">
        <ele>27.799999237061</ele>
        <time>2021-05-09T10:20:55.000Z</time>
      </trkpt>
      <trkpt lat="47.27992" lon="-2.35517">
        <ele>27.799999237061</ele>
        <time>2021-05-09T10:20:57.000Z</time>
      </trkpt>
      <trkpt lat="47.2798" lon="-2.35489">
        <ele>27.799999237061</ele>
        <time>2021-05-09T10:21:00.000Z</time>
      </trkpt>
      <trkpt lat="47.27975" lon="-2.35482">
        <ele>27.799999237061</ele>
        <time>2021-05-09T10:21:01.000Z</time>
      </trkpt>
      <trkpt lat="47.27963" lon="-2.35469">
        <ele>27.799999237061</ele>
        <time>2021-05-09T10:21:03.000Z</time>
      </trkpt>
      <trkpt lat="47.2795" lon="-2.3546">
        <ele>27.799999237061</ele>
        <time>2021-05-09T10:21:05.000Z</time>
      </trkpt>
      <trkpt lat="47.27937" lon="-2.35449">
        <ele>27.799999237061</ele>
        <time>2021-05-09T10:21:07.000Z</time>
      </trkpt>
      <trkpt lat="47.27906" lon="-2.35409">
        <ele>27.799999237061</ele>
        <time>2021-05-09T10:21:13.000Z</time>
      </trkpt>
      <trkpt lat="47.27873" lon="-2.35366">
        <ele>27.799999237061</ele>
        <time>2021-05-09T10:21:20.000Z</time>
      </trkpt>
      <trkpt lat="47.27854" lon="-2.35361">
        <ele>27.799999237061</ele>
        <time>2021-05-09T10:21:23.000Z</time>
      </trkpt>
      <trkpt lat="47.27841" lon="-2.35362">
        <ele>27.799999237061</ele>
        <time>2021-05-09T10:21:25.000Z</time>
      </trkpt>
      <trkpt lat="47.27834" lon="-2.35362">
        <ele>27.39999961853</ele>
        <time>2021-05-09T10:21:26.000Z</time>
      </trkpt>
      <trkpt lat="47.27827" lon="-2.35362">
        <ele>27</ele>
        <time>2021-05-09T10:21:27.000Z</time>
      </trkpt>
      <trkpt lat="47.27819" lon="-2.35362">
        <ele>26.60000038147</ele>
        <time>2021-05-09T10:21:28.000Z</time>
      </trkpt>
      <trkpt lat="47.27812" lon="-2.3536">
        <ele>26.200000762939</ele>
        <time>2021-05-09T10:21:29.000Z</time>
      </trkpt>
      <trkpt lat="47.27806" lon="-2.35355">
        <ele>25.799999237061</ele>
        <time>2021-05-09T10:21:30.000Z</time>
      </trkpt>
      <trkpt lat="47.27796" lon="-2.3534">
        <ele>25.799999237061</ele>
        <time>2021-05-09T10:21:32.000Z</time>
      </trkpt>
      <trkpt lat="47.27787" lon="-2.35312">
        <ele>25.799999237061</ele>
        <time>2021-05-09T10:21:35.000Z</time>
      </trkpt>
      <trkpt lat="47.27785" lon="-2.35302">
        <ele>25.799999237061</ele>
        <time>2021-05-09T10:21:36.000Z</time>
      </trkpt>
      <trkpt lat="47.27775" lon="-2.3525">
        <ele>25.200000762939</ele>
        <time>2021-05-09T10:21:41.000Z</time>
      </trkpt>
      <trkpt lat="47.27774" lon="-2.3524">
        <ele>24.799999237061</ele>
        <time>2021-05-09T10:21:42.000Z</time>
      </trkpt>
      <trkpt lat="47.27773" lon="-2.3523">
        <ele>24.39999961853</ele>
        <time>2021-05-09T10:21:43.000Z</time>
      </trkpt>
      <trkpt lat="47.27772" lon="-2.35221">
        <ele>23.799999237061</ele>
        <time>2021-05-09T10:21:44.000Z</time>
      </trkpt>
      <trkpt lat="47.27771" lon="-2.35212">
        <ele>23.39999961853</ele>
        <time>2021-05-09T10:21:45.000Z</time>
      </trkpt>
      <trkpt lat="47.27768" lon="-2.35205">
        <ele>23.39999961853</ele>
        <time>2021-05-09T10:21:46.000Z</time>
      </trkpt>
      <trkpt lat="47.27756" lon="-2.352">
        <ele>23.39999961853</ele>
        <time>2021-05-09T10:21:48.000Z</time>
      </trkpt>
      <trkpt lat="47.27742" lon="-2.35203">
        <ele>23.39999961853</ele>
        <time>2021-05-09T10:21:50.000Z</time>
      </trkpt>
      <trkpt lat="47.27729" lon="-2.35206">
        <ele>23.39999961853</ele>
        <time>2021-05-09T10:21:52.000Z</time>
      </trkpt>
      <trkpt lat="47.27722" lon="-2.35207">
        <ele>23.799999237061</ele>
        <time>2021-05-09T10:21:53.000Z</time>
      </trkpt>
      <trkpt lat="47.27716" lon="-2.35209">
        <ele>24.200000762939</ele>
        <time>2021-05-09T10:21:54.000Z</time>
      </trkpt>
      <trkpt lat="47.2771" lon="-2.35211">
        <ele>24.60000038147</ele>
        <time>2021-05-09T10:21:55.000Z</time>
      </trkpt>
      <trkpt lat="47.27704" lon="-2.35213">
        <ele>25</ele>
        <time>2021-05-09T10:21:56.000Z</time>
      </trkpt>
      <trkpt lat="47.27698" lon="-2.35215">
        <ele>25.39999961853</ele>
        <time>2021-05-09T10:21:57.000Z</time>
      </trkpt>
      <trkpt lat="47.27692" lon="-2.35216">
        <ele>25.39999961853</ele>
        <time>2021-05-09T10:21:58.000Z</time>
      </trkpt>
      <trkpt lat="47.27674" lon="-2.35221">
        <ele>25.39999961853</ele>
        <time>2021-05-09T10:22:01.000Z</time>
      </trkpt>
      <trkpt lat="47.27662" lon="-2.35226">
        <ele>26</ele>
        <time>2021-05-09T10:22:03.000Z</time>
      </trkpt>
      <trkpt lat="47.27657" lon="-2.35229">
        <ele>26.39999961853</ele>
        <time>2021-05-09T10:22:04.000Z</time>
      </trkpt>
      <trkpt lat="47.27651" lon="-2.35231">
        <ele>26.799999237061</ele>
        <time>2021-05-09T10:22:05.000Z</time>
      </trkpt>
      <trkpt lat="47.27645" lon="-2.35232">
        <ele>27.200000762939</ele>
        <time>2021-05-09T10:22:06.000Z</time>
      </trkpt>
      <trkpt lat="47.27639" lon="-2.35235">
        <ele>27.799999237061</ele>
        <time>2021-05-09T10:22:07.000Z</time>
      </trkpt>
      <trkpt lat="47.27628" lon="-2.35241">
        <ele>27.799999237061</ele>
        <time>2021-05-09T10:22:09.000Z</time>
      </trkpt>
      <trkpt lat="47.27596" lon="-2.35261">
        <ele>27.799999237061</ele>
        <time>2021-05-09T10:22:15.000Z</time>
      </trkpt>
      <trkpt lat="47.2755" lon="-2.35288">
        <ele>27.799999237061</ele>
        <time>2021-05-09T10:22:24.000Z</time>
      </trkpt>
      <trkpt lat="47.27503" lon="-2.35298">
        <ele>27.799999237061</ele>
        <time>2021-05-09T10:22:32.000Z</time>
      </trkpt>
      <trkpt lat="47.2749" lon="-2.35285">
        <ele>27.799999237061</ele>
        <time>2021-05-09T10:22:35.000Z</time>
      </trkpt>
      <trkpt lat="47.27484" lon="-2.35259">
        <ele>27.799999237061</ele>
        <time>2021-05-09T10:22:39.000Z</time>
      </trkpt>
      <trkpt lat="47.27486" lon="-2.35231">
        <ele>27.799999237061</ele>
        <time>2021-05-09T10:22:43.000Z</time>
      </trkpt>
      <trkpt lat="47.27486" lon="-2.35223">
        <ele>27.799999237061</ele>
        <time>2021-05-09T10:22:44.000Z</time>
      </trkpt>
      <trkpt lat="47.27489" lon="-2.35178">
        <ele>28.200000762939</ele>
        <time>2021-05-09T10:22:50.000Z</time>
      </trkpt>
      <trkpt lat="47.27489" lon="-2.35171">
        <ele>28.60000038147</ele>
        <time>2021-05-09T10:22:51.000Z</time>
      </trkpt>
      <trkpt lat="47.2749" lon="-2.35165">
        <ele>29</ele>
        <time>2021-05-09T10:22:52.000Z</time>
      </trkpt>
      <trkpt lat="47.2749" lon="-2.35159">
        <ele>29.39999961853</ele>
        <time>2021-05-09T10:22:53.000Z</time>
      </trkpt>
      <trkpt lat="47.2749" lon="-2.35153">
        <ele>29.799999237061</ele>
        <time>2021-05-09T10:22:54.000Z</time>
      </trkpt>
      <trkpt lat="47.27491" lon="-2.35143">
        <ele>29.799999237061</ele>
        <time>2021-05-09T10:22:56.000Z</time>
      </trkpt>
      <trkpt lat="47.27489" lon="-2.35141">
        <ele>29.799999237061</ele>
        <time>2021-05-09T10:22:57.000Z</time>
      </trkpt>
      <trkpt lat="47.27483" lon="-2.35142">
        <ele>29.799999237061</ele>
        <time>2021-05-09T10:22:59.000Z</time>
      </trkpt>
      <trkpt lat="47.27474" lon="-2.35147">
        <ele>29.799999237061</ele>
        <time>2021-05-09T10:23:01.000Z</time>
      </trkpt>
      <trkpt lat="47.27452" lon="-2.35156">
        <ele>29.799999237061</ele>
        <time>2021-05-09T10:23:05.000Z</time>
      </trkpt>
      <trkpt lat="47.27434" lon="-2.35164">
        <ele>29.799999237061</ele>
        <time>2021-05-09T10:23:08.000Z</time>
      </trkpt>
      <trkpt lat="47.27414" lon="-2.35173">
        <ele>29.799999237061</ele>
        <time>2021-05-09T10:23:11.000Z</time>
      </trkpt>
      <trkpt lat="47.27401" lon="-2.35179">
        <ele>29.799999237061</ele>
        <time>2021-05-09T10:23:13.000Z</time>
      </trkpt>
      <trkpt lat="47.27387" lon="-2.35186">
        <ele>29.39999961853</ele>
        <time>2021-05-09T10:23:15.000Z</time>
      </trkpt>
      <trkpt lat="47.2738" lon="-2.3519">
        <ele>29</ele>
        <time>2021-05-09T10:23:16.000Z</time>
      </trkpt>
      <trkpt lat="47.27373" lon="-2.35194">
        <ele>28.60000038147</ele>
        <time>2021-05-09T10:23:17.000Z</time>
      </trkpt>
      <trkpt lat="47.27366" lon="-2.35198">
        <ele>28.200000762939</ele>
        <time>2021-05-09T10:23:18.000Z</time>
      </trkpt>
      <trkpt lat="47.2736" lon="-2.35202">
        <ele>27.799999237061</ele>
        <time>2021-05-09T10:23:19.000Z</time>
      </trkpt>
      <trkpt lat="47.27354" lon="-2.35205">
        <ele>27.200000762939</ele>
        <time>2021-05-09T10:23:20.000Z</time>
      </trkpt>
      <trkpt lat="47.27348" lon="-2.35208">
        <ele>26.799999237061</ele>
        <time>2021-05-09T10:23:21.000Z</time>
      </trkpt>
      <trkpt lat="47.27343" lon="-2.35211">
        <ele>26.39999961853</ele>
        <time>2021-05-09T10:23:22.000Z</time>
      </trkpt>
      <trkpt lat="47.27339" lon="-2.35213">
        <ele>26</ele>
        <time>2021-05-09T10:23:23.000Z</time>
      </trkpt>
      <trkpt lat="47.27335" lon="-2.35215">
        <ele>25.39999961853</ele>
        <time>2021-05-09T10:23:24.000Z</time>
      </trkpt>
      <trkpt lat="47.27331" lon="-2.35217">
        <ele>24.799999237061</ele>
        <time>2021-05-09T10:23:25.000Z</time>
      </trkpt>
      <trkpt lat="47.27329" lon="-2.35221">
        <ele>24.39999961853</ele>
        <time>2021-05-09T10:23:26.000Z</time>
      </trkpt>
      <trkpt lat="47.27328" lon="-2.35225">
        <ele>23.799999237061</ele>
        <time>2021-05-09T10:23:27.000Z</time>
      </trkpt>
      <trkpt lat="47.27327" lon="-2.35228">
        <ele>23.200000762939</ele>
        <time>2021-05-09T10:23:28.000Z</time>
      </trkpt>
      <trkpt lat="47.27327" lon="-2.35231">
        <ele>22.60000038147</ele>
        <time>2021-05-09T10:23:29.000Z</time>
      </trkpt>
      <trkpt lat="47.27326" lon="-2.35235">
        <ele>22.200000762939</ele>
        <time>2021-05-09T10:23:30.000Z</time>
      </trkpt>
      <trkpt lat="47.27325" lon="-2.35239">
        <ele>21.60000038147</ele>
        <time>2021-05-09T10:23:31.000Z</time>
      </trkpt>
      <trkpt lat="47.27325" lon="-2.35242">
        <ele>21</ele>
        <time>2021-05-09T10:23:32.000Z</time>
      </trkpt>
      <trkpt lat="47.2733" lon="-2.35254">
        <ele>21</ele>
        <time>2021-05-09T10:23:33.000Z</time>
      </trkpt>
      <trkpt lat="47.27344" lon="-2.35308">
        <ele>21</ele>
        <time>2021-05-09T10:23:38.000Z</time>
      </trkpt>
      <trkpt lat="47.27362" lon="-2.35381">
        <ele>21</ele>
        <time>2021-05-09T10:23:45.000Z</time>
      </trkpt>
      <trkpt lat="47.27374" lon="-2.35434">
        <ele>20.60000038147</ele>
        <time>2021-05-09T10:23:50.000Z</time>
      </trkpt>
      <trkpt lat="47.27377" lon="-2.35444">
        <ele>20.200000762939</ele>
        <time>2021-05-09T10:23:51.000Z</time>
      </trkpt>
      <trkpt lat="47.2738" lon="-2.35455">
        <ele>19.799999237061</ele>
        <time>2021-05-09T10:23:52.000Z</time>
      </trkpt>
      <trkpt lat="47.27383" lon="-2.35465">
        <ele>19.39999961853</ele>
        <time>2021-05-09T10:23:53.000Z</time>
      </trkpt>
      <trkpt lat="47.27386" lon="-2.35475">
        <ele>19</ele>
        <time>2021-05-09T10:23:54.000Z</time>
      </trkpt>
      <trkpt lat="47.27401" lon="-2.35545">
        <ele>18.60000038147</ele>
        <time>2021-05-09T10:24:01.000Z</time>
      </trkpt>
      <trkpt lat="47.27403" lon="-2.35555">
        <ele>18.200000762939</ele>
        <time>2021-05-09T10:24:02.000Z</time>
      </trkpt>
      <trkpt lat="47.27405" lon="-2.35565">
        <ele>17.799999237061</ele>
        <time>2021-05-09T10:24:03.000Z</time>
      </trkpt>
      <trkpt lat="47.27406" lon="-2.35575">
        <ele>17.200000762939</ele>
        <time>2021-05-09T10:24:04.000Z</time>
      </trkpt>
      <trkpt lat="47.27408" lon="-2.35584">
        <ele>16.799999237061</ele>
        <time>2021-05-09T10:24:05.000Z</time>
      </trkpt>
      <trkpt lat="47.27413" lon="-2.35624">
        <ele>16.799999237061</ele>
        <time>2021-05-09T10:24:09.000Z</time>
      </trkpt>
      <trkpt lat="47.27417" lon="-2.3566">
        <ele>16.799999237061</ele>
        <time>2021-05-09T10:24:13.000Z</time>
      </trkpt>
      <trkpt lat="47.27414" lon="-2.35666">
        <ele>16.39999961853</ele>
        <time>2021-05-09T10:24:14.000Z</time>
      </trkpt>
      <trkpt lat="47.2741" lon="-2.3567">
        <ele>16</ele>
        <time>2021-05-09T10:24:15.000Z</time>
      </trkpt>
      <trkpt lat="47.27404" lon="-2.35673">
        <ele>15.39999961853</ele>
        <time>2021-05-09T10:24:16.000Z</time>
      </trkpt>
      <trkpt lat="47.27398" lon="-2.35677">
        <ele>15</ele>
        <time>2021-05-09T10:24:17.000Z</time>
      </trkpt>
      <trkpt lat="47.27392" lon="-2.3568">
        <ele>14.60000038147</ele>
        <time>2021-05-09T10:24:18.000Z</time>
      </trkpt>
      <trkpt lat="47.27365" lon="-2.35697">
        <ele>14.60000038147</ele>
        <time>2021-05-09T10:24:22.000Z</time>
      </trkpt>
      <trkpt lat="47.27331" lon="-2.35721">
        <ele>14.60000038147</ele>
        <time>2021-05-09T10:24:28.000Z</time>
      </trkpt>
      <trkpt lat="47.27328" lon="-2.35723">
        <ele>14.199999809265</ele>
        <time>2021-05-09T10:24:29.000Z</time>
      </trkpt>
      <trkpt lat="47.27325" lon="-2.35725">
        <ele>13.800000190735</ele>
        <time>2021-05-09T10:24:30.000Z</time>
      </trkpt>
      <trkpt lat="47.27324" lon="-2.35726">
        <ele>13.199999809265</ele>
        <time>2021-05-09T10:24:31.000Z</time>
      </trkpt>
      <trkpt lat="47.27323" lon="-2.35728">
        <ele>12.800000190735</ele>
        <time>2021-05-09T10:24:32.000Z</time>
      </trkpt>
      <trkpt lat="47.27322" lon="-2.35731">
        <ele>12.39999961853</ele>
        <time>2021-05-09T10:24:33.000Z</time>
      </trkpt>
      <trkpt lat="47.27316" lon="-2.35741">
        <ele>12.39999961853</ele>
        <time>2021-05-09T10:24:36.000Z</time>
      </trkpt>
      <trkpt lat="47.27307" lon="-2.35734">
        <ele>12.39999961853</ele>
        <time>2021-05-09T10:24:39.000Z</time>
      </trkpt>
      <trkpt lat="47.273" lon="-2.35715">
        <ele>12.39999961853</ele>
        <time>2021-05-09T10:24:42.000Z</time>
      </trkpt>
      <trkpt lat="47.27298" lon="-2.35708">
        <ele>12.39999961853</ele>
        <time>2021-05-09T10:24:43.000Z</time>
      </trkpt>
      <trkpt lat="47.27295" lon="-2.35701">
        <ele>12.39999961853</ele>
        <time>2021-05-09T10:24:44.000Z</time>
      </trkpt>
      <trkpt lat="47.27281" lon="-2.35675">
        <ele>12.39999961853</ele>
        <time>2021-05-09T10:24:48.000Z</time>
      </trkpt>
      <trkpt lat="47.27268" lon="-2.35645">
        <ele>12.800000190735</ele>
        <time>2021-05-09T10:24:52.000Z</time>
      </trkpt>
      <trkpt lat="47.27264" lon="-2.35638">
        <ele>13.199999809265</ele>
        <time>2021-05-09T10:24:53.000Z</time>
      </trkpt>
      <trkpt lat="47.27261" lon="-2.3563">
        <ele>13.60000038147</ele>
        <time>2021-05-09T10:24:54.000Z</time>
      </trkpt>
      <trkpt lat="47.27258" lon="-2.35622">
        <ele>14</ele>
        <time>2021-05-09T10:24:55.000Z</time>
      </trkpt>
      <trkpt lat="47.27255" lon="-2.35614">
        <ele>14.39999961853</ele>
        <time>2021-05-09T10:24:56.000Z</time>
      </trkpt>
      <trkpt lat="47.2723" lon="-2.35556">
        <ele>14.39999961853</ele>
        <time>2021-05-09T10:25:04.000Z</time>
      </trkpt>
      <trkpt lat="47.27207" lon="-2.35503">
        <ele>14.39999961853</ele>
        <time>2021-05-09T10:25:12.000Z</time>
      </trkpt>
      <trkpt lat="47.2718" lon="-2.35451">
        <ele>14.39999961853</ele>
        <time>2021-05-09T10:25:19.000Z</time>
      </trkpt>
      <trkpt lat="47.27153" lon="-2.35399">
        <ele>14.39999961853</ele>
        <time>2021-05-09T10:25:26.000Z</time>
      </trkpt>
      <trkpt lat="47.27119" lon="-2.35339">
        <ele>14.39999961853</ele>
        <time>2021-05-09T10:25:34.000Z</time>
      </trkpt>
      <trkpt lat="47.27083" lon="-2.3528">
        <ele>14.39999961853</ele>
        <time>2021-05-09T10:25:42.000Z</time>
      </trkpt>
      <trkpt lat="47.27042" lon="-2.35217">
        <ele>14.39999961853</ele>
        <time>2021-05-09T10:25:51.000Z</time>
      </trkpt>
      <trkpt lat="47.27038" lon="-2.3521">
        <ele>14.39999961853</ele>
        <time>2021-05-09T10:25:52.000Z</time>
      </trkpt>
      <trkpt lat="47.27028" lon="-2.35193">
        <ele>14.39999961853</ele>
        <time>2021-05-09T10:25:54.000Z</time>
      </trkpt>
      <trkpt lat="47.27017" lon="-2.35176">
        <ele>14.39999961853</ele>
        <time>2021-05-09T10:25:56.000Z</time>
      </trkpt>
      <trkpt lat="47.27005" lon="-2.35157">
        <ele>14.800000190735</ele>
        <time>2021-05-09T10:25:58.000Z</time>
      </trkpt>
      <trkpt lat="47.26999" lon="-2.35149">
        <ele>15.199999809265</ele>
        <time>2021-05-09T10:25:59.000Z</time>
      </trkpt>
      <trkpt lat="47.26993" lon="-2.35139">
        <ele>15.800000190735</ele>
        <time>2021-05-09T10:26:00.000Z</time>
      </trkpt>
      <trkpt lat="47.26987" lon="-2.3513">
        <ele>16.200000762939</ele>
        <time>2021-05-09T10:26:01.000Z</time>
      </trkpt>
      <trkpt lat="47.2698" lon="-2.35121">
        <ele>16.60000038147</ele>
        <time>2021-05-09T10:26:02.000Z</time>
      </trkpt>
      <trkpt lat="47.26953" lon="-2.35083">
        <ele>16.60000038147</ele>
        <time>2021-05-09T10:26:07.000Z</time>
      </trkpt>
      <trkpt lat="47.26918" lon="-2.35029">
        <ele>16.60000038147</ele>
        <time>2021-05-09T10:26:14.000Z</time>
      </trkpt>
      <trkpt lat="47.26889" lon="-2.34983">
        <ele>16.60000038147</ele>
        <time>2021-05-09T10:26:20.000Z</time>
      </trkpt>
      <trkpt lat="47.26853" lon="-2.34929">
        <ele>16.60000038147</ele>
        <time>2021-05-09T10:26:27.000Z</time>
      </trkpt>
      <trkpt lat="47.26816" lon="-2.34878">
        <ele>16.60000038147</ele>
        <time>2021-05-09T10:26:34.000Z</time>
      </trkpt>
      <trkpt lat="47.26782" lon="-2.3483">
        <ele>16.60000038147</ele>
        <time>2021-05-09T10:26:40.000Z</time>
      </trkpt>
      <trkpt lat="47.26744" lon="-2.3478">
        <ele>16.60000038147</ele>
        <time>2021-05-09T10:26:47.000Z</time>
      </trkpt>
      <trkpt lat="47.26711" lon="-2.34741">
        <ele>16.60000038147</ele>
        <time>2021-05-09T10:26:53.000Z</time>
      </trkpt>
      <trkpt lat="47.2668" lon="-2.34701">
        <ele>16.60000038147</ele>
        <time>2021-05-09T10:26:59.000Z</time>
      </trkpt>
      <trkpt lat="47.26642" lon="-2.34654">
        <ele>16.60000038147</ele>
        <time>2021-05-09T10:27:06.000Z</time>
      </trkpt>
      <trkpt lat="47.26616" lon="-2.34622">
        <ele>16.60000038147</ele>
        <time>2021-05-09T10:27:11.000Z</time>
      </trkpt>
      <trkpt lat="47.26612" lon="-2.34616">
        <ele>16.200000762939</ele>
        <time>2021-05-09T10:27:12.000Z</time>
      </trkpt>
      <trkpt lat="47.26606" lon="-2.3461">
        <ele>15.800000190735</ele>
        <time>2021-05-09T10:27:13.000Z</time>
      </trkpt>
      <trkpt lat="47.26602" lon="-2.34604">
        <ele>15.39999961853</ele>
        <time>2021-05-09T10:27:14.000Z</time>
      </trkpt>
      <trkpt lat="47.26597" lon="-2.34599">
        <ele>15</ele>
        <time>2021-05-09T10:27:15.000Z</time>
      </trkpt>
      <trkpt lat="47.26592" lon="-2.34593">
        <ele>14.60000038147</ele>
        <time>2021-05-09T10:27:16.000Z</time>
      </trkpt>
      <trkpt lat="47.26584" lon="-2.34583">
        <ele>14.60000038147</ele>
        <time>2021-05-09T10:27:18.000Z</time>
      </trkpt>
      <trkpt lat="47.26551" lon="-2.34547">
        <ele>14.60000038147</ele>
        <time>2021-05-09T10:27:25.000Z</time>
      </trkpt>
      <trkpt lat="47.26513" lon="-2.34517">
        <ele>14.60000038147</ele>
        <time>2021-05-09T10:27:32.000Z</time>
      </trkpt>
      <trkpt lat="47.26463" lon="-2.34482">
        <ele>14.60000038147</ele>
        <time>2021-05-09T10:27:40.000Z</time>
      </trkpt>
      <trkpt lat="47.26457" lon="-2.34477">
        <ele>14.60000038147</ele>
        <time>2021-05-09T10:27:41.000Z</time>
      </trkpt>
      <trkpt lat="47.26411" lon="-2.34444">
        <ele>14.60000038147</ele>
        <time>2021-05-09T10:27:48.000Z</time>
      </trkpt>
      <trkpt lat="47.26363" lon="-2.34402">
        <ele>14.60000038147</ele>
        <time>2021-05-09T10:27:56.000Z</time>
      </trkpt>
      <trkpt lat="47.26341" lon="-2.34382">
        <ele>14.60000038147</ele>
        <time>2021-05-09T10:28:00.000Z</time>
      </trkpt>
      <trkpt lat="47.26335" lon="-2.34381">
        <ele>14.60000038147</ele>
        <time>2021-05-09T10:28:01.000Z</time>
      </trkpt>
      <trkpt lat="47.26323" lon="-2.34376">
        <ele>14.60000038147</ele>
        <time>2021-05-09T10:28:03.000Z</time>
      </trkpt>
      <trkpt lat="47.26316" lon="-2.34364">
        <ele>14.60000038147</ele>
        <time>2021-05-09T10:28:05.000Z</time>
      </trkpt>
      <trkpt lat="47.26307" lon="-2.34351">
        <ele>14.60000038147</ele>
        <time>2021-05-09T10:28:07.000Z</time>
      </trkpt>
      <trkpt lat="47.26292" lon="-2.34336">
        <ele>14.60000038147</ele>
        <time>2021-05-09T10:28:10.000Z</time>
      </trkpt>
      <trkpt lat="47.2625" lon="-2.34291">
        <ele>14.60000038147</ele>
        <time>2021-05-09T10:28:18.000Z</time>
      </trkpt>
      <trkpt lat="47.26218" lon="-2.34258">
        <ele>14.60000038147</ele>
        <time>2021-05-09T10:28:24.000Z</time>
      </trkpt>
      <trkpt lat="47.26172" lon="-2.34209">
        <ele>14.60000038147</ele>
        <time>2021-05-09T10:28:33.000Z</time>
      </trkpt>
      <trkpt lat="47.26146" lon="-2.34186">
        <ele>14.60000038147</ele>
        <time>2021-05-09T10:28:38.000Z</time>
      </trkpt>
      <trkpt lat="47.2614" lon="-2.34184">
        <ele>14.60000038147</ele>
        <time>2021-05-09T10:28:39.000Z</time>
      </trkpt>
      <trkpt lat="47.26128" lon="-2.34177">
        <ele>14.60000038147</ele>
        <time>2021-05-09T10:28:41.000Z</time>
      </trkpt>
      <trkpt lat="47.26119" lon="-2.34166">
        <ele>14.60000038147</ele>
        <time>2021-05-09T10:28:43.000Z</time>
      </trkpt>
      <trkpt lat="47.26114" lon="-2.34162">
        <ele>14.60000038147</ele>
        <time>2021-05-09T10:28:44.000Z</time>
      </trkpt>
      <trkpt lat="47.26096" lon="-2.34152">
        <ele>14.60000038147</ele>
        <time>2021-05-09T10:28:47.000Z</time>
      </trkpt>
      <trkpt lat="47.26058" lon="-2.34132">
        <ele>14.60000038147</ele>
        <time>2021-05-09T10:28:53.000Z</time>
      </trkpt>
      <trkpt lat="47.26051" lon="-2.34129">
        <ele>14.60000038147</ele>
        <time>2021-05-09T10:28:54.000Z</time>
      </trkpt>
      <trkpt lat="47.26014" lon="-2.3411">
        <ele>14.60000038147</ele>
        <time>2021-05-09T10:29:00.000Z</time>
      </trkpt>
      <trkpt lat="47.25967" lon="-2.34087">
        <ele>14.60000038147</ele>
        <time>2021-05-09T10:29:08.000Z</time>
      </trkpt>
      <trkpt lat="47.2592" lon="-2.34071">
        <ele>14.60000038147</ele>
        <time>2021-05-09T10:29:16.000Z</time>
      </trkpt>
      <trkpt lat="47.25903" lon="-2.34081">
        <ele>14.60000038147</ele>
        <time>2021-05-09T10:29:19.000Z</time>
      </trkpt>
      <trkpt lat="47.25888" lon="-2.3411">
        <ele>14.60000038147</ele>
        <time>2021-05-09T10:29:23.000Z</time>
      </trkpt>
      <trkpt lat="47.25886" lon="-2.34119">
        <ele>14</ele>
        <time>2021-05-09T10:29:24.000Z</time>
      </trkpt>
      <trkpt lat="47.25884" lon="-2.34127">
        <ele>13.60000038147</ele>
        <time>2021-05-09T10:29:25.000Z</time>
      </trkpt>
      <trkpt lat="47.25882" lon="-2.34136">
        <ele>13.199999809265</ele>
        <time>2021-05-09T10:29:26.000Z</time>
      </trkpt>
      <trkpt lat="47.2588" lon="-2.34143">
        <ele>12.800000190735</ele>
        <time>2021-05-09T10:29:27.000Z</time>
      </trkpt>
      <trkpt lat="47.25879" lon="-2.34151">
        <ele>12.39999961853</ele>
        <time>2021-05-09T10:29:28.000Z</time>
      </trkpt>
      <trkpt lat="47.25877" lon="-2.34158">
        <ele>12.39999961853</ele>
        <time>2021-05-09T10:29:29.000Z</time>
      </trkpt>
      <trkpt lat="47.25872" lon="-2.34164">
        <ele>12.39999961853</ele>
        <time>2021-05-09T10:29:31.000Z</time>
      </trkpt>
      <trkpt lat="47.25869" lon="-2.34164">
        <ele>12.39999961853</ele>
        <time>2021-05-09T10:29:32.000Z</time>
      </trkpt>
      <trkpt lat="47.25863" lon="-2.34159">
        <ele>12.39999961853</ele>
        <time>2021-05-09T10:29:35.000Z</time>
      </trkpt>
      <trkpt lat="47.25858" lon="-2.34157">
        <ele>12.39999961853</ele>
        <time>2021-05-09T10:29:37.000Z</time>
      </trkpt>
      <trkpt lat="47.25842" lon="-2.34152">
        <ele>12.39999961853</ele>
        <time>2021-05-09T10:29:43.000Z</time>
      </trkpt>
      <trkpt lat="47.25836" lon="-2.34169">
        <ele>12.39999961853</ele>
        <time>2021-05-09T10:29:46.000Z</time>
      </trkpt>
      <trkpt lat="47.25824" lon="-2.34178">
        <ele>12.39999961853</ele>
        <time>2021-05-09T10:29:50.000Z</time>
      </trkpt>
      <trkpt lat="47.2582" lon="-2.34178">
        <ele>12.39999961853</ele>
        <time>2021-05-09T10:29:51.000Z</time>
      </trkpt>
      <trkpt lat="47.25801" lon="-2.34174">
        <ele>12.39999961853</ele>
        <time>2021-05-09T10:29:55.000Z</time>
      </trkpt>
      <trkpt lat="47.25796" lon="-2.34174">
        <ele>12.39999961853</ele>
        <time>2021-05-09T10:29:56.000Z</time>
      </trkpt>
      <trkpt lat="47.25776" lon="-2.34178">
        <ele>12.39999961853</ele>
        <time>2021-05-09T10:30:00.000Z</time>
      </trkpt>
      <trkpt lat="47.25755" lon="-2.34182">
        <ele>12.39999961853</ele>
        <time>2021-05-09T10:30:05.000Z</time>
      </trkpt>
      <trkpt lat="47.25748" lon="-2.34182">
        <ele>12.39999961853</ele>
        <time>2021-05-09T10:30:10.000Z</time>
      </trkpt>
      <trkpt lat="47.2574" lon="-2.34184">
        <ele>12.39999961853</ele>
        <time>2021-05-09T10:30:17.000Z</time>
      </trkpt>
      <trkpt lat="47.25725" lon="-2.34188">
        <ele>12.39999961853</ele>
        <time>2021-05-09T10:30:22.000Z</time>
      </trkpt>
      <trkpt lat="47.25704" lon="-2.3419">
        <ele>12.39999961853</ele>
        <time>2021-05-09T10:30:27.000Z</time>
      </trkpt>
      <trkpt lat="47.25683" lon="-2.3419">
        <ele>12.39999961853</ele>
        <time>2021-05-09T10:30:31.000Z</time>
      </trkpt>
      <trkpt lat="47.25679" lon="-2.34188">
        <ele>12.39999961853</ele>
        <time>2021-05-09T10:30:32.000Z</time>
      </trkpt>
      <trkpt lat="47.25668" lon="-2.34175">
        <ele>12.39999961853</ele>
        <time>2021-05-09T10:30:35.000Z</time>
      </trkpt>
      <trkpt lat="47.25663" lon="-2.34164">
        <ele>12.39999961853</ele>
        <time>2021-05-09T10:30:37.000Z</time>
      </trkpt>
      <trkpt lat="47.25652" lon="-2.34142">
        <ele>12.39999961853</ele>
        <time>2021-05-09T10:30:41.000Z</time>
      </trkpt>
      <trkpt lat="47.25643" lon="-2.34109">
        <ele>12.39999961853</ele>
        <time>2021-05-09T10:30:47.000Z</time>
      </trkpt>
      <trkpt lat="47.25642" lon="-2.34091">
        <ele>12.39999961853</ele>
        <time>2021-05-09T10:30:50.000Z</time>
      </trkpt>
      <trkpt lat="47.25642" lon="-2.34074">
        <ele>12.39999961853</ele>
        <time>2021-05-09T10:30:53.000Z</time>
      </trkpt>
      <trkpt lat="47.25643" lon="-2.34068">
        <ele>12.39999961853</ele>
        <time>2021-05-09T10:30:54.000Z</time>
      </trkpt>
      <trkpt lat="47.25644" lon="-2.34045">
        <ele>12.39999961853</ele>
        <time>2021-05-09T10:30:58.000Z</time>
      </trkpt>
      <trkpt lat="47.25645" lon="-2.34039">
        <ele>12.39999961853</ele>
        <time>2021-05-09T10:30:59.000Z</time>
      </trkpt>
      <trkpt lat="47.25646" lon="-2.34033">
        <ele>12.39999961853</ele>
        <time>2021-05-09T10:31:00.000Z</time>
      </trkpt>
      <trkpt lat="47.2565" lon="-2.34004">
        <ele>12.39999961853</ele>
        <time>2021-05-09T10:31:05.000Z</time>
      </trkpt>
      <trkpt lat="47.2566" lon="-2.3395">
        <ele>12.39999961853</ele>
        <time>2021-05-09T10:31:13.000Z</time>
      </trkpt>
      <trkpt lat="47.25659" lon="-2.33936">
        <ele>12.39999961853</ele>
        <time>2021-05-09T10:31:15.000Z</time>
      </trkpt>
      <trkpt lat="47.25657" lon="-2.33922">
        <ele>12.800000190735</ele>
        <time>2021-05-09T10:31:17.000Z</time>
      </trkpt>
      <trkpt lat="47.25656" lon="-2.33915">
        <ele>13.199999809265</ele>
        <time>2021-05-09T10:31:18.000Z</time>
      </trkpt>
      <trkpt lat="47.25655" lon="-2.33908">
        <ele>13.60000038147</ele>
        <time>2021-05-09T10:31:19.000Z</time>
      </trkpt>
      <trkpt lat="47.25654" lon="-2.33901">
        <ele>14</ele>
        <time>2021-05-09T10:31:20.000Z</time>
      </trkpt>
      <trkpt lat="47.25653" lon="-2.33894">
        <ele>14.39999961853</ele>
        <time>2021-05-09T10:31:21.000Z</time>
      </trkpt>
      <trkpt lat="47.25647" lon="-2.33866">
        <ele>14.39999961853</ele>
        <time>2021-05-09T10:31:25.000Z</time>
      </trkpt>
      <trkpt lat="47.25644" lon="-2.33852">
        <ele>14.39999961853</ele>
        <time>2021-05-09T10:31:27.000Z</time>
      </trkpt>
      <trkpt lat="47.25638" lon="-2.33816">
        <ele>14.39999961853</ele>
        <time>2021-05-09T10:31:32.000Z</time>
      </trkpt>
      <trkpt lat="47.25632" lon="-2.33773">
        <ele>14.39999961853</ele>
        <time>2021-05-09T10:31:39.000Z</time>
      </trkpt>
      <trkpt lat="47.25621" lon="-2.33762">
        <ele>14.39999961853</ele>
        <time>2021-05-09T10:31:43.000Z</time>
      </trkpt>
      <trkpt lat="47.25602" lon="-2.33756">
        <ele>14.39999961853</ele>
        <time>2021-05-09T10:31:46.000Z</time>
      </trkpt>
      <trkpt lat="47.25595" lon="-2.33755">
        <ele>14.39999961853</ele>
        <time>2021-05-09T10:31:47.000Z</time>
      </trkpt>
      <trkpt lat="47.2556" lon="-2.33757">
        <ele>14.39999961853</ele>
        <time>2021-05-09T10:31:53.000Z</time>
      </trkpt>
      <trkpt lat="47.25512" lon="-2.33759">
        <ele>14.39999961853</ele>
        <time>2021-05-09T10:32:01.000Z</time>
      </trkpt>
      <trkpt lat="47.25473" lon="-2.33751">
        <ele>14.39999961853</ele>
        <time>2021-05-09T10:32:07.000Z</time>
      </trkpt>
      <trkpt lat="47.25467" lon="-2.33747">
        <ele>14.39999961853</ele>
        <time>2021-05-09T10:32:08.000Z</time>
      </trkpt>
      <trkpt lat="47.25451" lon="-2.33733">
        <ele>14.39999961853</ele>
        <time>2021-05-09T10:32:11.000Z</time>
      </trkpt>
      <trkpt lat="47.25445" lon="-2.33707">
        <ele>14.39999961853</ele>
        <time>2021-05-09T10:32:14.000Z</time>
      </trkpt>
      <trkpt lat="47.25444" lon="-2.33698">
        <ele>14.39999961853</ele>
        <time>2021-05-09T10:32:15.000Z</time>
      </trkpt>
      <trkpt lat="47.25439" lon="-2.33661">
        <ele>14.39999961853</ele>
        <time>2021-05-09T10:32:20.000Z</time>
      </trkpt>
      <trkpt lat="47.25436" lon="-2.3362">
        <ele>14.39999961853</ele>
        <time>2021-05-09T10:32:26.000Z</time>
      </trkpt>
      <trkpt lat="47.25435" lon="-2.33591">
        <ele>14.39999961853</ele>
        <time>2021-05-09T10:32:31.000Z</time>
      </trkpt>
      <trkpt lat="47.25442" lon="-2.33576">
        <ele>14.39999961853</ele>
        <time>2021-05-09T10:32:35.000Z</time>
      </trkpt>
      <trkpt lat="47.25452" lon="-2.33571">
        <ele>14.39999961853</ele>
        <time>2021-05-09T10:32:38.000Z</time>
      </trkpt>
      <trkpt lat="47.25452" lon="-2.33555">
        <ele>14.39999961853</ele>
        <time>2021-05-09T10:32:41.000Z</time>
      </trkpt>
      <trkpt lat="47.2545" lon="-2.33538">
        <ele>14.39999961853</ele>
        <time>2021-05-09T10:32:44.000Z</time>
      </trkpt>
      <trkpt lat="47.25448" lon="-2.33519">
        <ele>14.39999961853</ele>
        <time>2021-05-09T10:32:47.000Z</time>
      </trkpt>
      <trkpt lat="47.25437" lon="-2.33476">
        <ele>14.39999961853</ele>
        <time>2021-05-09T10:32:53.000Z</time>
      </trkpt>
      <trkpt lat="47.25432" lon="-2.33454">
        <ele>14.39999961853</ele>
        <time>2021-05-09T10:32:56.000Z</time>
      </trkpt>
      <trkpt lat="47.2543" lon="-2.33438">
        <ele>14.39999961853</ele>
        <time>2021-05-09T10:32:58.000Z</time>
      </trkpt>
      <trkpt lat="47.2543" lon="-2.33422">
        <ele>14.39999961853</ele>
        <time>2021-05-09T10:33:00.000Z</time>
      </trkpt>
      <trkpt lat="47.25429" lon="-2.33391">
        <ele>14.39999961853</ele>
        <time>2021-05-09T10:33:04.000Z</time>
      </trkpt>
      <trkpt lat="47.2543" lon="-2.33351">
        <ele>14.39999961853</ele>
        <time>2021-05-09T10:33:09.000Z</time>
      </trkpt>
      <trkpt lat="47.25431" lon="-2.33343">
        <ele>14.39999961853</ele>
        <time>2021-05-09T10:33:10.000Z</time>
      </trkpt>
      <trkpt lat="47.25441" lon="-2.33315">
        <ele>14.39999961853</ele>
        <time>2021-05-09T10:33:14.000Z</time>
      </trkpt>
      <trkpt lat="47.25446" lon="-2.33301">
        <ele>14.39999961853</ele>
        <time>2021-05-09T10:33:16.000Z</time>
      </trkpt>
      <trkpt lat="47.2545" lon="-2.33278">
        <ele>14.39999961853</ele>
        <time>2021-05-09T10:33:19.000Z</time>
      </trkpt>
      <trkpt lat="47.25444" lon="-2.33251">
        <ele>14.39999961853</ele>
        <time>2021-05-09T10:33:23.000Z</time>
      </trkpt>
      <trkpt lat="47.25442" lon="-2.33243">
        <ele>14.39999961853</ele>
        <time>2021-05-09T10:33:24.000Z</time>
      </trkpt>
      <trkpt lat="47.25438" lon="-2.33236">
        <ele>14.39999961853</ele>
        <time>2021-05-09T10:33:25.000Z</time>
      </trkpt>
      <trkpt lat="47.25425" lon="-2.33208">
        <ele>14.39999961853</ele>
        <time>2021-05-09T10:33:29.000Z</time>
      </trkpt>
      <trkpt lat="47.25408" lon="-2.33173">
        <ele>14.39999961853</ele>
        <time>2021-05-09T10:33:34.000Z</time>
      </trkpt>
      <trkpt lat="47.25402" lon="-2.33154">
        <ele>14.39999961853</ele>
        <time>2021-05-09T10:33:37.000Z</time>
      </trkpt>
      <trkpt lat="47.25399" lon="-2.3315">
        <ele>14.39999961853</ele>
        <time>2021-05-09T10:33:38.000Z</time>
      </trkpt>
      <trkpt lat="47.2539" lon="-2.33141">
        <ele>14.39999961853</ele>
        <time>2021-05-09T10:33:41.000Z</time>
      </trkpt>
      <trkpt lat="47.25383" lon="-2.33124">
        <ele>14.39999961853</ele>
        <time>2021-05-09T10:33:45.000Z</time>
      </trkpt>
      <trkpt lat="47.25373" lon="-2.33106">
        <ele>14.39999961853</ele>
        <time>2021-05-09T10:33:51.000Z</time>
      </trkpt>
      <trkpt lat="47.25372" lon="-2.33105">
        <ele>14.39999961853</ele>
        <time>2021-05-09T10:33:53.000Z</time>
      </trkpt>
      <trkpt lat="47.25369" lon="-2.33105">
        <ele>12.39999961853</ele>
        <time>2021-05-09T10:44:09.000Z</time>
      </trkpt>
      <trkpt lat="47.25369" lon="-2.33103">
        <ele>12.39999961853</ele>
        <time>2021-05-09T10:44:10.000Z</time>
      </trkpt>
      <trkpt lat="47.25364" lon="-2.33087">
        <ele>12.39999961853</ele>
        <time>2021-05-09T10:44:14.000Z</time>
      </trkpt>
      <trkpt lat="47.25351" lon="-2.33054">
        <ele>12.39999961853</ele>
        <time>2021-05-09T10:44:20.000Z</time>
      </trkpt>
      <trkpt lat="47.25346" lon="-2.33044">
        <ele>12.39999961853</ele>
        <time>2021-05-09T10:44:22.000Z</time>
      </trkpt>
      <trkpt lat="47.25335" lon="-2.33015">
        <ele>12.39999961853</ele>
        <time>2021-05-09T10:44:27.000Z</time>
      </trkpt>
      <trkpt lat="47.25326" lon="-2.32987">
        <ele>12.800000190735</ele>
        <time>2021-05-09T10:44:32.000Z</time>
      </trkpt>
      <trkpt lat="47.25324" lon="-2.32981">
        <ele>13.199999809265</ele>
        <time>2021-05-09T10:44:33.000Z</time>
      </trkpt>
      <trkpt lat="47.25322" lon="-2.32976">
        <ele>13.60000038147</ele>
        <time>2021-05-09T10:44:34.000Z</time>
      </trkpt>
      <trkpt lat="47.2532" lon="-2.3297">
        <ele>14</ele>
        <time>2021-05-09T10:44:35.000Z</time>
      </trkpt>
      <trkpt lat="47.25318" lon="-2.32965">
        <ele>14.39999961853</ele>
        <time>2021-05-09T10:44:36.000Z</time>
      </trkpt>
      <trkpt lat="47.25308" lon="-2.32928">
        <ele>14.39999961853</ele>
        <time>2021-05-09T10:44:43.000Z</time>
      </trkpt>
      <trkpt lat="47.2531" lon="-2.32918">
        <ele>14.39999961853</ele>
        <time>2021-05-09T10:44:45.000Z</time>
      </trkpt>
      <trkpt lat="47.25312" lon="-2.32915">
        <ele>14.39999961853</ele>
        <time>2021-05-09T10:44:46.000Z</time>
      </trkpt>
      <trkpt lat="47.25346" lon="-2.32886">
        <ele>14.39999961853</ele>
        <time>2021-05-09T10:44:55.000Z</time>
      </trkpt>
      <trkpt lat="47.25374" lon="-2.32859">
        <ele>14.39999961853</ele>
        <time>2021-05-09T10:45:02.000Z</time>
      </trkpt>
      <trkpt lat="47.25407" lon="-2.32817">
        <ele>14.39999961853</ele>
        <time>2021-05-09T10:45:11.000Z</time>
      </trkpt>
      <trkpt lat="47.25425" lon="-2.32786">
        <ele>14.39999961853</ele>
        <time>2021-05-09T10:45:17.000Z</time>
      </trkpt>
      <trkpt lat="47.25441" lon="-2.32749">
        <ele>14.39999961853</ele>
        <time>2021-05-09T10:45:24.000Z</time>
      </trkpt>
      <trkpt lat="47.25452" lon="-2.32733">
        <ele>14.800000190735</ele>
        <time>2021-05-09T10:45:27.000Z</time>
      </trkpt>
      <trkpt lat="47.25456" lon="-2.32728">
        <ele>15.60000038147</ele>
        <time>2021-05-09T10:45:28.000Z</time>
      </trkpt>
      <trkpt lat="47.25461" lon="-2.32723">
        <ele>16.200000762939</ele>
        <time>2021-05-09T10:45:29.000Z</time>
      </trkpt>
      <trkpt lat="47.25464" lon="-2.32718">
        <ele>16.60000038147</ele>
        <time>2021-05-09T10:45:30.000Z</time>
      </trkpt>
      <trkpt lat="47.25479" lon="-2.32697">
        <ele>16.60000038147</ele>
        <time>2021-05-09T10:45:34.000Z</time>
      </trkpt>
      <trkpt lat="47.25484" lon="-2.32684">
        <ele>16.60000038147</ele>
        <time>2021-05-09T10:45:36.000Z</time>
      </trkpt>
      <trkpt lat="47.25486" lon="-2.32662">
        <ele>16.60000038147</ele>
        <time>2021-05-09T10:45:39.000Z</time>
      </trkpt>
      <trkpt lat="47.25486" lon="-2.32655">
        <ele>16.60000038147</ele>
        <time>2021-05-09T10:45:40.000Z</time>
      </trkpt>
      <trkpt lat="47.25479" lon="-2.32598">
        <ele>16.60000038147</ele>
        <time>2021-05-09T10:45:48.000Z</time>
      </trkpt>
      <trkpt lat="47.25479" lon="-2.32591">
        <ele>16.60000038147</ele>
        <time>2021-05-09T10:45:49.000Z</time>
      </trkpt>
      <trkpt lat="47.25482" lon="-2.32566">
        <ele>16.60000038147</ele>
        <time>2021-05-09T10:45:53.000Z</time>
      </trkpt>
      <trkpt lat="47.25496" lon="-2.32547">
        <ele>16.60000038147</ele>
        <time>2021-05-09T10:45:57.000Z</time>
      </trkpt>
      <trkpt lat="47.255" lon="-2.32543">
        <ele>16.60000038147</ele>
        <time>2021-05-09T10:45:58.000Z</time>
      </trkpt>
      <trkpt lat="47.25526" lon="-2.32517">
        <ele>16.60000038147</ele>
        <time>2021-05-09T10:46:04.000Z</time>
      </trkpt>
      <trkpt lat="47.25561" lon="-2.32481">
        <ele>16.60000038147</ele>
        <time>2021-05-09T10:46:11.000Z</time>
      </trkpt>
      <trkpt lat="47.25584" lon="-2.32456">
        <ele>16.200000762939</ele>
        <time>2021-05-09T10:46:15.000Z</time>
      </trkpt>
      <trkpt lat="47.2559" lon="-2.3245">
        <ele>15.60000038147</ele>
        <time>2021-05-09T10:46:16.000Z</time>
      </trkpt>
      <trkpt lat="47.25596" lon="-2.32443">
        <ele>14.800000190735</ele>
        <time>2021-05-09T10:46:17.000Z</time>
      </trkpt>
      <trkpt lat="47.25601" lon="-2.32437">
        <ele>14.39999961853</ele>
        <time>2021-05-09T10:46:18.000Z</time>
      </trkpt>
      <trkpt lat="47.25621" lon="-2.32417">
        <ele>14</ele>
        <time>2021-05-09T10:46:21.000Z</time>
      </trkpt>
      <trkpt lat="47.25627" lon="-2.32412">
        <ele>13.60000038147</ele>
        <time>2021-05-09T10:46:22.000Z</time>
      </trkpt>
      <trkpt lat="47.25634" lon="-2.32407">
        <ele>13</ele>
        <time>2021-05-09T10:46:23.000Z</time>
      </trkpt>
      <trkpt lat="47.25639" lon="-2.32404">
        <ele>12.60000038147</ele>
        <time>2021-05-09T10:46:24.000Z</time>
      </trkpt>
      <trkpt lat="47.25643" lon="-2.32402">
        <ele>12.199999809265</ele>
        <time>2021-05-09T10:46:25.000Z</time>
      </trkpt>
      <trkpt lat="47.25648" lon="-2.32401">
        <ele>11.800000190735</ele>
        <time>2021-05-09T10:46:26.000Z</time>
      </trkpt>
      <trkpt lat="47.25652" lon="-2.324">
        <ele>11.39999961853</ele>
        <time>2021-05-09T10:46:27.000Z</time>
      </trkpt>
      <trkpt lat="47.25656" lon="-2.32401">
        <ele>11</ele>
        <time>2021-05-09T10:46:28.000Z</time>
      </trkpt>
      <trkpt lat="47.25661" lon="-2.32405">
        <ele>10.60000038147</ele>
        <time>2021-05-09T10:46:29.000Z</time>
      </trkpt>
      <trkpt lat="47.25665" lon="-2.32409">
        <ele>10.199999809265</ele>
        <time>2021-05-09T10:46:30.000Z</time>
      </trkpt>
      <trkpt lat="47.25674" lon="-2.32416">
        <ele>10.199999809265</ele>
        <time>2021-05-09T10:46:32.000Z</time>
      </trkpt>
      <trkpt lat="47.25685" lon="-2.32419">
        <ele>10.199999809265</ele>
        <time>2021-05-09T10:46:34.000Z</time>
      </trkpt>
      <trkpt lat="47.25698" lon="-2.32421">
        <ele>10.199999809265</ele>
        <time>2021-05-09T10:46:36.000Z</time>
      </trkpt>
      <trkpt lat="47.25742" lon="-2.32423">
        <ele>10.199999809265</ele>
        <time>2021-05-09T10:46:43.000Z</time>
      </trkpt>
      <trkpt lat="47.25754" lon="-2.32421">
        <ele>10.199999809265</ele>
        <time>2021-05-09T10:46:45.000Z</time>
      </trkpt>
      <trkpt lat="47.25769" lon="-2.32414">
        <ele>10.199999809265</ele>
        <time>2021-05-09T10:46:48.000Z</time>
      </trkpt>
      <trkpt lat="47.25779" lon="-2.32417">
        <ele>10.199999809265</ele>
        <time>2021-05-09T10:46:50.000Z</time>
      </trkpt>
      <trkpt lat="47.25787" lon="-2.32431">
        <ele>10.199999809265</ele>
        <time>2021-05-09T10:46:52.000Z</time>
      </trkpt>
      <trkpt lat="47.25796" lon="-2.32445">
        <ele>10.199999809265</ele>
        <time>2021-05-09T10:46:54.000Z</time>
      </trkpt>
      <trkpt lat="47.25821" lon="-2.32463">
        <ele>10.199999809265</ele>
        <time>2021-05-09T10:46:58.000Z</time>
      </trkpt>
      <trkpt lat="47.25842" lon="-2.32472">
        <ele>10.199999809265</ele>
        <time>2021-05-09T10:47:01.000Z</time>
      </trkpt>
      <trkpt lat="47.25856" lon="-2.32473">
        <ele>10.199999809265</ele>
        <time>2021-05-09T10:47:03.000Z</time>
      </trkpt>
      <trkpt lat="47.25875" lon="-2.32471">
        <ele>10.199999809265</ele>
        <time>2021-05-09T10:47:06.000Z</time>
      </trkpt>
      <trkpt lat="47.25888" lon="-2.32467">
        <ele>10.199999809265</ele>
        <time>2021-05-09T10:47:08.000Z</time>
      </trkpt>
      <trkpt lat="47.25905" lon="-2.32451">
        <ele>10.199999809265</ele>
        <time>2021-05-09T10:47:11.000Z</time>
      </trkpt>
      <trkpt lat="47.2591" lon="-2.32444">
        <ele>10.199999809265</ele>
        <time>2021-05-09T10:47:12.000Z</time>
      </trkpt>
      <trkpt lat="47.25918" lon="-2.32424">
        <ele>10.199999809265</ele>
        <time>2021-05-09T10:47:15.000Z</time>
      </trkpt>
      <trkpt lat="47.25924" lon="-2.32401">
        <ele>10.199999809265</ele>
        <time>2021-05-09T10:47:19.000Z</time>
      </trkpt>
      <trkpt lat="47.25927" lon="-2.32397">
        <ele>10.199999809265</ele>
        <time>2021-05-09T10:47:20.000Z</time>
      </trkpt>
      <trkpt lat="47.25934" lon="-2.32388">
        <ele>10.199999809265</ele>
        <time>2021-05-09T10:47:22.000Z</time>
      </trkpt>
      <trkpt lat="47.25944" lon="-2.32378">
        <ele>10.199999809265</ele>
        <time>2021-05-09T10:47:25.000Z</time>
      </trkpt>
      <trkpt lat="47.25963" lon="-2.32361">
        <ele>10.199999809265</ele>
        <time>2021-05-09T10:47:31.000Z</time>
      </trkpt>
      <trkpt lat="47.25964" lon="-2.32358">
        <ele>9.8000001907349</ele>
        <time>2021-05-09T10:47:32.000Z</time>
      </trkpt>
      <trkpt lat="47.25965" lon="-2.32356">
        <ele>9.3999996185303</ele>
        <time>2021-05-09T10:47:33.000Z</time>
      </trkpt>
      <trkpt lat="47.25966" lon="-2.32355">
        <ele>9</ele>
        <time>2021-05-09T10:47:34.000Z</time>
      </trkpt>
      <trkpt lat="47.25967" lon="-2.32356">
        <ele>8.6000003814697</ele>
        <time>2021-05-09T10:47:35.000Z</time>
      </trkpt>
      <trkpt lat="47.25968" lon="-2.32357">
        <ele>8.1999998092651</ele>
        <time>2021-05-09T10:47:36.000Z</time>
      </trkpt>
      <trkpt lat="47.25967" lon="-2.32362">
        <ele>8.1999998092651</ele>
        <time>2021-05-09T10:47:39.000Z</time>
      </trkpt>
      <trkpt lat="47.25964" lon="-2.32364">
        <ele>8.1999998092651</ele>
        <time>2021-05-09T10:47:41.000Z</time>
      </trkpt>
      <trkpt lat="47.25958" lon="-2.32369">
        <ele>8.1999998092651</ele>
        <time>2021-05-09T10:47:45.000Z</time>
      </trkpt>
      <trkpt lat="47.25944" lon="-2.32379">
        <ele>8.1999998092651</ele>
        <time>2021-05-09T10:47:51.000Z</time>
      </trkpt>
      <trkpt lat="47.25928" lon="-2.3239">
        <ele>8.1999998092651</ele>
        <time>2021-05-09T10:47:57.000Z</time>
      </trkpt>
      <trkpt lat="47.25915" lon="-2.32417">
        <ele>8.1999998092651</ele>
        <time>2021-05-09T10:48:04.000Z</time>
      </trkpt>
      <trkpt lat="47.25916" lon="-2.32431">
        <ele>8.1999998092651</ele>
        <time>2021-05-09T10:48:08.000Z</time>
      </trkpt>
      <trkpt lat="47.25921" lon="-2.32432">
        <ele>8.1999998092651</ele>
        <time>2021-05-09T10:48:11.000Z</time>
      </trkpt>
      <trkpt lat="47.25927" lon="-2.32421">
        <ele>8.1999998092651</ele>
        <time>2021-05-09T10:48:14.000Z</time>
      </trkpt>
      <trkpt lat="47.2593" lon="-2.32416">
        <ele>8.1999998092651</ele>
        <time>2021-05-09T10:48:15.000Z</time>
      </trkpt>
      <trkpt lat="47.2595" lon="-2.32389">
        <ele>8.1999998092651</ele>
        <time>2021-05-09T10:48:21.000Z</time>
      </trkpt>
      <trkpt lat="47.25983" lon="-2.32348">
        <ele>8.1999998092651</ele>
        <time>2021-05-09T10:48:30.000Z</time>
      </trkpt>
      <trkpt lat="47.26016" lon="-2.32303">
        <ele>8.1999998092651</ele>
        <time>2021-05-09T10:48:39.000Z</time>
      </trkpt>
      <trkpt lat="47.26043" lon="-2.32271">
        <ele>8.1999998092651</ele>
        <time>2021-05-09T10:48:46.000Z</time>
      </trkpt>
      <trkpt lat="47.26076" lon="-2.32233">
        <ele>8.1999998092651</ele>
        <time>2021-05-09T10:48:54.000Z</time>
      </trkpt>
      <trkpt lat="47.26101" lon="-2.32195">
        <ele>8.1999998092651</ele>
        <time>2021-05-09T10:49:01.000Z</time>
      </trkpt>
      <trkpt lat="47.26118" lon="-2.32157">
        <ele>8.1999998092651</ele>
        <time>2021-05-09T10:49:07.000Z</time>
      </trkpt>
      <trkpt lat="47.26137" lon="-2.32103">
        <ele>8.1999998092651</ele>
        <time>2021-05-09T10:49:15.000Z</time>
      </trkpt>
      <trkpt lat="47.26153" lon="-2.32049">
        <ele>8.1999998092651</ele>
        <time>2021-05-09T10:49:23.000Z</time>
      </trkpt>
      <trkpt lat="47.26163" lon="-2.32023">
        <ele>8.1999998092651</ele>
        <time>2021-05-09T10:49:28.000Z</time>
      </trkpt>
      <trkpt lat="47.26166" lon="-2.32021">
        <ele>8.1999998092651</ele>
        <time>2021-05-09T10:49:29.000Z</time>
      </trkpt>
      <trkpt lat="47.26172" lon="-2.32022">
        <ele>8.1999998092651</ele>
        <time>2021-05-09T10:49:31.000Z</time>
      </trkpt>
      <trkpt lat="47.26188" lon="-2.32027">
        <ele>8.1999998092651</ele>
        <time>2021-05-09T10:49:36.000Z</time>
      </trkpt>
      <trkpt lat="47.26192" lon="-2.32025">
        <ele>8.1999998092651</ele>
        <time>2021-05-09T10:49:38.000Z</time>
      </trkpt>
      <trkpt lat="47.26195" lon="-2.32019">
        <ele>8.1999998092651</ele>
        <time>2021-05-09T10:49:40.000Z</time>
      </trkpt>
      <trkpt lat="47.26198" lon="-2.32009">
        <ele>8.1999998092651</ele>
        <time>2021-05-09T10:49:43.000Z</time>
      </trkpt>
      <trkpt lat="47.26202" lon="-2.32005">
        <ele>8.1999998092651</ele>
        <time>2021-05-09T10:49:45.000Z</time>
      </trkpt>
      <trkpt lat="47.26207" lon="-2.31998">
        <ele>8.1999998092651</ele>
        <time>2021-05-09T10:49:47.000Z</time>
      </trkpt>
      <trkpt lat="47.26215" lon="-2.31991">
        <ele>8.1999998092651</ele>
        <time>2021-05-09T10:49:50.000Z</time>
      </trkpt>
      <trkpt lat="47.26225" lon="-2.31982">
        <ele>8.1999998092651</ele>
        <time>2021-05-09T10:49:54.000Z</time>
      </trkpt>
      <trkpt lat="47.26234" lon="-2.3197">
        <ele>8.1999998092651</ele>
        <time>2021-05-09T10:49:58.000Z</time>
      </trkpt>
      <trkpt lat="47.26237" lon="-2.31965">
        <ele>8.1999998092651</ele>
        <time>2021-05-09T10:49:59.000Z</time>
      </trkpt>
      <trkpt lat="47.26248" lon="-2.3194">
        <ele>8.1999998092651</ele>
        <time>2021-05-09T10:50:05.000Z</time>
      </trkpt>
      <trkpt lat="47.26257" lon="-2.31919">
        <ele>8.1999998092651</ele>
        <time>2021-05-09T10:50:10.000Z</time>
      </trkpt>
      <trkpt lat="47.26278" lon="-2.31898">
        <ele>8.1999998092651</ele>
        <time>2021-05-09T10:50:15.000Z</time>
      </trkpt>
      <trkpt lat="47.26295" lon="-2.31873">
        <ele>8.1999998092651</ele>
        <time>2021-05-09T10:50:19.000Z</time>
      </trkpt>
      <trkpt lat="47.26301" lon="-2.31829">
        <ele>8.1999998092651</ele>
        <time>2021-05-09T10:50:26.000Z</time>
      </trkpt>
      <trkpt lat="47.26303" lon="-2.31811">
        <ele>8.6000003814697</ele>
        <time>2021-05-09T10:50:29.000Z</time>
      </trkpt>
      <trkpt lat="47.26304" lon="-2.31804">
        <ele>9</ele>
        <time>2021-05-09T10:50:30.000Z</time>
      </trkpt>
      <trkpt lat="47.26304" lon="-2.31798">
        <ele>9.3999996185303</ele>
        <time>2021-05-09T10:50:31.000Z</time>
      </trkpt>
      <trkpt lat="47.26304" lon="-2.31792">
        <ele>9.8000001907349</ele>
        <time>2021-05-09T10:50:32.000Z</time>
      </trkpt>
      <trkpt lat="47.26304" lon="-2.31785">
        <ele>10.199999809265</ele>
        <time>2021-05-09T10:50:33.000Z</time>
      </trkpt>
      <trkpt lat="47.26302" lon="-2.31754">
        <ele>10.199999809265</ele>
        <time>2021-05-09T10:50:38.000Z</time>
      </trkpt>
      <trkpt lat="47.26303" lon="-2.3172">
        <ele>10.199999809265</ele>
        <time>2021-05-09T10:50:43.000Z</time>
      </trkpt>
      <trkpt lat="47.26309" lon="-2.31704">
        <ele>10.199999809265</ele>
        <time>2021-05-09T10:50:49.000Z</time>
      </trkpt>
      <trkpt lat="47.26316" lon="-2.31692">
        <ele>10.199999809265</ele>
        <time>2021-05-09T10:50:52.000Z</time>
      </trkpt>
      <trkpt lat="47.26319" lon="-2.3169">
        <ele>10.199999809265</ele>
        <time>2021-05-09T10:50:53.000Z</time>
      </trkpt>
      <trkpt lat="47.26337" lon="-2.31684">
        <ele>10.60000038147</ele>
        <time>2021-05-09T10:50:56.000Z</time>
      </trkpt>
      <trkpt lat="47.26342" lon="-2.31681">
        <ele>11</ele>
        <time>2021-05-09T10:50:57.000Z</time>
      </trkpt>
      <trkpt lat="47.26346" lon="-2.3168">
        <ele>11.60000038147</ele>
        <time>2021-05-09T10:50:58.000Z</time>
      </trkpt>
      <trkpt lat="47.2635" lon="-2.31678">
        <ele>12</ele>
        <time>2021-05-09T10:50:59.000Z</time>
      </trkpt>
      <trkpt lat="47.26354" lon="-2.31676">
        <ele>12.39999961853</ele>
        <time>2021-05-09T10:51:00.000Z</time>
      </trkpt>
      <trkpt lat="47.26373" lon="-2.31668">
        <ele>12.39999961853</ele>
        <time>2021-05-09T10:51:05.000Z</time>
      </trkpt>
      <trkpt lat="47.26396" lon="-2.31654">
        <ele>12.39999961853</ele>
        <time>2021-05-09T10:51:13.000Z</time>
      </trkpt>
      <trkpt lat="47.26404" lon="-2.31641">
        <ele>12.39999961853</ele>
        <time>2021-05-09T10:51:17.000Z</time>
      </trkpt>
      <trkpt lat="47.26404" lon="-2.31631">
        <ele>12.800000190735</ele>
        <time>2021-05-09T10:51:19.000Z</time>
      </trkpt>
      <trkpt lat="47.26405" lon="-2.31626">
        <ele>13.199999809265</ele>
        <time>2021-05-09T10:51:20.000Z</time>
      </trkpt>
      <trkpt lat="47.26404" lon="-2.31621">
        <ele>13.60000038147</ele>
        <time>2021-05-09T10:51:21.000Z</time>
      </trkpt>
      <trkpt lat="47.26404" lon="-2.31616">
        <ele>14</ele>
        <time>2021-05-09T10:51:22.000Z</time>
      </trkpt>
      <trkpt lat="47.26404" lon="-2.3161">
        <ele>14.39999961853</ele>
        <time>2021-05-09T10:51:23.000Z</time>
      </trkpt>
      <trkpt lat="47.26404" lon="-2.31595">
        <ele>14.39999961853</ele>
        <time>2021-05-09T10:51:26.000Z</time>
      </trkpt>
      <trkpt lat="47.26403" lon="-2.31569">
        <ele>14.39999961853</ele>
        <time>2021-05-09T10:51:32.000Z</time>
      </trkpt>
      <trkpt lat="47.26405" lon="-2.31555">
        <ele>14.39999961853</ele>
        <time>2021-05-09T10:51:35.000Z</time>
      </trkpt>
      <trkpt lat="47.26409" lon="-2.31554">
        <ele>14.39999961853</ele>
        <time>2021-05-09T10:51:37.000Z</time>
      </trkpt>
      <trkpt lat="47.26412" lon="-2.31553">
        <ele>14.39999961853</ele>
        <time>2021-05-09T10:51:40.000Z</time>
      </trkpt>
    </trkseg>
  </trk>
</gpx>